<?xml version='1.0' encoding='UTF-8'?><gpx version="1.1" creator="JPX - https://github.com/jenetics/jpx" xmlns="http://www.topografix.com/GPX/1/1"><trk><trkseg><trkpt lat="45.103570155025174" lon="8.317836342847452"><ele>149.0</ele><time>2026-04-10T08:40:39Z</time></trkpt><trkpt lat="45.10364689484361" lon="8.317860306996405"><ele>149.0</ele><time>2026-04-10T08:40:41Z</time></trkpt><trkpt lat="45.10364011573128" lon="8.317741899096646"><ele>149.0</ele><time>2026-04-10T08:41:32Z</time></trkpt><trkpt lat="45.10357955120108" lon="8.317789040026796"><ele>149.0</ele><time>2026-04-10T08:41:45.001Z</time></trkpt><trkpt lat="45.10350475158019" lon="8.317762511946684"><ele>149.0</ele><time>2026-04-10T08:41:49.001Z</time></trkpt><trkpt lat="45.103426698460005" lon="8.317727816749146"><ele>149.0</ele><time>2026-04-10T08:41:53.001Z</time></trkpt><trkpt lat="45.103346508966624" lon="8.317708617693835"><ele>149.0</ele><time>2026-04-10T08:41:57.001Z</time></trkpt><trkpt lat="45.103274449618354" lon="8.317680288485928"><ele>149.0</ele><time>2026-04-10T08:42:00.001Z</time></trkpt><trkpt lat="45.10320608649559" lon="8.31765404060157"><ele>149.0</ele><time>2026-04-10T08:42:03.001Z</time></trkpt><trkpt lat="45.10312729438633" lon="8.31763486671145"><ele>149.0</ele><time>2026-04-10T08:42:06.001Z</time></trkpt><trkpt lat="45.10305528455925" lon="8.317614054015003"><ele>149.0</ele><time>2026-04-10T08:42:09.001Z</time></trkpt><trkpt lat="45.10298800160341" lon="8.317550838397418"><ele>149.0</ele><time>2026-04-10T08:42:12.001Z</time></trkpt><trkpt lat="45.102985540234286" lon="8.317444612336747"><ele>149.0</ele><time>2026-04-10T08:42:14.001Z</time></trkpt><trkpt lat="45.10301320063237" lon="8.317354320707587"><ele>149.0</ele><time>2026-04-10T08:42:17.001Z</time></trkpt><trkpt lat="45.10306864076606" lon="8.31729299492543"><ele>149.0</ele><time>2026-04-10T08:42:20.001Z</time></trkpt><trkpt lat="45.10313709455413" lon="8.317302291121397"><ele>149.0</ele><time>2026-04-10T08:42:22.001Z</time></trkpt><trkpt lat="45.10320451394268" lon="8.317304183272233"><ele>149.0</ele><time>2026-04-10T08:42:24.001Z</time></trkpt><trkpt lat="45.10327117062575" lon="8.317314123561308"><ele>149.0</ele><time>2026-04-10T08:42:26.001Z</time></trkpt><trkpt lat="45.103343454538454" lon="8.317324429828654"><ele>149.0</ele><time>2026-04-10T08:42:28.001Z</time></trkpt><trkpt lat="45.10341321985183" lon="8.317342850453779"><ele>149.0</ele><time>2026-04-10T08:42:30.001Z</time></trkpt><trkpt lat="45.10348302860789" lon="8.317369101162077"><ele>149.0</ele><time>2026-04-10T08:42:32.001Z</time></trkpt><trkpt lat="45.103544648266535" lon="8.317420980361929"><ele>149.0</ele><time>2026-04-10T08:42:34.001Z</time></trkpt><trkpt lat="45.103603324970734" lon="8.317490079220645"><ele>149.0</ele><time>2026-04-10T08:42:36.001Z</time></trkpt><trkpt lat="45.10367328373069" lon="8.317547858270176"><ele>149.0</ele><time>2026-04-10T08:42:38.001Z</time></trkpt><trkpt lat="45.10375269692026" lon="8.317630683448266"><ele>149.0</ele><time>2026-04-10T08:42:40.001Z</time></trkpt><trkpt lat="45.10383337024576" lon="8.317711734557607"><ele>149.0</ele><time>2026-04-10T08:42:42.001Z</time></trkpt><trkpt lat="45.10390960520149" lon="8.317788070832275"><ele>149.0</ele><time>2026-04-10T08:42:44Z</time></trkpt><trkpt lat="45.10398745250844" lon="8.31786251796758"><ele>149.0</ele><time>2026-04-10T08:42:46Z</time></trkpt><trkpt lat="45.104061480317164" lon="8.31792037065799"><ele>149.0</ele><time>2026-04-10T08:42:48Z</time></trkpt><trkpt lat="45.104134618379796" lon="8.317994590584977"><ele>149.0</ele><time>2026-04-10T08:42:50Z</time></trkpt><trkpt lat="45.10421494888214" lon="8.318058754563276"><ele>147.83333333333331</ele><time>2026-04-10T08:42:52Z</time></trkpt><trkpt lat="45.104286781042816" lon="8.318131804316081"><ele>146.66666666666666</ele><time>2026-04-10T08:42:54Z</time></trkpt><trkpt lat="45.104359500928894" lon="8.318196220377839"><ele>145.5</ele><time>2026-04-10T08:42:56Z</time></trkpt><trkpt lat="45.10442922087996" lon="8.318262191668495"><ele>144.33333333333334</ele><time>2026-04-10T08:42:58Z</time></trkpt><trkpt lat="45.10449848439527" lon="8.318324073084977"><ele>143.16666666666669</ele><time>2026-04-10T08:43:00Z</time></trkpt><trkpt lat="45.104561588803286" lon="8.318383981818602"><ele>142.0</ele><time>2026-04-10T08:43:02Z</time></trkpt><trkpt lat="45.104622113650905" lon="8.318442636422368"><ele>142.0</ele><time>2026-04-10T08:43:04Z</time></trkpt><trkpt lat="45.10468108740953" lon="8.31849719536805"><ele>142.0</ele><time>2026-04-10T08:43:06Z</time></trkpt><trkpt lat="45.10473279160833" lon="8.318566991828813"><ele>142.0</ele><time>2026-04-10T08:43:08Z</time></trkpt><trkpt lat="45.104797515091185" lon="8.318605152920899"><ele>142.0</ele><time>2026-04-10T08:43:10Z</time></trkpt><trkpt lat="45.10486542776568" lon="8.318529724700504"><ele>142.0</ele><time>2026-04-10T08:43:13Z</time></trkpt><trkpt lat="45.10486640091341" lon="8.318409690215308"><ele>142.0</ele><time>2026-04-10T08:43:15Z</time></trkpt><trkpt lat="45.104834971167875" lon="8.318274228124285"><ele>142.0</ele><time>2026-04-10T08:43:17Z</time></trkpt><trkpt lat="45.10480208228307" lon="8.318114272043983"><ele>142.0</ele><time>2026-04-10T08:43:19Z</time></trkpt><trkpt lat="45.104768248654224" lon="8.317951263395038"><ele>142.0</ele><time>2026-04-10T08:43:21Z</time></trkpt><trkpt lat="45.10473853773327" lon="8.31780406259866"><ele>142.0</ele><time>2026-04-10T08:43:23Z</time></trkpt><trkpt lat="45.104711112639954" lon="8.317663849299855"><ele>142.0</ele><time>2026-04-10T08:43:25Z</time></trkpt><trkpt lat="45.104680116712586" lon="8.317507363833148"><ele>142.0</ele><time>2026-04-10T08:43:27Z</time></trkpt><trkpt lat="45.10464591830218" lon="8.317352866448584"><ele>142.0</ele><time>2026-04-10T08:43:29.001Z</time></trkpt><trkpt lat="45.10461750633104" lon="8.317203073225341"><ele>142.0</ele><time>2026-04-10T08:43:31.001Z</time></trkpt><trkpt lat="45.10458502499199" lon="8.317052003285253"><ele>142.0</ele><time>2026-04-10T08:43:33.001Z</time></trkpt><trkpt lat="45.10454786293565" lon="8.316894193831555"><ele>142.0</ele><time>2026-04-10T08:43:35.001Z</time></trkpt><trkpt lat="45.10452018086478" lon="8.316731188286349"><ele>142.0</ele><time>2026-04-10T08:43:37.001Z</time></trkpt><trkpt lat="45.10448360182293" lon="8.316572451743966"><ele>142.0</ele><time>2026-04-10T08:43:39.001Z</time></trkpt><trkpt lat="45.10445081811387" lon="8.316417882318945"><ele>142.0</ele><time>2026-04-10T08:43:41.001Z</time></trkpt><trkpt lat="45.10442271362081" lon="8.316269859574223"><ele>142.2</ele><time>2026-04-10T08:43:43.001Z</time></trkpt><trkpt lat="45.1043936967529" lon="8.316118282035575"><ele>142.39999999999998</ele><time>2026-04-10T08:43:45.001Z</time></trkpt><trkpt lat="45.10436376688814" lon="8.31596710971737"><ele>142.60000000000002</ele><time>2026-04-10T08:43:47.001Z</time></trkpt><trkpt lat="45.10432452159462" lon="8.315820750249646"><ele>142.8</ele><time>2026-04-10T08:43:49.001Z</time></trkpt><trkpt lat="45.10428959277706" lon="8.315672237983067"><ele>143.0</ele><time>2026-04-10T08:43:51.001Z</time></trkpt><trkpt lat="45.1042605712047" lon="8.315521901641228"><ele>143.0</ele><time>2026-04-10T08:43:53.001Z</time></trkpt><trkpt lat="45.104229121484195" lon="8.315368604362531"><ele>143.0</ele><time>2026-04-10T08:43:55.001Z</time></trkpt><trkpt lat="45.104195803844796" lon="8.315212314371383"><ele>143.0</ele><time>2026-04-10T08:43:57.001Z</time></trkpt><trkpt lat="45.104161157679265" lon="8.315051131678374"><ele>143.0</ele><time>2026-04-10T08:43:59.001Z</time></trkpt><trkpt lat="45.10412745320187" lon="8.314889697844263"><ele>143.0</ele><time>2026-04-10T08:44:01.001Z</time></trkpt><trkpt lat="45.1040938564144" lon="8.314728772983749"><ele>143.0</ele><time>2026-04-10T08:44:03.001Z</time></trkpt><trkpt lat="45.104058143604476" lon="8.314565986333987"><ele>143.0</ele><time>2026-04-10T08:44:05.001Z</time></trkpt><trkpt lat="45.10402644470789" lon="8.314403892421764"><ele>143.0</ele><time>2026-04-10T08:44:07.001Z</time></trkpt><trkpt lat="45.10399298468709" lon="8.314252596786222"><ele>143.0</ele><time>2026-04-10T08:44:09.001Z</time></trkpt><trkpt lat="45.10396157065217" lon="8.314098229064477"><ele>143.0</ele><time>2026-04-10T08:44:11.001Z</time></trkpt><trkpt lat="45.103928206691066" lon="8.313949720486328"><ele>143.0</ele><time>2026-04-10T08:44:13.001Z</time></trkpt><trkpt lat="45.103896032067084" lon="8.313798528354834"><ele>143.0</ele><time>2026-04-10T08:44:15.001Z</time></trkpt><trkpt lat="45.10386616848505" lon="8.31365029732573"><ele>143.0</ele><time>2026-04-10T08:44:17.001Z</time></trkpt><trkpt lat="45.103839386925806" lon="8.313517541307432"><ele>143.16666666666666</ele><time>2026-04-10T08:44:19.001Z</time></trkpt><trkpt lat="45.103807479067825" lon="8.313398020012045"><ele>143.33333333333331</ele><time>2026-04-10T08:44:21.001Z</time></trkpt><trkpt lat="45.103781556654845" lon="8.313290905575903"><ele>143.5</ele><time>2026-04-10T08:44:22.999Z</time></trkpt><trkpt lat="45.103758778566466" lon="8.313194833782429"><ele>143.66666666666666</ele><time>2026-04-10T08:44:24.999Z</time></trkpt><trkpt lat="45.103732926238614" lon="8.313094339382474"><ele>143.83333333333334</ele><time>2026-04-10T08:44:27.999Z</time></trkpt><trkpt lat="45.103702067421" lon="8.31299689740886"><ele>144.0</ele><time>2026-04-10T08:45:31Z</time></trkpt><trkpt lat="45.10368933316872" lon="8.31289118515778"><ele>144.0</ele><time>2026-04-10T08:45:33Z</time></trkpt><trkpt lat="45.103658073624686" lon="8.312774211485703"><ele>144.0</ele><time>2026-04-10T08:45:35Z</time></trkpt><trkpt lat="45.10362962550835" lon="8.312634350479406"><ele>144.0</ele><time>2026-04-10T08:45:37Z</time></trkpt><trkpt lat="45.10359768798371" lon="8.312490790878725"><ele>144.0</ele><time>2026-04-10T08:45:39Z</time></trkpt><trkpt lat="45.10356982125434" lon="8.312346777020249"><ele>144.0</ele><time>2026-04-10T08:45:41Z</time></trkpt><trkpt lat="45.10355527968992" lon="8.31221665750571"><ele>144.0</ele><time>2026-04-10T08:45:43Z</time></trkpt><trkpt lat="45.10355298976615" lon="8.312087448660948"><ele>144.0</ele><time>2026-04-10T08:45:45Z</time></trkpt><trkpt lat="45.103524681702446" lon="8.311952177217366"><ele>144.0</ele><time>2026-04-10T08:45:47Z</time></trkpt><trkpt lat="45.10349572232376" lon="8.311813786667997"><ele>144.0</ele><time>2026-04-10T08:45:49Z</time></trkpt><trkpt lat="45.10346824067125" lon="8.31168070051074"><ele>144.0</ele><time>2026-04-10T08:45:51Z</time></trkpt><trkpt lat="45.10344102497141" lon="8.311547073969406"><ele>144.0</ele><time>2026-04-10T08:45:53Z</time></trkpt><trkpt lat="45.10340843634288" lon="8.311429774386339"><ele>144.0</ele><time>2026-04-10T08:45:55Z</time></trkpt><trkpt lat="45.10338313692907" lon="8.31130864807931"><ele>144.0</ele><time>2026-04-10T08:45:57Z</time></trkpt><trkpt lat="45.10334419319008" lon="8.311175296291047"><ele>144.0</ele><time>2026-04-10T08:45:59Z</time></trkpt><trkpt lat="45.10330321162837" lon="8.311036275249153"><ele>144.0</ele><time>2026-04-10T08:46:01Z</time></trkpt><trkpt lat="45.10325350931856" lon="8.310914153752163"><ele>144.4</ele><time>2026-04-10T08:46:03Z</time></trkpt><trkpt lat="45.10319925008665" lon="8.310767727035534"><ele>144.8</ele><time>2026-04-10T08:46:05Z</time></trkpt><trkpt lat="45.10315186448303" lon="8.310625548506561"><ele>145.2</ele><time>2026-04-10T08:46:07Z</time></trkpt><trkpt lat="45.10308409609585" lon="8.310505156909482"><ele>145.6</ele><time>2026-04-10T08:46:09Z</time></trkpt><trkpt lat="45.10302400723092" lon="8.310375584954759"><ele>146.0</ele><time>2026-04-10T08:46:11Z</time></trkpt><trkpt lat="45.102955522559476" lon="8.310244266098477"><ele>146.0</ele><time>2026-04-10T08:46:13Z</time></trkpt><trkpt lat="45.102890711819335" lon="8.310111336778299"><ele>146.0</ele><time>2026-04-10T08:46:15Z</time></trkpt><trkpt lat="45.10281201999256" lon="8.309988361967376"><ele>146.0</ele><time>2026-04-10T08:46:17Z</time></trkpt><trkpt lat="45.102733872025794" lon="8.309873096844976"><ele>146.0</ele><time>2026-04-10T08:46:19Z</time></trkpt><trkpt lat="45.10265275492922" lon="8.30975845386991"><ele>145.8</ele><time>2026-04-10T08:46:21Z</time></trkpt><trkpt lat="45.10256787359505" lon="8.309659563158888"><ele>145.6</ele><time>2026-04-10T08:46:23Z</time></trkpt><trkpt lat="45.1024807017508" lon="8.309562458338416"><ele>145.4</ele><time>2026-04-10T08:46:25Z</time></trkpt><trkpt lat="45.102388138989895" lon="8.30947325761102"><ele>145.2</ele><time>2026-04-10T08:46:27Z</time></trkpt><trkpt lat="45.1022986033566" lon="8.309398913031318"><ele>145.0</ele><time>2026-04-10T08:46:28.999Z</time></trkpt><trkpt lat="45.10219614171151" lon="8.309333725152268"><ele>145.2</ele><time>2026-04-10T08:46:30.999Z</time></trkpt><trkpt lat="45.10211302430974" lon="8.309255486602197"><ele>145.4</ele><time>2026-04-10T08:46:32.999Z</time></trkpt><trkpt lat="45.10213424913643" lon="8.309109372546022"><ele>145.6</ele><time>2026-04-10T08:46:34.999Z</time></trkpt><trkpt lat="45.1021409042755" lon="8.3089485761755"><ele>145.8</ele><time>2026-04-10T08:46:36.999Z</time></trkpt><trkpt lat="45.10216613679594" lon="8.308796387015033"><ele>146.0</ele><time>2026-04-10T08:46:38.999Z</time></trkpt><trkpt lat="45.10217949326378" lon="8.308656459687542"><ele>146.0</ele><time>2026-04-10T08:46:40.999Z</time></trkpt><trkpt lat="45.10219348473818" lon="8.308510806748464"><ele>146.0</ele><time>2026-04-10T08:46:42.999Z</time></trkpt><trkpt lat="45.10220816240201" lon="8.308378774223797"><ele>146.0</ele><time>2026-04-10T08:46:44.999Z</time></trkpt><trkpt lat="45.102224828752085" lon="8.308242375654993"><ele>146.0</ele><time>2026-04-10T08:46:46.999Z</time></trkpt><trkpt lat="45.1022392879677" lon="8.308092877281027"><ele>146.0</ele><time>2026-04-10T08:46:48.999Z</time></trkpt><trkpt lat="45.1022546047609" lon="8.3079404392213"><ele>146.2</ele><time>2026-04-10T08:46:50.999Z</time></trkpt><trkpt lat="45.10227883059177" lon="8.307798604414446"><ele>146.39999999999998</ele><time>2026-04-10T08:46:52.999Z</time></trkpt><trkpt lat="45.10230500203175" lon="8.307661922956203"><ele>146.6</ele><time>2026-04-10T08:46:54.999Z</time></trkpt><trkpt lat="45.10234688308244" lon="8.307539193896984"><ele>146.79999999999998</ele><time>2026-04-10T08:46:56.999Z</time></trkpt><trkpt lat="45.10238171914761" lon="8.307416896084504"><ele>147.0</ele><time>2026-04-10T08:46:58.999Z</time></trkpt><trkpt lat="45.10243761787619" lon="8.307296400140064"><ele>146.79999999999998</ele><time>2026-04-10T08:47:00.999Z</time></trkpt><trkpt lat="45.1025322274177" lon="8.307189577894633"><ele>146.6</ele><time>2026-04-10T08:47:04Z</time></trkpt><trkpt lat="45.102539828877134" lon="8.307038707041613"><ele>146.39999999999998</ele><time>2026-04-10T08:47:07Z</time></trkpt><trkpt lat="45.10251377126209" lon="8.306922703992399"><ele>146.2</ele><time>2026-04-10T08:47:09Z</time></trkpt><trkpt lat="45.10248390416429" lon="8.306812603199269"><ele>146.0</ele><time>2026-04-10T08:47:11Z</time></trkpt><trkpt lat="45.10245097967471" lon="8.306696751012618"><ele>146.0</ele><time>2026-04-10T08:47:13Z</time></trkpt><trkpt lat="45.10241546157416" lon="8.306576084422128"><ele>146.0</ele><time>2026-04-10T08:47:15Z</time></trkpt><trkpt lat="45.102380969574575" lon="8.306457008740324"><ele>146.0</ele><time>2026-04-10T08:47:17Z</time></trkpt><trkpt lat="45.102357820872534" lon="8.306346918839049"><ele>146.0</ele><time>2026-04-10T08:47:19Z</time></trkpt><trkpt lat="45.10232539664393" lon="8.306226765429004"><ele>146.0</ele><time>2026-04-10T08:47:21Z</time></trkpt><trkpt lat="45.102294145363906" lon="8.306102211431586"><ele>146.0</ele><time>2026-04-10T08:47:23Z</time></trkpt><trkpt lat="45.10226371460593" lon="8.305989942302418"><ele>145.8</ele><time>2026-04-10T08:47:25Z</time></trkpt><trkpt lat="45.10222750947521" lon="8.305866128618673"><ele>145.6</ele><time>2026-04-10T08:47:27Z</time></trkpt><trkpt lat="45.10219513697869" lon="8.30573578178945"><ele>145.4</ele><time>2026-04-10T08:47:29Z</time></trkpt><trkpt lat="45.10215952657365" lon="8.305607164105007"><ele>145.2</ele><time>2026-04-10T08:47:31Z</time></trkpt><trkpt lat="45.10212398903486" lon="8.305476675412107"><ele>145.0</ele><time>2026-04-10T08:47:33Z</time></trkpt><trkpt lat="45.10208618447968" lon="8.305348091451762"><ele>145.0</ele><time>2026-04-10T08:47:35Z</time></trkpt><trkpt lat="45.10205195447599" lon="8.30522052496017"><ele>145.0</ele><time>2026-04-10T08:47:37Z</time></trkpt><trkpt lat="45.10201948885055" lon="8.305099484766492"><ele>145.0</ele><time>2026-04-10T08:47:39Z</time></trkpt><trkpt lat="45.10198580142818" lon="8.304983017493367"><ele>145.0</ele><time>2026-04-10T08:47:41Z</time></trkpt><trkpt lat="45.10195879734934" lon="8.30487806042955"><ele>145.0</ele><time>2026-04-10T08:47:43Z</time></trkpt><trkpt lat="45.10192691753578" lon="8.304761996909669"><ele>145.0</ele><time>2026-04-10T08:47:45Z</time></trkpt><trkpt lat="45.101893960863706" lon="8.304639398096134"><ele>145.4</ele><time>2026-04-10T08:47:47Z</time></trkpt><trkpt lat="45.101859796869974" lon="8.304512550042563"><ele>145.8</ele><time>2026-04-10T08:47:49Z</time></trkpt><trkpt lat="45.101827644933486" lon="8.304380185112938"><ele>146.2</ele><time>2026-04-10T08:47:51Z</time></trkpt><trkpt lat="45.101788078015" lon="8.30425106885908"><ele>146.6</ele><time>2026-04-10T08:47:53Z</time></trkpt><trkpt lat="45.10175052004452" lon="8.304110417887397"><ele>147.0</ele><time>2026-04-10T08:47:55Z</time></trkpt><trkpt lat="45.101718829528366" lon="8.303966185496101"><ele>147.2</ele><time>2026-04-10T08:47:57Z</time></trkpt><trkpt lat="45.101681387031235" lon="8.30382180463861"><ele>147.39999999999998</ele><time>2026-04-10T08:47:59Z</time></trkpt><trkpt lat="45.10164531528587" lon="8.303678250280829"><ele>147.60000000000002</ele><time>2026-04-10T08:48:01Z</time></trkpt><trkpt lat="45.10160732633555" lon="8.303537314078618"><ele>147.8</ele><time>2026-04-10T08:48:03Z</time></trkpt><trkpt lat="45.10157265194761" lon="8.30340291437541"><ele>148.0</ele><time>2026-04-10T08:48:05Z</time></trkpt><trkpt lat="45.10154021264386" lon="8.303268442894991"><ele>148.0</ele><time>2026-04-10T08:48:07Z</time></trkpt><trkpt lat="45.10150744668666" lon="8.303132082168991"><ele>148.0</ele><time>2026-04-10T08:48:09Z</time></trkpt><trkpt lat="45.10146897515879" lon="8.302995244135477"><ele>148.0</ele><time>2026-04-10T08:48:11Z</time></trkpt><trkpt lat="45.10143345456047" lon="8.302860343777775"><ele>148.0</ele><time>2026-04-10T08:48:13Z</time></trkpt><trkpt lat="45.10139854408925" lon="8.302728498181672"><ele>148.0</ele><time>2026-04-10T08:48:15Z</time></trkpt><trkpt lat="45.10136765449903" lon="8.302595540113291"><ele>148.8</ele><time>2026-04-10T08:48:17Z</time></trkpt><trkpt lat="45.10134111072553" lon="8.302472866972423"><ele>149.60000000000002</ele><time>2026-04-10T08:48:19Z</time></trkpt><trkpt lat="45.10130840992316" lon="8.302347575797711"><ele>150.39999999999998</ele><time>2026-04-10T08:48:21Z</time></trkpt><trkpt lat="45.101278216312444" lon="8.302228093021581"><ele>151.2</ele><time>2026-04-10T08:48:23Z</time></trkpt><trkpt lat="45.101242276893366" lon="8.302111601927786"><ele>152.0</ele><time>2026-04-10T08:48:25Z</time></trkpt><trkpt lat="45.10120777742931" lon="8.301979997680773"><ele>152.2</ele><time>2026-04-10T08:48:27Z</time></trkpt><trkpt lat="45.10117349764495" lon="8.301845376410592"><ele>152.39999999999998</ele><time>2026-04-10T08:48:29Z</time></trkpt><trkpt lat="45.101137365338815" lon="8.301710890189797"><ele>152.60000000000002</ele><time>2026-04-10T08:48:31Z</time></trkpt><trkpt lat="45.101100401705686" lon="8.301571605007418"><ele>152.8</ele><time>2026-04-10T08:48:33Z</time></trkpt><trkpt lat="45.10106215732167" lon="8.301428332470929"><ele>153.0</ele><time>2026-04-10T08:48:34.998Z</time></trkpt><trkpt lat="45.10102210376405" lon="8.301288857084865"><ele>153.20000000000002</ele><time>2026-04-10T08:48:36.998Z</time></trkpt><trkpt lat="45.10097996342543" lon="8.301145768303174"><ele>153.4</ele><time>2026-04-10T08:48:38.998Z</time></trkpt><trkpt lat="45.10094573926006" lon="8.30100107395382"><ele>153.60000000000002</ele><time>2026-04-10T08:48:40.998Z</time></trkpt><trkpt lat="45.100908686215185" lon="8.300855323053337"><ele>153.8</ele><time>2026-04-10T08:48:42.998Z</time></trkpt><trkpt lat="45.10086783470503" lon="8.300718125410215"><ele>154.0</ele><time>2026-04-10T08:48:44.998Z</time></trkpt><trkpt lat="45.10083425649365" lon="8.300573749300819"><ele>154.8</ele><time>2026-04-10T08:48:46.998Z</time></trkpt><trkpt lat="45.10080863228902" lon="8.30043862517014"><ele>155.60000000000002</ele><time>2026-04-10T08:48:48.999Z</time></trkpt><trkpt lat="45.10076817907935" lon="8.300303881261994"><ele>156.4</ele><time>2026-04-10T08:48:50.999Z</time></trkpt><trkpt lat="45.100733890089074" lon="8.300160629068252"><ele>157.20000000000002</ele><time>2026-04-10T08:48:52.999Z</time></trkpt><trkpt lat="45.10069904092318" lon="8.30001400693494"><ele>158.0</ele><time>2026-04-10T08:48:54.999Z</time></trkpt><trkpt lat="45.10066406538171" lon="8.299868909880347"><ele>158.20000000000002</ele><time>2026-04-10T08:48:56.999Z</time></trkpt><trkpt lat="45.10062427177231" lon="8.299728862817984"><ele>158.4</ele><time>2026-04-10T08:48:58.999Z</time></trkpt><trkpt lat="45.10059061366234" lon="8.299578824975837"><ele>158.60000000000002</ele><time>2026-04-10T08:49:00.999Z</time></trkpt><trkpt lat="45.10054941879298" lon="8.299432688716704"><ele>158.8</ele><time>2026-04-10T08:49:02.999Z</time></trkpt><trkpt lat="45.10051486044996" lon="8.299300157275463"><ele>159.0</ele><time>2026-04-10T08:49:04.999Z</time></trkpt><trkpt lat="45.10048325322996" lon="8.299165763349055"><ele>159.0</ele><time>2026-04-10T08:49:06.999Z</time></trkpt><trkpt lat="45.10044496268699" lon="8.299030239528218"><ele>159.0</ele><time>2026-04-10T08:49:08.999Z</time></trkpt><trkpt lat="45.10040885772178" lon="8.298890027050293"><ele>159.0</ele><time>2026-04-10T08:49:10.999Z</time></trkpt><trkpt lat="45.10037129389208" lon="8.298750899744157"><ele>159.0</ele><time>2026-04-10T08:49:12.999Z</time></trkpt><trkpt lat="45.10033658943831" lon="8.29860960353537"><ele>159.0</ele><time>2026-04-10T08:49:14.999Z</time></trkpt><trkpt lat="45.100303366625816" lon="8.29846496618696"><ele>159.2</ele><time>2026-04-10T08:49:16.999Z</time></trkpt><trkpt lat="45.10026206350721" lon="8.298325137703564"><ele>159.4</ele><time>2026-04-10T08:49:19Z</time></trkpt><trkpt lat="45.10022608780675" lon="8.2981855740262"><ele>159.6</ele><time>2026-04-10T08:49:21Z</time></trkpt><trkpt lat="45.10019183368525" lon="8.298049524898712"><ele>159.8</ele><time>2026-04-10T08:49:23Z</time></trkpt><trkpt lat="45.100158209881144" lon="8.29792475487516"><ele>160.0</ele><time>2026-04-10T08:49:25Z</time></trkpt><trkpt lat="45.100126272698944" lon="8.29780601689531"><ele>160.4</ele><time>2026-04-10T08:49:27Z</time></trkpt><trkpt lat="45.10009178656233" lon="8.297679474186113"><ele>160.8</ele><time>2026-04-10T08:49:29Z</time></trkpt><trkpt lat="45.10005555562735" lon="8.297551235537464"><ele>161.2</ele><time>2026-04-10T08:49:31Z</time></trkpt><trkpt lat="45.10001687103197" lon="8.297415079964567"><ele>161.6</ele><time>2026-04-10T08:49:33Z</time></trkpt><trkpt lat="45.09998091835144" lon="8.29727703519044"><ele>162.0</ele><time>2026-04-10T08:49:35Z</time></trkpt><trkpt lat="45.09994791972286" lon="8.297136105978185"><ele>163.0</ele><time>2026-04-10T08:49:37Z</time></trkpt><trkpt lat="45.09991162012534" lon="8.296997796478985"><ele>164.0</ele><time>2026-04-10T08:49:39Z</time></trkpt><trkpt lat="45.09987524980371" lon="8.296867672538667"><ele>165.0</ele><time>2026-04-10T08:49:41Z</time></trkpt><trkpt lat="45.09984577797301" lon="8.29674172539112"><ele>166.0</ele><time>2026-04-10T08:49:43Z</time></trkpt><trkpt lat="45.09981589933633" lon="8.296613929249899"><ele>167.0</ele><time>2026-04-10T08:49:45Z</time></trkpt><trkpt lat="45.0997805664658" lon="8.296493600010665"><ele>167.8</ele><time>2026-04-10T08:49:47Z</time></trkpt><trkpt lat="45.09975018750075" lon="8.296371542136203"><ele>168.6</ele><time>2026-04-10T08:49:49Z</time></trkpt><trkpt lat="45.09971720169833" lon="8.296241849367004"><ele>169.4</ele><time>2026-04-10T08:49:51Z</time></trkpt><trkpt lat="45.099691482523035" lon="8.296116806967726"><ele>170.20000000000002</ele><time>2026-04-10T08:49:53Z</time></trkpt><trkpt lat="45.09965993888924" lon="8.295991043964344"><ele>171.0</ele><time>2026-04-10T08:49:55Z</time></trkpt><trkpt lat="45.099619525461804" lon="8.295869230130732"><ele>171.0</ele><time>2026-04-10T08:49:57Z</time></trkpt><trkpt lat="45.0995879618213" lon="8.295735507809225"><ele>171.0</ele><time>2026-04-10T08:49:59Z</time></trkpt><trkpt lat="45.099553286791014" lon="8.295609655376774"><ele>171.0</ele><time>2026-04-10T08:50:01Z</time></trkpt><trkpt lat="45.099518889474005" lon="8.295490808061281"><ele>171.0</ele><time>2026-04-10T08:50:03Z</time></trkpt><trkpt lat="45.09949048606968" lon="8.295360327822772"><ele>171.0</ele><time>2026-04-10T08:50:05Z</time></trkpt><trkpt lat="45.099453431181175" lon="8.295235714264937"><ele>171.4</ele><time>2026-04-10T08:50:07Z</time></trkpt><trkpt lat="45.099420644977684" lon="8.295109574604234"><ele>171.8</ele><time>2026-04-10T08:50:09Z</time></trkpt><trkpt lat="45.09938967931498" lon="8.294990297827505"><ele>172.20000000000002</ele><time>2026-04-10T08:50:11Z</time></trkpt><trkpt lat="45.09936135774009" lon="8.294863058238697"><ele>172.60000000000002</ele><time>2026-04-10T08:50:13Z</time></trkpt><trkpt lat="45.09933102854019" lon="8.294741397773791"><ele>173.0</ele><time>2026-04-10T08:50:15Z</time></trkpt><trkpt lat="45.09929789496435" lon="8.294638675564647"><ele>173.5</ele><time>2026-04-10T08:50:17Z</time></trkpt><trkpt lat="45.0992735394774" lon="8.294533492190828"><ele>174.0</ele><time>2026-04-10T08:50:19Z</time></trkpt><trkpt lat="45.099241070349734" lon="8.29442271375127"><ele>174.5</ele><time>2026-04-10T08:50:21Z</time></trkpt><trkpt lat="45.09921194118782" lon="8.294309280684859"><ele>175.0</ele><time>2026-04-10T08:50:23Z</time></trkpt><trkpt lat="45.09918545635308" lon="8.294191642854777"><ele>175.5</ele><time>2026-04-10T08:50:25Z</time></trkpt><trkpt lat="45.09915365393848" lon="8.29408491325846"><ele>176.0</ele><time>2026-04-10T08:50:27.001Z</time></trkpt><trkpt lat="45.09912489745242" lon="8.293977230072924"><ele>177.0</ele><time>2026-04-10T08:50:29.001Z</time></trkpt><trkpt lat="45.099098916097226" lon="8.293874098340018"><ele>178.0</ele><time>2026-04-10T08:50:31.001Z</time></trkpt><trkpt lat="45.09907294527979" lon="8.293772199183797"><ele>179.0</ele><time>2026-04-10T08:50:33.001Z</time></trkpt><trkpt lat="45.09904640256565" lon="8.293665065834617"><ele>180.0</ele><time>2026-04-10T08:50:35.001Z</time></trkpt><trkpt lat="45.099018397021844" lon="8.293570273340247"><ele>181.0</ele><time>2026-04-10T08:50:37.001Z</time></trkpt><trkpt lat="45.099002225931805" lon="8.293463419135627"><ele>182.0</ele><time>2026-04-10T08:50:39.001Z</time></trkpt><trkpt lat="45.09899404069916" lon="8.293358951162137"><ele>182.66666666666666</ele><time>2026-04-10T08:50:40.998Z</time></trkpt><trkpt lat="45.09900195478852" lon="8.293239877006444"><ele>183.33333333333331</ele><time>2026-04-10T08:50:42.998Z</time></trkpt><trkpt lat="45.099021017727296" lon="8.293134128607221"><ele>184.0</ele><time>2026-04-10T08:50:44.998Z</time></trkpt><trkpt lat="45.09904904893892" lon="8.293033774947412"><ele>184.66666666666666</ele><time>2026-04-10T08:50:46.998Z</time></trkpt><trkpt lat="45.0990980028965" lon="8.292951641015842"><ele>185.33333333333334</ele><time>2026-04-10T08:50:48.998Z</time></trkpt><trkpt lat="45.09916176053929" lon="8.29290119103709"><ele>186.0</ele><time>2026-04-10T08:50:50.998Z</time></trkpt><trkpt lat="45.09922888362534" lon="8.292857905778943"><ele>186.5</ele><time>2026-04-10T08:50:52.998Z</time></trkpt><trkpt lat="45.09930227427571" lon="8.29282497268104"><ele>187.0</ele><time>2026-04-10T08:50:54.999Z</time></trkpt><trkpt lat="45.09938534826861" lon="8.292786774118616"><ele>187.5</ele><time>2026-04-10T08:50:56.999Z</time></trkpt><trkpt lat="45.099461304358144" lon="8.292756415613125"><ele>188.0</ele><time>2026-04-10T08:50:58.999Z</time></trkpt><trkpt lat="45.099540004712104" lon="8.292721426192516"><ele>188.5</ele><time>2026-04-10T08:51:00.999Z</time></trkpt><trkpt lat="45.099614103854655" lon="8.292682098693026"><ele>189.0</ele><time>2026-04-10T08:51:02.999Z</time></trkpt><trkpt lat="45.099692785737226" lon="8.292638580356986"><ele>189.0</ele><time>2026-04-10T08:51:04.999Z</time></trkpt><trkpt lat="45.09976071852758" lon="8.29260504325106"><ele>189.0</ele><time>2026-04-10T08:51:06.999Z</time></trkpt><trkpt lat="45.09982283592795" lon="8.292570833542003"><ele>189.0</ele><time>2026-04-10T08:51:08.999Z</time></trkpt><trkpt lat="45.09988921121544" lon="8.292534214701371"><ele>189.0</ele><time>2026-04-10T08:51:10.999Z</time></trkpt><trkpt lat="45.099961696252954" lon="8.292493806395024"><ele>189.0</ele><time>2026-04-10T08:51:12.999Z</time></trkpt><trkpt lat="45.10003077611468" lon="8.292435462609069"><ele>189.0</ele><time>2026-04-10T08:51:15Z</time></trkpt><trkpt lat="45.100082044594515" lon="8.292347045216385"><ele>189.0</ele><time>2026-04-10T08:51:17Z</time></trkpt><trkpt lat="45.100107236177045" lon="8.292225381213063"><ele>188.39999999999998</ele><time>2026-04-10T08:51:19Z</time></trkpt><trkpt lat="45.1001008472479" lon="8.29208674575713"><ele>187.8</ele><time>2026-04-10T08:51:21Z</time></trkpt><trkpt lat="45.10008447962187" lon="8.291953216087848"><ele>187.2</ele><time>2026-04-10T08:51:23Z</time></trkpt><trkpt lat="45.100055323904975" lon="8.29183218076396"><ele>186.60000000000002</ele><time>2026-04-10T08:51:25Z</time></trkpt><trkpt lat="45.10000733755244" lon="8.291721491310208"><ele>186.0</ele><time>2026-04-10T08:51:27Z</time></trkpt><trkpt lat="45.09996853228066" lon="8.291601822255956"><ele>186.20000000000002</ele><time>2026-04-10T08:51:29Z</time></trkpt><trkpt lat="45.09991228512392" lon="8.29149445280468"><ele>186.4</ele><time>2026-04-10T08:51:31Z</time></trkpt><trkpt lat="45.09985905931949" lon="8.29138031434783"><ele>186.6</ele><time>2026-04-10T08:51:33Z</time></trkpt><trkpt lat="45.09979223283942" lon="8.291279828376672"><ele>186.8</ele><time>2026-04-10T08:51:35Z</time></trkpt><trkpt lat="45.09972228234985" lon="8.291179476647262"><ele>187.0</ele><time>2026-04-10T08:51:37Z</time></trkpt><trkpt lat="45.09965050203574" lon="8.291077616606794"><ele>187.0</ele><time>2026-04-10T08:51:39Z</time></trkpt><trkpt lat="45.09956398342663" lon="8.290979588752226"><ele>187.0</ele><time>2026-04-10T08:51:41Z</time></trkpt><trkpt lat="45.09948202838317" lon="8.29086215923821"><ele>187.0</ele><time>2026-04-10T08:51:43Z</time></trkpt><trkpt lat="45.09939683488258" lon="8.290733740038652"><ele>187.0</ele><time>2026-04-10T08:51:45Z</time></trkpt><trkpt lat="45.09931372527914" lon="8.290605335919174"><ele>187.66666666666669</ele><time>2026-04-10T08:51:47Z</time></trkpt><trkpt lat="45.09922873649266" lon="8.290479406453334"><ele>188.33333333333334</ele><time>2026-04-10T08:51:49Z</time></trkpt><trkpt lat="45.09914056429806" lon="8.290355000350237"><ele>189.0</ele><time>2026-04-10T08:51:51Z</time></trkpt><trkpt lat="45.09910056231039" lon="8.290284663202304"><ele>189.66666666666666</ele><time>2026-04-10T08:51:52Z</time></trkpt><trkpt lat="45.099041565861064" lon="8.290238779271082"><ele>190.33333333333331</ele><time>2026-04-10T08:51:53Z</time></trkpt><trkpt lat="45.09899872948856" lon="8.290161299265195"><ele>191.0</ele><time>2026-04-10T08:51:54Z</time></trkpt><trkpt lat="45.09894337935106" lon="8.290109580499179"><ele>191.0</ele><time>2026-04-10T08:51:55Z</time></trkpt><trkpt lat="45.09888093738424" lon="8.290070258338647"><ele>191.0</ele><time>2026-04-10T08:51:56Z</time></trkpt><trkpt lat="45.098825403464176" lon="8.290006404132017"><ele>191.0</ele><time>2026-04-10T08:51:57Z</time></trkpt><trkpt lat="45.09876454022068" lon="8.289970771334012"><ele>191.0</ele><time>2026-04-10T08:51:58.001Z</time></trkpt><trkpt lat="45.098709666857374" lon="8.28991123631382"><ele>191.0</ele><time>2026-04-10T08:51:59.001Z</time></trkpt><trkpt lat="45.09865827947072" lon="8.289842653015299"><ele>191.0</ele><time>2026-04-10T08:52:00.001Z</time></trkpt><trkpt lat="45.098606663078115" lon="8.2897828017615"><ele>191.0</ele><time>2026-04-10T08:52:01.001Z</time></trkpt><trkpt lat="45.09855663319652" lon="8.289718053984924"><ele>189.71428571428572</ele><time>2026-04-10T08:52:02.001Z</time></trkpt><trkpt lat="45.09849987552133" lon="8.289664065418444"><ele>188.42857142857142</ele><time>2026-04-10T08:52:03.001Z</time></trkpt><trkpt lat="45.09845832911745" lon="8.289587724919226"><ele>187.14285714285714</ele><time>2026-04-10T08:52:04.001Z</time></trkpt><trkpt lat="45.098433602880306" lon="8.289491503571522"><ele>185.85714285714286</ele><time>2026-04-10T08:52:05.001Z</time></trkpt><trkpt lat="45.09840376400343" lon="8.289405865035908"><ele>184.57142857142856</ele><time>2026-04-10T08:52:06.001Z</time></trkpt><trkpt lat="45.098377856381966" lon="8.28931306276455"><ele>183.28571428571428</ele><time>2026-04-10T08:52:07.001Z</time></trkpt><trkpt lat="45.098350524326285" lon="8.289212661498516"><ele>182.0</ele><time>2026-04-10T08:52:08.001Z</time></trkpt><trkpt lat="45.09832548946655" lon="8.289120698663481"><ele>182.0</ele><time>2026-04-10T08:52:09.001Z</time></trkpt><trkpt lat="45.09829862987535" lon="8.289022747626166"><ele>182.0</ele><time>2026-04-10T08:52:10.001Z</time></trkpt><trkpt lat="45.0982709020017" lon="8.288922877419491"><ele>182.0</ele><time>2026-04-10T08:52:11.001Z</time></trkpt><trkpt lat="45.09823753534807" lon="8.288825170644166"><ele>182.0</ele><time>2026-04-10T08:52:12.001Z</time></trkpt><trkpt lat="45.0982074192039" lon="8.288729653108849"><ele>182.0</ele><time>2026-04-10T08:52:13.001Z</time></trkpt><trkpt lat="45.09817604780016" lon="8.2886334875241"><ele>182.0</ele><time>2026-04-10T08:52:14.001Z</time></trkpt><trkpt lat="45.09815110521507" lon="8.28853783860032"><ele>182.0</ele><time>2026-04-10T08:52:15.001Z</time></trkpt><trkpt lat="45.09812807081655" lon="8.288440848774528"><ele>182.28571428571428</ele><time>2026-04-10T08:52:16.001Z</time></trkpt><trkpt lat="45.098101055010545" lon="8.28834703354332"><ele>182.57142857142856</ele><time>2026-04-10T08:52:17.001Z</time></trkpt><trkpt lat="45.098076774781795" lon="8.288254287272208"><ele>182.85714285714286</ele><time>2026-04-10T08:52:18.001Z</time></trkpt><trkpt lat="45.09805530850235" lon="8.288161739050057"><ele>183.14285714285714</ele><time>2026-04-10T08:52:19.001Z</time></trkpt><trkpt lat="45.098030569406255" lon="8.288071076453564"><ele>183.42857142857142</ele><time>2026-04-10T08:52:20.001Z</time></trkpt><trkpt lat="45.0980045528144" lon="8.28798360520903"><ele>183.71428571428572</ele><time>2026-04-10T08:52:21.001Z</time></trkpt><trkpt lat="45.09798499754937" lon="8.28789872809376"><ele>184.0</ele><time>2026-04-10T08:52:22.001Z</time></trkpt><trkpt lat="45.09795657803938" lon="8.287814352208526"><ele>184.0</ele><time>2026-04-10T08:52:23.001Z</time></trkpt><trkpt lat="45.0979308546515" lon="8.287728385192993"><ele>184.0</ele><time>2026-04-10T08:52:24.001Z</time></trkpt><trkpt lat="45.09789208710567" lon="8.287575828878863"><ele>184.0</ele><time>2026-04-10T08:52:26.001Z</time></trkpt><trkpt lat="45.09784392259448" lon="8.287415378234696"><ele>184.0</ele><time>2026-04-10T08:52:28.001Z</time></trkpt><trkpt lat="45.09779347470753" lon="8.287265948566981"><ele>184.0</ele><time>2026-04-10T08:52:30.001Z</time></trkpt><trkpt lat="45.097751507304295" lon="8.287104502523169"><ele>181.5</ele><time>2026-04-10T08:52:32.001Z</time></trkpt><trkpt lat="45.09770967025355" lon="8.286941191821798"><ele>179.0</ele><time>2026-04-10T08:52:34.001Z</time></trkpt><trkpt lat="45.09767520884538" lon="8.286788292228055"><ele>176.5</ele><time>2026-04-10T08:52:36.001Z</time></trkpt><trkpt lat="45.097631685304286" lon="8.286636152067866"><ele>174.0</ele><time>2026-04-10T08:52:38.001Z</time></trkpt><trkpt lat="45.09758644552507" lon="8.286496299785162"><ele>174.33333333333334</ele><time>2026-04-10T08:52:40.001Z</time></trkpt><trkpt lat="45.097562015767124" lon="8.286354055476775"><ele>174.66666666666666</ele><time>2026-04-10T08:52:42.001Z</time></trkpt><trkpt lat="45.097522572870545" lon="8.28622981539404"><ele>175.0</ele><time>2026-04-10T08:52:44.001Z</time></trkpt><trkpt lat="45.09748874373988" lon="8.28612700449304"><ele>175.33333333333331</ele><time>2026-04-10T08:52:45.998Z</time></trkpt><trkpt lat="45.09744803240137" lon="8.286025689959292"><ele>175.66666666666666</ele><time>2026-04-10T08:52:47.998Z</time></trkpt><trkpt lat="45.097414045760985" lon="8.285913948782852"><ele>176.0</ele><time>2026-04-10T08:52:49.999Z</time></trkpt><trkpt lat="45.09737905338505" lon="8.28580001756392"><ele>177.20000000000002</ele><time>2026-04-10T08:52:51.999Z</time></trkpt><trkpt lat="45.09734453741393" lon="8.285680303080293"><ele>178.4</ele><time>2026-04-10T08:52:53.999Z</time></trkpt><trkpt lat="45.097309060605376" lon="8.28555418489877"><ele>179.6</ele><time>2026-04-10T08:52:55.999Z</time></trkpt><trkpt lat="45.09727484621106" lon="8.285427546109267"><ele>180.8</ele><time>2026-04-10T08:52:57.999Z</time></trkpt><trkpt lat="45.097240646918515" lon="8.285300963024376"><ele>182.0</ele><time>2026-04-10T08:52:59.999Z</time></trkpt><trkpt lat="45.097205182440575" lon="8.285169697098558"><ele>182.0</ele><time>2026-04-10T08:53:01.999Z</time></trkpt><trkpt lat="45.097169358255144" lon="8.285037099924867"><ele>182.0</ele><time>2026-04-10T08:53:03.999Z</time></trkpt><trkpt lat="45.097132862133456" lon="8.284902015553689"><ele>182.0</ele><time>2026-04-10T08:53:05.999Z</time></trkpt><trkpt lat="45.097099159441676" lon="8.284777270726794"><ele>182.0</ele><time>2026-04-10T08:53:07.999Z</time></trkpt><trkpt lat="45.09706376273096" lon="8.284646255756781"><ele>182.0</ele><time>2026-04-10T08:53:09.999Z</time></trkpt><trkpt lat="45.09703219066778" lon="8.284532124396858"><ele>183.0</ele><time>2026-04-10T08:53:11.999Z</time></trkpt><trkpt lat="45.09699703900491" lon="8.284413167317172"><ele>184.0</ele><time>2026-04-10T08:53:14Z</time></trkpt><trkpt lat="45.09695429388864" lon="8.284308937163033"><ele>185.0</ele><time>2026-04-10T08:53:16Z</time></trkpt><trkpt lat="45.09691811387371" lon="8.284214633506906"><ele>186.0</ele><time>2026-04-10T08:53:18Z</time></trkpt><trkpt lat="45.096847691899185" lon="8.284196472612006"><ele>187.0</ele><time>2026-04-10T08:53:19Z</time></trkpt><trkpt lat="45.0967667061165" lon="8.284187627666103"><ele>188.0</ele><time>2026-04-10T08:53:21Z</time></trkpt><trkpt lat="45.096693400199165" lon="8.284152749751067"><ele>188.0</ele><time>2026-04-10T08:53:23Z</time></trkpt><trkpt lat="45.09661951653807" lon="8.284126565676814"><ele>188.0</ele><time>2026-04-10T08:53:25Z</time></trkpt><trkpt lat="45.09653277414115" lon="8.284098870872093"><ele>188.0</ele><time>2026-04-10T08:53:27Z</time></trkpt><trkpt lat="45.096458941645395" lon="8.28408028620918"><ele>188.0</ele><time>2026-04-10T08:53:29Z</time></trkpt><trkpt lat="45.09638792729508" lon="8.284008086620409"><ele>188.0</ele><time>2026-04-10T08:53:31Z</time></trkpt><trkpt lat="45.096308667420715" lon="8.283978647305888"><ele>188.0</ele><time>2026-04-10T08:53:33Z</time></trkpt><trkpt lat="45.09622690968616" lon="8.283947125121742"><ele>190.33333333333331</ele><time>2026-04-10T08:53:35Z</time></trkpt><trkpt lat="45.0961497174445" lon="8.283917363198604"><ele>192.66666666666666</ele><time>2026-04-10T08:53:37Z</time></trkpt><trkpt lat="45.096068459456184" lon="8.283886033681702"><ele>195.0</ele><time>2026-04-10T08:53:39Z</time></trkpt><trkpt lat="45.09598374146937" lon="8.283854873237978"><ele>197.33333333333331</ele><time>2026-04-10T08:53:41Z</time></trkpt><trkpt lat="45.095903595199225" lon="8.28382600726536"><ele>199.66666666666666</ele><time>2026-04-10T08:53:43Z</time></trkpt><trkpt lat="45.09582423697575" lon="8.283797465980586"><ele>202.0</ele><time>2026-04-10T08:53:45Z</time></trkpt><trkpt lat="45.095744522990785" lon="8.283769055589001"><ele>201.99999999999997</ele><time>2026-04-10T08:53:47.001Z</time></trkpt><trkpt lat="45.095665866098486" lon="8.283742426011624"><ele>202.0</ele><time>2026-04-10T08:53:49.001Z</time></trkpt><trkpt lat="45.09558019889409" lon="8.283713935016843"><ele>202.0</ele><time>2026-04-10T08:53:51.001Z</time></trkpt><trkpt lat="45.09549731312796" lon="8.283687516836926"><ele>202.0</ele><time>2026-04-10T08:53:53.001Z</time></trkpt><trkpt lat="45.09541049285898" lon="8.283663436302252"><ele>201.99999999999997</ele><time>2026-04-10T08:53:55.001Z</time></trkpt><trkpt lat="45.09532925010873" lon="8.283643160818004"><ele>202.0</ele><time>2026-04-10T08:53:57.001Z</time></trkpt><trkpt lat="45.09525022486219" lon="8.283616139230459"><ele>201.99999999999997</ele><time>2026-04-10T08:53:59.001Z</time></trkpt><trkpt lat="45.095174947730506" lon="8.283587371857944"><ele>202.0</ele><time>2026-04-10T08:54:01.001Z</time></trkpt><trkpt lat="45.09509300660783" lon="8.283554429058816"><ele>202.0</ele><time>2026-04-10T08:54:03.001Z</time></trkpt><trkpt lat="45.095012432349634" lon="8.28352166194902"><ele>202.0</ele><time>2026-04-10T08:54:05.001Z</time></trkpt><trkpt lat="45.094937395358414" lon="8.283490201667691"><ele>201.99999999999997</ele><time>2026-04-10T08:54:07.001Z</time></trkpt><trkpt lat="45.09487193610853" lon="8.283448924690989"><ele>202.0</ele><time>2026-04-10T08:54:09.001Z</time></trkpt><trkpt lat="45.09481424858787" lon="8.283387066191848"><ele>202.28571428571428</ele><time>2026-04-10T08:54:11.001Z</time></trkpt><trkpt lat="45.094769315112075" lon="8.283313065821293"><ele>202.57142857142856</ele><time>2026-04-10T08:54:13.001Z</time></trkpt><trkpt lat="45.0947794117759" lon="8.28320529120606"><ele>202.85714285714286</ele><time>2026-04-10T08:54:15.001Z</time></trkpt><trkpt lat="45.09482120492478" lon="8.28313455074444"><ele>203.14285714285714</ele><time>2026-04-10T08:54:17.001Z</time></trkpt><trkpt lat="45.094888379022194" lon="8.28310875530235"><ele>203.42857142857144</ele><time>2026-04-10T08:54:20.001Z</time></trkpt><trkpt lat="45.0949499800063" lon="8.28305819731314"><ele>203.71428571428572</ele><time>2026-04-10T08:54:27.001Z</time></trkpt><trkpt lat="45.09488150381307" lon="8.283117036793655"><ele>204.0</ele><time>2026-04-10T08:55:24Z</time></trkpt><trkpt lat="45.09480609414609" lon="8.283166700541672"><ele>204.0</ele><time>2026-04-10T08:55:26Z</time></trkpt><trkpt lat="45.09476029121137" lon="8.283267667195414"><ele>204.0</ele><time>2026-04-10T08:55:28Z</time></trkpt><trkpt lat="45.094810442348454" lon="8.283190627045602"><ele>204.0</ele><time>2026-04-10T08:56:12.001Z</time></trkpt><trkpt lat="45.09485777896502" lon="8.283124428654812"><ele>204.0</ele><time>2026-04-10T08:56:16.001Z</time></trkpt><trkpt lat="45.09493422137398" lon="8.283045994022675"><ele>204.0</ele><time>2026-04-10T08:56:19.001Z</time></trkpt><trkpt lat="45.09501676795268" lon="8.283007736302585"><ele>204.0</ele><time>2026-04-10T08:56:22.002Z</time></trkpt><trkpt lat="45.095078172700774" lon="8.282975945711685"><ele>205.71428571428572</ele><time>2026-04-10T08:56:24.002Z</time></trkpt><trkpt lat="45.09514042370768" lon="8.28293571938772"><ele>207.42857142857144</ele><time>2026-04-10T08:56:26.002Z</time></trkpt><trkpt lat="45.0952240980474" lon="8.282903552181548"><ele>209.14285714285714</ele><time>2026-04-10T08:56:29.002Z</time></trkpt><trkpt lat="45.09530500515375" lon="8.282861105611406"><ele>210.85714285714286</ele><time>2026-04-10T08:56:32.002Z</time></trkpt><trkpt lat="45.09536516893358" lon="8.282827952833259"><ele>212.57142857142856</ele><time>2026-04-10T08:56:34.002Z</time></trkpt><trkpt lat="45.09542587012279" lon="8.282793479187037"><ele>214.28571428571428</ele><time>2026-04-10T08:56:36.002Z</time></trkpt><trkpt lat="45.095488998012804" lon="8.282762438606392"><ele>216.0</ele><time>2026-04-10T08:56:38.002Z</time></trkpt><trkpt lat="45.09555775441256" lon="8.282724983903114"><ele>216.0</ele><time>2026-04-10T08:56:40.002Z</time></trkpt><trkpt lat="45.09561861207024" lon="8.28268383532003"><ele>216.0</ele><time>2026-04-10T08:56:42.002Z</time></trkpt><trkpt lat="45.09567903529389" lon="8.282637292176723"><ele>216.0</ele><time>2026-04-10T08:56:44.002Z</time></trkpt><trkpt lat="45.09573003786963" lon="8.28258225105568"><ele>216.0</ele><time>2026-04-10T08:56:46.002Z</time></trkpt><trkpt lat="45.09576943042941" lon="8.282511854527868"><ele>216.0</ele><time>2026-04-10T08:56:48.002Z</time></trkpt><trkpt lat="45.09580690817997" lon="8.282429719991217"><ele>216.0</ele><time>2026-04-10T08:56:50.002Z</time></trkpt><trkpt lat="45.09583303709862" lon="8.282332151266951"><ele>216.0</ele><time>2026-04-10T08:56:52.002Z</time></trkpt><trkpt lat="45.09584477568784" lon="8.282230898169216"><ele>217.85714285714286</ele><time>2026-04-10T08:56:54.002Z</time></trkpt><trkpt lat="45.095839675039535" lon="8.282131973113588"><ele>219.71428571428572</ele><time>2026-04-10T08:56:56.002Z</time></trkpt><trkpt lat="45.09583646124992" lon="8.282031919853942"><ele>221.57142857142856</ele><time>2026-04-10T08:56:58Z</time></trkpt><trkpt lat="45.095826158135445" lon="8.28192771349475"><ele>223.42857142857144</ele><time>2026-04-10T08:57:00Z</time></trkpt><trkpt lat="45.09581559999905" lon="8.281821664834604"><ele>225.2857142857143</ele><time>2026-04-10T08:57:02Z</time></trkpt><trkpt lat="45.09579866595956" lon="8.281722252012607"><ele>227.14285714285714</ele><time>2026-04-10T08:57:04Z</time></trkpt><trkpt lat="45.095780392891676" lon="8.281627436017565"><ele>229.0</ele><time>2026-04-10T08:57:06Z</time></trkpt><trkpt lat="45.09575988526959" lon="8.28154274398873"><ele>231.33333333333331</ele><time>2026-04-10T08:57:08Z</time></trkpt><trkpt lat="45.095729604161264" lon="8.281420741815856"><ele>233.66666666666666</ele><time>2026-04-10T08:57:11Z</time></trkpt><trkpt lat="45.0956985220851" lon="8.281333088578533"><ele>236.0</ele><time>2026-04-10T08:57:13Z</time></trkpt><trkpt lat="45.095657708632736" lon="8.281244214035047"><ele>238.33333333333331</ele><time>2026-04-10T08:57:15Z</time></trkpt><trkpt lat="45.09561830350849" lon="8.281162724714445"><ele>240.66666666666666</ele><time>2026-04-10T08:57:17Z</time></trkpt><trkpt lat="45.09555877569226" lon="8.281069130802925"><ele>243.0</ele><time>2026-04-10T08:57:20Z</time></trkpt><trkpt lat="45.0955062493146" lon="8.28100778955379"><ele>243.0</ele><time>2026-04-10T08:57:22Z</time></trkpt><trkpt lat="45.095449432591444" lon="8.28094817047031"><ele>243.0</ele><time>2026-04-10T08:57:24Z</time></trkpt><trkpt lat="45.09539591234493" lon="8.280893456071913"><ele>243.0</ele><time>2026-04-10T08:57:26Z</time></trkpt><trkpt lat="45.09536250735406" lon="8.280812659598794"><ele>243.0</ele><time>2026-04-10T08:57:28Z</time></trkpt><trkpt lat="45.095351410864936" lon="8.280721918817886"><ele>243.0</ele><time>2026-04-10T08:57:30Z</time></trkpt><trkpt lat="45.09540414703638" lon="8.280650263531863"><ele>243.0</ele><time>2026-04-10T08:57:32.001Z</time></trkpt><trkpt lat="45.09548203054332" lon="8.280674252987096"><ele>243.0</ele><time>2026-04-10T08:57:34.001Z</time></trkpt><trkpt lat="45.09554795206667" lon="8.28071134798792"><ele>243.0</ele><time>2026-04-10T08:57:36.001Z</time></trkpt><trkpt lat="45.09561676610773" lon="8.280743234354762"><ele>243.0</ele><time>2026-04-10T08:57:38.001Z</time></trkpt><trkpt lat="45.09568646454124" lon="8.280764629919112"><ele>243.0</ele><time>2026-04-10T08:57:40.001Z</time></trkpt><trkpt lat="45.0957563399759" lon="8.280795228278064"><ele>243.0</ele><time>2026-04-10T08:57:42.001Z</time></trkpt><trkpt lat="45.09582035295039" lon="8.280807599479543"><ele>243.0</ele><time>2026-04-10T08:57:44.001Z</time></trkpt><trkpt lat="45.095887855979726" lon="8.280773575503781"><ele>243.0</ele><time>2026-04-10T08:57:46.001Z</time></trkpt><trkpt lat="45.0959700961714" lon="8.28072515027882"><ele>243.0</ele><time>2026-04-10T08:57:49.001Z</time></trkpt><trkpt lat="45.09603434562878" lon="8.2806868632998"><ele>243.16666666666666</ele><time>2026-04-10T08:57:51.001Z</time></trkpt><trkpt lat="45.096103553375414" lon="8.280620179584679"><ele>243.33333333333331</ele><time>2026-04-10T08:57:53.001Z</time></trkpt><trkpt lat="45.09608693688712" lon="8.280490865395182"><ele>243.5</ele><time>2026-04-10T08:57:55.001Z</time></trkpt><trkpt lat="45.09609219323817" lon="8.280388425900536"><ele>243.66666666666666</ele><time>2026-04-10T08:57:57.001Z</time></trkpt><trkpt lat="45.0960416378773" lon="8.280304035763592"><ele>243.83333333333331</ele><time>2026-04-10T08:57:59.001Z</time></trkpt><trkpt lat="45.095989409043696" lon="8.280193064990097"><ele>244.0</ele><time>2026-04-10T08:58:02.001Z</time></trkpt><trkpt lat="45.09599468911938" lon="8.280056133831042"><ele>243.99999999999997</ele><time>2026-04-10T08:58:05.001Z</time></trkpt><trkpt lat="45.09601671784988" lon="8.279952672216437"><ele>244.0</ele><time>2026-04-10T08:58:07.001Z</time></trkpt><trkpt lat="45.09604503353495" lon="8.279840400528117"><ele>243.99999999999997</ele><time>2026-04-10T08:58:09.001Z</time></trkpt><trkpt lat="45.096064156567785" lon="8.279749185540972"><ele>243.99999999999997</ele><time>2026-04-10T08:58:11.001Z</time></trkpt><trkpt lat="45.096095769237444" lon="8.279658447889945"><ele>244.0</ele><time>2026-04-10T08:58:13.002Z</time></trkpt><trkpt lat="45.09611830881948" lon="8.279565005743299"><ele>243.99999999999997</ele><time>2026-04-10T08:58:15.002Z</time></trkpt><trkpt lat="45.09614673582789" lon="8.27946407725368"><ele>243.99999999999997</ele><time>2026-04-10T08:58:17.002Z</time></trkpt><trkpt lat="45.09617635103829" lon="8.279365360939112"><ele>245.28571428571425</ele><time>2026-04-10T08:58:19.002Z</time></trkpt><trkpt lat="45.09620305803806" lon="8.279263962427505"><ele>246.57142857142856</ele><time>2026-04-10T08:58:21.002Z</time></trkpt><trkpt lat="45.096236908684645" lon="8.279164920816541"><ele>247.85714285714286</ele><time>2026-04-10T08:58:23.002Z</time></trkpt><trkpt lat="45.09626060617545" lon="8.279076832686428"><ele>249.14285714285714</ele><time>2026-04-10T08:58:25.002Z</time></trkpt><trkpt lat="45.09628673508457" lon="8.278995198575444"><ele>250.42857142857144</ele><time>2026-04-10T08:58:27.002Z</time></trkpt><trkpt lat="45.09631541644018" lon="8.278912476404923"><ele>251.71428571428575</ele><time>2026-04-10T08:58:29.002Z</time></trkpt><trkpt lat="45.09634991201272" lon="8.278798126211736"><ele>253.00000000000003</ele><time>2026-04-10T08:58:32.002Z</time></trkpt><trkpt lat="45.09634053767674" lon="8.278685068899865"><ele>255.66666666666666</ele><time>2026-04-10T08:58:35.002Z</time></trkpt><trkpt lat="45.09623743150756" lon="8.278685483143303"><ele>258.3333333333333</ele><time>2026-04-10T08:58:38.002Z</time></trkpt><trkpt lat="45.09616382893755" lon="8.278704971508985"><ele>261.0</ele><time>2026-04-10T08:58:40.002Z</time></trkpt><trkpt lat="45.09608466228972" lon="8.278698182810553"><ele>263.6666666666667</ele><time>2026-04-10T08:58:42.002Z</time></trkpt><trkpt lat="45.09601733232093" lon="8.278731346956759"><ele>266.33333333333337</ele><time>2026-04-10T08:58:44.002Z</time></trkpt><trkpt lat="45.095946463215775" lon="8.278746402339454"><ele>269.0</ele><time>2026-04-10T08:58:46.002Z</time></trkpt><trkpt lat="45.095876895370495" lon="8.27878021641603"><ele>269.0</ele><time>2026-04-10T08:58:48.002Z</time></trkpt><trkpt lat="45.09581389759493" lon="8.278836676208599"><ele>269.0</ele><time>2026-04-10T08:58:50.002Z</time></trkpt><trkpt lat="45.09575751664326" lon="8.278909599211774"><ele>269.0</ele><time>2026-04-10T08:58:52.003Z</time></trkpt><trkpt lat="45.09572324579557" lon="8.279017075710664"><ele>269.0</ele><time>2026-04-10T08:58:54.003Z</time></trkpt><trkpt lat="45.09568399356465" lon="8.279121886060151"><ele>269.0</ele><time>2026-04-10T08:58:56.003Z</time></trkpt><trkpt lat="45.09564219234958" lon="8.27922177134642"><ele>269.0</ele><time>2026-04-10T08:58:58.003Z</time></trkpt><trkpt lat="45.09559908535227" lon="8.27932461322128"><ele>271.5</ele><time>2026-04-10T08:59:00.003Z</time></trkpt><trkpt lat="45.09553671830977" lon="8.27940126302077"><ele>274.0</ele><time>2026-04-10T08:59:02.003Z</time></trkpt><trkpt lat="45.0954643916487" lon="8.27945985855593"><ele>276.5</ele><time>2026-04-10T08:59:03.999Z</time></trkpt><trkpt lat="45.09538251414223" lon="8.279472071565014"><ele>279.0</ele><time>2026-04-10T08:59:05.999Z</time></trkpt><trkpt lat="45.09531015300907" lon="8.279418081016637"><ele>281.5</ele><time>2026-04-10T08:59:07.999Z</time></trkpt><trkpt lat="45.09524296773362" lon="8.27938467555059"><ele>284.0</ele><time>2026-04-10T08:59:09.999Z</time></trkpt><trkpt lat="45.09516175017551" lon="8.279354830427906"><ele>284.0</ele><time>2026-04-10T08:59:12.999Z</time></trkpt><trkpt lat="45.095076579465896" lon="8.279322017920485"><ele>284.0</ele><time>2026-04-10T08:59:17Z</time></trkpt><trkpt lat="45.09501092602554" lon="8.279322632477356"><ele>284.0</ele><time>2026-04-10T08:59:19Z</time></trkpt><trkpt lat="45.094927987293644" lon="8.279321560729414"><ele>284.0</ele><time>2026-04-10T08:59:22Z</time></trkpt><trkpt lat="45.09486837199625" lon="8.279354674706056"><ele>284.0</ele><time>2026-04-10T08:59:24Z</time></trkpt><trkpt lat="45.094801563988305" lon="8.279383695849562"><ele>284.0</ele><time>2026-04-10T08:59:26Z</time></trkpt><trkpt lat="45.094732984105846" lon="8.27947882773574"><ele>290.5</ele><time>2026-04-10T08:59:30Z</time></trkpt><trkpt lat="45.09466803484719" lon="8.279531108738212"><ele>297.0</ele><time>2026-04-10T08:59:32Z</time></trkpt><trkpt lat="45.094599955439506" lon="8.279544034254902"><ele>303.5</ele><time>2026-04-10T08:59:35Z</time></trkpt><trkpt lat="45.094512054428115" lon="8.279586352068996"><ele>310.0</ele><time>2026-04-10T08:59:38Z</time></trkpt><trkpt lat="45.094431087903125" lon="8.27958072381521"><ele>316.5</ele><time>2026-04-10T08:59:41Z</time></trkpt><trkpt lat="45.09435685416361" lon="8.27958143117065"><ele>323.0</ele><time>2026-04-10T08:59:44.001Z</time></trkpt><trkpt lat="45.094282255044256" lon="8.279578722638162"><ele>323.0</ele><time>2026-04-10T08:59:47.001Z</time></trkpt><trkpt lat="45.094195844497555" lon="8.279607100648525"><ele>323.0</ele><time>2026-04-10T08:59:50.001Z</time></trkpt><trkpt lat="45.094120933692345" lon="8.279643816428928"><ele>323.0</ele><time>2026-04-10T08:59:53.001Z</time></trkpt><trkpt lat="45.09407428747486" lon="8.279723417152361"><ele>323.0</ele><time>2026-04-10T08:59:56.001Z</time></trkpt><trkpt lat="45.09401481666249" lon="8.27975842289604"><ele>323.0</ele><time>2026-04-10T08:59:59.001Z</time></trkpt><trkpt lat="45.09400703412974" lon="8.279897497846306"><ele>323.0</ele><time>2026-04-10T09:00:02.001Z</time></trkpt><trkpt lat="45.094038423251575" lon="8.280021257173718"><ele>322.14285714285717</ele><time>2026-04-10T09:00:06.001Z</time></trkpt><trkpt lat="45.09400395355968" lon="8.28012007951728"><ele>321.2857142857143</ele><time>2026-04-10T09:00:09.001Z</time></trkpt><trkpt lat="45.09400403009865" lon="8.280227464231116"><ele>320.42857142857144</ele><time>2026-04-10T09:00:11.001Z</time></trkpt><trkpt lat="45.093988930825944" lon="8.280317762752897"><ele>319.57142857142856</ele><time>2026-04-10T09:00:13.001Z</time></trkpt><trkpt lat="45.09395386169977" lon="8.28039295437182"><ele>318.7142857142857</ele><time>2026-04-10T09:00:15.001Z</time></trkpt><trkpt lat="45.093914938246286" lon="8.280472932069022"><ele>317.8571428571429</ele><time>2026-04-10T09:00:17.001Z</time></trkpt><trkpt lat="45.093853039657056" lon="8.280561942780565"><ele>317.0</ele><time>2026-04-10T09:00:20.002Z</time></trkpt><trkpt lat="45.093759370528666" lon="8.280591237370494"><ele>314.7142857142857</ele><time>2026-04-10T09:00:23.002Z</time></trkpt><trkpt lat="45.09366845552153" lon="8.280639734722334"><ele>312.42857142857144</ele><time>2026-04-10T09:00:25.002Z</time></trkpt><trkpt lat="45.0936296498118" lon="8.280716234312926"><ele>310.1428571428571</ele><time>2026-04-10T09:00:28.002Z</time></trkpt><trkpt lat="45.093551918996354" lon="8.280784908613185"><ele>307.8571428571429</ele><time>2026-04-10T09:00:31.002Z</time></trkpt><trkpt lat="45.093502043006765" lon="8.28084028477583"><ele>305.57142857142856</ele><time>2026-04-10T09:00:33.002Z</time></trkpt><trkpt lat="45.09345161594534" lon="8.280895950266602"><ele>303.2857142857143</ele><time>2026-04-10T09:00:35.002Z</time></trkpt><trkpt lat="45.09339723236653" lon="8.280943036131736"><ele>301.0</ele><time>2026-04-10T09:00:37.002Z</time></trkpt><trkpt lat="45.093322816791364" lon="8.281023942353166"><ele>301.0</ele><time>2026-04-10T09:00:40.002Z</time></trkpt><trkpt lat="45.093256198958414" lon="8.281110191079618"><ele>301.0</ele><time>2026-04-10T09:00:43.002Z</time></trkpt><trkpt lat="45.09320076685634" lon="8.281162296002222"><ele>301.0</ele><time>2026-04-10T09:00:45.002Z</time></trkpt><trkpt lat="45.09313358369855" lon="8.281151383449465"><ele>301.0</ele><time>2026-04-10T09:00:47.002Z</time></trkpt><trkpt lat="45.09311448997376" lon="8.281022728397238"><ele>301.0</ele><time>2026-04-10T09:00:50.002Z</time></trkpt><trkpt lat="45.09314771436616" lon="8.28094622614996"><ele>301.0</ele><time>2026-04-10T09:00:52.002Z</time></trkpt><trkpt lat="45.09319711825906" lon="8.28083866881563"><ele>303.66666666666663</ele><time>2026-04-10T09:00:55.002Z</time></trkpt><trkpt lat="45.09323657535587" lon="8.280724241722465"><ele>306.3333333333333</ele><time>2026-04-10T09:00:58.003Z</time></trkpt><trkpt lat="45.09325470902546" lon="8.28063884077295"><ele>309.0</ele><time>2026-04-10T09:01:00.003Z</time></trkpt><trkpt lat="45.09325743420278" lon="8.280524996581503"><ele>311.6666666666667</ele><time>2026-04-10T09:01:03.003Z</time></trkpt><trkpt lat="45.093269404254585" lon="8.280405561050987"><ele>314.33333333333337</ele><time>2026-04-10T09:01:06.003Z</time></trkpt><trkpt lat="45.09326853662791" lon="8.280295496500848"><ele>317.0</ele><time>2026-04-10T09:01:09.003Z</time></trkpt><trkpt lat="45.093244400165176" lon="8.28017720378668"><ele>312.5</ele><time>2026-04-10T09:01:11.999Z</time></trkpt><trkpt lat="45.09322978423467" lon="8.280055187522708"><ele>308.0</ele><time>2026-04-10T09:01:14.999Z</time></trkpt><trkpt lat="45.09320240577182" lon="8.279970810828793"><ele>303.5</ele><time>2026-04-10T09:01:16.999Z</time></trkpt><trkpt lat="45.09317794033772" lon="8.279874298412775"><ele>299.0</ele><time>2026-04-10T09:01:18.999Z</time></trkpt><trkpt lat="45.09317033463756" lon="8.27977888015349"><ele>294.5</ele><time>2026-04-10T09:01:20.999Z</time></trkpt><trkpt lat="45.09314338273558" lon="8.279682866545324"><ele>290.0</ele><time>2026-04-10T09:01:22.999Z</time></trkpt><trkpt lat="45.09313377667903" lon="8.279550405173323"><ele>290.0</ele><time>2026-04-10T09:01:25.999Z</time></trkpt><trkpt lat="45.093115422690225" lon="8.279419593394868"><ele>290.0</ele><time>2026-04-10T09:01:28.999Z</time></trkpt><trkpt lat="45.09308669682898" lon="8.279291902136858"><ele>290.0</ele><time>2026-04-10T09:01:32Z</time></trkpt><trkpt lat="45.09306197632264" lon="8.279208444961997"><ele>290.0</ele><time>2026-04-10T09:01:34Z</time></trkpt><trkpt lat="45.093050810952924" lon="8.279115187644885"><ele>290.0</ele><time>2026-04-10T09:01:36Z</time></trkpt><trkpt lat="45.09302474387628" lon="8.279015534405628"><ele>290.0</ele><time>2026-04-10T09:01:38Z</time></trkpt><trkpt lat="45.09300684427154" lon="8.27889125857898"><ele>292.2857142857143</ele><time>2026-04-10T09:01:41Z</time></trkpt><trkpt lat="45.092988553825236" lon="8.278780915072119"><ele>294.5714285714286</ele><time>2026-04-10T09:01:43Z</time></trkpt><trkpt lat="45.092973812742365" lon="8.278678099182653"><ele>296.8571428571429</ele><time>2026-04-10T09:01:45Z</time></trkpt><trkpt lat="45.092955054641145" lon="8.278578057158676"><ele>299.14285714285717</ele><time>2026-04-10T09:01:47Z</time></trkpt><trkpt lat="45.092942528050905" lon="8.27847174073849"><ele>301.42857142857144</ele><time>2026-04-10T09:01:49Z</time></trkpt><trkpt lat="45.09293273592896" lon="8.278374947727826"><ele>303.7142857142857</ele><time>2026-04-10T09:01:51Z</time></trkpt><trkpt lat="45.09292676321919" lon="8.278272348287103"><ele>306.0</ele><time>2026-04-10T09:01:53Z</time></trkpt><trkpt lat="45.09291454421702" lon="8.278161257903276"><ele>307.7142857142857</ele><time>2026-04-10T09:01:55Z</time></trkpt><trkpt lat="45.09290475002742" lon="8.27804747350281"><ele>309.42857142857144</ele><time>2026-04-10T09:01:57Z</time></trkpt><trkpt lat="45.09287733943547" lon="8.277944212653374"><ele>311.1428571428571</ele><time>2026-04-10T09:01:59.001Z</time></trkpt><trkpt lat="45.09286358026515" lon="8.27784176581557"><ele>312.8571428571429</ele><time>2026-04-10T09:02:01.001Z</time></trkpt><trkpt lat="45.09285566270826" lon="8.277743791787822"><ele>314.5714285714286</ele><time>2026-04-10T09:02:03.001Z</time></trkpt><trkpt lat="45.09282946461874" lon="8.277644847130976"><ele>316.2857142857143</ele><time>2026-04-10T09:02:05.001Z</time></trkpt><trkpt lat="45.0928049743071" lon="8.277548030183656"><ele>318.0</ele><time>2026-04-10T09:02:07.001Z</time></trkpt><trkpt lat="45.09277191573448" lon="8.277454829924643"><ele>318.0</ele><time>2026-04-10T09:02:09.001Z</time></trkpt><trkpt lat="45.092741250797616" lon="8.27736353494995"><ele>318.0</ele><time>2026-04-10T09:02:11.001Z</time></trkpt><trkpt lat="45.09271688712998" lon="8.277268102681282"><ele>318.0</ele><time>2026-04-10T09:02:13.001Z</time></trkpt><trkpt lat="45.09268844850581" lon="8.277169396751908"><ele>318.0</ele><time>2026-04-10T09:02:15.001Z</time></trkpt><trkpt lat="45.09266907750687" lon="8.277073774003155"><ele>318.0</ele><time>2026-04-10T09:02:17.001Z</time></trkpt><trkpt lat="45.092648133290425" lon="8.27697915367052"><ele>318.0</ele><time>2026-04-10T09:02:19.001Z</time></trkpt><trkpt lat="45.09264818021715" lon="8.276885128297993"><ele>318.0</ele><time>2026-04-10T09:02:21.001Z</time></trkpt><trkpt lat="45.09266004709047" lon="8.276790782450444"><ele>318.5</ele><time>2026-04-10T09:02:23.001Z</time></trkpt><trkpt lat="45.09270414461879" lon="8.276702172356476"><ele>319.0</ele><time>2026-04-10T09:02:25.001Z</time></trkpt><trkpt lat="45.09274385615797" lon="8.276615688220241"><ele>319.5</ele><time>2026-04-10T09:02:27.001Z</time></trkpt><trkpt lat="45.09278855418701" lon="8.276514648747295"><ele>320.0</ele><time>2026-04-10T09:02:29.001Z</time></trkpt><trkpt lat="45.09282274719906" lon="8.276427558974692"><ele>320.5</ele><time>2026-04-10T09:02:31.002Z</time></trkpt><trkpt lat="45.09286249152965" lon="8.276333357806461"><ele>321.0</ele><time>2026-04-10T09:02:33.002Z</time></trkpt><trkpt lat="45.09290084955543" lon="8.27622922042222"><ele>321.5</ele><time>2026-04-10T09:02:35.002Z</time></trkpt><trkpt lat="45.09292017251327" lon="8.27611629351308"><ele>322.0</ele><time>2026-04-10T09:02:37.002Z</time></trkpt><trkpt lat="45.09293766298179" lon="8.27600480204514"><ele>322.5</ele><time>2026-04-10T09:02:39.002Z</time></trkpt><trkpt lat="45.09293919330612" lon="8.275886500558618"><ele>323.0</ele><time>2026-04-10T09:02:41.002Z</time></trkpt><trkpt lat="45.09293345696946" lon="8.275766147183532"><ele>323.5</ele><time>2026-04-10T09:02:43.002Z</time></trkpt><trkpt lat="45.09292281531781" lon="8.275655650816246"><ele>324.0</ele><time>2026-04-10T09:02:45.002Z</time></trkpt><trkpt lat="45.09290479434308" lon="8.275539237320848"><ele>326.57142857142856</ele><time>2026-04-10T09:02:47.002Z</time></trkpt><trkpt lat="45.09289199195402" lon="8.275439120362579"><ele>329.1428571428571</ele><time>2026-04-10T09:02:49.002Z</time></trkpt><trkpt lat="45.09287741135594" lon="8.275340164447535"><ele>331.71428571428567</ele><time>2026-04-10T09:02:51.002Z</time></trkpt><trkpt lat="45.09286599245952" lon="8.275235660445869"><ele>334.2857142857143</ele><time>2026-04-10T09:02:53.002Z</time></trkpt><trkpt lat="45.09284914440307" lon="8.275135999763645"><ele>336.85714285714283</ele><time>2026-04-10T09:02:55.002Z</time></trkpt><trkpt lat="45.09283132388378" lon="8.275032787527666"><ele>339.4285714285714</ele><time>2026-04-10T09:02:57.002Z</time></trkpt><trkpt lat="45.09281836276166" lon="8.274933070512446"><ele>342.0</ele><time>2026-04-10T09:02:59.002Z</time></trkpt><trkpt lat="45.092788082035064" lon="8.27483569448669"><ele>342.4285714285714</ele><time>2026-04-10T09:03:01.002Z</time></trkpt><trkpt lat="45.09277781934826" lon="8.2747377466628"><ele>342.85714285714283</ele><time>2026-04-10T09:03:03.002Z</time></trkpt><trkpt lat="45.09276448056167" lon="8.274635097414073"><ele>343.2857142857143</ele><time>2026-04-10T09:03:05.003Z</time></trkpt><trkpt lat="45.092754293497705" lon="8.274535204898376"><ele>343.71428571428567</ele><time>2026-04-10T09:03:07.003Z</time></trkpt><trkpt lat="45.0927417774307" lon="8.27443637906978"><ele>344.1428571428571</ele><time>2026-04-10T09:03:09.003Z</time></trkpt><trkpt lat="45.09274055078223" lon="8.274331552364881"><ele>344.57142857142856</ele><time>2026-04-10T09:03:11.003Z</time></trkpt><trkpt lat="45.092756753971386" lon="8.27423796453628"><ele>345.0</ele><time>2026-04-10T09:03:13.003Z</time></trkpt><trkpt lat="45.09278350012139" lon="8.27414628039839"><ele>345.0</ele><time>2026-04-10T09:03:15.003Z</time></trkpt><trkpt lat="45.09282473432596" lon="8.274073029315723"><ele>345.0</ele><time>2026-04-10T09:03:16.999Z</time></trkpt><trkpt lat="45.092876664470424" lon="8.274004809417399"><ele>345.0</ele><time>2026-04-10T09:03:18.999Z</time></trkpt><trkpt lat="45.0929455948939" lon="8.27396308004222"><ele>345.0</ele><time>2026-04-10T09:03:20.999Z</time></trkpt><trkpt lat="45.09301520875202" lon="8.273902396162772"><ele>345.0</ele><time>2026-04-10T09:03:22.999Z</time></trkpt><trkpt lat="45.09307678521816" lon="8.273853742066938"><ele>345.0</ele><time>2026-04-10T09:03:24.999Z</time></trkpt><trkpt lat="45.09314619502914" lon="8.273801692218784"><ele>345.0</ele><time>2026-04-10T09:03:26.999Z</time></trkpt><trkpt lat="45.093208920213385" lon="8.273737512344395"><ele>347.6666666666667</ele><time>2026-04-10T09:03:28.999Z</time></trkpt><trkpt lat="45.09327411013195" lon="8.273685878351603"><ele>350.3333333333333</ele><time>2026-04-10T09:03:30.999Z</time></trkpt><trkpt lat="45.093338770940875" lon="8.273628144543025"><ele>353.0</ele><time>2026-04-10T09:03:32.999Z</time></trkpt><trkpt lat="45.093397976433444" lon="8.273573137146087"><ele>355.66666666666663</ele><time>2026-04-10T09:03:35Z</time></trkpt><trkpt lat="45.093455941627795" lon="8.273520277879888"><ele>358.3333333333333</ele><time>2026-04-10T09:03:37Z</time></trkpt><trkpt lat="45.09353761162515" lon="8.273460768096298"><ele>361.0</ele><time>2026-04-10T09:03:40Z</time></trkpt><trkpt lat="45.09359277555599" lon="8.273388977572214"><ele>361.0</ele><time>2026-04-10T09:03:42Z</time></trkpt><trkpt lat="45.09364317194242" lon="8.273327831285807"><ele>361.0</ele><time>2026-04-10T09:03:44Z</time></trkpt><trkpt lat="45.09369383705657" lon="8.27327030230983"><ele>361.0</ele><time>2026-04-10T09:03:46Z</time></trkpt><trkpt lat="45.09375417195759" lon="8.273181210203575"><ele>361.0</ele><time>2026-04-10T09:03:49Z</time></trkpt><trkpt lat="45.09381386895663" lon="8.273091718488432"><ele>361.0</ele><time>2026-04-10T09:03:52Z</time></trkpt><trkpt lat="45.093873663769976" lon="8.273054847898017"><ele>361.0</ele><time>2026-04-10T09:03:55Z</time></trkpt><trkpt lat="45.09392092944264" lon="8.273142091271021"><ele>361.0</ele><time>2026-04-10T09:03:59.001Z</time></trkpt><trkpt lat="45.09386862824615" lon="8.273226758352713"><ele>361.0</ele><time>2026-04-10T09:04:02.001Z</time></trkpt><trkpt lat="45.09381205219379" lon="8.273311736065768"><ele>361.0</ele><time>2026-04-10T09:04:05.001Z</time></trkpt><trkpt lat="45.09375242890644" lon="8.273396490126922"><ele>361.0</ele><time>2026-04-10T09:04:08.001Z</time></trkpt><trkpt lat="45.0937196728335" lon="8.273499527044146"><ele>361.0</ele><time>2026-04-10T09:04:11.001Z</time></trkpt><trkpt lat="45.09380147245025" lon="8.273494667143554"><ele>361.0</ele><time>2026-04-10T09:04:14.001Z</time></trkpt><trkpt lat="45.09383179638757" lon="8.273413432694364"><ele>361.0</ele><time>2026-04-10T09:04:16.001Z</time></trkpt><trkpt lat="45.093850248831856" lon="8.273296920396698"><ele>361.0</ele><time>2026-04-10T09:04:18.001Z</time></trkpt><trkpt lat="45.093890651246404" lon="8.273151974672151"><ele>361.0</ele><time>2026-04-10T09:04:20.001Z</time></trkpt><trkpt lat="45.09392248149416" lon="8.273074099178874"><ele>361.0</ele><time>2026-04-10T09:04:21.001Z</time></trkpt><trkpt lat="45.09393798692955" lon="8.272984136163663"><ele>361.0</ele><time>2026-04-10T09:04:22.001Z</time></trkpt><trkpt lat="45.09395220093536" lon="8.272845176322342"><ele>361.0</ele><time>2026-04-10T09:04:24.001Z</time></trkpt><trkpt lat="45.093961493993206" lon="8.272749662678494"><ele>361.0</ele><time>2026-04-10T09:04:26.001Z</time></trkpt><trkpt lat="45.093990270161115" lon="8.272661677768818"><ele>359.8571428571429</ele><time>2026-04-10T09:04:28.001Z</time></trkpt><trkpt lat="45.09401623673622" lon="8.272571983119873"><ele>358.71428571428567</ele><time>2026-04-10T09:04:30.002Z</time></trkpt><trkpt lat="45.09404162314863" lon="8.272484702809248"><ele>357.57142857142856</ele><time>2026-04-10T09:04:32.002Z</time></trkpt><trkpt lat="45.094058241192194" lon="8.272394771028138"><ele>356.42857142857144</ele><time>2026-04-10T09:04:35.002Z</time></trkpt><trkpt lat="45.09406008608131" lon="8.272302036071434"><ele>355.28571428571433</ele><time>2026-04-10T09:04:38.002Z</time></trkpt><trkpt lat="45.09407424231186" lon="8.272201980176364"><ele>354.1428571428571</ele><time>2026-04-10T09:04:50.002Z</time></trkpt><trkpt lat="45.09407062128541" lon="8.272082566547162"><ele>353.0</ele><time>2026-04-10T09:04:53.002Z</time></trkpt><trkpt lat="45.094074569665224" lon="8.271992743161961"><ele>356.85714285714283</ele><time>2026-04-10T09:04:55.002Z</time></trkpt><trkpt lat="45.09412699931099" lon="8.271892175769716"><ele>360.7142857142857</ele><time>2026-04-10T09:04:58.002Z</time></trkpt><trkpt lat="45.09419315587449" lon="8.271865318873548"><ele>364.57142857142856</ele><time>2026-04-10T09:05:01.002Z</time></trkpt><trkpt lat="45.094265047567625" lon="8.271907379823867"><ele>368.42857142857144</ele><time>2026-04-10T09:05:04.003Z</time></trkpt><trkpt lat="45.0943055593326" lon="8.271997610116339"><ele>372.28571428571433</ele><time>2026-04-10T09:05:07.003Z</time></trkpt><trkpt lat="45.09430328851088" lon="8.272087857070124"><ele>376.14285714285717</ele><time>2026-04-10T09:05:09.003Z</time></trkpt><trkpt lat="45.09430851837712" lon="8.272178766836298"><ele>380.0</ele><time>2026-04-10T09:05:11.003Z</time></trkpt><trkpt lat="45.094310121337024" lon="8.2722860471948"><ele>380.5</ele><time>2026-04-10T09:05:13.003Z</time></trkpt><trkpt lat="45.09431785462184" lon="8.272380244798565"><ele>381.0</ele><time>2026-04-10T09:05:15.003Z</time></trkpt><trkpt lat="45.09432479709972" lon="8.272471355436544"><ele>381.5</ele><time>2026-04-10T09:05:17.003Z</time></trkpt><trkpt lat="45.09430213516419" lon="8.27258513523117"><ele>382.0</ele><time>2026-04-10T09:05:19.003Z</time></trkpt><trkpt lat="45.09426395705772" lon="8.272700591152214"><ele>382.5</ele><time>2026-04-10T09:05:21.999Z</time></trkpt><trkpt lat="45.0942598119167" lon="8.272832015704287"><ele>383.0</ele><time>2026-04-10T09:05:23.999Z</time></trkpt><trkpt lat="45.094239384045316" lon="8.272930179132963"><ele>383.0</ele><time>2026-04-10T09:05:25.999Z</time></trkpt><trkpt lat="45.094240449822856" lon="8.273065099924201"><ele>383.0</ele><time>2026-04-10T09:05:28.999Z</time></trkpt><trkpt lat="45.0941860949913" lon="8.273189269956296"><ele>383.0</ele><time>2026-04-10T09:05:31.999Z</time></trkpt><trkpt lat="45.09415990089408" lon="8.273298025604156"><ele>383.0</ele><time>2026-04-10T09:05:35Z</time></trkpt><trkpt lat="45.09411595764732" lon="8.273427475928358"><ele>383.0</ele><time>2026-04-10T09:05:39Z</time></trkpt><trkpt lat="45.09409054978487" lon="8.273538337483581"><ele>380.5</ele><time>2026-04-10T09:05:41Z</time></trkpt><trkpt lat="45.09408144990351" lon="8.273672734783363"><ele>378.0</ele><time>2026-04-10T09:05:43Z</time></trkpt><trkpt lat="45.094042735187" lon="8.273792925379778"><ele>375.5</ele><time>2026-04-10T09:05:45Z</time></trkpt><trkpt lat="45.094005433516614" lon="8.273904822546266"><ele>373.0</ele><time>2026-04-10T09:05:47Z</time></trkpt><trkpt lat="45.09397129166791" lon="8.274011278334468"><ele>370.5</ele><time>2026-04-10T09:05:49Z</time></trkpt><trkpt lat="45.093940074828424" lon="8.27411450801504"><ele>368.0</ele><time>2026-04-10T09:05:51Z</time></trkpt><trkpt lat="45.09392103268933" lon="8.274218613197664"><ele>368.0</ele><time>2026-04-10T09:05:53Z</time></trkpt><trkpt lat="45.09389668468204" lon="8.27430996497121"><ele>368.0</ele><time>2026-04-10T09:05:55Z</time></trkpt><trkpt lat="45.09388199455448" lon="8.274409181160602"><ele>368.0</ele><time>2026-04-10T09:05:57.001Z</time></trkpt><trkpt lat="45.093875267391695" lon="8.274506017227273"><ele>368.0</ele><time>2026-04-10T09:05:59.001Z</time></trkpt><trkpt lat="45.0938997396939" lon="8.27464090467153"><ele>368.0</ele><time>2026-04-10T09:06:02.001Z</time></trkpt><trkpt lat="45.093909757816725" lon="8.274739556952499"><ele>368.0</ele><time>2026-04-10T09:06:04.001Z</time></trkpt><trkpt lat="45.09393139291974" lon="8.274826357713115"><ele>368.0</ele><time>2026-04-10T09:06:06.001Z</time></trkpt><trkpt lat="45.09395219979212" lon="8.274947592855254"><ele>366.83333333333337</ele><time>2026-04-10T09:06:09.001Z</time></trkpt><trkpt lat="45.09397963965782" lon="8.275065620526751"><ele>365.6666666666667</ele><time>2026-04-10T09:06:12.001Z</time></trkpt><trkpt lat="45.09399717378193" lon="8.275186970292044"><ele>364.5</ele><time>2026-04-10T09:06:15.001Z</time></trkpt><trkpt lat="45.093994556877945" lon="8.275298238730445"><ele>363.3333333333333</ele><time>2026-04-10T09:06:18.001Z</time></trkpt><trkpt lat="45.09399945424324" lon="8.275391475680166"><ele>362.16666666666663</ele><time>2026-04-10T09:06:21.001Z</time></trkpt><trkpt lat="45.093992442823165" lon="8.27551610406636"><ele>361.0</ele><time>2026-04-10T09:06:24.001Z</time></trkpt><trkpt lat="45.09403086982484" lon="8.27559193049365"><ele>360.5714285714286</ele><time>2026-04-10T09:06:27.001Z</time></trkpt><trkpt lat="45.094073956924596" lon="8.275661643101246"><ele>360.1428571428571</ele><time>2026-04-10T09:06:30.002Z</time></trkpt><trkpt lat="45.09414220537015" lon="8.275664948435306"><ele>359.7142857142857</ele><time>2026-04-10T09:06:35.002Z</time></trkpt><trkpt lat="45.09420911249694" lon="8.275670392880299"><ele>359.28571428571433</ele><time>2026-04-10T09:06:40.002Z</time></trkpt><trkpt lat="45.09427266926086" lon="8.27565111827828"><ele>358.8571428571429</ele><time>2026-04-10T09:06:45.002Z</time></trkpt><trkpt lat="45.09435038882684" lon="8.275623470334493"><ele>358.42857142857144</ele><time>2026-04-10T09:06:50.002Z</time></trkpt><trkpt lat="45.09440654078096" lon="8.275558365881533"><ele>358.0</ele><time>2026-04-10T09:06:53.002Z</time></trkpt><trkpt lat="45.09444622410991" lon="8.275469054751674"><ele>362.7142857142857</ele><time>2026-04-10T09:06:58.002Z</time></trkpt><trkpt lat="45.094420860756166" lon="8.275565732196931"><ele>367.42857142857144</ele><time>2026-04-10T09:08:11.001Z</time></trkpt><trkpt lat="45.09436329443106" lon="8.275626179196884"><ele>372.1428571428571</ele><time>2026-04-10T09:08:17.001Z</time></trkpt><trkpt lat="45.09429797767174" lon="8.275593761616088"><ele>376.8571428571429</ele><time>2026-04-10T09:08:22.001Z</time></trkpt><trkpt lat="45.09423382867112" lon="8.275587948887951"><ele>381.57142857142856</ele><time>2026-04-10T09:08:27.001Z</time></trkpt><trkpt lat="45.09416896348447" lon="8.275568779689"><ele>386.2857142857143</ele><time>2026-04-10T09:08:32.001Z</time></trkpt><trkpt lat="45.094103712673125" lon="8.275556397017118"><ele>391.0</ele><time>2026-04-10T09:08:37.002Z</time></trkpt><trkpt lat="45.094155110262875" lon="8.275620443739028"><ele>391.00000000000006</ele><time>2026-04-10T09:09:17.003Z</time></trkpt><trkpt lat="45.094196855529304" lon="8.275690385450051"><ele>391.0</ele><time>2026-04-10T09:09:23.003Z</time></trkpt><trkpt lat="45.0942127042077" lon="8.275778448399777"><ele>391.0</ele><time>2026-04-10T09:09:29.003Z</time></trkpt><trkpt lat="45.09417985247813" lon="8.275916600767909"><ele>391.0</ele><time>2026-04-10T09:09:59Z</time></trkpt><trkpt lat="45.094175491004314" lon="8.276023006056398"><ele>391.00000000000006</ele><time>2026-04-10T09:10:03Z</time></trkpt><trkpt lat="45.094209690115356" lon="8.276127547667347"><ele>391.0</ele><time>2026-04-10T09:10:05.001Z</time></trkpt><trkpt lat="45.09422872434026" lon="8.276223827912826"><ele>391.0</ele><time>2026-04-10T09:10:09.001Z</time></trkpt><trkpt lat="45.09420020927292" lon="8.276325581998432"><ele>391.0</ele><time>2026-04-10T09:10:13.001Z</time></trkpt><trkpt lat="45.09414048783186" lon="8.27641772843415"><ele>391.0</ele><time>2026-04-10T09:10:26.001Z</time></trkpt><trkpt lat="45.094156954374185" lon="8.276320235923329"><ele>391.0</ele><time>2026-04-10T09:11:12.003Z</time></trkpt><trkpt lat="45.094279093324204" lon="8.276164472052454"><ele>391.0</ele><time>2026-04-10T09:11:25.003Z</time></trkpt><trkpt lat="45.09421772667084" lon="8.275972824416595"><ele>390.99999999999994</ele><time>2026-04-10T09:11:27.003Z</time></trkpt><trkpt lat="45.09426693583373" lon="8.276041923045383"><ele>391.0</ele><time>2026-04-10T09:11:30.003Z</time></trkpt><trkpt lat="45.09425504533194" lon="8.275929657907298"><ele>391.0</ele><time>2026-04-10T09:11:47.001Z</time></trkpt><trkpt lat="45.09419700527182" lon="8.275880429822346"><ele>391.0</ele><time>2026-04-10T09:11:57.001Z</time></trkpt><trkpt lat="45.094220619541844" lon="8.275747919580262"><ele>391.0</ele><time>2026-04-10T09:12:09.001Z</time></trkpt><trkpt lat="45.094210243897635" lon="8.275659217855488"><ele>390.99999999999994</ele><time>2026-04-10T09:12:18.001Z</time></trkpt><trkpt lat="45.0941711824612" lon="8.27558066129161"><ele>391.0</ele><time>2026-04-10T09:12:25.001Z</time></trkpt><trkpt lat="45.094217112590464" lon="8.275509217505693"><ele>391.00000000000006</ele><time>2026-04-10T09:12:32.001Z</time></trkpt><trkpt lat="45.094282466021454" lon="8.27552980365331"><ele>391.0</ele><time>2026-04-10T09:12:40.001Z</time></trkpt><trkpt lat="45.0943457661686" lon="8.275577055747137"><ele>391.0</ele><time>2026-04-10T09:12:46.001Z</time></trkpt><trkpt lat="45.09441361367127" lon="8.27554761046586"><ele>391.0</ele><time>2026-04-10T09:12:53.001Z</time></trkpt><trkpt lat="45.09445956888857" lon="8.275486306014976"><ele>391.00000000000006</ele><time>2026-04-10T09:13:03.001Z</time></trkpt><trkpt lat="45.094549445576064" lon="8.275578386207577"><ele>391.0</ele><time>2026-04-10T09:13:05.001Z</time></trkpt><trkpt lat="45.09450567434471" lon="8.27571647084459"><ele>391.0</ele><time>2026-04-10T09:13:06.001Z</time></trkpt><trkpt lat="45.09444683014281" lon="8.275780265365478"><ele>391.0</ele><time>2026-04-10T09:13:13.001Z</time></trkpt><trkpt lat="45.09462757971638" lon="8.275585602976637"><ele>391.0</ele><time>2026-04-10T09:13:19.002Z</time></trkpt><trkpt lat="45.09437906145544" lon="8.275834846287918"><ele>391.0</ele><time>2026-04-10T09:13:20.002Z</time></trkpt><trkpt lat="45.09469186920086" lon="8.275634529898806"><ele>391.0</ele><time>2026-04-10T09:13:27.002Z</time></trkpt><trkpt lat="45.094262725621824" lon="8.275716213928453"><ele>391.0</ele><time>2026-04-10T09:13:43.002Z</time></trkpt><trkpt lat="45.0941795330118" lon="8.2757038824548"><ele>391.0</ele><time>2026-04-10T09:13:48.001Z</time></trkpt><trkpt lat="45.094610324488976" lon="8.275459906539394"><ele>391.0</ele><time>2026-04-10T09:13:52.001Z</time></trkpt><trkpt lat="45.09459461020906" lon="8.275577591956129"><ele>391.0</ele><time>2026-04-10T09:13:54.001Z</time></trkpt><trkpt lat="45.094433700512226" lon="8.275607921228039"><ele>391.0</ele><time>2026-04-10T09:13:56.001Z</time></trkpt><trkpt lat="45.09437262070241" lon="8.275524437697692"><ele>391.0</ele><time>2026-04-10T09:23:52.001Z</time></trkpt><trkpt lat="45.094414642565646" lon="8.275604845873154"><ele>391.0</ele><time>2026-04-10T09:24:33Z</time></trkpt><trkpt lat="45.09435797793012" lon="8.275487361666661"><ele>390.99999999999994</ele><time>2026-04-10T09:24:59Z</time></trkpt><trkpt lat="45.09432845399741" lon="8.275567270160082"><ele>391.0</ele><time>2026-04-10T09:32:07.001Z</time></trkpt><trkpt lat="45.09427178649389" lon="8.275613748626307"><ele>391.0</ele><time>2026-04-10T09:32:14.001Z</time></trkpt><trkpt lat="45.09420881822345" lon="8.27564668119568"><ele>391.0</ele><time>2026-04-10T09:32:23.001Z</time></trkpt><trkpt lat="45.09414026640057" lon="8.275650079268196"><ele>391.0</ele><time>2026-04-10T09:32:34.001Z</time></trkpt><trkpt lat="45.09406988520156" lon="8.275654488424486"><ele>390.99999999999994</ele><time>2026-04-10T09:36:18.001Z</time></trkpt><trkpt lat="45.09403442641175" lon="8.275555449574435"><ele>391.0</ele><time>2026-04-10T09:36:21.001Z</time></trkpt><trkpt lat="45.09401254302404" lon="8.27545171121955"><ele>386.00000000000006</ele><time>2026-04-10T09:36:24.001Z</time></trkpt><trkpt lat="45.09400349833326" lon="8.275361731656853"><ele>381.0</ele><time>2026-04-10T09:36:27.001Z</time></trkpt><trkpt lat="45.094024622906396" lon="8.275241383469675"><ele>376.0</ele><time>2026-04-10T09:36:30.001Z</time></trkpt><trkpt lat="45.094003356280645" lon="8.27512574494737"><ele>371.0</ele><time>2026-04-10T09:36:33.001Z</time></trkpt><trkpt lat="45.09398644340842" lon="8.275025009668356"><ele>366.0</ele><time>2026-04-10T09:36:35.001Z</time></trkpt><trkpt lat="45.09396981236283" lon="8.274917549286169"><ele>361.0</ele><time>2026-04-10T09:36:37.001Z</time></trkpt><trkpt lat="45.09394004370575" lon="8.274785081968526"><ele>362.16666666666663</ele><time>2026-04-10T09:36:40.001Z</time></trkpt><trkpt lat="45.09391515921788" lon="8.274683153944281"><ele>363.3333333333333</ele><time>2026-04-10T09:36:42.001Z</time></trkpt><trkpt lat="45.09390219507652" lon="8.274564552008705"><ele>364.5</ele><time>2026-04-10T09:36:44.001Z</time></trkpt><trkpt lat="45.09390515150346" lon="8.274449403108507"><ele>365.6666666666667</ele><time>2026-04-10T09:36:46.001Z</time></trkpt><trkpt lat="45.09391897134192" lon="8.27433283759082"><ele>366.83333333333337</ele><time>2026-04-10T09:36:48.001Z</time></trkpt><trkpt lat="45.09395676874561" lon="8.274206214598326"><ele>368.0</ele><time>2026-04-10T09:36:50.001Z</time></trkpt><trkpt lat="45.09398462697644" lon="8.274065161278665"><ele>368.0</ele><time>2026-04-10T09:36:52.001Z</time></trkpt><trkpt lat="45.09400627482739" lon="8.273976608067487"><ele>368.0</ele><time>2026-04-10T09:36:53.001Z</time></trkpt><trkpt lat="45.094049400997434" lon="8.273828501448211"><ele>368.0</ele><time>2026-04-10T09:36:54.999Z</time></trkpt><trkpt lat="45.09406994563729" lon="8.273734867637934"><ele>368.0</ele><time>2026-04-10T09:36:55.999Z</time></trkpt><trkpt lat="45.094093063559995" lon="8.273641533982527"><ele>368.0</ele><time>2026-04-10T09:36:56.999Z</time></trkpt><trkpt lat="45.09414876118565" lon="8.273486553792438"><ele>368.0</ele><time>2026-04-10T09:36:58.999Z</time></trkpt><trkpt lat="45.094170894271194" lon="8.273385942058312"><ele>371.0</ele><time>2026-04-10T09:36:59.999Z</time></trkpt><trkpt lat="45.09419367798448" lon="8.27329313230074"><ele>374.0</ele><time>2026-04-10T09:37:00.999Z</time></trkpt><trkpt lat="45.094206328940864" lon="8.273204647891427"><ele>377.0</ele><time>2026-04-10T09:37:01.999Z</time></trkpt><trkpt lat="45.09425577955854" lon="8.273058218365588"><ele>380.0</ele><time>2026-04-10T09:37:03.999Z</time></trkpt><trkpt lat="45.094285823328086" lon="8.272909124615161"><ele>383.0</ele><time>2026-04-10T09:37:05.999Z</time></trkpt><trkpt lat="45.09431135503966" lon="8.27275415260224"><ele>383.0</ele><time>2026-04-10T09:37:07.999Z</time></trkpt><trkpt lat="45.0943259780602" lon="8.272611800728011"><ele>383.0</ele><time>2026-04-10T09:37:09.999Z</time></trkpt><trkpt lat="45.09433599201806" lon="8.272448237283902"><ele>383.0</ele><time>2026-04-10T09:37:11.999Z</time></trkpt><trkpt lat="45.09433390676181" lon="8.272293550350478"><ele>383.0</ele><time>2026-04-10T09:37:13.999Z</time></trkpt><trkpt lat="45.094335325369" lon="8.272136158783862"><ele>383.0</ele><time>2026-04-10T09:37:16Z</time></trkpt><trkpt lat="45.09432848244965" lon="8.271974031778797"><ele>382.5</ele><time>2026-04-10T09:37:18Z</time></trkpt><trkpt lat="45.094281081077035" lon="8.271826338233808"><ele>382.0</ele><time>2026-04-10T09:37:20Z</time></trkpt><trkpt lat="45.0942178370525" lon="8.271822875255493"><ele>381.5</ele><time>2026-04-10T09:37:21Z</time></trkpt><trkpt lat="45.09414032686076" lon="8.271756374789241"><ele>381.0</ele><time>2026-04-10T09:37:24Z</time></trkpt><trkpt lat="45.094119084753146" lon="8.2716580023912"><ele>380.5</ele><time>2026-04-10T09:37:26Z</time></trkpt><trkpt lat="45.094153915964476" lon="8.271523951723987"><ele>380.0</ele><time>2026-04-10T09:37:28Z</time></trkpt><trkpt lat="45.09418270023926" lon="8.271358839925773"><ele>378.7142857142857</ele><time>2026-04-10T09:37:30Z</time></trkpt><trkpt lat="45.09419499979381" lon="8.271271342549666"><ele>377.42857142857144</ele><time>2026-04-10T09:37:31Z</time></trkpt><trkpt lat="45.09421638783022" lon="8.271184749562126"><ele>376.1428571428571</ele><time>2026-04-10T09:37:32Z</time></trkpt><trkpt lat="45.09422891282128" lon="8.271090680176458"><ele>374.8571428571429</ele><time>2026-04-10T09:37:33Z</time></trkpt><trkpt lat="45.094241584402276" lon="8.270994846677882"><ele>373.57142857142856</ele><time>2026-04-10T09:37:34Z</time></trkpt><trkpt lat="45.09425402872719" lon="8.270895818066863"><ele>372.2857142857143</ele><time>2026-04-10T09:37:35Z</time></trkpt><trkpt lat="45.09426005944508" lon="8.270792659490631"><ele>371.0</ele><time>2026-04-10T09:37:36Z</time></trkpt><trkpt lat="45.09427823726849" lon="8.270691145090348"><ele>370.0</ele><time>2026-04-10T09:37:37Z</time></trkpt><trkpt lat="45.094286700617495" lon="8.270583080119483"><ele>369.0</ele><time>2026-04-10T09:37:38Z</time></trkpt><trkpt lat="45.094288611805425" lon="8.270471760485401"><ele>368.0</ele><time>2026-04-10T09:37:39Z</time></trkpt><trkpt lat="45.09429064523958" lon="8.270356487614812"><ele>367.0</ele><time>2026-04-10T09:37:40Z</time></trkpt><trkpt lat="45.09429431785775" lon="8.270242108464977"><ele>366.0</ele><time>2026-04-10T09:37:41Z</time></trkpt><trkpt lat="45.09431067854777" lon="8.270124166287413"><ele>365.0</ele><time>2026-04-10T09:37:42Z</time></trkpt><trkpt lat="45.09428618655949" lon="8.270007505715776"><ele>365.0</ele><time>2026-04-10T09:37:43Z</time></trkpt><trkpt lat="45.09426792185626" lon="8.269889160592538"><ele>365.0</ele><time>2026-04-10T09:37:44Z</time></trkpt><trkpt lat="45.094238667653755" lon="8.269775662569739"><ele>365.0</ele><time>2026-04-10T09:37:45Z</time></trkpt><trkpt lat="45.09420639264737" lon="8.269660050929705"><ele>365.0</ele><time>2026-04-10T09:37:46Z</time></trkpt><trkpt lat="45.09416931041197" lon="8.269548463891399"><ele>365.0</ele><time>2026-04-10T09:37:47Z</time></trkpt><trkpt lat="45.094123892583" lon="8.269439516969975"><ele>365.0</ele><time>2026-04-10T09:37:48Z</time></trkpt><trkpt lat="45.094066410608846" lon="8.269347842822878"><ele>365.1666666666667</ele><time>2026-04-10T09:37:49Z</time></trkpt><trkpt lat="45.09399109857595" lon="8.269282469279439"><ele>365.33333333333337</ele><time>2026-04-10T09:37:50Z</time></trkpt><trkpt lat="45.09391060002775" lon="8.269227488154645"><ele>365.5</ele><time>2026-04-10T09:37:51Z</time></trkpt><trkpt lat="45.09382798187309" lon="8.269201891985631"><ele>365.6666666666667</ele><time>2026-04-10T09:37:52Z</time></trkpt><trkpt lat="45.09374496646685" lon="8.269183751018733"><ele>365.8333333333333</ele><time>2026-04-10T09:37:53Z</time></trkpt><trkpt lat="45.093662422983584" lon="8.269169721744381"><ele>366.0</ele><time>2026-04-10T09:37:54Z</time></trkpt><trkpt lat="45.09358092861395" lon="8.269164937202046"><ele>366.0</ele><time>2026-04-10T09:37:55Z</time></trkpt><trkpt lat="45.09349875782692" lon="8.269157220144567"><ele>366.0</ele><time>2026-04-10T09:37:56Z</time></trkpt><trkpt lat="45.09342127804902" lon="8.26917070245775"><ele>366.0</ele><time>2026-04-10T09:37:57Z</time></trkpt><trkpt lat="45.093346351373064" lon="8.269206022068158"><ele>366.0</ele><time>2026-04-10T09:37:58Z</time></trkpt><trkpt lat="45.093276625528325" lon="8.269234906427114"><ele>366.0</ele><time>2026-04-10T09:37:59Z</time></trkpt><trkpt lat="45.09321306564142" lon="8.269283501381691"><ele>366.0</ele><time>2026-04-10T09:38:00Z</time></trkpt><trkpt lat="45.093152615619076" lon="8.269325410789946"><ele>364.14285714285717</ele><time>2026-04-10T09:38:01Z</time></trkpt><trkpt lat="45.093088861403615" lon="8.269362288522998"><ele>362.28571428571433</ele><time>2026-04-10T09:38:02Z</time></trkpt><trkpt lat="45.093027086933496" lon="8.269379854278986"><ele>360.42857142857144</ele><time>2026-04-10T09:38:03Z</time></trkpt><trkpt lat="45.09295676981846" lon="8.269341897865443"><ele>358.57142857142856</ele><time>2026-04-10T09:38:04Z</time></trkpt><trkpt lat="45.09290110893117" lon="8.26929389991479"><ele>356.7142857142857</ele><time>2026-04-10T09:38:05Z</time></trkpt><trkpt lat="45.092858512106524" lon="8.269212268492835"><ele>354.85714285714283</ele><time>2026-04-10T09:38:06Z</time></trkpt><trkpt lat="45.092826535504976" lon="8.26913075912083"><ele>353.0</ele><time>2026-04-10T09:38:07Z</time></trkpt><trkpt lat="45.092784047724365" lon="8.269042508613756"><ele>353.0</ele><time>2026-04-10T09:38:08Z</time></trkpt><trkpt lat="45.09272039172509" lon="8.268955879991568"><ele>353.0</ele><time>2026-04-10T09:38:09Z</time></trkpt><trkpt lat="45.09266908319024" lon="8.268871919722423"><ele>353.0</ele><time>2026-04-10T09:38:10Z</time></trkpt><trkpt lat="45.09260188503258" lon="8.268794540329798"><ele>353.0</ele><time>2026-04-10T09:38:11Z</time></trkpt><trkpt lat="45.09252413413534" lon="8.26872455005215"><ele>353.0</ele><time>2026-04-10T09:38:12Z</time></trkpt><trkpt lat="45.09244592426247" lon="8.268674480109931"><ele>353.0</ele><time>2026-04-10T09:38:13Z</time></trkpt><trkpt lat="45.092358978956376" lon="8.268642367754342"><ele>354.83333333333337</ele><time>2026-04-10T09:38:14Z</time></trkpt><trkpt lat="45.09227849666276" lon="8.26860945356998"><ele>356.6666666666667</ele><time>2026-04-10T09:38:15Z</time></trkpt><trkpt lat="45.0922016829078" lon="8.268566563755861"><ele>358.5</ele><time>2026-04-10T09:38:16.001Z</time></trkpt><trkpt lat="45.092125076468" lon="8.26853518488681"><ele>360.3333333333333</ele><time>2026-04-10T09:38:17.001Z</time></trkpt><trkpt lat="45.09205603819176" lon="8.268480759612643"><ele>362.16666666666663</ele><time>2026-04-10T09:38:18.001Z</time></trkpt><trkpt lat="45.091980658034146" lon="8.268458153441207"><ele>364.0</ele><time>2026-04-10T09:38:19.001Z</time></trkpt><trkpt lat="45.09192982187836" lon="8.268391084249602"><ele>364.0</ele><time>2026-04-10T09:38:20.001Z</time></trkpt><trkpt lat="45.09183218959224" lon="8.268297309356285"><ele>364.0</ele><time>2026-04-10T09:38:22.001Z</time></trkpt><trkpt lat="45.09174913352982" lon="8.268205611394999"><ele>364.0</ele><time>2026-04-10T09:38:24.001Z</time></trkpt><trkpt lat="45.09166245222713" lon="8.26812630994748"><ele>364.0</ele><time>2026-04-10T09:38:26.001Z</time></trkpt><trkpt lat="45.091600855151555" lon="8.268011999301143"><ele>364.0</ele><time>2026-04-10T09:38:28.001Z</time></trkpt><trkpt lat="45.09153755067297" lon="8.267899098792322"><ele>366.79999999999995</ele><time>2026-04-10T09:38:30.001Z</time></trkpt><trkpt lat="45.091474361534864" lon="8.267808331572722"><ele>369.59999999999997</ele><time>2026-04-10T09:38:32.001Z</time></trkpt><trkpt lat="45.09138895321589" lon="8.26771033241701"><ele>372.4</ele><time>2026-04-10T09:38:34.001Z</time></trkpt><trkpt lat="45.09131198050388" lon="8.267627430287744"><ele>375.2</ele><time>2026-04-10T09:38:36.001Z</time></trkpt><trkpt lat="45.091252809789026" lon="8.267538335316114"><ele>378.0</ele><time>2026-04-10T09:38:38.001Z</time></trkpt><trkpt lat="45.09118909409064" lon="8.267451332328605"><ele>378.0</ele><time>2026-04-10T09:38:40.001Z</time></trkpt><trkpt lat="45.09112170797281" lon="8.267376297229706"><ele>378.0</ele><time>2026-04-10T09:38:42.001Z</time></trkpt><trkpt lat="45.09105255669493" lon="8.267301107594768"><ele>378.0</ele><time>2026-04-10T09:38:44.001Z</time></trkpt><trkpt lat="45.09097481941113" lon="8.26727559301135"><ele>378.0</ele><time>2026-04-10T09:38:46.001Z</time></trkpt><trkpt lat="45.0908955621149" lon="8.267219933409043"><ele>378.0</ele><time>2026-04-10T09:38:48.001Z</time></trkpt><trkpt lat="45.09079864443374" lon="8.267210209704398"><ele>378.0</ele><time>2026-04-10T09:38:50.001Z</time></trkpt><trkpt lat="45.090712314961884" lon="8.267202229710396"><ele>377.2</ele><time>2026-04-10T09:38:52.001Z</time></trkpt><trkpt lat="45.090619755419915" lon="8.267206122882932"><ele>376.4</ele><time>2026-04-10T09:38:54.001Z</time></trkpt><trkpt lat="45.09052237175248" lon="8.267227277974701"><ele>375.59999999999997</ele><time>2026-04-10T09:38:56.001Z</time></trkpt><trkpt lat="45.090432162788225" lon="8.267243518468753"><ele>374.79999999999995</ele><time>2026-04-10T09:38:58.001Z</time></trkpt><trkpt lat="45.09033230194259" lon="8.267249865995433"><ele>374.0</ele><time>2026-04-10T09:38:59.998Z</time></trkpt><trkpt lat="45.09023197389628" lon="8.267297520631754"><ele>374.0</ele><time>2026-04-10T09:39:01.998Z</time></trkpt><trkpt lat="45.09012868060184" lon="8.267308411452364"><ele>374.0</ele><time>2026-04-10T09:39:03.998Z</time></trkpt><trkpt lat="45.09001561511388" lon="8.267326434707613"><ele>374.0</ele><time>2026-04-10T09:39:05.998Z</time></trkpt><trkpt lat="45.089920566334506" lon="8.267331105707717"><ele>374.0</ele><time>2026-04-10T09:39:07.998Z</time></trkpt><trkpt lat="45.08982129272215" lon="8.267329153727669"><ele>374.0</ele><time>2026-04-10T09:39:09.998Z</time></trkpt><trkpt lat="45.089722736941916" lon="8.267332816507514"><ele>371.6</ele><time>2026-04-10T09:39:11.998Z</time></trkpt><trkpt lat="45.08963944883017" lon="8.267344138139684"><ele>369.2</ele><time>2026-04-10T09:39:13.998Z</time></trkpt><trkpt lat="45.08954624724122" lon="8.267355196627895"><ele>366.8</ele><time>2026-04-10T09:39:15.998Z</time></trkpt><trkpt lat="45.089449635293626" lon="8.26734861014848"><ele>364.40000000000003</ele><time>2026-04-10T09:39:17.999Z</time></trkpt><trkpt lat="45.08936531188113" lon="8.267288828435074"><ele>362.0</ele><time>2026-04-10T09:39:19.999Z</time></trkpt><trkpt lat="45.08927499993831" lon="8.2672434196036"><ele>362.0</ele><time>2026-04-10T09:39:21.999Z</time></trkpt><trkpt lat="45.08916851021379" lon="8.26712937848783"><ele>362.0</ele><time>2026-04-10T09:39:23.999Z</time></trkpt><trkpt lat="45.089119061993706" lon="8.267072568326125"><ele>362.0</ele><time>2026-04-10T09:39:24.999Z</time></trkpt><trkpt lat="45.08906715628529" lon="8.26700246495456"><ele>362.0</ele><time>2026-04-10T09:39:25.999Z</time></trkpt><trkpt lat="45.089017982611686" lon="8.266941886831624"><ele>362.0</ele><time>2026-04-10T09:39:26.999Z</time></trkpt><trkpt lat="45.08895234147494" lon="8.26688007473562"><ele>362.0</ele><time>2026-04-10T09:39:27.999Z</time></trkpt><trkpt lat="45.08889403855296" lon="8.266838440827174"><ele>360.85714285714283</ele><time>2026-04-10T09:39:28.999Z</time></trkpt><trkpt lat="45.088823061176775" lon="8.26680867868897"><ele>359.71428571428567</ele><time>2026-04-10T09:39:29.999Z</time></trkpt><trkpt lat="45.08875739734895" lon="8.266776329052059"><ele>358.57142857142856</ele><time>2026-04-10T09:39:30.999Z</time></trkpt><trkpt lat="45.08869257939496" lon="8.266749649852363"><ele>357.42857142857144</ele><time>2026-04-10T09:39:31.999Z</time></trkpt><trkpt lat="45.08861370761791" lon="8.266725747046653"><ele>356.2857142857143</ele><time>2026-04-10T09:39:32.999Z</time></trkpt><trkpt lat="45.08853717291695" lon="8.266708810036128"><ele>355.14285714285717</ele><time>2026-04-10T09:39:33.999Z</time></trkpt><trkpt lat="45.088465598245435" lon="8.26668670164806"><ele>354.0</ele><time>2026-04-10T09:39:34.999Z</time></trkpt><trkpt lat="45.08838653517644" lon="8.266646293717734"><ele>354.0</ele><time>2026-04-10T09:39:35.999Z</time></trkpt><trkpt lat="45.088309684904566" lon="8.266623839599838"><ele>354.0</ele><time>2026-04-10T09:39:36.999Z</time></trkpt><trkpt lat="45.08823693892766" lon="8.266602634396916"><ele>354.0</ele><time>2026-04-10T09:39:37.999Z</time></trkpt><trkpt lat="45.088168198517366" lon="8.266581941447384"><ele>354.0</ele><time>2026-04-10T09:39:38.999Z</time></trkpt><trkpt lat="45.08810229830386" lon="8.26656314414827"><ele>354.0</ele><time>2026-04-10T09:39:39.999Z</time></trkpt><trkpt lat="45.088037466317346" lon="8.266545207640082"><ele>354.0</ele><time>2026-04-10T09:39:41Z</time></trkpt><trkpt lat="45.087975632927346" lon="8.266509842733294"><ele>354.0</ele><time>2026-04-10T09:39:42Z</time></trkpt><trkpt lat="45.0879076715363" lon="8.266519288827475"><ele>354.4</ele><time>2026-04-10T09:39:43Z</time></trkpt><trkpt lat="45.08784322316235" lon="8.266507619949722"><ele>354.79999999999995</ele><time>2026-04-10T09:39:44Z</time></trkpt><trkpt lat="45.08778426200052" lon="8.266476108809496"><ele>355.20000000000005</ele><time>2026-04-10T09:39:45Z</time></trkpt><trkpt lat="45.0876956061822" lon="8.266448260235789"><ele>355.6</ele><time>2026-04-10T09:39:47Z</time></trkpt><trkpt lat="45.08768864646175" lon="8.266218676800223"><ele>356.0</ele><time>2026-04-10T09:39:48Z</time></trkpt><trkpt lat="45.08765631851162" lon="8.266127709629945"><ele>356.0</ele><time>2026-04-10T09:39:49Z</time></trkpt><trkpt lat="45.08762215729877" lon="8.266029057485671"><ele>356.0</ele><time>2026-04-10T09:39:50Z</time></trkpt><trkpt lat="45.08758744069012" lon="8.265928801457285"><ele>356.0</ele><time>2026-04-10T09:39:51Z</time></trkpt><trkpt lat="45.087551303145375" lon="8.265824441995237"><ele>356.0</ele><time>2026-04-10T09:39:52Z</time></trkpt><trkpt lat="45.08751457137704" lon="8.26571836649857"><ele>356.0</ele><time>2026-04-10T09:39:53Z</time></trkpt><trkpt lat="45.087479106640124" lon="8.265613823711574"><ele>356.0</ele><time>2026-04-10T09:39:54Z</time></trkpt><trkpt lat="45.08744231969271" lon="8.265503744500712"><ele>357.20000000000005</ele><time>2026-04-10T09:39:55Z</time></trkpt><trkpt lat="45.08740562876452" lon="8.265393952624892"><ele>358.40000000000003</ele><time>2026-04-10T09:39:56Z</time></trkpt><trkpt lat="45.08733392117775" lon="8.265179378848945"><ele>359.6</ele><time>2026-04-10T09:39:58Z</time></trkpt><trkpt lat="45.087298759154066" lon="8.265074054832889"><ele>360.8</ele><time>2026-04-10T09:39:59Z</time></trkpt><trkpt lat="45.087264238012764" lon="8.264974413166202"><ele>362.0</ele><time>2026-04-10T09:40:00Z</time></trkpt><trkpt lat="45.087230884750504" lon="8.2648781424992"><ele>362.0</ele><time>2026-04-10T09:40:01Z</time></trkpt><trkpt lat="45.08719951023091" lon="8.264787583261285"><ele>362.0</ele><time>2026-04-10T09:40:02Z</time></trkpt><trkpt lat="45.08716948689645" lon="8.264700548840525"><ele>362.0</ele><time>2026-04-10T09:40:03Z</time></trkpt><trkpt lat="45.08714132557056" lon="8.264616026763251"><ele>362.0</ele><time>2026-04-10T09:40:04Z</time></trkpt><trkpt lat="45.0870805321718" lon="8.26447361569865"><ele>362.0</ele><time>2026-04-10T09:40:06Z</time></trkpt><trkpt lat="45.08703225766096" lon="8.264343900040062"><ele>362.0</ele><time>2026-04-10T09:40:08Z</time></trkpt><trkpt lat="45.08699010333294" lon="8.264210284465975"><ele>361.40000000000003</ele><time>2026-04-10T09:40:10Z</time></trkpt><trkpt lat="45.08692969337876" lon="8.264108834460279"><ele>360.8</ele><time>2026-04-10T09:40:12Z</time></trkpt><trkpt lat="45.08685565841516" lon="8.264117941442334"><ele>360.2</ele><time>2026-04-10T09:40:13Z</time></trkpt><trkpt lat="45.08675523643892" lon="8.264095971764496"><ele>359.6</ele><time>2026-04-10T09:40:15Z</time></trkpt><trkpt lat="45.08666420544309" lon="8.264048220015246"><ele>359.0</ele><time>2026-04-10T09:40:17Z</time></trkpt><trkpt lat="45.08657984413801" lon="8.264028089217916"><ele>360.6666666666667</ele><time>2026-04-10T09:40:19Z</time></trkpt><trkpt lat="45.086496989842566" lon="8.264004425326709"><ele>362.33333333333337</ele><time>2026-04-10T09:40:21Z</time></trkpt><trkpt lat="45.086415388844095" lon="8.263973474940338"><ele>364.0</ele><time>2026-04-10T09:40:23Z</time></trkpt><trkpt lat="45.08632587991562" lon="8.26394425920211"><ele>365.6666666666667</ele><time>2026-04-10T09:40:25Z</time></trkpt><trkpt lat="45.08624770656267" lon="8.263904984987288"><ele>367.3333333333333</ele><time>2026-04-10T09:40:27.001Z</time></trkpt><trkpt lat="45.086166950758496" lon="8.2638841076088"><ele>369.0</ele><time>2026-04-10T09:40:29.001Z</time></trkpt><trkpt lat="45.08608618307013" lon="8.263859757637146"><ele>369.0</ele><time>2026-04-10T09:40:31.001Z</time></trkpt><trkpt lat="45.08600525304386" lon="8.263825958665215"><ele>369.0</ele><time>2026-04-10T09:40:33.001Z</time></trkpt><trkpt lat="45.08594148150724" lon="8.26379352204487"><ele>369.0</ele><time>2026-04-10T09:40:35.001Z</time></trkpt><trkpt lat="45.08589956907959" lon="8.263725501841067"><ele>369.0</ele><time>2026-04-10T09:40:37.001Z</time></trkpt><trkpt lat="45.08586336569596" lon="8.26365119384878"><ele>369.0</ele><time>2026-04-10T09:40:39.001Z</time></trkpt><trkpt lat="45.08581830888307" lon="8.2635271199351"><ele>369.0</ele><time>2026-04-10T09:40:42.001Z</time></trkpt><trkpt lat="45.08581501646779" lon="8.263411329019517"><ele>369.0</ele><time>2026-04-10T09:40:44.001Z</time></trkpt><trkpt lat="45.08578794554485" lon="8.26332019605943"><ele>369.0</ele><time>2026-04-10T09:40:46.001Z</time></trkpt><trkpt lat="45.08579165649899" lon="8.263200565590497"><ele>369.0</ele><time>2026-04-10T09:40:48.001Z</time></trkpt><trkpt lat="45.085781228324464" lon="8.263101397340069"><ele>369.0</ele><time>2026-04-10T09:40:50.001Z</time></trkpt><trkpt lat="45.085770414352204" lon="8.262994353903265"><ele>369.0</ele><time>2026-04-10T09:40:52.001Z</time></trkpt><trkpt lat="45.085762078332046" lon="8.262889078428588"><ele>369.0</ele><time>2026-04-10T09:40:54.001Z</time></trkpt><trkpt lat="45.08575533140721" lon="8.26278081976776"><ele>368.0</ele><time>2026-04-10T09:40:56.001Z</time></trkpt><trkpt lat="45.085749652160096" lon="8.262684958935157"><ele>367.0</ele><time>2026-04-10T09:40:58.001Z</time></trkpt><trkpt lat="45.08574055120388" lon="8.262587915911746"><ele>366.0</ele><time>2026-04-10T09:41:00.001Z</time></trkpt><trkpt lat="45.08572560569149" lon="8.262491251101752"><ele>365.0</ele><time>2026-04-10T09:41:02.001Z</time></trkpt><trkpt lat="45.08568427725012" lon="8.262390422037889"><ele>364.0</ele><time>2026-04-10T09:41:04.001Z</time></trkpt><trkpt lat="45.08564045158259" lon="8.262296149361323"><ele>363.0</ele><time>2026-04-10T09:41:05.997Z</time></trkpt><trkpt lat="45.08560610968753" lon="8.26221508332894"><ele>362.0</ele><time>2026-04-10T09:41:07.997Z</time></trkpt><trkpt lat="45.08557302049409" lon="8.262131998842499"><ele>362.0</ele><time>2026-04-10T09:41:09.997Z</time></trkpt><trkpt lat="45.08553405361615" lon="8.262034715069555"><ele>362.0</ele><time>2026-04-10T09:41:11.997Z</time></trkpt><trkpt lat="45.085498993900316" lon="8.261947185829937"><ele>362.0</ele><time>2026-04-10T09:41:13.998Z</time></trkpt><trkpt lat="45.08545638460851" lon="8.2618529380832"><ele>362.0</ele><time>2026-04-10T09:41:16.998Z</time></trkpt><trkpt lat="45.085328756990435" lon="8.261954439758313"><ele>362.0</ele><time>2026-04-10T09:41:22.998Z</time></trkpt><trkpt lat="45.08529760485857" lon="8.262078066883944"><ele>362.0</ele><time>2026-04-10T09:41:25.998Z</time></trkpt><trkpt lat="45.085290304440285" lon="8.262188428528939"><ele>362.0</ele><time>2026-04-10T09:41:27.999Z</time></trkpt><trkpt lat="45.08529077220568" lon="8.262295452107125"><ele>362.0</ele><time>2026-04-10T09:41:29.999Z</time></trkpt><trkpt lat="45.085308059593885" lon="8.262386068084156"><ele>362.0</ele><time>2026-04-10T09:41:31.999Z</time></trkpt><trkpt lat="45.08529537259417" lon="8.262477489483159"><ele>362.0</ele><time>2026-04-10T09:41:33.999Z</time></trkpt><trkpt lat="45.08528975235727" lon="8.262606731745695"><ele>362.0</ele><time>2026-04-10T09:41:36.999Z</time></trkpt><trkpt lat="45.08526492797992" lon="8.26269734045418"><ele>362.0</ele><time>2026-04-10T09:41:38.999Z</time></trkpt><trkpt lat="45.08526799241732" lon="8.262787267127033"><ele>361.20000000000005</ele><time>2026-04-10T09:41:39.999Z</time></trkpt><trkpt lat="45.08521485639672" lon="8.262907114288"><ele>360.4</ele><time>2026-04-10T09:41:41.999Z</time></trkpt><trkpt lat="45.085153034251384" lon="8.262984873815537"><ele>359.6</ele><time>2026-04-10T09:41:43.999Z</time></trkpt><trkpt lat="45.08506694006372" lon="8.263044686331334"><ele>358.79999999999995</ele><time>2026-04-10T09:41:45.999Z</time></trkpt><trkpt lat="45.08497275633734" lon="8.26314667019736"><ele>358.0</ele><time>2026-04-10T09:41:47.999Z</time></trkpt><trkpt lat="45.08487334025286" lon="8.263255235836988"><ele>355.2</ele><time>2026-04-10T09:41:50Z</time></trkpt><trkpt lat="45.084821155083986" lon="8.263318218507381"><ele>352.4</ele><time>2026-04-10T09:41:51Z</time></trkpt><trkpt lat="45.0847739096713" lon="8.263384735897938"><ele>349.59999999999997</ele><time>2026-04-10T09:41:52Z</time></trkpt><trkpt lat="45.08469953166057" lon="8.263530144262427"><ele>346.79999999999995</ele><time>2026-04-10T09:41:54Z</time></trkpt><trkpt lat="45.08466213536495" lon="8.263676645404793"><ele>344.0</ele><time>2026-04-10T09:41:56Z</time></trkpt><trkpt lat="45.084616991460805" lon="8.263789497566405"><ele>344.0</ele><time>2026-04-10T09:41:58Z</time></trkpt><trkpt lat="45.08449199343806" lon="8.263780383792831"><ele>344.0</ele><time>2026-04-10T09:41:59Z</time></trkpt><trkpt lat="45.08442149357438" lon="8.26380292413128"><ele>344.0</ele><time>2026-04-10T09:42:00Z</time></trkpt><trkpt lat="45.08434208777583" lon="8.26380742120908"><ele>344.0</ele><time>2026-04-10T09:42:01Z</time></trkpt><trkpt lat="45.084248411957866" lon="8.26378036838727"><ele>344.0</ele><time>2026-04-10T09:42:02Z</time></trkpt><trkpt lat="45.08414984206985" lon="8.263791465904776"><ele>341.79999999999995</ele><time>2026-04-10T09:42:03Z</time></trkpt><trkpt lat="45.08405565115076" lon="8.263763477523433"><ele>339.59999999999997</ele><time>2026-04-10T09:42:04Z</time></trkpt><trkpt lat="45.08396872229637" lon="8.26374978998191"><ele>337.4</ele><time>2026-04-10T09:42:05Z</time></trkpt><trkpt lat="45.08390119375283" lon="8.263735352429968"><ele>335.2</ele><time>2026-04-10T09:42:06Z</time></trkpt><trkpt lat="45.08378735524352" lon="8.263720265317852"><ele>333.0</ele><time>2026-04-10T09:42:08Z</time></trkpt><trkpt lat="45.08366395364587" lon="8.263675199161549"><ele>333.0</ele><time>2026-04-10T09:42:10Z</time></trkpt><trkpt lat="45.08358987084324" lon="8.263676101646777"><ele>333.0</ele><time>2026-04-10T09:42:11Z</time></trkpt><trkpt lat="45.08352767287311" lon="8.263654858299686"><ele>333.0</ele><time>2026-04-10T09:42:12Z</time></trkpt><trkpt lat="45.08346051459378" lon="8.263631554617536"><ele>333.0</ele><time>2026-04-10T09:42:13Z</time></trkpt><trkpt lat="45.0833988952965" lon="8.263587379612993"><ele>333.0</ele><time>2026-04-10T09:42:14Z</time></trkpt><trkpt lat="45.08332906383253" lon="8.263582213226744"><ele>333.0</ele><time>2026-04-10T09:42:15Z</time></trkpt><trkpt lat="45.08326183282576" lon="8.263557231427795"><ele>333.0</ele><time>2026-04-10T09:42:16Z</time></trkpt><trkpt lat="45.08313921121831" lon="8.263532081540664"><ele>332.4</ele><time>2026-04-10T09:42:18Z</time></trkpt><trkpt lat="45.083033231059424" lon="8.263507456647082"><ele>331.79999999999995</ele><time>2026-04-10T09:42:20Z</time></trkpt><trkpt lat="45.08293392261627" lon="8.263480325237769"><ele>331.2</ele><time>2026-04-10T09:42:22.001Z</time></trkpt><trkpt lat="45.082845692756294" lon="8.263421159290372"><ele>330.6</ele><time>2026-04-10T09:42:24.001Z</time></trkpt><trkpt lat="45.082753261833155" lon="8.263384972333935"><ele>330.0</ele><time>2026-04-10T09:42:26.001Z</time></trkpt><trkpt lat="45.082678612378544" lon="8.263321776230878"><ele>330.0</ele><time>2026-04-10T09:42:28.001Z</time></trkpt><trkpt lat="45.082594880418114" lon="8.263277797312146"><ele>330.0</ele><time>2026-04-10T09:42:30.001Z</time></trkpt><trkpt lat="45.082512745349554" lon="8.263229384364095"><ele>330.0</ele><time>2026-04-10T09:42:32.001Z</time></trkpt><trkpt lat="45.082436938207465" lon="8.263171680696477"><ele>330.0</ele><time>2026-04-10T09:42:34.001Z</time></trkpt><trkpt lat="45.08237257786947" lon="8.263110578648337"><ele>330.0</ele><time>2026-04-10T09:42:36.001Z</time></trkpt><trkpt lat="45.08230948958469" lon="8.263066039166796"><ele>330.0</ele><time>2026-04-10T09:42:38.001Z</time></trkpt><trkpt lat="45.08222837654582" lon="8.263008774425307"><ele>330.0</ele><time>2026-04-10T09:42:40.001Z</time></trkpt><trkpt lat="45.08214512396956" lon="8.262956232704518"><ele>330.0</ele><time>2026-04-10T09:42:42.001Z</time></trkpt><trkpt lat="45.082057984562496" lon="8.262917014287579"><ele>330.0</ele><time>2026-04-10T09:42:44.001Z</time></trkpt><trkpt lat="45.0819725630833" lon="8.262912653565193"><ele>330.0</ele><time>2026-04-10T09:42:46.001Z</time></trkpt><trkpt lat="45.08189078101331" lon="8.262881292037529"><ele>330.0</ele><time>2026-04-10T09:42:48.001Z</time></trkpt><trkpt lat="45.08181367096577" lon="8.262878963497817"><ele>330.0</ele><time>2026-04-10T09:42:50.001Z</time></trkpt><trkpt lat="45.08171841127721" lon="8.262906535645188"><ele>330.0</ele><time>2026-04-10T09:42:52.001Z</time></trkpt><trkpt lat="45.08161097458721" lon="8.262946426004268"><ele>330.0</ele><time>2026-04-10T09:42:54.001Z</time></trkpt><trkpt lat="45.0814775240871" lon="8.262954847159964"><ele>330.0</ele><time>2026-04-10T09:42:56.001Z</time></trkpt><trkpt lat="45.08140026485227" lon="8.26294215775348"><ele>330.0</ele><time>2026-04-10T09:42:57.001Z</time></trkpt><trkpt lat="45.08132266741554" lon="8.262921111932075"><ele>330.0</ele><time>2026-04-10T09:42:58.001Z</time></trkpt><trkpt lat="45.081235998636394" lon="8.262896414993724"><ele>329.4</ele><time>2026-04-10T09:42:59.001Z</time></trkpt><trkpt lat="45.08114207096774" lon="8.262868175627831"><ele>328.8</ele><time>2026-04-10T09:43:00.002Z</time></trkpt><trkpt lat="45.081048077087004" lon="8.26283651983244"><ele>328.20000000000005</ele><time>2026-04-10T09:43:01.002Z</time></trkpt><trkpt lat="45.080949370084916" lon="8.26279696797054"><ele>327.6</ele><time>2026-04-10T09:43:02.002Z</time></trkpt><trkpt lat="45.08085294995566" lon="8.262752482263492"><ele>327.0</ele><time>2026-04-10T09:43:03.002Z</time></trkpt><trkpt lat="45.08075243639837" lon="8.262722271830253"><ele>325.6</ele><time>2026-04-10T09:43:04.002Z</time></trkpt><trkpt lat="45.080659403213005" lon="8.262645378583047"><ele>324.20000000000005</ele><time>2026-04-10T09:43:05.002Z</time></trkpt><trkpt lat="45.080555721296655" lon="8.262608277112246"><ele>322.8</ele><time>2026-04-10T09:43:06.002Z</time></trkpt><trkpt lat="45.08047680918184" lon="8.262527532347221"><ele>321.4</ele><time>2026-04-10T09:43:07.002Z</time></trkpt><trkpt lat="45.080393768554735" lon="8.262490931621887"><ele>320.0</ele><time>2026-04-10T09:43:08.002Z</time></trkpt><trkpt lat="45.08032887874616" lon="8.26242089092216"><ele>320.0</ele><time>2026-04-10T09:43:09.002Z</time></trkpt><trkpt lat="45.080252638195134" lon="8.262400861385448"><ele>320.0</ele><time>2026-04-10T09:43:10.002Z</time></trkpt><trkpt lat="45.08016346146401" lon="8.262392723761161"><ele>320.0</ele><time>2026-04-10T09:43:11.002Z</time></trkpt><trkpt lat="45.08007785350894" lon="8.262419565135882"><ele>320.0</ele><time>2026-04-10T09:43:11.998Z</time></trkpt><trkpt lat="45.07998073576861" lon="8.262425780429906"><ele>320.0</ele><time>2026-04-10T09:43:12.998Z</time></trkpt><trkpt lat="45.07988341033576" lon="8.262439502291878"><ele>317.8</ele><time>2026-04-10T09:43:13.998Z</time></trkpt><trkpt lat="45.07978766308768" lon="8.262443145165564"><ele>315.6</ele><time>2026-04-10T09:43:14.998Z</time></trkpt><trkpt lat="45.079682991247346" lon="8.26243382938904"><ele>313.4</ele><time>2026-04-10T09:43:15.998Z</time></trkpt><trkpt lat="45.079584366876446" lon="8.262375135486025"><ele>311.2</ele><time>2026-04-10T09:43:16.998Z</time></trkpt><trkpt lat="45.07948741263311" lon="8.262343630479222"><ele>309.0</ele><time>2026-04-10T09:43:17.998Z</time></trkpt><trkpt lat="45.079382702064336" lon="8.262305301019829"><ele>308.59999999999997</ele><time>2026-04-10T09:43:18.998Z</time></trkpt><trkpt lat="45.079276803486515" lon="8.262267125148023"><ele>308.2</ele><time>2026-04-10T09:43:19.998Z</time></trkpt><trkpt lat="45.07917706513966" lon="8.262223083788195"><ele>307.79999999999995</ele><time>2026-04-10T09:43:20.998Z</time></trkpt><trkpt lat="45.079080268669735" lon="8.26218395079998"><ele>307.4</ele><time>2026-04-10T09:43:21.998Z</time></trkpt><trkpt lat="45.07899736071595" lon="8.262151801758732"><ele>307.0</ele><time>2026-04-10T09:43:22.998Z</time></trkpt><trkpt lat="45.078924202874475" lon="8.262121423414621"><ele>306.57142857142856</ele><time>2026-04-10T09:43:23.998Z</time></trkpt><trkpt lat="45.07885631149702" lon="8.26209278931472"><ele>306.1428571428571</ele><time>2026-04-10T09:43:24.998Z</time></trkpt><trkpt lat="45.07879339533466" lon="8.262055529721854"><ele>305.71428571428567</ele><time>2026-04-10T09:43:25.998Z</time></trkpt><trkpt lat="45.07873123271877" lon="8.262031733420342"><ele>305.2857142857143</ele><time>2026-04-10T09:43:26.998Z</time></trkpt><trkpt lat="45.07867015557796" lon="8.2620061388263"><ele>304.8571428571429</ele><time>2026-04-10T09:43:27.998Z</time></trkpt><trkpt lat="45.07861041776374" lon="8.261975015974981"><ele>304.4285714285714</ele><time>2026-04-10T09:43:28.999Z</time></trkpt><trkpt lat="45.07854461924499" lon="8.261950906523301"><ele>304.0</ele><time>2026-04-10T09:43:29.999Z</time></trkpt><trkpt lat="45.07847562846282" lon="8.261940373781336"><ele>304.0</ele><time>2026-04-10T09:43:30.999Z</time></trkpt><trkpt lat="45.07840394542033" lon="8.261938789628193"><ele>304.0</ele><time>2026-04-10T09:43:31.999Z</time></trkpt><trkpt lat="45.07833553263727" lon="8.261928986470506"><ele>304.0</ele><time>2026-04-10T09:43:32.999Z</time></trkpt><trkpt lat="45.07826909731563" lon="8.261934705565887"><ele>304.0</ele><time>2026-04-10T09:43:33.999Z</time></trkpt><trkpt lat="45.07819756831327" lon="8.261909198968251"><ele>304.0</ele><time>2026-04-10T09:43:34.999Z</time></trkpt><trkpt lat="45.078129218872476" lon="8.261909650074857"><ele>304.0</ele><time>2026-04-10T09:43:35.999Z</time></trkpt><trkpt lat="45.078062084516006" lon="8.261904912767545"><ele>304.0</ele><time>2026-04-10T09:43:36.999Z</time></trkpt><trkpt lat="45.07799595868435" lon="8.26188649198632"><ele>305.75</ele><time>2026-04-10T09:43:37.999Z</time></trkpt><trkpt lat="45.07787702649162" lon="8.261829467201183"><ele>307.5</ele><time>2026-04-10T09:43:39.999Z</time></trkpt><trkpt lat="45.07775791387397" lon="8.261799661878344"><ele>309.25</ele><time>2026-04-10T09:43:41.999Z</time></trkpt><trkpt lat="45.07764664106192" lon="8.261755125505225"><ele>311.0</ele><time>2026-04-10T09:43:43.999Z</time></trkpt><trkpt lat="45.077535722693035" lon="8.26173169802485"><ele>314.6</ele><time>2026-04-10T09:43:46Z</time></trkpt><trkpt lat="45.07742890215042" lon="8.2617376040706"><ele>318.20000000000005</ele><time>2026-04-10T09:43:48Z</time></trkpt><trkpt lat="45.07732776254808" lon="8.26179074009717"><ele>321.79999999999995</ele><time>2026-04-10T09:43:50Z</time></trkpt><trkpt lat="45.07722727913202" lon="8.261836356160975"><ele>325.4</ele><time>2026-04-10T09:43:52Z</time></trkpt><trkpt lat="45.07713415944239" lon="8.26187586718471"><ele>329.0</ele><time>2026-04-10T09:43:54Z</time></trkpt><trkpt lat="45.077042762967864" lon="8.261923650521757"><ele>329.0</ele><time>2026-04-10T09:43:56Z</time></trkpt><trkpt lat="45.07695596838825" lon="8.261976684395785"><ele>329.0</ele><time>2026-04-10T09:43:58Z</time></trkpt><trkpt lat="45.07686841130517" lon="8.26201400899764"><ele>329.0</ele><time>2026-04-10T09:44:00Z</time></trkpt><trkpt lat="45.07678728221604" lon="8.26205177089969"><ele>329.0</ele><time>2026-04-10T09:44:02Z</time></trkpt><trkpt lat="45.07671264526959" lon="8.262095571345785"><ele>329.0</ele><time>2026-04-10T09:44:04Z</time></trkpt><trkpt lat="45.076627660878934" lon="8.26211773658202"><ele>329.0</ele><time>2026-04-10T09:44:06Z</time></trkpt><trkpt lat="45.07654148833539" lon="8.262151689044591"><ele>329.5</ele><time>2026-04-10T09:44:08Z</time></trkpt><trkpt lat="45.07646559217731" lon="8.262183753844969"><ele>330.0</ele><time>2026-04-10T09:44:10Z</time></trkpt><trkpt lat="45.0763911450567" lon="8.262231148743638"><ele>330.5</ele><time>2026-04-10T09:44:12.001Z</time></trkpt><trkpt lat="45.07631691302891" lon="8.262302251819426"><ele>331.0</ele><time>2026-04-10T09:44:14.001Z</time></trkpt><trkpt lat="45.07625976026073" lon="8.262382530516074"><ele>331.5</ele><time>2026-04-10T09:44:16.001Z</time></trkpt><trkpt lat="45.07620895965862" lon="8.262490317434425"><ele>332.0</ele><time>2026-04-10T09:44:18.001Z</time></trkpt><trkpt lat="45.0761475714629" lon="8.262578146018008"><ele>329.5</ele><time>2026-04-10T09:44:20.001Z</time></trkpt><trkpt lat="45.076068371987915" lon="8.26265528983115"><ele>327.0</ele><time>2026-04-10T09:44:22.001Z</time></trkpt><trkpt lat="45.075983456828276" lon="8.262707903364474"><ele>324.5</ele><time>2026-04-10T09:44:24.001Z</time></trkpt><trkpt lat="45.075916289119355" lon="8.262720338600513"><ele>322.0</ele><time>2026-04-10T09:44:26.001Z</time></trkpt><trkpt lat="45.07584748675156" lon="8.262682682416461"><ele>319.5</ele><time>2026-04-10T09:44:28.001Z</time></trkpt><trkpt lat="45.075758131613455" lon="8.262658646805038"><ele>317.0</ele><time>2026-04-10T09:44:30.001Z</time></trkpt><trkpt lat="45.07566166988745" lon="8.262610785448695"><ele>316.8</ele><time>2026-04-10T09:44:32.001Z</time></trkpt><trkpt lat="45.07556532603808" lon="8.262558054940856"><ele>316.6</ele><time>2026-04-10T09:44:34.001Z</time></trkpt><trkpt lat="45.07546363118616" lon="8.262526989541922"><ele>316.40000000000003</ele><time>2026-04-10T09:44:36.001Z</time></trkpt><trkpt lat="45.07535953493467" lon="8.262490011035043"><ele>316.2</ele><time>2026-04-10T09:44:38.001Z</time></trkpt><trkpt lat="45.075266781584304" lon="8.262443913973334"><ele>316.0</ele><time>2026-04-10T09:44:40.001Z</time></trkpt><trkpt lat="45.075169695563616" lon="8.26240945420272"><ele>316.0</ele><time>2026-04-10T09:44:42.001Z</time></trkpt><trkpt lat="45.075070041387484" lon="8.262375386644964"><ele>316.0</ele><time>2026-04-10T09:44:44.002Z</time></trkpt><trkpt lat="45.074964329680796" lon="8.262363668604696"><ele>316.0</ele><time>2026-04-10T09:44:46.002Z</time></trkpt><trkpt lat="45.07485811688169" lon="8.262347957846773"><ele>316.0</ele><time>2026-04-10T09:44:48.002Z</time></trkpt><trkpt lat="45.07474782416711" lon="8.262393380756613"><ele>316.0</ele><time>2026-04-10T09:44:50.002Z</time></trkpt><trkpt lat="45.07466549446719" lon="8.262511102594743"><ele>315.8333333333333</ele><time>2026-04-10T09:44:52.002Z</time></trkpt><trkpt lat="45.07461096114361" lon="8.262637823237506"><ele>315.66666666666663</ele><time>2026-04-10T09:44:54.002Z</time></trkpt><trkpt lat="45.074564712497256" lon="8.262699991058424"><ele>315.5</ele><time>2026-04-10T09:44:55.002Z</time></trkpt><trkpt lat="45.07452030166075" lon="8.262830780664256"><ele>315.3333333333333</ele><time>2026-04-10T09:44:57.002Z</time></trkpt><trkpt lat="45.07446997118397" lon="8.262931449312232"><ele>315.1666666666667</ele><time>2026-04-10T09:44:59.002Z</time></trkpt><trkpt lat="45.074411561711536" lon="8.263018693117457"><ele>315.0</ele><time>2026-04-10T09:45:01.002Z</time></trkpt><trkpt lat="45.07434461249674" lon="8.263127197673715"><ele>313.6</ele><time>2026-04-10T09:45:03.002Z</time></trkpt><trkpt lat="45.0742754042203" lon="8.263252711535618"><ele>312.2</ele><time>2026-04-10T09:45:05.002Z</time></trkpt><trkpt lat="45.07420515270081" lon="8.26338219590654"><ele>310.8</ele><time>2026-04-10T09:45:07.002Z</time></trkpt><trkpt lat="45.074122413178266" lon="8.263506795864997"><ele>309.4</ele><time>2026-04-10T09:45:09.002Z</time></trkpt><trkpt lat="45.07405731404081" lon="8.263559688628934"><ele>308.0</ele><time>2026-04-10T09:45:10.002Z</time></trkpt><trkpt lat="45.07400818037184" lon="8.263623932907556"><ele>304.1666666666667</ele><time>2026-04-10T09:45:11.002Z</time></trkpt><trkpt lat="45.07396090774927" lon="8.263696503863745"><ele>300.33333333333337</ele><time>2026-04-10T09:45:12.002Z</time></trkpt><trkpt lat="45.07391744551746" lon="8.263765295489694"><ele>296.5</ele><time>2026-04-10T09:45:13.002Z</time></trkpt><trkpt lat="45.07384121920126" lon="8.263886763156158"><ele>292.6666666666667</ele><time>2026-04-10T09:45:15.002Z</time></trkpt><trkpt lat="45.07376968800989" lon="8.263983175982064"><ele>288.8333333333333</ele><time>2026-04-10T09:45:17.003Z</time></trkpt><trkpt lat="45.07367869126484" lon="8.263961277430349"><ele>285.0</ele><time>2026-04-10T09:45:18.999Z</time></trkpt><trkpt lat="45.073590008656666" lon="8.263893593958453"><ele>285.0</ele><time>2026-04-10T09:45:20.999Z</time></trkpt><trkpt lat="45.073532961532614" lon="8.263744915563557"><ele>285.0</ele><time>2026-04-10T09:45:22.999Z</time></trkpt><trkpt lat="45.07353369606114" lon="8.26356358666397"><ele>285.0</ele><time>2026-04-10T09:45:24.999Z</time></trkpt><trkpt lat="45.07354940015854" lon="8.263472725717639"><ele>285.0</ele><time>2026-04-10T09:45:25.999Z</time></trkpt><trkpt lat="45.07356385311613" lon="8.26337014405138"><ele>285.0</ele><time>2026-04-10T09:45:26.999Z</time></trkpt><trkpt lat="45.073567701132816" lon="8.263265833432605"><ele>285.0</ele><time>2026-04-10T09:45:27.999Z</time></trkpt><trkpt lat="45.07357353440265" lon="8.263168743835543"><ele>285.0</ele><time>2026-04-10T09:45:28.999Z</time></trkpt><trkpt lat="45.07358043578975" lon="8.263077980618267"><ele>285.0</ele><time>2026-04-10T09:45:29.999Z</time></trkpt><trkpt lat="45.07358209621102" lon="8.262982347527158"><ele>285.0</ele><time>2026-04-10T09:45:30.999Z</time></trkpt><trkpt lat="45.07357721447409" lon="8.262890432310186"><ele>285.0</ele><time>2026-04-10T09:45:31.999Z</time></trkpt><trkpt lat="45.07355868255488" lon="8.26280140888374"><ele>285.0</ele><time>2026-04-10T09:45:32.999Z</time></trkpt><trkpt lat="45.07351938916749" lon="8.262652218200063"><ele>285.0</ele><time>2026-04-10T09:45:35Z</time></trkpt><trkpt lat="45.07341777047267" lon="8.262532210961444"><ele>286.2</ele><time>2026-04-10T09:45:37Z</time></trkpt><trkpt lat="45.073348147259814" lon="8.262494152734567"><ele>287.4</ele><time>2026-04-10T09:45:38Z</time></trkpt><trkpt lat="45.07327265867142" lon="8.262486826929221"><ele>288.6</ele><time>2026-04-10T09:45:39Z</time></trkpt><trkpt lat="45.07320568667689" lon="8.262480868905378"><ele>289.8</ele><time>2026-04-10T09:45:40Z</time></trkpt><trkpt lat="45.07308485098559" lon="8.262473979550206"><ele>291.0</ele><time>2026-04-10T09:45:42Z</time></trkpt><trkpt lat="45.07296361550842" lon="8.262493468255105"><ele>288.0</ele><time>2026-04-10T09:45:44Z</time></trkpt><trkpt lat="45.07284833582333" lon="8.2625076497964"><ele>285.0</ele><time>2026-04-10T09:45:46Z</time></trkpt><trkpt lat="45.07272794917254" lon="8.262528975134282"><ele>282.0</ele><time>2026-04-10T09:45:48Z</time></trkpt><trkpt lat="45.07261582279419" lon="8.26253671906942"><ele>279.0</ele><time>2026-04-10T09:45:50Z</time></trkpt><trkpt lat="45.07252349035151" lon="8.262529113262211"><ele>276.0</ele><time>2026-04-10T09:45:52Z</time></trkpt><trkpt lat="45.07245219328809" lon="8.262496397001637"><ele>274.5</ele><time>2026-04-10T09:46:39.002Z</time></trkpt><trkpt lat="45.07236645296638" lon="8.262470576642404"><ele>273.0</ele><time>2026-04-10T09:46:42.002Z</time></trkpt><trkpt lat="45.07229353086497" lon="8.262442207074493"><ele>271.5</ele><time>2026-04-10T09:46:44.002Z</time></trkpt><trkpt lat="45.07223160185631" lon="8.262415456875283"><ele>270.0</ele><time>2026-04-10T09:46:46.002Z</time></trkpt><trkpt lat="45.07216379097184" lon="8.262384292510136"><ele>268.5</ele><time>2026-04-10T09:46:50.002Z</time></trkpt><trkpt lat="45.07206938459183" lon="8.262354529744716"><ele>267.0</ele><time>2026-04-10T09:46:54.002Z</time></trkpt><trkpt lat="45.071983425393135" lon="8.262281277992345"><ele>267.0</ele><time>2026-04-10T09:46:56.002Z</time></trkpt><trkpt lat="45.071918343322324" lon="8.262255113748385"><ele>267.0</ele><time>2026-04-10T09:46:57.003Z</time></trkpt><trkpt lat="45.07186709573038" lon="8.262184272175494"><ele>267.0</ele><time>2026-04-10T09:46:58.003Z</time></trkpt><trkpt lat="45.07180264197281" lon="8.262124725018479"><ele>267.0</ele><time>2026-04-10T09:46:59.003Z</time></trkpt><trkpt lat="45.07173100647618" lon="8.262054988422896"><ele>267.0</ele><time>2026-04-10T09:47:00.003Z</time></trkpt><trkpt lat="45.07166148454191" lon="8.26198985258429"><ele>267.0</ele><time>2026-04-10T09:47:01.003Z</time></trkpt><trkpt lat="45.07159445911634" lon="8.261928840475527"><ele>265.5</ele><time>2026-04-10T09:47:02.003Z</time></trkpt><trkpt lat="45.07152087142124" lon="8.261873427649604"><ele>264.0</ele><time>2026-04-10T09:47:03.003Z</time></trkpt><trkpt lat="45.071445938071534" lon="8.261826120606436"><ele>262.5</ele><time>2026-04-10T09:47:04.003Z</time></trkpt><trkpt lat="45.07136789369324" lon="8.261787908287756"><ele>261.0</ele><time>2026-04-10T09:47:05.003Z</time></trkpt><trkpt lat="45.071283066486956" lon="8.261776029687573"><ele>259.5</ele><time>2026-04-10T09:47:06.003Z</time></trkpt><trkpt lat="45.07119950470901" lon="8.261747690049035"><ele>258.0</ele><time>2026-04-10T09:47:07.003Z</time></trkpt><trkpt lat="45.07111579377414" lon="8.261725120067881"><ele>258.0</ele><time>2026-04-10T09:47:08.003Z</time></trkpt><trkpt lat="45.07103120087446" lon="8.261706626862123"><ele>258.0</ele><time>2026-04-10T09:47:09.003Z</time></trkpt><trkpt lat="45.07094555646391" lon="8.261698074690642"><ele>258.0</ele><time>2026-04-10T09:47:10.003Z</time></trkpt><trkpt lat="45.07086392859015" lon="8.26168459985653"><ele>258.0</ele><time>2026-04-10T09:47:11.003Z</time></trkpt><trkpt lat="45.070787311919375" lon="8.261682695009751"><ele>258.0</ele><time>2026-04-10T09:47:12.003Z</time></trkpt><trkpt lat="45.07070540147363" lon="8.261682755969327"><ele>258.0</ele><time>2026-04-10T09:47:13.003Z</time></trkpt><trkpt lat="45.07062694444369" lon="8.261696146549173"><ele>257.4285714285714</ele><time>2026-04-10T09:47:14.003Z</time></trkpt><trkpt lat="45.07055051400281" lon="8.261679538692844"><ele>256.85714285714283</ele><time>2026-04-10T09:47:15.003Z</time></trkpt><trkpt lat="45.0704758378464" lon="8.261673656718441"><ele>256.2857142857143</ele><time>2026-04-10T09:47:16.003Z</time></trkpt><trkpt lat="45.070400979007765" lon="8.261655710935468"><ele>255.7142857142857</ele><time>2026-04-10T09:47:17.003Z</time></trkpt><trkpt lat="45.07033144833826" lon="8.261634970674777"><ele>255.1428571428571</ele><time>2026-04-10T09:47:18.003Z</time></trkpt><trkpt lat="45.0702594475345" lon="8.26161077337784"><ele>254.57142857142858</ele><time>2026-04-10T09:47:19.003Z</time></trkpt><trkpt lat="45.070188384755376" lon="8.261586479540258"><ele>254.0</ele><time>2026-04-10T09:47:20.003Z</time></trkpt><trkpt lat="45.07011868039793" lon="8.261562650100894"><ele>254.00000000000003</ele><time>2026-04-10T09:47:21.003Z</time></trkpt><trkpt lat="45.07004932011979" lon="8.2615389382858"><ele>254.0</ele><time>2026-04-10T09:47:22.003Z</time></trkpt><trkpt lat="45.06998219158643" lon="8.261515989430475"><ele>254.0</ele><time>2026-04-10T09:47:23.003Z</time></trkpt><trkpt lat="45.069916065762484" lon="8.26149338337769"><ele>254.0</ele><time>2026-04-10T09:47:23.999Z</time></trkpt><trkpt lat="45.06984896929986" lon="8.261494284621545"><ele>254.00000000000003</ele><time>2026-04-10T09:47:24.999Z</time></trkpt><trkpt lat="45.06972965947429" lon="8.261437058480631"><ele>254.0</ele><time>2026-04-10T09:47:27Z</time></trkpt><trkpt lat="45.069609021475856" lon="8.261408935201903"><ele>254.0</ele><time>2026-04-10T09:47:29Z</time></trkpt><trkpt lat="45.06950139491736" lon="8.261392652368095"><ele>253.99999999999997</ele><time>2026-04-10T09:47:31Z</time></trkpt><trkpt lat="45.06939624700587" lon="8.261382341408309"><ele>253.99999999999997</ele><time>2026-04-10T09:47:33Z</time></trkpt><trkpt lat="45.06929076758261" lon="8.2613731948241"><ele>254.0</ele><time>2026-04-10T09:47:35Z</time></trkpt><trkpt lat="45.069187417747024" lon="8.261354103642295"><ele>254.0</ele><time>2026-04-10T09:47:37Z</time></trkpt><trkpt lat="45.06908498711445" lon="8.261345569408142"><ele>253.2</ele><time>2026-04-10T09:47:39Z</time></trkpt><trkpt lat="45.06897838068465" lon="8.261335041821003"><ele>252.39999999999998</ele><time>2026-04-10T09:47:41Z</time></trkpt><trkpt lat="45.06887214695966" lon="8.261326743057154"><ele>251.6</ele><time>2026-04-10T09:47:43Z</time></trkpt><trkpt lat="45.06876633451516" lon="8.261314440240861"><ele>250.8</ele><time>2026-04-10T09:47:45Z</time></trkpt><trkpt lat="45.06866402888177" lon="8.261306405769574"><ele>250.0</ele><time>2026-04-10T09:47:47Z</time></trkpt><trkpt lat="45.0685679604613" lon="8.26130432959144"><ele>250.0</ele><time>2026-04-10T09:47:49Z</time></trkpt><trkpt lat="45.068474202834246" lon="8.26129316786723"><ele>250.0</ele><time>2026-04-10T09:47:51Z</time></trkpt><trkpt lat="45.0683873964442" lon="8.261250230694936"><ele>250.0</ele><time>2026-04-10T09:47:53Z</time></trkpt><trkpt lat="45.068303808444455" lon="8.261227063173799"><ele>250.0</ele><time>2026-04-10T09:47:55Z</time></trkpt><trkpt lat="45.068209707778834" lon="8.261199661931409"><ele>250.0</ele><time>2026-04-10T09:47:57Z</time></trkpt><trkpt lat="45.0681154795631" lon="8.26117173714006"><ele>249.16666666666666</ele><time>2026-04-10T09:47:59.001Z</time></trkpt><trkpt lat="45.06802580310443" lon="8.261142416861365"><ele>248.33333333333331</ele><time>2026-04-10T09:48:01.001Z</time></trkpt><trkpt lat="45.067934261319316" lon="8.261112295357659"><ele>247.5</ele><time>2026-04-10T09:48:03.001Z</time></trkpt><trkpt lat="45.06784488036481" lon="8.261082884794886"><ele>246.66666666666669</ele><time>2026-04-10T09:48:05.001Z</time></trkpt><trkpt lat="45.06776154271824" lon="8.261054607783182"><ele>245.83333333333334</ele><time>2026-04-10T09:48:07.001Z</time></trkpt><trkpt lat="45.06768390192925" lon="8.261026220857673"><ele>245.0</ele><time>2026-04-10T09:48:09.001Z</time></trkpt><trkpt lat="45.0676180681713" lon="8.260998939600656"><ele>245.0</ele><time>2026-04-10T09:48:11.001Z</time></trkpt><trkpt lat="45.0675424878143" lon="8.260961267534766"><ele>245.0</ele><time>2026-04-10T09:48:13.001Z</time></trkpt><trkpt lat="45.06745178115775" lon="8.260905082535627"><ele>245.0</ele><time>2026-04-10T09:48:15.001Z</time></trkpt><trkpt lat="45.0673491204737" lon="8.260834274359237"><ele>245.0</ele><time>2026-04-10T09:48:17.001Z</time></trkpt><trkpt lat="45.06725870948633" lon="8.260768997442243"><ele>245.0</ele><time>2026-04-10T09:48:19.001Z</time></trkpt><trkpt lat="45.06717893237093" lon="8.260712881863157"><ele>243.66666666666669</ele><time>2026-04-10T09:48:21.001Z</time></trkpt><trkpt lat="45.067095605060175" lon="8.26065506362309"><ele>242.33333333333334</ele><time>2026-04-10T09:48:23.001Z</time></trkpt><trkpt lat="45.06703251128144" lon="8.260611964578612"><ele>241.0</ele><time>2026-04-10T09:48:25.001Z</time></trkpt><trkpt lat="45.06695641105879" lon="8.260560288994974"><ele>239.66666666666669</ele><time>2026-04-10T09:48:27.001Z</time></trkpt><trkpt lat="45.066871163499854" lon="8.260506791076041"><ele>238.33333333333334</ele><time>2026-04-10T09:48:29.002Z</time></trkpt><trkpt lat="45.066781441516675" lon="8.260454146592387"><ele>237.0</ele><time>2026-04-10T09:48:31.002Z</time></trkpt><trkpt lat="45.06669941715774" lon="8.260408668756456"><ele>236.83333333333334</ele><time>2026-04-10T09:48:33.002Z</time></trkpt><trkpt lat="45.06661917440174" lon="8.260369299791074"><ele>236.66666666666669</ele><time>2026-04-10T09:48:35.002Z</time></trkpt><trkpt lat="45.06654394517697" lon="8.260335767211178"><ele>236.5</ele><time>2026-04-10T09:48:37.002Z</time></trkpt><trkpt lat="45.06646709410308" lon="8.26030113423205"><ele>236.33333333333334</ele><time>2026-04-10T09:48:39.002Z</time></trkpt><trkpt lat="45.06639881825757" lon="8.260270292285808"><ele>236.16666666666669</ele><time>2026-04-10T09:48:41.002Z</time></trkpt><trkpt lat="45.066326839671405" lon="8.26023792933063"><ele>236.0</ele><time>2026-04-10T09:48:43.002Z</time></trkpt><trkpt lat="45.066247662375716" lon="8.260205018215938"><ele>235.50000000000003</ele><time>2026-04-10T09:48:45.002Z</time></trkpt><trkpt lat="45.06616536297282" lon="8.260175909249732"><ele>235.0</ele><time>2026-04-10T09:48:47.002Z</time></trkpt><trkpt lat="45.066085016068335" lon="8.260157545519892"><ele>234.5</ele><time>2026-04-10T09:48:49.002Z</time></trkpt><trkpt lat="45.066001243384676" lon="8.260144026517239"><ele>234.0</ele><time>2026-04-10T09:48:51.002Z</time></trkpt><trkpt lat="45.06591269495763" lon="8.26013041352869"><ele>233.50000000000003</ele><time>2026-04-10T09:48:53.002Z</time></trkpt><trkpt lat="45.06582997368649" lon="8.26012059890985"><ele>233.0</ele><time>2026-04-10T09:48:55.002Z</time></trkpt><trkpt lat="45.065749352483" lon="8.260111902553213"><ele>231.85714285714286</ele><time>2026-04-10T09:48:57.002Z</time></trkpt><trkpt lat="45.06568374066473" lon="8.26010843638458"><ele>230.71428571428572</ele><time>2026-04-10T09:48:59.002Z</time></trkpt><trkpt lat="45.06560162386966" lon="8.260126210785101"><ele>229.57142857142858</ele><time>2026-04-10T09:49:02.003Z</time></trkpt><trkpt lat="45.06553822714492" lon="8.260129318122564"><ele>228.42857142857144</ele><time>2026-04-10T09:49:04.003Z</time></trkpt><trkpt lat="45.065474543583974" lon="8.260123279636513"><ele>227.28571428571428</ele><time>2026-04-10T09:49:06.003Z</time></trkpt><trkpt lat="45.06540858401547" lon="8.260165144667475"><ele>226.14285714285717</ele><time>2026-04-10T09:49:08.003Z</time></trkpt><trkpt lat="45.06535073151907" lon="8.260214940111435"><ele>225.00000000000003</ele><time>2026-04-10T09:49:10.003Z</time></trkpt><trkpt lat="45.065286628726746" lon="8.260239263588106"><ele>225.0</ele><time>2026-04-10T09:49:12.003Z</time></trkpt><trkpt lat="45.06521774705376" lon="8.260234310548313"><ele>225.0</ele><time>2026-04-10T09:49:14.003Z</time></trkpt><trkpt lat="45.065141547946894" lon="8.260240321223044"><ele>225.0</ele><time>2026-04-10T09:49:17.003Z</time></trkpt><trkpt lat="45.06507382926233" lon="8.260244007197805"><ele>225.0</ele><time>2026-04-10T09:49:20.003Z</time></trkpt><trkpt lat="45.06499495320288" lon="8.260243338658606"><ele>225.0</ele><time>2026-04-10T09:49:22.003Z</time></trkpt><trkpt lat="45.064896696536834" lon="8.260236584925453"><ele>225.0</ele><time>2026-04-10T09:49:24.003Z</time></trkpt><trkpt lat="45.064795255204416" lon="8.26022680638867"><ele>223.2</ele><time>2026-04-10T09:49:26.003Z</time></trkpt><trkpt lat="45.064694063481994" lon="8.260217051909246"><ele>221.4</ele><time>2026-04-10T09:49:28.003Z</time></trkpt><trkpt lat="45.06458434470878" lon="8.260210962753643"><ele>219.60000000000002</ele><time>2026-04-10T09:49:29.999Z</time></trkpt><trkpt lat="45.06448878974846" lon="8.260205600789536"><ele>217.8</ele><time>2026-04-10T09:49:31.999Z</time></trkpt><trkpt lat="45.06438459179843" lon="8.260199748503592"><ele>216.0</ele><time>2026-04-10T09:49:33.999Z</time></trkpt><trkpt lat="45.06427347825736" lon="8.260206627557176"><ele>216.0</ele><time>2026-04-10T09:49:35.999Z</time></trkpt><trkpt lat="45.06417462191154" lon="8.260198236209176"><ele>216.0</ele><time>2026-04-10T09:49:37.999Z</time></trkpt><trkpt lat="45.06408580633109" lon="8.260180693861253"><ele>216.0</ele><time>2026-04-10T09:49:39.999Z</time></trkpt><trkpt lat="45.06399605239524" lon="8.260175450297673"><ele>216.0</ele><time>2026-04-10T09:49:41.999Z</time></trkpt><trkpt lat="45.06391305497871" lon="8.26014159756026"><ele>216.0</ele><time>2026-04-10T09:49:43.999Z</time></trkpt><trkpt lat="45.063830925265584" lon="8.260130234817217"><ele>216.0</ele><time>2026-04-10T09:49:46Z</time></trkpt><trkpt lat="45.06375152620159" lon="8.260133722068733"><ele>213.4</ele><time>2026-04-10T09:49:48Z</time></trkpt><trkpt lat="45.06365413792586" lon="8.26012868383462"><ele>210.8</ele><time>2026-04-10T09:49:50Z</time></trkpt><trkpt lat="45.06355835879347" lon="8.260115487541288"><ele>208.20000000000002</ele><time>2026-04-10T09:49:52Z</time></trkpt><trkpt lat="45.06346747272609" lon="8.260098138593744"><ele>205.60000000000002</ele><time>2026-04-10T09:49:54Z</time></trkpt><trkpt lat="45.06337049278306" lon="8.260084874941551"><ele>203.0</ele><time>2026-04-10T09:49:56Z</time></trkpt><trkpt lat="45.06328788237611" lon="8.260069884384277"><ele>201.33333333333334</ele><time>2026-04-10T09:49:58Z</time></trkpt><trkpt lat="45.06321741260209" lon="8.260030118284355"><ele>199.66666666666669</ele><time>2026-04-10T09:50:00Z</time></trkpt><trkpt lat="45.06312899292463" lon="8.260005502157368"><ele>198.0</ele><time>2026-04-10T09:50:02Z</time></trkpt><trkpt lat="45.0630489945839" lon="8.25998323058045"><ele>196.33333333333331</ele><time>2026-04-10T09:50:04Z</time></trkpt><trkpt lat="45.06296521722058" lon="8.259977636434746"><ele>194.66666666666666</ele><time>2026-04-10T09:50:06.001Z</time></trkpt><trkpt lat="45.062882217774636" lon="8.259952508500078"><ele>193.0</ele><time>2026-04-10T09:50:08.001Z</time></trkpt><trkpt lat="45.06280766906523" lon="8.25993179104969"><ele>192.99999999999997</ele><time>2026-04-10T09:50:10.001Z</time></trkpt><trkpt lat="45.062728328086834" lon="8.259899451853299"><ele>193.0</ele><time>2026-04-10T09:50:12.001Z</time></trkpt><trkpt lat="45.062638772319445" lon="8.25987589077509"><ele>193.0</ele><time>2026-04-10T09:50:14.001Z</time></trkpt><trkpt lat="45.0625432286895" lon="8.259845196381978"><ele>193.0</ele><time>2026-04-10T09:50:16.001Z</time></trkpt><trkpt lat="45.06245845463313" lon="8.259813944170405"><ele>192.99999999999997</ele><time>2026-04-10T09:50:18.001Z</time></trkpt><trkpt lat="45.06237447362024" lon="8.25979014625279"><ele>193.0</ele><time>2026-04-10T09:50:20.001Z</time></trkpt><trkpt lat="45.062293182885206" lon="8.25976048671302"><ele>192.33333333333331</ele><time>2026-04-10T09:50:22.001Z</time></trkpt><trkpt lat="45.06221006754269" lon="8.25971594288247"><ele>191.66666666666666</ele><time>2026-04-10T09:50:24.001Z</time></trkpt><trkpt lat="45.062129947852256" lon="8.259690599304577"><ele>191.0</ele><time>2026-04-10T09:50:26.001Z</time></trkpt><trkpt lat="45.062048448613396" lon="8.259665271426778"><ele>190.33333333333331</ele><time>2026-04-10T09:50:28.001Z</time></trkpt><trkpt lat="45.06196900387032" lon="8.259642106704518"><ele>189.66666666666666</ele><time>2026-04-10T09:50:30.001Z</time></trkpt><trkpt lat="45.061890607886134" lon="8.25962000109567"><ele>189.0</ele><time>2026-04-10T09:50:32.001Z</time></trkpt><trkpt lat="45.061811973936805" lon="8.259597828329133"><ele>189.0</ele><time>2026-04-10T09:50:34.001Z</time></trkpt><trkpt lat="45.06174342356507" lon="8.259574587395402"><ele>189.0</ele><time>2026-04-10T09:50:36.002Z</time></trkpt><trkpt lat="45.06166861056945" lon="8.259544096780116"><ele>189.0</ele><time>2026-04-10T09:50:48.002Z</time></trkpt><trkpt lat="45.061604673071024" lon="8.259716625195201"><ele>189.0</ele><time>2026-04-10T09:50:51.002Z</time></trkpt><trkpt lat="45.0615890576738" lon="8.259836008324895"><ele>189.0</ele><time>2026-04-10T09:50:53.002Z</time></trkpt><trkpt lat="45.06151622584239" lon="8.260001426633794"><ele>188.79999999999998</ele><time>2026-04-10T09:50:56.002Z</time></trkpt><trkpt lat="45.06142179238186" lon="8.260044978341256"><ele>188.6</ele><time>2026-04-10T09:50:58.002Z</time></trkpt><trkpt lat="45.06132719029147" lon="8.260045196742993"><ele>188.4</ele><time>2026-04-10T09:51:00.002Z</time></trkpt><trkpt lat="45.06123648522438" lon="8.260027846490448"><ele>188.2</ele><time>2026-04-10T09:51:02.002Z</time></trkpt><trkpt lat="45.06114621472483" lon="8.260007072127829"><ele>188.0</ele><time>2026-04-10T09:51:04.002Z</time></trkpt><trkpt lat="45.06104937656076" lon="8.260002184146241"><ele>188.0</ele><time>2026-04-10T09:51:06.002Z</time></trkpt><trkpt lat="45.06095187275905" lon="8.259990765887665"><ele>188.0</ele><time>2026-04-10T09:51:08.002Z</time></trkpt><trkpt lat="45.06085481252038" lon="8.2599728925842"><ele>188.0</ele><time>2026-04-10T09:51:10.003Z</time></trkpt><trkpt lat="45.06075399705029" lon="8.259969035490656"><ele>188.0</ele><time>2026-04-10T09:51:12.003Z</time></trkpt><trkpt lat="45.06066186677652" lon="8.259945604179254"><ele>188.0</ele><time>2026-04-10T09:51:14.003Z</time></trkpt><trkpt lat="45.06056595175833" lon="8.259947394033375"><ele>188.4</ele><time>2026-04-10T09:51:16.003Z</time></trkpt><trkpt lat="45.06047378887946" lon="8.259934671196946"><ele>188.8</ele><time>2026-04-10T09:51:18.003Z</time></trkpt><trkpt lat="45.06038040003971" lon="8.259919146232454"><ele>189.2</ele><time>2026-04-10T09:51:20.003Z</time></trkpt><trkpt lat="45.06029203276025" lon="8.25990384484975"><ele>189.6</ele><time>2026-04-10T09:51:22.003Z</time></trkpt><trkpt lat="45.06020061640258" lon="8.259891263833726"><ele>190.0</ele><time>2026-04-10T09:51:24.003Z</time></trkpt><trkpt lat="45.060107389369215" lon="8.259879141937699"><ele>190.0</ele><time>2026-04-10T09:51:26.003Z</time></trkpt><trkpt lat="45.06001110974074" lon="8.259868590430358"><ele>190.0</ele><time>2026-04-10T09:51:28.003Z</time></trkpt><trkpt lat="45.05990686171475" lon="8.259855202263227"><ele>190.0</ele><time>2026-04-10T09:51:30.003Z</time></trkpt><trkpt lat="45.059842630099794" lon="8.25984202128923"><ele>190.0</ele><time>2026-04-10T09:51:31.003Z</time></trkpt><trkpt lat="45.05973531999877" lon="8.259837645844641"><ele>190.0</ele><time>2026-04-10T09:51:33.003Z</time></trkpt><trkpt lat="45.059634289835174" lon="8.259830678850516"><ele>190.6</ele><time>2026-04-10T09:51:35.003Z</time></trkpt><trkpt lat="45.05956543119677" lon="8.259796385609128"><ele>191.2</ele><time>2026-04-10T09:51:37.998Z</time></trkpt><trkpt lat="45.05963236003653" lon="8.259649311507392"><ele>191.8</ele><time>2026-04-10T09:51:39.998Z</time></trkpt><trkpt lat="45.05965940557927" lon="8.25952110062867"><ele>192.4</ele><time>2026-04-10T09:51:41.999Z</time></trkpt><trkpt lat="45.059677601784976" lon="8.259404645756497"><ele>193.0</ele><time>2026-04-10T09:51:43.999Z</time></trkpt><trkpt lat="45.05969603746623" lon="8.25928466674741"><ele>193.16666666666666</ele><time>2026-04-10T09:51:45.999Z</time></trkpt><trkpt lat="45.05970029871978" lon="8.259150431066518"><ele>193.33333333333331</ele><time>2026-04-10T09:51:47.999Z</time></trkpt><trkpt lat="45.05972263809788" lon="8.259047716031962"><ele>193.5</ele><time>2026-04-10T09:51:49.999Z</time></trkpt><trkpt lat="45.05974694728877" lon="8.258942124204216"><ele>193.66666666666669</ele><time>2026-04-10T09:51:51.999Z</time></trkpt><trkpt lat="45.05977261258492" lon="8.25883726053983"><ele>193.83333333333334</ele><time>2026-04-10T09:51:53.999Z</time></trkpt><trkpt lat="45.05979441841058" lon="8.258729145774456"><ele>194.0</ele><time>2026-04-10T09:51:55.999Z</time></trkpt><trkpt lat="45.0598131373454" lon="8.25862375667095"><ele>194.00000000000003</ele><time>2026-04-10T09:51:58Z</time></trkpt><trkpt lat="45.05979041541541" lon="8.258496211996787"><ele>194.0</ele><time>2026-04-10T09:52:00Z</time></trkpt><trkpt lat="45.05981414074519" lon="8.258392791336274"><ele>194.0</ele><time>2026-04-10T09:52:02Z</time></trkpt><trkpt lat="45.059834327926424" lon="8.258304793745525"><ele>194.0</ele><time>2026-04-10T09:52:04Z</time></trkpt><trkpt lat="45.05985811071012" lon="8.258201122638539"><ele>194.00000000000003</ele><time>2026-04-10T09:52:06Z</time></trkpt><trkpt lat="45.05988488152949" lon="8.25808442644419"><ele>194.0</ele><time>2026-04-10T09:52:08Z</time></trkpt><trkpt lat="45.0599081936633" lon="8.257982806944037"><ele>194.00000000000003</ele><time>2026-04-10T09:52:10Z</time></trkpt><trkpt lat="45.05993525483349" lon="8.257864845094083"><ele>194.0</ele><time>2026-04-10T09:52:12Z</time></trkpt><trkpt lat="45.059963282454625" lon="8.257742670398342"><ele>194.0</ele><time>2026-04-10T09:52:14Z</time></trkpt><trkpt lat="45.05998687470668" lon="8.257639829869145"><ele>194.0</ele><time>2026-04-10T09:52:16.001Z</time></trkpt><trkpt lat="45.060011671324816" lon="8.257531739353002"><ele>194.00000000000003</ele><time>2026-04-10T09:52:18.001Z</time></trkpt><trkpt lat="45.06003565074631" lon="8.257427211090482"><ele>194.0</ele><time>2026-04-10T09:52:20.001Z</time></trkpt><trkpt lat="45.06005908873214" lon="8.257325042996465"><ele>194.0</ele><time>2026-04-10T09:52:22.001Z</time></trkpt><trkpt lat="45.06008221162197" lon="8.257224248420908"><ele>194.0</ele><time>2026-04-10T09:52:24.001Z</time></trkpt><trkpt lat="45.060105995448126" lon="8.257120572771592"><ele>194.0</ele><time>2026-04-10T09:52:26.001Z</time></trkpt><trkpt lat="45.060130057684326" lon="8.257015683513393"><ele>194.0</ele><time>2026-04-10T09:52:28.001Z</time></trkpt><trkpt lat="45.0601518618809" lon="8.256920637231723"><ele>194.0</ele><time>2026-04-10T09:52:30.001Z</time></trkpt><trkpt lat="45.060173573560995" lon="8.256825994239385"><ele>194.0</ele><time>2026-04-10T09:52:32.001Z</time></trkpt><trkpt lat="45.060197698161204" lon="8.256720839210113"><ele>194.0</ele><time>2026-04-10T09:52:34.001Z</time></trkpt><trkpt lat="45.060235194498304" lon="8.256632204534963"><ele>194.0</ele><time>2026-04-10T09:52:36.001Z</time></trkpt><trkpt lat="45.06023940596274" lon="8.256539073407845"><ele>194.0</ele><time>2026-04-10T09:52:38.001Z</time></trkpt><trkpt lat="45.060262329196384" lon="8.256439172197421"><ele>194.0</ele><time>2026-04-10T09:52:40.001Z</time></trkpt><trkpt lat="45.060283495630756" lon="8.256346927250748"><ele>194.0</ele><time>2026-04-10T09:52:42.001Z</time></trkpt><trkpt lat="45.06030465980597" lon="8.256254692149303"><ele>194.0</ele><time>2026-04-10T09:52:44.002Z</time></trkpt><trkpt lat="45.060335212608365" lon="8.256121540685566"><ele>194.0</ele><time>2026-04-10T09:52:47.002Z</time></trkpt><trkpt lat="45.06035551877885" lon="8.256033044829866"><ele>194.0</ele><time>2026-04-10T09:52:49.002Z</time></trkpt><trkpt lat="45.0603756238873" lon="8.25594542522259"><ele>194.33333333333334</ele><time>2026-04-10T09:52:51.002Z</time></trkpt><trkpt lat="45.060395124255635" lon="8.255860441115937"><ele>194.66666666666669</ele><time>2026-04-10T09:52:53.002Z</time></trkpt><trkpt lat="45.06042153190972" lon="8.255745354523174"><ele>195.0</ele><time>2026-04-10T09:52:56.002Z</time></trkpt><trkpt lat="45.060441302861996" lon="8.255659191192935"><ele>195.33333333333331</ele><time>2026-04-10T09:52:58.002Z</time></trkpt><trkpt lat="45.06046949986102" lon="8.255536306506093"><ele>195.66666666666666</ele><time>2026-04-10T09:53:01.002Z</time></trkpt><trkpt lat="45.06048968098932" lon="8.255448355594067"><ele>196.0</ele><time>2026-04-10T09:53:03.002Z</time></trkpt><trkpt lat="45.06051808173346" lon="8.255324582964766"><ele>195.99999999999997</ele><time>2026-04-10T09:53:06.002Z</time></trkpt><trkpt lat="45.06053939832948" lon="8.255231683677376"><ele>196.0</ele><time>2026-04-10T09:53:08.002Z</time></trkpt><trkpt lat="45.06056663623609" lon="8.255112978712313"><ele>196.0</ele><time>2026-04-10T09:53:11.002Z</time></trkpt><trkpt lat="45.0605942871564" lon="8.254992473870743"><ele>196.0</ele><time>2026-04-10T09:53:14.002Z</time></trkpt><trkpt lat="45.06061378562036" lon="8.254907498061694"><ele>195.99999999999997</ele><time>2026-04-10T09:53:16.002Z</time></trkpt><trkpt lat="45.060640291538064" lon="8.254791983232197"><ele>196.0</ele><time>2026-04-10T09:53:19.003Z</time></trkpt><trkpt lat="45.06066858717584" lon="8.254668668666778"><ele>196.0</ele><time>2026-04-10T09:53:22.003Z</time></trkpt><trkpt lat="45.060688425166674" lon="8.254582213178"><ele>196.0</ele><time>2026-04-10T09:53:24.003Z</time></trkpt><trkpt lat="45.060709698776705" lon="8.254489501153833"><ele>196.0</ele><time>2026-04-10T09:53:26.003Z</time></trkpt><trkpt lat="45.06073309298445" lon="8.254387547402226"><ele>196.0</ele><time>2026-04-10T09:53:28.003Z</time></trkpt><trkpt lat="45.0607535387308" lon="8.254298443269668"><ele>196.0</ele><time>2026-04-10T09:53:30.003Z</time></trkpt><trkpt lat="45.060773646497275" lon="8.25421081207902"><ele>196.0</ele><time>2026-04-10T09:53:32.003Z</time></trkpt><trkpt lat="45.06079344126756" lon="8.254124544953799"><ele>196.0</ele><time>2026-04-10T09:53:34.003Z</time></trkpt><trkpt lat="45.060814532463766" lon="8.254032627901827"><ele>195.85714285714286</ele><time>2026-04-10T09:53:36.003Z</time></trkpt><trkpt lat="45.060836750809706" lon="8.25393579864819"><ele>195.71428571428572</ele><time>2026-04-10T09:53:38.003Z</time></trkpt><trkpt lat="45.06087065190596" lon="8.25385949356486"><ele>195.57142857142856</ele><time>2026-04-10T09:53:40.003Z</time></trkpt><trkpt lat="45.06089123658036" lon="8.253773606772697"><ele>195.42857142857144</ele><time>2026-04-10T09:53:41.998Z</time></trkpt><trkpt lat="45.06091287935342" lon="8.253679559012188"><ele>195.28571428571428</ele><time>2026-04-10T09:53:43.998Z</time></trkpt><trkpt lat="45.06093208966958" lon="8.253588913345489"><ele>195.14285714285714</ele><time>2026-04-10T09:53:45.999Z</time></trkpt><trkpt lat="45.0609500646802" lon="8.253503223927654"><ele>195.0</ele><time>2026-04-10T09:53:47.999Z</time></trkpt><trkpt lat="45.060957963847585" lon="8.253407542901732"><ele>195.0</ele><time>2026-04-10T09:53:49.999Z</time></trkpt><trkpt lat="45.06097746159412" lon="8.253322570035067"><ele>195.0</ele><time>2026-04-10T09:53:51.999Z</time></trkpt><trkpt lat="45.06099694879854" lon="8.253237643482707"><ele>195.0</ele><time>2026-04-10T09:53:53.999Z</time></trkpt><trkpt lat="45.06101762522351" lon="8.253147534029525"><ele>195.0</ele><time>2026-04-10T09:53:55.999Z</time></trkpt><trkpt lat="45.0610430776648" lon="8.253036610325161"><ele>195.0</ele><time>2026-04-10T09:53:58.999Z</time></trkpt><trkpt lat="45.06106598472649" lon="8.25293677956084"><ele>195.0</ele><time>2026-04-10T09:54:03Z</time></trkpt><trkpt lat="45.061087230316986" lon="8.25284418966999"><ele>195.0</ele><time>2026-04-10T09:54:06Z</time></trkpt><trkpt lat="45.061107369867266" lon="8.25275641996362"><ele>195.5</ele><time>2026-04-10T09:54:09Z</time></trkpt><trkpt lat="45.06112734392883" lon="8.252669371519751"><ele>196.0</ele><time>2026-04-10T09:54:12Z</time></trkpt><trkpt lat="45.061148850608596" lon="8.252575643705807"><ele>196.5</ele><time>2026-04-10T09:54:15Z</time></trkpt><trkpt lat="45.06117113085652" lon="8.252478544671174"><ele>197.0</ele><time>2026-04-10T09:54:18Z</time></trkpt><trkpt lat="45.06119395541132" lon="8.252379073509463"><ele>197.5</ele><time>2026-04-10T09:54:21.001Z</time></trkpt><trkpt lat="45.0612214887711" lon="8.252259081010244"><ele>198.0</ele><time>2026-04-10T09:54:24.001Z</time></trkpt><trkpt lat="45.06124886905938" lon="8.252139755614749"><ele>198.2857142857143</ele><time>2026-04-10T09:54:27.001Z</time></trkpt><trkpt lat="45.06126982852462" lon="8.252048412649271"><ele>198.57142857142856</ele><time>2026-04-10T09:54:30.001Z</time></trkpt><trkpt lat="45.06129186139266" lon="8.251952391746226"><ele>198.85714285714286</ele><time>2026-04-10T09:54:33.001Z</time></trkpt><trkpt lat="45.06131158622499" lon="8.251866429385538"><ele>199.14285714285717</ele><time>2026-04-10T09:54:36.001Z</time></trkpt><trkpt lat="45.06133591317657" lon="8.251760410658244"><ele>199.42857142857144</ele><time>2026-04-10T09:54:40.001Z</time></trkpt><trkpt lat="45.06135974789803" lon="8.251656537111277"><ele>199.71428571428572</ele><time>2026-04-10T09:54:43.001Z</time></trkpt><trkpt lat="45.06138331783353" lon="8.251553817518086"><ele>200.0</ele><time>2026-04-10T09:54:46.001Z</time></trkpt><trkpt lat="45.06140669086836" lon="8.251451956032295"><ele>200.83333333333334</ele><time>2026-04-10T09:54:49.002Z</time></trkpt><trkpt lat="45.06143102043986" lon="8.25134592588356"><ele>201.66666666666669</ele><time>2026-04-10T09:54:52.002Z</time></trkpt><trkpt lat="45.061456680012164" lon="8.251234099491453"><ele>202.5</ele><time>2026-04-10T09:54:55.002Z</time></trkpt><trkpt lat="45.061479457304976" lon="8.251134834303572"><ele>203.33333333333331</ele><time>2026-04-10T09:54:58.002Z</time></trkpt><trkpt lat="45.0615040716527" lon="8.251027563087105"><ele>204.16666666666666</ele><time>2026-04-10T09:55:01.002Z</time></trkpt><trkpt lat="45.06153187393502" lon="8.25090639860409"><ele>205.0</ele><time>2026-04-10T09:55:04.002Z</time></trkpt><trkpt lat="45.061558152775234" lon="8.250791873393814"><ele>204.99999999999997</ele><time>2026-04-10T09:55:07.002Z</time></trkpt><trkpt lat="45.06158329390837" lon="8.250682365700815"><ele>205.0</ele><time>2026-04-10T09:55:10.002Z</time></trkpt><trkpt lat="45.0616107744715" lon="8.250562727114616"><ele>205.0</ele><time>2026-04-10T09:55:13.002Z</time></trkpt><trkpt lat="45.06163841351828" lon="8.250442398556508"><ele>205.0</ele><time>2026-04-10T09:55:16.002Z</time></trkpt><trkpt lat="45.06166683423421" lon="8.250318666866521"><ele>204.99999999999997</ele><time>2026-04-10T09:55:19.002Z</time></trkpt><trkpt lat="45.061692660764024" lon="8.250206229315234"><ele>205.0</ele><time>2026-04-10T09:55:22.003Z</time></trkpt><trkpt lat="45.06172015999106" lon="8.250086509428758"><ele>204.99999999999997</ele><time>2026-04-10T09:55:25.003Z</time></trkpt><trkpt lat="45.061748319191" lon="8.249963916366118"><ele>205.0</ele><time>2026-04-10T09:55:28.003Z</time></trkpt><trkpt lat="45.061775715048654" lon="8.249844646582808"><ele>205.0</ele><time>2026-04-10T09:55:31.003Z</time></trkpt><trkpt lat="45.0618043294592" lon="8.249720071702567"><ele>205.0</ele><time>2026-04-10T09:55:34.003Z</time></trkpt><trkpt lat="45.06182857844753" lon="8.249614501909566"><ele>204.99999999999997</ele><time>2026-04-10T09:55:37.003Z</time></trkpt><trkpt lat="45.06184838128256" lon="8.249528288963145"><ele>205.0</ele><time>2026-04-10T09:55:39.003Z</time></trkpt><trkpt lat="45.061870048127986" lon="8.24943396081537"><ele>205.0</ele><time>2026-04-10T09:55:41.003Z</time></trkpt><trkpt lat="45.06189503513232" lon="8.249325178123776"><ele>205.0</ele><time>2026-04-10T09:55:43.003Z</time></trkpt><trkpt lat="45.06191849697728" lon="8.24922303528258"><ele>205.0</ele><time>2026-04-10T09:55:45.003Z</time></trkpt><trkpt lat="45.06195193744315" lon="8.249134677410499"><ele>205.0</ele><time>2026-04-10T09:55:47.003Z</time></trkpt><trkpt lat="45.06196479273534" lon="8.249039262119828"><ele>205.0</ele><time>2026-04-10T09:55:48.999Z</time></trkpt><trkpt lat="45.061999039215735" lon="8.248925669930529"><ele>205.0</ele><time>2026-04-10T09:55:51.999Z</time></trkpt><trkpt lat="45.06200543064165" lon="8.248833692239467"><ele>205.0</ele><time>2026-04-10T09:55:53.999Z</time></trkpt><trkpt lat="45.062030466065565" lon="8.24871609996916"><ele>205.33333333333331</ele><time>2026-04-10T09:55:56.999Z</time></trkpt><trkpt lat="45.062053892279486" lon="8.248606066220876"><ele>205.66666666666666</ele><time>2026-04-10T09:55:59.999Z</time></trkpt><trkpt lat="45.06207675616914" lon="8.2484986737292"><ele>206.0</ele><time>2026-04-10T09:56:03Z</time></trkpt><trkpt lat="45.062099083910255" lon="8.248393799549257"><ele>206.33333333333331</ele><time>2026-04-10T09:56:06Z</time></trkpt><trkpt lat="45.06212502469668" lon="8.248271954778968"><ele>206.66666666666666</ele><time>2026-04-10T09:56:09Z</time></trkpt><trkpt lat="45.06215013813389" lon="8.248153996093198"><ele>207.0</ele><time>2026-04-10T09:56:12Z</time></trkpt><trkpt lat="45.06217655982566" lon="8.248029892485674"><ele>208.0</ele><time>2026-04-10T09:56:15Z</time></trkpt><trkpt lat="45.06219597713345" lon="8.247938688720971"><ele>209.0</ele><time>2026-04-10T09:56:17Z</time></trkpt><trkpt lat="45.06221449985196" lon="8.247851686865655"><ele>210.0</ele><time>2026-04-10T09:56:19Z</time></trkpt><trkpt lat="45.06223400381992" lon="8.247760076050081"><ele>211.0</ele><time>2026-04-10T09:56:21Z</time></trkpt><trkpt lat="45.06225689700293" lon="8.247652545966247"><ele>212.0</ele><time>2026-04-10T09:56:24Z</time></trkpt><trkpt lat="45.062283977718806" lon="8.247525346902778"><ele>213.0</ele><time>2026-04-10T09:56:27.001Z</time></trkpt><trkpt lat="45.06230748361861" lon="8.247414938867678"><ele>213.0</ele><time>2026-04-10T09:56:30.001Z</time></trkpt><trkpt lat="45.062331794428786" lon="8.247300750138683"><ele>213.0</ele><time>2026-04-10T09:56:33.001Z</time></trkpt><trkpt lat="45.06235688932638" lon="8.24718287846922"><ele>213.0</ele><time>2026-04-10T09:56:36.001Z</time></trkpt><trkpt lat="45.06237980913857" lon="8.247075223358395"><ele>213.0</ele><time>2026-04-10T09:56:39.001Z</time></trkpt><trkpt lat="45.06240383344242" lon="8.246962380368121"><ele>213.0</ele><time>2026-04-10T09:56:42.001Z</time></trkpt><trkpt lat="45.06242837863161" lon="8.246847090757795"><ele>213.0</ele><time>2026-04-10T09:56:45.001Z</time></trkpt><trkpt lat="45.06245439225389" lon="8.24672490386564"><ele>211.57142857142856</ele><time>2026-04-10T09:56:48.001Z</time></trkpt><trkpt lat="45.062472765365854" lon="8.246638604717692"><ele>210.14285714285714</ele><time>2026-04-10T09:56:50.001Z</time></trkpt><trkpt lat="45.0625007755325" lon="8.246507039990759"><ele>208.71428571428572</ele><time>2026-04-10T09:56:53.001Z</time></trkpt><trkpt lat="45.0625192001551" lon="8.246420498898031"><ele>207.28571428571428</ele><time>2026-04-10T09:56:55.002Z</time></trkpt><trkpt lat="45.062538350403265" lon="8.246330549529597"><ele>205.85714285714286</ele><time>2026-04-10T09:56:57.002Z</time></trkpt><trkpt lat="45.06255791011069" lon="8.246238676881001"><ele>204.42857142857142</ele><time>2026-04-10T09:56:59.002Z</time></trkpt><trkpt lat="45.062576909333956" lon="8.246149436867858"><ele>203.0</ele><time>2026-04-10T09:57:01.002Z</time></trkpt><trkpt lat="45.06260508593738" lon="8.246017090378551"><ele>203.00000000000003</ele><time>2026-04-10T09:57:04.002Z</time></trkpt><trkpt lat="45.06263298888816" lon="8.245886029242593"><ele>203.0</ele><time>2026-04-10T09:57:07.002Z</time></trkpt><trkpt lat="45.062661302074886" lon="8.245753041213701"><ele>203.0</ele><time>2026-04-10T09:57:10.002Z</time></trkpt><trkpt lat="45.06268823701737" lon="8.245626526848179"><ele>203.0</ele><time>2026-04-10T09:57:13.002Z</time></trkpt><trkpt lat="45.06270664684764" lon="8.245540055228238"><ele>203.00000000000003</ele><time>2026-04-10T09:57:15.002Z</time></trkpt><trkpt lat="45.06273214613346" lon="8.2454202841981"><ele>203.0</ele><time>2026-04-10T09:57:18.002Z</time></trkpt><trkpt lat="45.06275135195836" lon="8.245330073767178"><ele>203.33333333333334</ele><time>2026-04-10T09:57:20.002Z</time></trkpt><trkpt lat="45.062776153054614" lon="8.245206993200203"><ele>203.66666666666669</ele><time>2026-04-10T09:57:23.002Z</time></trkpt><trkpt lat="45.062798675484416" lon="8.245091302416126"><ele>204.0</ele><time>2026-04-10T09:57:26.002Z</time></trkpt><trkpt lat="45.06281635525572" lon="8.24500048688239"><ele>204.33333333333331</ele><time>2026-04-10T09:57:28.003Z</time></trkpt><trkpt lat="45.06284062865972" lon="8.244875801744726"><ele>204.66666666666666</ele><time>2026-04-10T09:57:31.003Z</time></trkpt><trkpt lat="45.06286349771269" lon="8.244758330604343"><ele>205.0</ele><time>2026-04-10T09:57:34.003Z</time></trkpt><trkpt lat="45.062880713109514" lon="8.244669900416108"><ele>205.66666666666666</ele><time>2026-04-10T09:57:36.003Z</time></trkpt><trkpt lat="45.06290486204273" lon="8.24454585477969"><ele>206.33333333333331</ele><time>2026-04-10T09:57:39.003Z</time></trkpt><trkpt lat="45.06292428380556" lon="8.244413240483565"><ele>207.0</ele><time>2026-04-10T09:57:42.003Z</time></trkpt><trkpt lat="45.062936975900755" lon="8.24432043827952"><ele>207.66666666666669</ele><time>2026-04-10T09:57:44.003Z</time></trkpt><trkpt lat="45.06294912960592" lon="8.244231572729607"><ele>208.33333333333334</ele><time>2026-04-10T09:57:46.003Z</time></trkpt><trkpt lat="45.062961451286114" lon="8.244141478897372"><ele>209.0</ele><time>2026-04-10T09:57:48.003Z</time></trkpt><trkpt lat="45.06297464674809" lon="8.244044996174749"><ele>208.50000000000003</ele><time>2026-04-10T09:57:50.003Z</time></trkpt><trkpt lat="45.06298546441686" lon="8.24392235287279"><ele>208.0</ele><time>2026-04-10T09:57:53.003Z</time></trkpt><trkpt lat="45.06298742147267" lon="8.243827892636414"><ele>207.5</ele><time>2026-04-10T09:57:54.999Z</time></trkpt><trkpt lat="45.06298935499083" lon="8.24373456835989"><ele>207.0</ele><time>2026-04-10T09:57:56.999Z</time></trkpt><trkpt lat="45.062991288571304" lon="8.243641241310446"><ele>206.50000000000003</ele><time>2026-04-10T09:57:58.999Z</time></trkpt><trkpt lat="45.0629940281261" lon="8.243509012618526"><ele>206.0</ele><time>2026-04-10T09:58:01.999Z</time></trkpt><trkpt lat="45.062991089041724" lon="8.24338076044942"><ele>205.99999999999997</ele><time>2026-04-10T09:58:04.999Z</time></trkpt><trkpt lat="45.0629868565763" lon="8.243283743329792"><ele>206.0</ele><time>2026-04-10T09:58:06.999Z</time></trkpt><trkpt lat="45.06298138654685" lon="8.243158358627811"><ele>206.0</ele><time>2026-04-10T09:58:10Z</time></trkpt><trkpt lat="45.06297733905671" lon="8.243065581542604"><ele>206.0</ele><time>2026-04-10T09:58:12Z</time></trkpt><trkpt lat="45.06297373905696" lon="8.242968495663433"><ele>206.0</ele><time>2026-04-10T09:58:14Z</time></trkpt><trkpt lat="45.06297118225233" lon="8.242879206827045"><ele>205.99999999999997</ele><time>2026-04-10T09:58:16Z</time></trkpt><trkpt lat="45.062968575715075" lon="8.242788181433546"><ele>206.0</ele><time>2026-04-10T09:58:18Z</time></trkpt><trkpt lat="45.06296477108684" lon="8.24265531592733"><ele>207.50000000000003</ele><time>2026-04-10T09:58:21Z</time></trkpt><trkpt lat="45.06296210155553" lon="8.242562090452282"><ele>209.0</ele><time>2026-04-10T09:58:23Z</time></trkpt><trkpt lat="45.06295573587013" lon="8.24243320262597"><ele>210.5</ele><time>2026-04-10T09:58:26Z</time></trkpt><trkpt lat="45.062948461115006" lon="8.242315127575186"><ele>212.0</ele><time>2026-04-10T09:58:29.001Z</time></trkpt><trkpt lat="45.062942118611026" lon="8.24221218370822"><ele>213.50000000000003</ele><time>2026-04-10T09:58:32.001Z</time></trkpt><trkpt lat="45.062934973522" lon="8.242096213214248"><ele>215.0</ele><time>2026-04-10T09:58:35.001Z</time></trkpt><trkpt lat="45.062927913017866" lon="8.241981612294047"><ele>206.0</ele><time>2026-04-10T09:58:38.001Z</time></trkpt><trkpt lat="45.063437405612646" lon="8.241489661037953"><ele>206.7142857142857</ele><time>2026-04-10T09:58:50.001Z</time></trkpt><trkpt lat="45.06347227289642" lon="8.241410062879416"><ele>207.42857142857142</ele><time>2026-04-10T09:58:53.001Z</time></trkpt><trkpt lat="45.063514914266094" lon="8.241342862878403"><ele>208.14285714285714</ele><time>2026-04-10T09:58:57.001Z</time></trkpt><trkpt lat="45.06348644705652" lon="8.241221012204239"><ele>208.85714285714283</ele><time>2026-04-10T09:59:01.002Z</time></trkpt><trkpt lat="45.06341326702427" lon="8.241133802070703"><ele>209.57142857142858</ele><time>2026-04-10T09:59:04.002Z</time></trkpt><trkpt lat="45.0633745531279" lon="8.241063325416624"><ele>210.28571428571428</ele><time>2026-04-10T09:59:06.002Z</time></trkpt><trkpt lat="45.063334486144846" lon="8.24099065200102"><ele>211.0</ele><time>2026-04-10T09:59:08.002Z</time></trkpt><trkpt lat="45.06328580868092" lon="8.240920316955995"><ele>212.0</ele><time>2026-04-10T09:59:10.002Z</time></trkpt><trkpt lat="45.06324493054688" lon="8.240852528982147"><ele>213.0</ele><time>2026-04-10T09:59:12.002Z</time></trkpt><trkpt lat="45.063196754949125" lon="8.240779834920174"><ele>214.0</ele><time>2026-04-10T09:59:14.002Z</time></trkpt><trkpt lat="45.063151223738686" lon="8.240704409253638"><ele>215.0</ele><time>2026-04-10T09:59:16.002Z</time></trkpt><trkpt lat="45.063098846813496" lon="8.240636053356475"><ele>216.0</ele><time>2026-04-10T09:59:18.002Z</time></trkpt><trkpt lat="45.06304964446384" lon="8.240576073258145"><ele>217.0</ele><time>2026-04-10T09:59:20.002Z</time></trkpt><trkpt lat="45.06301122194698" lon="8.240473919682751"><ele>218.0</ele><time>2026-04-10T09:59:22.002Z</time></trkpt><trkpt lat="45.06296930261125" lon="8.240401738004422"><ele>218.00000000000003</ele><time>2026-04-10T09:59:24.002Z</time></trkpt><trkpt lat="45.06292053685885" lon="8.240333449902488"><ele>218.0</ele><time>2026-04-10T09:59:26.002Z</time></trkpt><trkpt lat="45.062875088637824" lon="8.240242773206132"><ele>218.0</ele><time>2026-04-10T09:59:28.002Z</time></trkpt><trkpt lat="45.06282270127873" lon="8.24016593078615"><ele>218.0</ele><time>2026-04-10T09:59:30.002Z</time></trkpt><trkpt lat="45.06276900500128" lon="8.2401007193263"><ele>218.00000000000003</ele><time>2026-04-10T09:59:32.003Z</time></trkpt><trkpt lat="45.06267758450775" lon="8.2400466240715"><ele>218.0</ele><time>2026-04-10T09:59:34.003Z</time></trkpt><trkpt lat="45.06255911363633" lon="8.24001471107839"><ele>218.00000000000003</ele><time>2026-04-10T09:59:36.003Z</time></trkpt><trkpt lat="45.062493037784" lon="8.239977073666974"><ele>218.0</ele><time>2026-04-10T09:59:37.003Z</time></trkpt><trkpt lat="45.062419934746124" lon="8.239961792348357"><ele>218.0</ele><time>2026-04-10T09:59:38.003Z</time></trkpt><trkpt lat="45.06234658427736" lon="8.23996488433062"><ele>218.0</ele><time>2026-04-10T09:59:39.003Z</time></trkpt><trkpt lat="45.06228038976595" lon="8.239947480399143"><ele>218.00000000000003</ele><time>2026-04-10T09:59:40.003Z</time></trkpt><trkpt lat="45.06217730172993" lon="8.239899629548916"><ele>218.0</ele><time>2026-04-10T09:59:42.003Z</time></trkpt><trkpt lat="45.062074073636815" lon="8.23981233470558"><ele>216.57142857142858</ele><time>2026-04-10T09:59:44.003Z</time></trkpt><trkpt lat="45.06202458415361" lon="8.23975415189455"><ele>215.14285714285717</ele><time>2026-04-10T09:59:45.003Z</time></trkpt><trkpt lat="45.06197513587632" lon="8.23969093014258"><ele>213.71428571428572</ele><time>2026-04-10T09:59:46.003Z</time></trkpt><trkpt lat="45.061928294104334" lon="8.239626798294998"><ele>212.28571428571428</ele><time>2026-04-10T09:59:47.003Z</time></trkpt><trkpt lat="45.0618817281343" lon="8.239562634197625"><ele>210.85714285714286</ele><time>2026-04-10T09:59:48.003Z</time></trkpt><trkpt lat="45.06183292329947" lon="8.239497900050955"><ele>209.42857142857142</ele><time>2026-04-10T09:59:49.003Z</time></trkpt><trkpt lat="45.061785382543576" lon="8.239437700701396"><ele>208.0</ele><time>2026-04-10T09:59:50.003Z</time></trkpt><trkpt lat="45.06170161917156" lon="8.239349112904323"><ele>208.0</ele><time>2026-04-10T09:59:52.003Z</time></trkpt><trkpt lat="45.06165416405823" lon="8.239274685576882"><ele>208.0</ele><time>2026-04-10T09:59:54.003Z</time></trkpt><trkpt lat="45.0616073451202" lon="8.239207067449001"><ele>208.0</ele><time>2026-04-10T09:59:59.003Z</time></trkpt><trkpt lat="45.06165930105212" lon="8.239269497170529"><ele>208.0</ele><time>2026-04-10T10:00:03.999Z</time></trkpt><trkpt lat="45.06172237804581" lon="8.239349120789953"><ele>208.0</ele><time>2026-04-10T10:00:06.999Z</time></trkpt><trkpt lat="45.061779279931734" lon="8.239420949216687"><ele>208.0</ele><time>2026-04-10T10:00:08.999Z</time></trkpt><trkpt lat="45.0618410839149" lon="8.239498965673057"><ele>208.0</ele><time>2026-04-10T10:00:10.999Z</time></trkpt><trkpt lat="45.061903860023094" lon="8.23957820951604"><ele>207.99999999999997</ele><time>2026-04-10T10:00:12.999Z</time></trkpt><trkpt lat="45.06196429799969" lon="8.23965450199925"><ele>208.0</ele><time>2026-04-10T10:00:14.999Z</time></trkpt><trkpt lat="45.06202153914557" lon="8.239726758919076"><ele>208.0</ele><time>2026-04-10T10:00:16.999Z</time></trkpt><trkpt lat="45.06207520762863" lon="8.239788511068415"><ele>208.0</ele><time>2026-04-10T10:00:19Z</time></trkpt><trkpt lat="45.06214437518519" lon="8.239846402097616"><ele>207.99999999999997</ele><time>2026-04-10T10:00:22Z</time></trkpt><trkpt lat="45.06220895112751" lon="8.23983683157072"><ele>208.0</ele><time>2026-04-10T10:00:32Z</time></trkpt><trkpt lat="45.06231317231204" lon="8.239518458801328"><ele>207.99999999999997</ele><time>2026-04-10T10:00:34Z</time></trkpt><trkpt lat="45.06230118687793" lon="8.239390958458033"><ele>208.0</ele><time>2026-04-10T10:00:37.001Z</time></trkpt><trkpt lat="45.0622665554716" lon="8.239307324795588"><ele>208.0</ele><time>2026-04-10T10:00:39.001Z</time></trkpt><trkpt lat="45.0622279665114" lon="8.239232976156034"><ele>208.0</ele><time>2026-04-10T10:00:41.001Z</time></trkpt><trkpt lat="45.062176851969795" lon="8.239172039991754"><ele>207.99999999999997</ele><time>2026-04-10T10:00:43.001Z</time></trkpt><trkpt lat="45.062107618587" lon="8.239112615530258"><ele>208.0</ele><time>2026-04-10T10:00:45.001Z</time></trkpt><trkpt lat="45.062034143504064" lon="8.239062612547887"><ele>208.0</ele><time>2026-04-10T10:00:47.001Z</time></trkpt><trkpt lat="45.06196274501987" lon="8.239007682125184"><ele>208.0</ele><time>2026-04-10T10:00:49.001Z</time></trkpt><trkpt lat="45.061901006139536" lon="8.238916744580028"><ele>208.0</ele><time>2026-04-10T10:00:51.001Z</time></trkpt><trkpt lat="45.061837388979164" lon="8.238812850652803"><ele>208.0</ele><time>2026-04-10T10:00:53.001Z</time></trkpt><trkpt lat="45.06179329990527" lon="8.238695630969776"><ele>208.0</ele><time>2026-04-10T10:00:55.001Z</time></trkpt><trkpt lat="45.06174333043424" lon="8.23856940837037"><ele>207.4</ele><time>2026-04-10T10:00:57.001Z</time></trkpt><trkpt lat="45.06167900851054" lon="8.238482910736042"><ele>206.8</ele><time>2026-04-10T10:00:59.001Z</time></trkpt><trkpt lat="45.06157862000627" lon="8.238420737547962"><ele>206.2</ele><time>2026-04-10T10:01:01.001Z</time></trkpt><trkpt lat="45.06148300235066" lon="8.238337396750621"><ele>205.6</ele><time>2026-04-10T10:01:03.001Z</time></trkpt><trkpt lat="45.061400000657905" lon="8.238236858131899"><ele>205.0</ele><time>2026-04-10T10:01:05.001Z</time></trkpt><trkpt lat="45.061280142604126" lon="8.238294045842425"><ele>204.99999999999997</ele><time>2026-04-10T10:01:06.002Z</time></trkpt><trkpt lat="45.06120145852378" lon="8.238183718283583"><ele>205.0</ele><time>2026-04-10T10:01:08.002Z</time></trkpt><trkpt lat="45.06113220789196" lon="8.238087317259652"><ele>205.0</ele><time>2026-04-10T10:01:10.002Z</time></trkpt><trkpt lat="45.06107424031159" lon="8.238010948407949"><ele>205.0</ele><time>2026-04-10T10:01:12.002Z</time></trkpt><trkpt lat="45.06101207150998" lon="8.23792904469563"><ele>204.99999999999997</ele><time>2026-04-10T10:01:14.002Z</time></trkpt><trkpt lat="45.06095704175345" lon="8.237856546248137"><ele>205.0</ele><time>2026-04-10T10:01:16.002Z</time></trkpt><trkpt lat="45.06090739764873" lon="8.237791143079118"><ele>204.0</ele><time>2026-04-10T10:01:18.002Z</time></trkpt><trkpt lat="45.06087839386344" lon="8.237704366675501"><ele>203.0</ele><time>2026-04-10T10:01:21.002Z</time></trkpt><trkpt lat="45.060838470595144" lon="8.237623764830825"><ele>202.0</ele><time>2026-04-10T10:01:25.002Z</time></trkpt><trkpt lat="45.06111047917739" lon="8.237163568020161"><ele>201.83333333333331</ele><time>2026-04-10T10:01:27.002Z</time></trkpt><trkpt lat="45.06112856529774" lon="8.237068188035549"><ele>201.66666666666666</ele><time>2026-04-10T10:01:29.002Z</time></trkpt><trkpt lat="45.06113849151093" lon="8.23697179396503"><ele>201.5</ele><time>2026-04-10T10:01:31.002Z</time></trkpt><trkpt lat="45.06114159662997" lon="8.236878801293697"><ele>201.33333333333331</ele><time>2026-04-10T10:01:33.002Z</time></trkpt><trkpt lat="45.06114148309348" lon="8.236786507054772"><ele>201.16666666666666</ele><time>2026-04-10T10:01:35.002Z</time></trkpt><trkpt lat="45.06113347829665" lon="8.236650975271363"><ele>201.0</ele><time>2026-04-10T10:01:38.003Z</time></trkpt><trkpt lat="45.06112789195425" lon="8.236522917373431"><ele>201.7142857142857</ele><time>2026-04-10T10:01:41.003Z</time></trkpt><trkpt lat="45.06112246668932" lon="8.236431848167477"><ele>202.42857142857144</ele><time>2026-04-10T10:01:43.003Z</time></trkpt><trkpt lat="45.06111922434905" lon="8.236297890088911"><ele>203.14285714285714</ele><time>2026-04-10T10:01:46.003Z</time></trkpt><trkpt lat="45.06112448711837" lon="8.236207663202508"><ele>203.85714285714283</ele><time>2026-04-10T10:01:48.003Z</time></trkpt><trkpt lat="45.06113065148841" lon="8.23611508192025"><ele>204.57142857142856</ele><time>2026-04-10T10:01:50.003Z</time></trkpt><trkpt lat="45.06114179791487" lon="8.236012194986241"><ele>205.28571428571428</ele><time>2026-04-10T10:01:52.003Z</time></trkpt><trkpt lat="45.06115311943316" lon="8.23592063190519"><ele>206.0</ele><time>2026-04-10T10:01:54.003Z</time></trkpt><trkpt lat="45.06117496738371" lon="8.235798145653222"><ele>206.00000000000003</ele><time>2026-04-10T10:01:57.003Z</time></trkpt><trkpt lat="45.061199980626945" lon="8.235677718901572"><ele>206.0</ele><time>2026-04-10T10:02:00.003Z</time></trkpt><trkpt lat="45.06123262793318" lon="8.235552252795786"><ele>206.0</ele><time>2026-04-10T10:02:03.003Z</time></trkpt><trkpt lat="45.061259457141475" lon="8.235437143069843"><ele>206.0</ele><time>2026-04-10T10:02:05.998Z</time></trkpt><trkpt lat="45.06128679340773" lon="8.235336707818858"><ele>206.00000000000003</ele><time>2026-04-10T10:02:08.999Z</time></trkpt><trkpt lat="45.06131453600233" lon="8.235229385691625"><ele>206.0</ele><time>2026-04-10T10:02:11.999Z</time></trkpt><trkpt lat="45.06134467249584" lon="8.235125612207055"><ele>207.16666666666669</ele><time>2026-04-10T10:02:14.999Z</time></trkpt><trkpt lat="45.061376469540384" lon="8.235015090679669"><ele>208.33333333333334</ele><time>2026-04-10T10:02:17.999Z</time></trkpt><trkpt lat="45.06139396327067" lon="8.234904072753073"><ele>209.5</ele><time>2026-04-10T10:02:20.999Z</time></trkpt><trkpt lat="45.0614101922069" lon="8.23479841024989"><ele>210.66666666666669</ele><time>2026-04-10T10:02:24Z</time></trkpt><trkpt lat="45.061423792418374" lon="8.234675541627414"><ele>211.83333333333334</ele><time>2026-04-10T10:02:27Z</time></trkpt><trkpt lat="45.06143346350906" lon="8.234556288399304"><ele>213.0</ele><time>2026-04-10T10:02:30Z</time></trkpt><trkpt lat="45.06144522617168" lon="8.234442039765902"><ele>213.66666666666666</ele><time>2026-04-10T10:02:33Z</time></trkpt><trkpt lat="45.06144994305042" lon="8.234323608261304"><ele>214.33333333333331</ele><time>2026-04-10T10:02:36Z</time></trkpt><trkpt lat="45.06145159361026" lon="8.234213834261615"><ele>215.0</ele><time>2026-04-10T10:02:39Z</time></trkpt><trkpt lat="45.061456924771164" lon="8.234105966127599"><ele>215.66666666666666</ele><time>2026-04-10T10:02:42.001Z</time></trkpt><trkpt lat="45.06146083442483" lon="8.233993041597424"><ele>216.33333333333331</ele><time>2026-04-10T10:02:45.001Z</time></trkpt><trkpt lat="45.06146486752275" lon="8.233897343635999"><ele>217.0</ele><time>2026-04-10T10:02:49.001Z</time></trkpt><trkpt lat="45.06146377902498" lon="8.23380516312097"><ele>218.14285714285714</ele><time>2026-04-10T10:02:52.001Z</time></trkpt><trkpt lat="45.06146122039353" lon="8.233688246840224"><ele>219.28571428571428</ele><time>2026-04-10T10:02:56.001Z</time></trkpt><trkpt lat="45.06143606044007" lon="8.233594708172006"><ele>220.42857142857144</ele><time>2026-04-10T10:03:00.001Z</time></trkpt><trkpt lat="45.06143868063896" lon="8.233687477310083"><ele>221.57142857142858</ele><time>2026-04-10T10:04:22.999Z</time></trkpt><trkpt lat="45.0614394537808" lon="8.233785720447605"><ele>222.71428571428572</ele><time>2026-04-10T10:04:52.001Z</time></trkpt><trkpt lat="45.06144438963591" lon="8.233879024845294"><ele>223.8571428571429</ele><time>2026-04-10T10:05:01.001Z</time></trkpt><trkpt lat="45.061445156521195" lon="8.233769771746394"><ele>225.00000000000003</ele><time>2026-04-10T10:06:09.003Z</time></trkpt><trkpt lat="45.06144458526997" lon="8.233678668607558"><ele>225.00000000000003</ele><time>2026-04-10T10:06:16.003Z</time></trkpt><trkpt lat="45.061419315626104" lon="8.23358981718227"><ele>225.0</ele><time>2026-04-10T10:06:23.998Z</time></trkpt><trkpt lat="45.061448115577946" lon="8.233671065370329"><ele>225.00000000000003</ele><time>2026-04-10T10:06:30.999Z</time></trkpt><trkpt lat="45.061464910067784" lon="8.23376694688944"><ele>225.00000000000003</ele><time>2026-04-10T10:06:36.999Z</time></trkpt><trkpt lat="45.061464618826264" lon="8.2338569720373"><ele>225.0</ele><time>2026-04-10T10:06:48Z</time></trkpt><trkpt lat="45.061457232408486" lon="8.233946542956645"><ele>225.00000000000003</ele><time>2026-04-10T10:06:57Z</time></trkpt><trkpt lat="45.06138270059872" lon="8.23398132822142"><ele>225.00000000000003</ele><time>2026-04-10T10:07:17.001Z</time></trkpt><trkpt lat="45.06144629283605" lon="8.234038691538975"><ele>225.0</ele><time>2026-04-10T10:08:42Z</time></trkpt><trkpt lat="45.061438537348515" lon="8.233943410703226"><ele>225.0</ele><time>2026-04-10T10:09:00.001Z</time></trkpt><trkpt lat="45.061454913499894" lon="8.233853894017512"><ele>225.0</ele><time>2026-04-10T10:11:14.001Z</time></trkpt><trkpt lat="45.06145343680778" lon="8.233758642246185"><ele>225.0</ele><time>2026-04-10T10:11:23.001Z</time></trkpt><trkpt lat="45.06144032323767" lon="8.233671174891601"><ele>225.0</ele><time>2026-04-10T10:11:30.001Z</time></trkpt><trkpt lat="45.061439357957966" lon="8.233499093973876"><ele>225.0</ele><time>2026-04-10T10:16:39.002Z</time></trkpt><trkpt lat="45.0614648869612" lon="8.233395554422508"><ele>225.00000000000003</ele><time>2026-04-10T10:16:43.002Z</time></trkpt><trkpt lat="45.06147691078151" lon="8.23328405390196"><ele>225.0</ele><time>2026-04-10T10:16:47.002Z</time></trkpt><trkpt lat="45.06148579971411" lon="8.23318125227169"><ele>225.00000000000003</ele><time>2026-04-10T10:16:50Z</time></trkpt><trkpt lat="45.06148842145446" lon="8.233084453799409"><ele>225.00000000000003</ele><time>2026-04-10T10:16:53Z</time></trkpt><trkpt lat="45.061493480649055" lon="8.23298816805778"><ele>225.0</ele><time>2026-04-10T10:16:56Z</time></trkpt><trkpt lat="45.06149744095439" lon="8.232893564033873"><ele>225.00000000000003</ele><time>2026-04-10T10:16:59Z</time></trkpt><trkpt lat="45.06149717068313" lon="8.232798883785991"><ele>225.00000000000003</ele><time>2026-04-10T10:17:02Z</time></trkpt><trkpt lat="45.061498701244055" lon="8.232697091547854"><ele>226.14285714285717</ele><time>2026-04-10T10:17:05Z</time></trkpt><trkpt lat="45.06149446994251" lon="8.23259533120649"><ele>227.28571428571428</ele><time>2026-04-10T10:17:08Z</time></trkpt><trkpt lat="45.06149583016942" lon="8.232504405323047"><ele>228.42857142857144</ele><time>2026-04-10T10:17:11Z</time></trkpt><trkpt lat="45.061489488083325" lon="8.232406338408081"><ele>229.57142857142858</ele><time>2026-04-10T10:17:14Z</time></trkpt><trkpt lat="45.061472869201474" lon="8.232298720664495"><ele>230.71428571428572</ele><time>2026-04-10T10:17:18Z</time></trkpt><trkpt lat="45.061481595185384" lon="8.232204815036322"><ele>231.85714285714286</ele><time>2026-04-10T10:17:21Z</time></trkpt><trkpt lat="45.0614824745236" lon="8.23211542410495"><ele>233.0</ele><time>2026-04-10T10:17:24Z</time></trkpt><trkpt lat="45.06148371570436" lon="8.2320175405654"><ele>234.28571428571428</ele><time>2026-04-10T10:17:27Z</time></trkpt><trkpt lat="45.061489994145575" lon="8.231921401296459"><ele>235.57142857142856</ele><time>2026-04-10T10:17:30.001Z</time></trkpt><trkpt lat="45.061491877208645" lon="8.231828320657078"><ele>236.85714285714283</ele><time>2026-04-10T10:17:33.001Z</time></trkpt><trkpt lat="45.06149803579387" lon="8.231728992109472"><ele>238.14285714285714</ele><time>2026-04-10T10:17:36.001Z</time></trkpt><trkpt lat="45.06150996021563" lon="8.231629491261588"><ele>239.4285714285714</ele><time>2026-04-10T10:17:39.001Z</time></trkpt><trkpt lat="45.061517320058435" lon="8.231525231353196"><ele>240.7142857142857</ele><time>2026-04-10T10:17:42.001Z</time></trkpt><trkpt lat="45.06152645463824" lon="8.231414298819427"><ele>242.0</ele><time>2026-04-10T10:17:45.001Z</time></trkpt><trkpt lat="45.0615382849263" lon="8.23131450761899"><ele>243.50000000000003</ele><time>2026-04-10T10:17:48.001Z</time></trkpt><trkpt lat="45.061554282822506" lon="8.231217776594047"><ele>245.0</ele><time>2026-04-10T10:17:51.001Z</time></trkpt><trkpt lat="45.06155900256787" lon="8.231111192636927"><ele>246.5</ele><time>2026-04-10T10:17:54.001Z</time></trkpt><trkpt lat="45.06157399045649" lon="8.230999855775849"><ele>248.0</ele><time>2026-04-10T10:17:57.001Z</time></trkpt><trkpt lat="45.061584950437464" lon="8.230896325789914"><ele>249.50000000000003</ele><time>2026-04-10T10:18:00.001Z</time></trkpt><trkpt lat="45.061595418625025" lon="8.230786327845323"><ele>251.0</ele><time>2026-04-10T10:18:03.001Z</time></trkpt><trkpt lat="45.06159809701167" lon="8.23066208082321"><ele>252.50000000000003</ele><time>2026-04-10T10:18:06.001Z</time></trkpt><trkpt lat="45.06159647879347" lon="8.230545932138181"><ele>254.0</ele><time>2026-04-10T10:18:09.001Z</time></trkpt><trkpt lat="45.06159218569744" lon="8.230444138939172"><ele>255.5</ele><time>2026-04-10T10:18:12.002Z</time></trkpt><trkpt lat="45.061586817892824" lon="8.230330115625996"><ele>257.0</ele><time>2026-04-10T10:18:15.002Z</time></trkpt><trkpt lat="45.06157938536636" lon="8.230225699249559"><ele>258.5</ele><time>2026-04-10T10:18:18.002Z</time></trkpt><trkpt lat="45.06157535579604" lon="8.23011150216971"><ele>260.0</ele><time>2026-04-10T10:18:21.002Z</time></trkpt><trkpt lat="45.0615643997855" lon="8.229999875954153"><ele>260.00000000000006</ele><time>2026-04-10T10:18:24.002Z</time></trkpt><trkpt lat="45.061562194939825" lon="8.229908972544921"><ele>260.0</ele><time>2026-04-10T10:18:27.002Z</time></trkpt><trkpt lat="45.06160176182674" lon="8.229798161033871"><ele>260.0</ele><time>2026-04-10T10:18:31.002Z</time></trkpt><trkpt lat="45.06166449187786" lon="8.2297404035946"><ele>260.0</ele><time>2026-04-10T10:18:35.002Z</time></trkpt><trkpt lat="45.061722564187285" lon="8.229675023430788"><ele>260.0</ele><time>2026-04-10T10:18:38.002Z</time></trkpt><trkpt lat="45.061773429480944" lon="8.229606956496017"><ele>260.00000000000006</ele><time>2026-04-10T10:18:40.002Z</time></trkpt><trkpt lat="45.0618255122492" lon="8.229538202108296"><ele>260.0</ele><time>2026-04-10T10:18:42.002Z</time></trkpt><trkpt lat="45.06187342063402" lon="8.229477176644128"><ele>261.5</ele><time>2026-04-10T10:18:44.002Z</time></trkpt><trkpt lat="45.061921508310725" lon="8.22941336245939"><ele>263.0</ele><time>2026-04-10T10:18:46.002Z</time></trkpt><trkpt lat="45.06198217406039" lon="8.22931871585409"><ele>264.5</ele><time>2026-04-10T10:18:49.002Z</time></trkpt><trkpt lat="45.062023723200866" lon="8.22925096608713"><ele>266.0</ele><time>2026-04-10T10:18:51.002Z</time></trkpt><trkpt lat="45.06208329436989" lon="8.229144391544935"><ele>267.5</ele><time>2026-04-10T10:18:53.998Z</time></trkpt><trkpt lat="45.062140581443266" lon="8.229045779122645"><ele>269.0</ele><time>2026-04-10T10:18:56.998Z</time></trkpt><trkpt lat="45.06217857149075" lon="8.228928123420726"><ele>269.14285714285717</ele><time>2026-04-10T10:18:59.998Z</time></trkpt><trkpt lat="45.062199223696574" lon="8.228818760407192"><ele>269.28571428571433</ele><time>2026-04-10T10:19:01.998Z</time></trkpt><trkpt lat="45.0622231908191" lon="8.228729076855357"><ele>269.42857142857144</ele><time>2026-04-10T10:19:03.998Z</time></trkpt><trkpt lat="45.06225304925389" lon="8.228623760813697"><ele>269.57142857142856</ele><time>2026-04-10T10:19:06.998Z</time></trkpt><trkpt lat="45.06227415255504" lon="8.228516362228913"><ele>269.71428571428567</ele><time>2026-04-10T10:19:09.999Z</time></trkpt><trkpt lat="45.06226164071951" lon="8.228420757120551"><ele>269.85714285714283</ele><time>2026-04-10T10:19:15.999Z</time></trkpt><trkpt lat="45.06221218258927" lon="8.228355169852815"><ele>270.0</ele><time>2026-04-10T10:19:20.999Z</time></trkpt><trkpt lat="45.062149756469914" lon="8.22828225810917"><ele>270.0</ele><time>2026-04-10T10:19:23.999Z</time></trkpt><trkpt lat="45.062080884080466" lon="8.228202905758808"><ele>270.0</ele><time>2026-04-10T10:19:27Z</time></trkpt><trkpt lat="45.06204047456307" lon="8.228117607636541"><ele>270.0</ele><time>2026-04-10T10:19:30Z</time></trkpt><trkpt lat="45.062000880732995" lon="8.22803949355368"><ele>270.0</ele><time>2026-04-10T10:19:33Z</time></trkpt><trkpt lat="45.06197797125699" lon="8.227940290080195"><ele>270.0</ele><time>2026-04-10T10:19:36Z</time></trkpt><trkpt lat="45.06196810623906" lon="8.227833884126778"><ele>270.0</ele><time>2026-04-10T10:19:39Z</time></trkpt><trkpt lat="45.061966393280606" lon="8.22773174226707"><ele>268.3333333333333</ele><time>2026-04-10T10:19:42Z</time></trkpt><trkpt lat="45.06197134287792" lon="8.227626926455837"><ele>266.6666666666667</ele><time>2026-04-10T10:19:45Z</time></trkpt><trkpt lat="45.06198092695533" lon="8.227503623101478"><ele>265.0</ele><time>2026-04-10T10:19:47Z</time></trkpt><trkpt lat="45.06200583686737" lon="8.227381456547404"><ele>263.33333333333337</ele><time>2026-04-10T10:19:49Z</time></trkpt><trkpt lat="45.06203207739397" lon="8.227250092948262"><ele>261.6666666666667</ele><time>2026-04-10T10:19:51Z</time></trkpt><trkpt lat="45.062061162138576" lon="8.227127565662986"><ele>260.0</ele><time>2026-04-10T10:19:53.001Z</time></trkpt><trkpt lat="45.06209325067066" lon="8.226988508887231"><ele>258.1666666666667</ele><time>2026-04-10T10:19:55.001Z</time></trkpt><trkpt lat="45.06211526998309" lon="8.226881089130668"><ele>256.33333333333337</ele><time>2026-04-10T10:19:57.001Z</time></trkpt><trkpt lat="45.06214344768701" lon="8.22677709473071"><ele>254.5</ele><time>2026-04-10T10:19:59.001Z</time></trkpt><trkpt lat="45.062182092526996" lon="8.226645614702477"><ele>252.66666666666669</ele><time>2026-04-10T10:20:02.001Z</time></trkpt><trkpt lat="45.06221132961384" lon="8.226559042833468"><ele>250.83333333333334</ele><time>2026-04-10T10:20:04.001Z</time></trkpt><trkpt lat="45.06223565611472" lon="8.2264660219717"><ele>249.0</ele><time>2026-04-10T10:20:06.001Z</time></trkpt><trkpt lat="45.062253762744795" lon="8.226370976134962"><ele>247.66666666666666</ele><time>2026-04-10T10:20:08.001Z</time></trkpt><trkpt lat="45.06226521837371" lon="8.226271774118855"><ele>246.33333333333331</ele><time>2026-04-10T10:20:10.001Z</time></trkpt><trkpt lat="45.06226398347962" lon="8.226151662016628"><ele>245.0</ele><time>2026-04-10T10:20:12.001Z</time></trkpt><trkpt lat="45.06226008499846" lon="8.226043336977042"><ele>243.66666666666666</ele><time>2026-04-10T10:20:14.001Z</time></trkpt><trkpt lat="45.0622383493481" lon="8.225920071897457"><ele>242.33333333333331</ele><time>2026-04-10T10:20:16.001Z</time></trkpt><trkpt lat="45.06222622029939" lon="8.22579902838094"><ele>241.0</ele><time>2026-04-10T10:20:18.001Z</time></trkpt><trkpt lat="45.06221023793632" lon="8.22568016731021"><ele>239.83333333333331</ele><time>2026-04-10T10:20:20.001Z</time></trkpt><trkpt lat="45.06218930463347" lon="8.22556629656427"><ele>238.66666666666666</ele><time>2026-04-10T10:20:22.001Z</time></trkpt><trkpt lat="45.06216780043218" lon="8.22544942347324"><ele>237.5</ele><time>2026-04-10T10:20:24.001Z</time></trkpt><trkpt lat="45.062151751352616" lon="8.225339860229731"><ele>236.33333333333331</ele><time>2026-04-10T10:20:26.002Z</time></trkpt><trkpt lat="45.062129167763416" lon="8.225217718758579"><ele>235.16666666666666</ele><time>2026-04-10T10:20:28.002Z</time></trkpt><trkpt lat="45.062107272987426" lon="8.225085552635578"><ele>234.0</ele><time>2026-04-10T10:20:30.002Z</time></trkpt><trkpt lat="45.06208863862967" lon="8.22496590993358"><ele>234.0</ele><time>2026-04-10T10:20:32.002Z</time></trkpt><trkpt lat="45.0620680550685" lon="8.224853711920966"><ele>234.0</ele><time>2026-04-10T10:20:34.002Z</time></trkpt><trkpt lat="45.06204911301674" lon="8.224726191890458"><ele>234.0</ele><time>2026-04-10T10:20:36.002Z</time></trkpt><trkpt lat="45.06204291631608" lon="8.224599895361843"><ele>234.0</ele><time>2026-04-10T10:20:38.002Z</time></trkpt><trkpt lat="45.062037957919536" lon="8.224484837083704"><ele>234.0</ele><time>2026-04-10T10:20:40.002Z</time></trkpt><trkpt lat="45.06204173329122" lon="8.224341836465237"><ele>234.0</ele><time>2026-04-10T10:20:42.002Z</time></trkpt><trkpt lat="45.06203155888833" lon="8.2242130748755"><ele>231.39999999999998</ele><time>2026-04-10T10:20:44.002Z</time></trkpt><trkpt lat="45.06201883737908" lon="8.224084932628362"><ele>228.79999999999998</ele><time>2026-04-10T10:20:46.002Z</time></trkpt><trkpt lat="45.0619962459401" lon="8.223953169367546"><ele>226.20000000000002</ele><time>2026-04-10T10:20:48.002Z</time></trkpt><trkpt lat="45.06197286792597" lon="8.223832183273045"><ele>223.60000000000002</ele><time>2026-04-10T10:20:50.002Z</time></trkpt><trkpt lat="45.06195617974771" lon="8.223717627682092"><ele>221.0</ele><time>2026-04-10T10:20:52.002Z</time></trkpt><trkpt lat="45.06193560058177" lon="8.223585022959503"><ele>219.00000000000003</ele><time>2026-04-10T10:20:54.002Z</time></trkpt><trkpt lat="45.06190026215729" lon="8.223502169641808"><ele>217.0</ele><time>2026-04-10T10:20:56.002Z</time></trkpt><trkpt lat="45.061844288556664" lon="8.223413144389005"><ele>215.0</ele><time>2026-04-10T10:20:58.002Z</time></trkpt><trkpt lat="45.06178913429818" lon="8.22331292148654"><ele>213.0</ele><time>2026-04-10T10:20:59.997Z</time></trkpt><trkpt lat="45.061735569306535" lon="8.22320686617459"><ele>211.00000000000003</ele><time>2026-04-10T10:21:01.997Z</time></trkpt><trkpt lat="45.06167925040971" lon="8.223088861871929"><ele>209.0</ele><time>2026-04-10T10:21:03.997Z</time></trkpt><trkpt lat="45.06165042875336" lon="8.222941315195644"><ele>208.2</ele><time>2026-04-10T10:21:05.997Z</time></trkpt><trkpt lat="45.061650127734985" lon="8.222779433377227"><ele>207.39999999999998</ele><time>2026-04-10T10:21:07.997Z</time></trkpt><trkpt lat="45.06165492590382" lon="8.2226237854213"><ele>206.6</ele><time>2026-04-10T10:21:09.997Z</time></trkpt><trkpt lat="45.0616519080284" lon="8.222471396721296"><ele>205.8</ele><time>2026-04-10T10:21:11.998Z</time></trkpt><trkpt lat="45.061640599082516" lon="8.222326047459376"><ele>205.0</ele><time>2026-04-10T10:21:13.998Z</time></trkpt><trkpt lat="45.061622201313824" lon="8.222193286112041"><ele>204.6</ele><time>2026-04-10T10:21:15.998Z</time></trkpt><trkpt lat="45.06161307239547" lon="8.222063402157236"><ele>204.2</ele><time>2026-04-10T10:21:17.998Z</time></trkpt><trkpt lat="45.06159624754603" lon="8.221941586498833"><ele>203.8</ele><time>2026-04-10T10:21:19.998Z</time></trkpt><trkpt lat="45.061582396285" lon="8.221817187535486"><ele>203.4</ele><time>2026-04-10T10:21:21.998Z</time></trkpt><trkpt lat="45.061564978178765" lon="8.221688500046394"><ele>203.0</ele><time>2026-04-10T10:21:23.999Z</time></trkpt><trkpt lat="45.06154987432734" lon="8.221558956977264"><ele>202.83333333333334</ele><time>2026-04-10T10:21:25.999Z</time></trkpt><trkpt lat="45.06154344351794" lon="8.22142505824873"><ele>202.66666666666669</ele><time>2026-04-10T10:21:27.999Z</time></trkpt><trkpt lat="45.06154001651715" lon="8.221305323261536"><ele>202.5</ele><time>2026-04-10T10:21:29.999Z</time></trkpt><trkpt lat="45.06152583980717" lon="8.221185107015371"><ele>202.33333333333331</ele><time>2026-04-10T10:21:31.999Z</time></trkpt><trkpt lat="45.061509538336075" lon="8.221070345654867"><ele>202.16666666666666</ele><time>2026-04-10T10:21:33.999Z</time></trkpt><trkpt lat="45.061475512736045" lon="8.220971949095157"><ele>202.0</ele><time>2026-04-10T10:21:35.999Z</time></trkpt><trkpt lat="45.06142992627347" lon="8.22089232040571"><ele>202.0</ele><time>2026-04-10T10:21:37.999Z</time></trkpt><trkpt lat="45.06138055887363" lon="8.220818095768758"><ele>202.0</ele><time>2026-04-10T10:21:40Z</time></trkpt><trkpt lat="45.061338367386746" lon="8.220734831136154"><ele>202.0</ele><time>2026-04-10T10:21:42Z</time></trkpt><trkpt lat="45.06130123661764" lon="8.220650529575613"><ele>202.0</ele><time>2026-04-10T10:21:44Z</time></trkpt><trkpt lat="45.06126774408297" lon="8.220561660334722"><ele>202.0</ele><time>2026-04-10T10:21:46Z</time></trkpt><trkpt lat="45.06124509831313" lon="8.220463135782289"><ele>202.0</ele><time>2026-04-10T10:21:48Z</time></trkpt><trkpt lat="45.061226748731" lon="8.220358848398439"><ele>202.0</ele><time>2026-04-10T10:21:50Z</time></trkpt><trkpt lat="45.06122066573391" lon="8.22026762343405"><ele>202.14285714285714</ele><time>2026-04-10T10:21:52Z</time></trkpt><trkpt lat="45.06120776164531" lon="8.220169174439794"><ele>202.28571428571428</ele><time>2026-04-10T10:21:55Z</time></trkpt><trkpt lat="45.06116054340413" lon="8.220100197418706"><ele>202.42857142857144</ele><time>2026-04-10T10:22:00Z</time></trkpt><trkpt lat="45.06109781774931" lon="8.220138721610661"><ele>202.57142857142856</ele><time>2026-04-10T10:22:02Z</time></trkpt><trkpt lat="45.06104427366239" lon="8.220197587795063"><ele>202.71428571428572</ele><time>2026-04-10T10:22:04Z</time></trkpt><trkpt lat="45.060980007352796" lon="8.220235586829752"><ele>202.85714285714286</ele><time>2026-04-10T10:22:06.001Z</time></trkpt><trkpt lat="45.06090851094359" lon="8.22026724556616"><ele>203.0</ele><time>2026-04-10T10:22:08.001Z</time></trkpt><trkpt lat="45.06083874917798" lon="8.220314906317553"><ele>203.4</ele><time>2026-04-10T10:22:10.001Z</time></trkpt><trkpt lat="45.06076016532665" lon="8.220370787902715"><ele>203.8</ele><time>2026-04-10T10:22:12.001Z</time></trkpt><trkpt lat="45.060687777291356" lon="8.220448859189263"><ele>204.2</ele><time>2026-04-10T10:22:14.001Z</time></trkpt><trkpt lat="45.06062650901154" lon="8.220553949066552"><ele>204.6</ele><time>2026-04-10T10:22:16.001Z</time></trkpt><trkpt lat="45.06057908099993" lon="8.220663199096416"><ele>205.0</ele><time>2026-04-10T10:22:18.001Z</time></trkpt><trkpt lat="45.06053344790235" lon="8.220768845386983"><ele>205.99999999999997</ele><time>2026-04-10T10:22:20.001Z</time></trkpt><trkpt lat="45.06049204768552" lon="8.220872918309432"><ele>207.0</ele><time>2026-04-10T10:22:22.001Z</time></trkpt><trkpt lat="45.06045183363299" lon="8.220979779288754"><ele>208.0</ele><time>2026-04-10T10:22:24.001Z</time></trkpt><trkpt lat="45.0604089444539" lon="8.22107864030949"><ele>209.0</ele><time>2026-04-10T10:22:26.001Z</time></trkpt><trkpt lat="45.060366731082645" lon="8.221169197412546"><ele>209.99999999999997</ele><time>2026-04-10T10:22:28.001Z</time></trkpt><trkpt lat="45.06033044988795" lon="8.221251146303606"><ele>211.0</ele><time>2026-04-10T10:22:30.001Z</time></trkpt><trkpt lat="45.06028973550138" lon="8.221341293215996"><ele>211.0</ele><time>2026-04-10T10:22:32.001Z</time></trkpt><trkpt lat="45.060256735554375" lon="8.221434311320598"><ele>211.0</ele><time>2026-04-10T10:22:34.001Z</time></trkpt><trkpt lat="45.06022604765271" lon="8.221518495428507"><ele>211.0</ele><time>2026-04-10T10:22:36.001Z</time></trkpt><trkpt lat="45.060193668328296" lon="8.221616121739757"><ele>211.0</ele><time>2026-04-10T10:22:38.002Z</time></trkpt><trkpt lat="45.06016298375584" lon="8.221704036853568"><ele>211.0</ele><time>2026-04-10T10:22:40.002Z</time></trkpt><trkpt lat="45.060136197017236" lon="8.221788810990718"><ele>211.0</ele><time>2026-04-10T10:22:42.002Z</time></trkpt><trkpt lat="45.0601116050054" lon="8.22187912184916"><ele>211.0</ele><time>2026-04-10T10:22:44.002Z</time></trkpt><trkpt lat="45.06008707169374" lon="8.22196856194096"><ele>211.14285714285714</ele><time>2026-04-10T10:22:46.002Z</time></trkpt><trkpt lat="45.06005999978407" lon="8.222054312627144"><ele>211.28571428571428</ele><time>2026-04-10T10:22:48.002Z</time></trkpt><trkpt lat="45.06003946505435" lon="8.222138665140411"><ele>211.42857142857144</ele><time>2026-04-10T10:22:50.002Z</time></trkpt><trkpt lat="45.06000830761498" lon="8.22225485372254"><ele>211.57142857142856</ele><time>2026-04-10T10:22:53.002Z</time></trkpt><trkpt lat="45.059982732366706" lon="8.222338809423407"><ele>211.7142857142857</ele><time>2026-04-10T10:22:56.002Z</time></trkpt><trkpt lat="45.05995783971216" lon="8.222433053473855"><ele>211.85714285714286</ele><time>2026-04-10T10:23:00.002Z</time></trkpt><trkpt lat="45.05993630101267" lon="8.222534617511993"><ele>212.0</ele><time>2026-04-10T10:23:04.002Z</time></trkpt><trkpt lat="45.059910919756696" lon="8.222640860787774"><ele>212.0</ele><time>2026-04-10T10:23:34Z</time></trkpt><trkpt lat="45.059917039350346" lon="8.222544708184904"><ele>212.0</ele><time>2026-04-10T10:24:09.001Z</time></trkpt><trkpt lat="45.05993544486694" lon="8.222457744870864"><ele>212.0</ele><time>2026-04-10T10:24:18.002Z</time></trkpt><trkpt lat="45.05996411969583" lon="8.222377445877305"><ele>212.0</ele><time>2026-04-10T10:24:24.002Z</time></trkpt><trkpt lat="45.05997409421285" lon="8.22228788932975"><ele>212.0</ele><time>2026-04-10T10:24:47.003Z</time></trkpt><trkpt lat="45.05997511650855" lon="8.222198057838483"><ele>212.0</ele><time>2026-04-10T10:25:13.999Z</time></trkpt><trkpt lat="45.05999853061633" lon="8.222113437098574"><ele>212.0</ele><time>2026-04-10T10:25:20.999Z</time></trkpt><trkpt lat="45.06000958052446" lon="8.222161790598314"><ele>212.0</ele><time>2026-04-10T10:26:26.002Z</time></trkpt><trkpt lat="45.05999276319405" lon="8.22226113850895"><ele>212.0</ele><time>2026-04-10T10:26:32.002Z</time></trkpt><trkpt lat="45.05997685840218" lon="8.222353302127553"><ele>212.0</ele><time>2026-04-10T10:26:37.002Z</time></trkpt><trkpt lat="45.059996400502165" lon="8.222264283349363"><ele>212.0</ele><time>2026-04-10T10:27:37Z</time></trkpt><trkpt lat="45.06001981753694" lon="8.222174861614036"><ele>212.0</ele><time>2026-04-10T10:27:41Z</time></trkpt><trkpt lat="45.06004151002892" lon="8.222072584050721"><ele>212.0</ele><time>2026-04-10T10:27:45Z</time></trkpt><trkpt lat="45.06006319413601" lon="8.221975064264068"><ele>212.0</ele><time>2026-04-10T10:27:48Z</time></trkpt><trkpt lat="45.06009077440718" lon="8.221861445929989"><ele>212.0</ele><time>2026-04-10T10:27:51.001Z</time></trkpt><trkpt lat="45.06012095442439" lon="8.221757990062823"><ele>212.00000000000003</ele><time>2026-04-10T10:27:54.001Z</time></trkpt><trkpt lat="45.0601568841001" lon="8.221653224397892"><ele>212.0</ele><time>2026-04-10T10:27:57.001Z</time></trkpt><trkpt lat="45.06019833119536" lon="8.221554146635263"><ele>212.0</ele><time>2026-04-10T10:28:00.001Z</time></trkpt><trkpt lat="45.06023774829543" lon="8.221450572718492"><ele>212.0</ele><time>2026-04-10T10:28:03.001Z</time></trkpt><trkpt lat="45.06028340758311" lon="8.2213566112769"><ele>212.00000000000003</ele><time>2026-04-10T10:28:06.001Z</time></trkpt><trkpt lat="45.06032131303217" lon="8.221273527232992"><ele>212.0</ele><time>2026-04-10T10:28:09.001Z</time></trkpt><trkpt lat="45.06035311052694" lon="8.221167342923732"><ele>211.83333333333334</ele><time>2026-04-10T10:28:30.002Z</time></trkpt><trkpt lat="45.06031639227378" lon="8.221092546763375"><ele>211.66666666666669</ele><time>2026-04-10T10:28:34.002Z</time></trkpt><trkpt lat="45.06022887996211" lon="8.221060177112689"><ele>211.5</ele><time>2026-04-10T10:28:36.002Z</time></trkpt><trkpt lat="45.06016489522367" lon="8.22104684252613"><ele>211.33333333333331</ele><time>2026-04-10T10:28:38.002Z</time></trkpt><trkpt lat="45.06010264066795" lon="8.221016644855201"><ele>211.16666666666666</ele><time>2026-04-10T10:28:40.002Z</time></trkpt><trkpt lat="45.060027438498516" lon="8.220937081424012"><ele>211.0</ele><time>2026-04-10T10:28:43.002Z</time></trkpt><trkpt lat="45.05995095825446" lon="8.220855345299638"><ele>211.16666666666666</ele><time>2026-04-10T10:28:46.002Z</time></trkpt><trkpt lat="45.059890821348795" lon="8.220797200103412"><ele>211.33333333333331</ele><time>2026-04-10T10:28:48.002Z</time></trkpt><trkpt lat="45.05983844843206" lon="8.220745621111654"><ele>211.5</ele><time>2026-04-10T10:28:50.002Z</time></trkpt><trkpt lat="45.05976261303762" lon="8.22067569508281"><ele>211.66666666666669</ele><time>2026-04-10T10:28:53.003Z</time></trkpt><trkpt lat="45.0596867758743" lon="8.220599605070952"><ele>211.83333333333334</ele><time>2026-04-10T10:28:56.003Z</time></trkpt><trkpt lat="45.05961447760871" lon="8.220531429970576"><ele>212.0</ele><time>2026-04-10T10:28:59.003Z</time></trkpt><trkpt lat="45.059554845377164" lon="8.220499031545382"><ele>212.0</ele><time>2026-04-10T10:29:01.003Z</time></trkpt><trkpt lat="45.05948825168129" lon="8.220504978059642"><ele>212.0</ele><time>2026-04-10T10:29:03.003Z</time></trkpt><trkpt lat="45.059429424672956" lon="8.220550063690183"><ele>212.0</ele><time>2026-04-10T10:29:05.003Z</time></trkpt><trkpt lat="45.05935370582572" lon="8.220625763090535"><ele>212.0</ele><time>2026-04-10T10:29:08.003Z</time></trkpt><trkpt lat="45.05930051796362" lon="8.220691043273275"><ele>212.0</ele><time>2026-04-10T10:29:10.003Z</time></trkpt><trkpt lat="45.05924871182899" lon="8.220766451707352"><ele>212.0</ele><time>2026-04-10T10:29:12.003Z</time></trkpt><trkpt lat="45.05920303026452" lon="8.220843602966879"><ele>212.0</ele><time>2026-04-10T10:29:14.003Z</time></trkpt><trkpt lat="45.05916040901686" lon="8.220929577727404"><ele>212.2857142857143</ele><time>2026-04-10T10:29:16.003Z</time></trkpt><trkpt lat="45.059120251582115" lon="8.221015916601345"><ele>212.57142857142856</ele><time>2026-04-10T10:29:18.003Z</time></trkpt><trkpt lat="45.059081960553094" lon="8.221101330873928"><ele>212.85714285714286</ele><time>2026-04-10T10:29:20.003Z</time></trkpt><trkpt lat="45.05904617161082" lon="8.221182332027885"><ele>213.14285714285717</ele><time>2026-04-10T10:29:22.003Z</time></trkpt><trkpt lat="45.059004319999026" lon="8.221262955989898"><ele>213.42857142857144</ele><time>2026-04-10T10:29:24Z</time></trkpt><trkpt lat="45.058956187784844" lon="8.221333326047532"><ele>213.71428571428572</ele><time>2026-04-10T10:29:26Z</time></trkpt><trkpt lat="45.058889430182326" lon="8.221390494523822"><ele>214.0</ele><time>2026-04-10T10:29:28Z</time></trkpt><trkpt lat="45.058821875539756" lon="8.22142986004058"><ele>212.83333333333331</ele><time>2026-04-10T10:29:30Z</time></trkpt><trkpt lat="45.05875838115007" lon="8.221472560026228"><ele>211.66666666666666</ele><time>2026-04-10T10:29:32Z</time></trkpt><trkpt lat="45.0586811956089" lon="8.221524407166168"><ele>210.5</ele><time>2026-04-10T10:29:34Z</time></trkpt><trkpt lat="45.05861397011965" lon="8.221567675763266"><ele>209.33333333333331</ele><time>2026-04-10T10:29:36Z</time></trkpt><trkpt lat="45.05853047618329" lon="8.2216035623462"><ele>208.16666666666666</ele><time>2026-04-10T10:29:38Z</time></trkpt><trkpt lat="45.05844521798157" lon="8.221638068267925"><ele>207.0</ele><time>2026-04-10T10:29:40Z</time></trkpt><trkpt lat="45.05835520285068" lon="8.221670365617493"><ele>206.0</ele><time>2026-04-10T10:29:42Z</time></trkpt><trkpt lat="45.058269808268065" lon="8.221708627231754"><ele>205.0</ele><time>2026-04-10T10:29:44Z</time></trkpt><trkpt lat="45.05817369814814" lon="8.221748292569165"><ele>204.0</ele><time>2026-04-10T10:29:46Z</time></trkpt><trkpt lat="45.05806017166543" lon="8.22179311219708"><ele>203.0</ele><time>2026-04-10T10:29:48Z</time></trkpt><trkpt lat="45.05795093497501" lon="8.221829993884642"><ele>202.0</ele><time>2026-04-10T10:29:50Z</time></trkpt><trkpt lat="45.057849659555515" lon="8.221867599170285"><ele>202.0</ele><time>2026-04-10T10:29:52Z</time></trkpt><trkpt lat="45.05775770080493" lon="8.221897143443341"><ele>202.0</ele><time>2026-04-10T10:29:54Z</time></trkpt><trkpt lat="45.057673593750934" lon="8.221933637366407"><ele>202.0</ele><time>2026-04-10T10:29:56Z</time></trkpt><trkpt lat="45.05757055973733" lon="8.221978156072254"><ele>202.0</ele><time>2026-04-10T10:29:58.001Z</time></trkpt><trkpt lat="45.05741836230705" lon="8.22183514126766"><ele>202.49999999999997</ele><time>2026-04-10T10:30:00.001Z</time></trkpt><trkpt lat="45.05734070071351" lon="8.22187795244366"><ele>203.0</ele><time>2026-04-10T10:30:02.001Z</time></trkpt><trkpt lat="45.05724283314648" lon="8.221916323003882"><ele>203.5</ele><time>2026-04-10T10:30:04.001Z</time></trkpt><trkpt lat="45.05717957963321" lon="8.221937892352086"><ele>204.0</ele><time>2026-04-10T10:30:05.001Z</time></trkpt><trkpt lat="45.057060310463015" lon="8.22197739313034"><ele>204.49999999999997</ele><time>2026-04-10T10:30:07.001Z</time></trkpt><trkpt lat="45.05699813626063" lon="8.221997631882065"><ele>205.0</ele><time>2026-04-10T10:30:08.001Z</time></trkpt><trkpt lat="45.05687914555112" lon="8.22203636550216"><ele>205.0</ele><time>2026-04-10T10:30:10.001Z</time></trkpt><trkpt lat="45.05677108382559" lon="8.222072858854125"><ele>205.0</ele><time>2026-04-10T10:30:12.001Z</time></trkpt><trkpt lat="45.05666906188432" lon="8.222109493109926"><ele>205.0</ele><time>2026-04-10T10:30:14.001Z</time></trkpt><trkpt lat="45.056577891341796" lon="8.22214345994898"><ele>205.0</ele><time>2026-04-10T10:30:16.001Z</time></trkpt><trkpt lat="45.056488782478034" lon="8.22217959489999"><ele>205.0</ele><time>2026-04-10T10:30:18.001Z</time></trkpt><trkpt lat="45.05641463797997" lon="8.222212563590203"><ele>205.49999999999997</ele><time>2026-04-10T10:30:20.001Z</time></trkpt><trkpt lat="45.056330761725434" lon="8.222251681972743"><ele>206.0</ele><time>2026-04-10T10:30:23.001Z</time></trkpt><trkpt lat="45.056259149892576" lon="8.222292388482987"><ele>206.5</ele><time>2026-04-10T10:30:26.001Z</time></trkpt><trkpt lat="45.05618255289933" lon="8.222335651143062"><ele>207.0</ele><time>2026-04-10T10:30:28.001Z</time></trkpt><trkpt lat="45.056108715328094" lon="8.222369257328356"><ele>207.49999999999997</ele><time>2026-04-10T10:30:30.002Z</time></trkpt><trkpt lat="45.05603871419849" lon="8.222396833964169"><ele>208.0</ele><time>2026-04-10T10:30:32.002Z</time></trkpt><trkpt lat="45.05595100746359" lon="8.222407944668271"><ele>207.16666666666666</ele><time>2026-04-10T10:30:35.002Z</time></trkpt><trkpt lat="45.05588235749048" lon="8.222431241300987"><ele>206.33333333333331</ele><time>2026-04-10T10:30:38.002Z</time></trkpt><trkpt lat="45.05581404418656" lon="8.222456384492768"><ele>205.5</ele><time>2026-04-10T10:30:41.002Z</time></trkpt><trkpt lat="45.05574510567796" lon="8.222516496230808"><ele>204.66666666666669</ele><time>2026-04-10T10:31:02.002Z</time></trkpt><trkpt lat="45.05566050104139" lon="8.222559451260931"><ele>203.83333333333334</ele><time>2026-04-10T10:31:16.003Z</time></trkpt><trkpt lat="45.055576705610385" lon="8.222597799349227"><ele>203.0</ele><time>2026-04-10T10:31:18.003Z</time></trkpt><trkpt lat="45.05549126419919" lon="8.22263952097476"><ele>203.0</ele><time>2026-04-10T10:31:20.003Z</time></trkpt><trkpt lat="45.055398460225625" lon="8.222680264725929"><ele>203.0</ele><time>2026-04-10T10:31:22.003Z</time></trkpt><trkpt lat="45.05530250880085" lon="8.222726659688718"><ele>203.0</ele><time>2026-04-10T10:31:24.003Z</time></trkpt><trkpt lat="45.0552039712801" lon="8.222774999366363"><ele>203.0</ele><time>2026-04-10T10:31:26.003Z</time></trkpt><trkpt lat="45.05510704229905" lon="8.222814788368769"><ele>203.0</ele><time>2026-04-10T10:31:28.003Z</time></trkpt><trkpt lat="45.05501667132863" lon="8.222858171795384"><ele>203.0</ele><time>2026-04-10T10:31:29.999Z</time></trkpt><trkpt lat="45.054926911871206" lon="8.222903444765596"><ele>203.0</ele><time>2026-04-10T10:31:31.999Z</time></trkpt><trkpt lat="45.05482442123679" lon="8.222944631845255"><ele>203.0</ele><time>2026-04-10T10:31:33.999Z</time></trkpt><trkpt lat="45.05473326839247" lon="8.222991627245168"><ele>203.0</ele><time>2026-04-10T10:31:36Z</time></trkpt><trkpt lat="45.05464613521028" lon="8.223037806390355"><ele>203.0</ele><time>2026-04-10T10:31:38Z</time></trkpt><trkpt lat="45.054553948730145" lon="8.223085290515225"><ele>203.00000000000003</ele><time>2026-04-10T10:31:40Z</time></trkpt><trkpt lat="45.05446280831592" lon="8.223127259196009"><ele>203.0</ele><time>2026-04-10T10:31:42Z</time></trkpt><trkpt lat="45.05437627514165" lon="8.223171304726431"><ele>203.0</ele><time>2026-04-10T10:31:44Z</time></trkpt><trkpt lat="45.05428946615726" lon="8.223177888590586"><ele>203.0</ele><time>2026-04-10T10:31:46Z</time></trkpt><trkpt lat="45.05422401227939" lon="8.223155762804016"><ele>203.00000000000003</ele><time>2026-04-10T10:31:48Z</time></trkpt><trkpt lat="45.05414625407576" lon="8.223136599341792"><ele>203.0</ele><time>2026-04-10T10:31:52Z</time></trkpt><trkpt lat="45.05414551787932" lon="8.222984958181693"><ele>203.00000000000003</ele><time>2026-04-10T10:31:53Z</time></trkpt><trkpt lat="45.05409767693447" lon="8.222922150217022"><ele>203.0</ele><time>2026-04-10T10:31:55Z</time></trkpt><trkpt lat="45.05404722619016" lon="8.222860432944984"><ele>203.0</ele><time>2026-04-10T10:31:57Z</time></trkpt><trkpt lat="45.053988871946714" lon="8.222785953943065"><ele>203.0</ele><time>2026-04-10T10:31:59Z</time></trkpt><trkpt lat="45.05393071239205" lon="8.222712164986245"><ele>203.00000000000003</ele><time>2026-04-10T10:32:01Z</time></trkpt><trkpt lat="45.05386779377893" lon="8.222636642650635"><ele>203.0</ele><time>2026-04-10T10:32:03Z</time></trkpt><trkpt lat="45.05379005124489" lon="8.222578268243149"><ele>203.0</ele><time>2026-04-10T10:32:05.001Z</time></trkpt><trkpt lat="45.05372355027783" lon="8.222493419886844"><ele>203.0</ele><time>2026-04-10T10:32:07.001Z</time></trkpt><trkpt lat="45.05365177978786" lon="8.222416872764422"><ele>203.0</ele><time>2026-04-10T10:32:09.001Z</time></trkpt><trkpt lat="45.05358639694818" lon="8.22231084111529"><ele>203.0</ele><time>2026-04-10T10:32:11.001Z</time></trkpt><trkpt lat="45.05355009841288" lon="8.222179412517336"><ele>203.0</ele><time>2026-04-10T10:32:13.001Z</time></trkpt><trkpt lat="45.05352863174511" lon="8.222039510335627"><ele>203.2</ele><time>2026-04-10T10:32:15.001Z</time></trkpt><trkpt lat="45.053502209858536" lon="8.22189731278786"><ele>203.4</ele><time>2026-04-10T10:32:17.001Z</time></trkpt><trkpt lat="45.05348490190814" lon="8.221751711582117"><ele>203.6</ele><time>2026-04-10T10:32:19.001Z</time></trkpt><trkpt lat="45.05348714670711" lon="8.221609298037343"><ele>203.79999999999998</ele><time>2026-04-10T10:32:21.001Z</time></trkpt><trkpt lat="45.053480425825896" lon="8.221474195068618"><ele>204.0</ele><time>2026-04-10T10:32:23.001Z</time></trkpt><trkpt lat="45.05347009739273" lon="8.221362084037521"><ele>204.0</ele><time>2026-04-10T10:32:25.001Z</time></trkpt><trkpt lat="45.05344169542869" lon="8.221276001112876"><ele>204.0</ele><time>2026-04-10T10:32:27.001Z</time></trkpt><trkpt lat="45.053435126741995" lon="8.221158347797294"><ele>204.0</ele><time>2026-04-10T10:32:30.001Z</time></trkpt><trkpt lat="45.05343068575132" lon="8.221061979198737"><ele>204.0</ele><time>2026-04-10T10:32:32.001Z</time></trkpt><trkpt lat="45.05340418521426" lon="8.220954942373947"><ele>204.0</ele><time>2026-04-10T10:32:34.001Z</time></trkpt><trkpt lat="45.05337275852133" lon="8.220851251445005"><ele>204.0</ele><time>2026-04-10T10:32:36.002Z</time></trkpt><trkpt lat="45.05333219926806" lon="8.22074413848072"><ele>204.5</ele><time>2026-04-10T10:32:38.002Z</time></trkpt><trkpt lat="45.05328987800058" lon="8.220639567648737"><ele>205.0</ele><time>2026-04-10T10:32:40.002Z</time></trkpt><trkpt lat="45.05324485079335" lon="8.22053412855836"><ele>205.5</ele><time>2026-04-10T10:32:42.002Z</time></trkpt><trkpt lat="45.05321087148639" lon="8.220424841915138"><ele>206.0</ele><time>2026-04-10T10:32:44.002Z</time></trkpt><trkpt lat="45.05317978760734" lon="8.22030867003035"><ele>206.5</ele><time>2026-04-10T10:32:46.002Z</time></trkpt><trkpt lat="45.053150525637825" lon="8.220189178322705"><ele>207.0</ele><time>2026-04-10T10:32:48.002Z</time></trkpt><trkpt lat="45.05313588952226" lon="8.22007239900096"><ele>211.0</ele><time>2026-04-10T10:32:50.002Z</time></trkpt><trkpt lat="45.05310591868524" lon="8.219950474726911"><ele>215.0</ele><time>2026-04-10T10:32:52.002Z</time></trkpt><trkpt lat="45.05307292395996" lon="8.219833265485693"><ele>219.0</ele><time>2026-04-10T10:32:54.002Z</time></trkpt><trkpt lat="45.05305094964832" lon="8.21970159516606"><ele>223.0</ele><time>2026-04-10T10:32:56.002Z</time></trkpt><trkpt lat="45.053020998054706" lon="8.219574007765205"><ele>227.0</ele><time>2026-04-10T10:32:58.002Z</time></trkpt><trkpt lat="45.05298776450994" lon="8.219459544790384"><ele>227.33333333333334</ele><time>2026-04-10T10:33:00.002Z</time></trkpt><trkpt lat="45.0529617668902" lon="8.219339111804231"><ele>227.66666666666669</ele><time>2026-04-10T10:33:02.002Z</time></trkpt><trkpt lat="45.05293365203622" lon="8.219226690512125"><ele>228.0</ele><time>2026-04-10T10:33:04.002Z</time></trkpt><trkpt lat="45.052910519543396" lon="8.219107645951325"><ele>228.33333333333331</ele><time>2026-04-10T10:33:06.002Z</time></trkpt><trkpt lat="45.05287572189968" lon="8.218979323574958"><ele>228.66666666666666</ele><time>2026-04-10T10:33:08.002Z</time></trkpt><trkpt lat="45.052849397705096" lon="8.21886951788863"><ele>229.0</ele><time>2026-04-10T10:33:10.003Z</time></trkpt><trkpt lat="45.05283828423602" lon="8.218726254197586"><ele>228.66666666666666</ele><time>2026-04-10T10:33:12.003Z</time></trkpt><trkpt lat="45.052821069490086" lon="8.218611590228212"><ele>228.33333333333331</ele><time>2026-04-10T10:33:14.003Z</time></trkpt><trkpt lat="45.05281047345042" lon="8.218487882817179"><ele>228.0</ele><time>2026-04-10T10:33:16.003Z</time></trkpt><trkpt lat="45.052814064091486" lon="8.21835483711007"><ele>227.66666666666669</ele><time>2026-04-10T10:33:18.003Z</time></trkpt><trkpt lat="45.052816937627306" lon="8.218220538476764"><ele>227.33333333333334</ele><time>2026-04-10T10:33:20.003Z</time></trkpt><trkpt lat="45.05284509903829" lon="8.21810814815999"><ele>227.0</ele><time>2026-04-10T10:33:22.003Z</time></trkpt><trkpt lat="45.0528748038193" lon="8.217981482383953"><ele>227.00000000000003</ele><time>2026-04-10T10:33:24.003Z</time></trkpt><trkpt lat="45.0529057119303" lon="8.217860170998042"><ele>227.0</ele><time>2026-04-10T10:33:26.003Z</time></trkpt><trkpt lat="45.05294128653292" lon="8.217726138791615"><ele>227.0</ele><time>2026-04-10T10:33:28.003Z</time></trkpt><trkpt lat="45.05297297936438" lon="8.21760252969917"><ele>227.0</ele><time>2026-04-10T10:33:30.003Z</time></trkpt><trkpt lat="45.05300053451931" lon="8.217495058239573"><ele>227.00000000000003</ele><time>2026-04-10T10:33:32.003Z</time></trkpt><trkpt lat="45.053026193705655" lon="8.217398168756777"><ele>227.0</ele><time>2026-04-10T10:33:34.003Z</time></trkpt><trkpt lat="45.05305471848848" lon="8.21729592294189"><ele>230.00000000000003</ele><time>2026-04-10T10:33:35.998Z</time></trkpt><trkpt lat="45.05308151156417" lon="8.217199883974368"><ele>233.0</ele><time>2026-04-10T10:33:37.998Z</time></trkpt><trkpt lat="45.05310869988099" lon="8.217102428660196"><ele>236.0</ele><time>2026-04-10T10:33:39.999Z</time></trkpt><trkpt lat="45.05313962916678" lon="8.216991346326594"><ele>239.0</ele><time>2026-04-10T10:33:41.999Z</time></trkpt><trkpt lat="45.05316833590542" lon="8.21688742588804"><ele>242.00000000000003</ele><time>2026-04-10T10:33:43.999Z</time></trkpt><trkpt lat="45.05319445810694" lon="8.216792674085342"><ele>245.0</ele><time>2026-04-10T10:33:45.999Z</time></trkpt><trkpt lat="45.05321882203432" lon="8.216703005815202"><ele>245.0</ele><time>2026-04-10T10:33:47.999Z</time></trkpt><trkpt lat="45.05324054148887" lon="8.216609951607396"><ele>245.0</ele><time>2026-04-10T10:33:49.999Z</time></trkpt><trkpt lat="45.05327307061166" lon="8.21651773431213"><ele>245.0</ele><time>2026-04-10T10:33:51.999Z</time></trkpt><trkpt lat="45.053302141033456" lon="8.216408326069203"><ele>245.0</ele><time>2026-04-10T10:33:53.999Z</time></trkpt><trkpt lat="45.05333068292001" lon="8.216313206821997"><ele>245.0</ele><time>2026-04-10T10:33:56Z</time></trkpt><trkpt lat="45.053356831206976" lon="8.216214555267575"><ele>245.0</ele><time>2026-04-10T10:33:58Z</time></trkpt><trkpt lat="45.05337891765755" lon="8.216116554166701"><ele>245.0</ele><time>2026-04-10T10:34:00Z</time></trkpt><trkpt lat="45.05339799296333" lon="8.216021646926606"><ele>243.00000000000003</ele><time>2026-04-10T10:34:02Z</time></trkpt><trkpt lat="45.05342727480588" lon="8.215915811450726"><ele>241.0</ele><time>2026-04-10T10:34:04Z</time></trkpt><trkpt lat="45.053460100070986" lon="8.215816573014664"><ele>239.0</ele><time>2026-04-10T10:34:06Z</time></trkpt><trkpt lat="45.05348578548057" lon="8.215713000415402"><ele>237.0</ele><time>2026-04-10T10:34:08Z</time></trkpt><trkpt lat="45.05350635615378" lon="8.215604997048072"><ele>235.00000000000003</ele><time>2026-04-10T10:34:10Z</time></trkpt><trkpt lat="45.05352862674414" lon="8.215506224567207"><ele>233.0</ele><time>2026-04-10T10:34:12Z</time></trkpt><trkpt lat="45.053548962970936" lon="8.215400095953452"><ele>233.00000000000003</ele><time>2026-04-10T10:34:14.001Z</time></trkpt><trkpt lat="45.053556124502535" lon="8.215294274516522"><ele>233.0</ele><time>2026-04-10T10:34:16.001Z</time></trkpt><trkpt lat="45.05357328278955" lon="8.2151813280559"><ele>233.0</ele><time>2026-04-10T10:34:18.001Z</time></trkpt><trkpt lat="45.05358288490847" lon="8.21506352351687"><ele>233.0</ele><time>2026-04-10T10:34:20.001Z</time></trkpt><trkpt lat="45.0535737142812" lon="8.214960283361219"><ele>233.00000000000003</ele><time>2026-04-10T10:34:22.001Z</time></trkpt><trkpt lat="45.05360144668437" lon="8.214833815298446"><ele>233.0</ele><time>2026-04-10T10:34:24.001Z</time></trkpt><trkpt lat="45.05360903963672" lon="8.2147155740736"><ele>234.33333333333334</ele><time>2026-04-10T10:34:26.001Z</time></trkpt><trkpt lat="45.05365684083046" lon="8.214608658794939"><ele>235.66666666666669</ele><time>2026-04-10T10:34:28.001Z</time></trkpt><trkpt lat="45.05369480929603" lon="8.214502032846417"><ele>237.0</ele><time>2026-04-10T10:34:30.001Z</time></trkpt><trkpt lat="45.05373782370657" lon="8.21439993806437"><ele>238.33333333333331</ele><time>2026-04-10T10:34:32.001Z</time></trkpt><trkpt lat="45.05377917815246" lon="8.214307605647274"><ele>239.66666666666666</ele><time>2026-04-10T10:34:34.001Z</time></trkpt><trkpt lat="45.05382904354651" lon="8.214211587890304"><ele>241.0</ele><time>2026-04-10T10:34:36.001Z</time></trkpt><trkpt lat="45.05387360077514" lon="8.214099314720537"><ele>240.99999999999997</ele><time>2026-04-10T10:34:38.001Z</time></trkpt><trkpt lat="45.05392897608242" lon="8.214013251665484"><ele>241.0</ele><time>2026-04-10T10:34:40.001Z</time></trkpt><trkpt lat="45.053981619326244" lon="8.213922341050662"><ele>241.0</ele><time>2026-04-10T10:34:42.002Z</time></trkpt><trkpt lat="45.054035973414535" lon="8.213809597533494"><ele>241.0</ele><time>2026-04-10T10:34:44.002Z</time></trkpt><trkpt lat="45.05407952689062" lon="8.21369335502473"><ele>240.99999999999997</ele><time>2026-04-10T10:34:46.002Z</time></trkpt><trkpt lat="45.054115924601646" lon="8.213580053475853"><ele>241.0</ele><time>2026-04-10T10:34:48.002Z</time></trkpt><trkpt lat="45.0541407573308" lon="8.213464694008783"><ele>240.99999999999997</ele><time>2026-04-10T10:34:50.002Z</time></trkpt><trkpt lat="45.05415850465046" lon="8.213348385046352"><ele>241.0</ele><time>2026-04-10T10:34:52.002Z</time></trkpt><trkpt lat="45.05416750506619" lon="8.21323777082492"><ele>241.0</ele><time>2026-04-10T10:34:54.002Z</time></trkpt><trkpt lat="45.05416332176887" lon="8.213068529396661"><ele>241.0</ele><time>2026-04-10T10:34:57.002Z</time></trkpt><trkpt lat="45.054136454800705" lon="8.21295444636506"><ele>240.99999999999997</ele><time>2026-04-10T10:34:59.002Z</time></trkpt><trkpt lat="45.05413499539865" lon="8.212849938656293"><ele>241.0</ele><time>2026-04-10T10:35:01.002Z</time></trkpt><trkpt lat="45.05412325923929" lon="8.212748011949204"><ele>241.85714285714286</ele><time>2026-04-10T10:35:03.002Z</time></trkpt><trkpt lat="45.054139616520196" lon="8.212651897147651"><ele>242.71428571428572</ele><time>2026-04-10T10:35:05.002Z</time></trkpt><trkpt lat="45.05415051280913" lon="8.212551492625122"><ele>243.57142857142858</ele><time>2026-04-10T10:35:07.002Z</time></trkpt><trkpt lat="45.054162578975024" lon="8.212455708675273"><ele>244.42857142857144</ele><time>2026-04-10T10:35:09.002Z</time></trkpt><trkpt lat="45.05417571894074" lon="8.212364348070876"><ele>245.28571428571428</ele><time>2026-04-10T10:35:11.002Z</time></trkpt><trkpt lat="45.05418978518899" lon="8.212274126880471"><ele>246.14285714285717</ele><time>2026-04-10T10:35:14.003Z</time></trkpt><trkpt lat="45.05421309228591" lon="8.212176347912537"><ele>247.0</ele><time>2026-04-10T10:35:18.003Z</time></trkpt><trkpt lat="45.054247858497206" lon="8.212087842852906"><ele>248.16666666666666</ele><time>2026-04-10T10:35:25.003Z</time></trkpt><trkpt lat="45.05428034747325" lon="8.212008750698823"><ele>249.33333333333331</ele><time>2026-04-10T10:35:55.999Z</time></trkpt><trkpt lat="45.054183680248265" lon="8.211925491287907"><ele>250.5</ele><time>2026-04-10T10:38:36.001Z</time></trkpt><trkpt lat="45.054182449162916" lon="8.212016656582927"><ele>251.66666666666669</ele><time>2026-04-10T10:40:15Z</time></trkpt><trkpt lat="45.05424705560501" lon="8.212000206713318"><ele>252.83333333333334</ele><time>2026-04-10T10:40:21Z</time></trkpt><trkpt lat="45.05427551183092" lon="8.211891507369529"><ele>254.0</ele><time>2026-04-10T10:40:25.001Z</time></trkpt><trkpt lat="45.05430911442574" lon="8.211803072953957"><ele>254.0</ele><time>2026-04-10T10:40:28.001Z</time></trkpt><trkpt lat="45.05435591590352" lon="8.211691079062343"><ele>254.0</ele><time>2026-04-10T10:40:31.001Z</time></trkpt><trkpt lat="45.05439855979806" lon="8.21158334377901"><ele>254.0</ele><time>2026-04-10T10:40:34.001Z</time></trkpt><trkpt lat="45.05441966388279" lon="8.21149741611906"><ele>254.0</ele><time>2026-04-10T10:40:38.001Z</time></trkpt><trkpt lat="45.05442840065274" lon="8.211408377463867"><ele>254.0</ele><time>2026-04-10T10:40:57.001Z</time></trkpt><trkpt lat="45.05445360194361" lon="8.211322160429583"><ele>254.0</ele><time>2026-04-10T10:41:00.001Z</time></trkpt><trkpt lat="45.05447537568495" lon="8.211220132342769"><ele>254.0</ele><time>2026-04-10T10:41:04.001Z</time></trkpt><trkpt lat="45.054518768141655" lon="8.211105935741411"><ele>254.71428571428572</ele><time>2026-04-10T10:41:08.002Z</time></trkpt><trkpt lat="45.054524345466795" lon="8.211002135818104"><ele>255.42857142857142</ele><time>2026-04-10T10:41:12.002Z</time></trkpt><trkpt lat="45.05453375718069" lon="8.21090226168687"><ele>256.1428571428571</ele><time>2026-04-10T10:41:15.002Z</time></trkpt><trkpt lat="45.054553423089565" lon="8.210786081079277"><ele>256.8571428571429</ele><time>2026-04-10T10:41:18.002Z</time></trkpt><trkpt lat="45.05457234699559" lon="8.210700034444248"><ele>257.57142857142856</ele><time>2026-04-10T10:41:20.002Z</time></trkpt><trkpt lat="45.054594813102185" lon="8.210603260667126"><ele>258.2857142857143</ele><time>2026-04-10T10:41:23.002Z</time></trkpt><trkpt lat="45.054612032682" lon="8.210515640025566"><ele>259.0</ele><time>2026-04-10T10:41:25.002Z</time></trkpt><trkpt lat="45.05464776295144" lon="8.210416065633243"><ele>259.85714285714283</ele><time>2026-04-10T10:41:28.002Z</time></trkpt><trkpt lat="45.05467754788192" lon="8.210331602737398"><ele>260.7142857142857</ele><time>2026-04-10T10:41:30.002Z</time></trkpt><trkpt lat="45.054712803391524" lon="8.210245986497043"><ele>261.57142857142856</ele><time>2026-04-10T10:41:32.002Z</time></trkpt><trkpt lat="45.05475662162072" lon="8.210145045454173"><ele>262.42857142857144</ele><time>2026-04-10T10:41:35.002Z</time></trkpt><trkpt lat="45.05479014622394" lon="8.210061348330235"><ele>263.2857142857143</ele><time>2026-04-10T10:41:37.002Z</time></trkpt><trkpt lat="45.05482416898267" lon="8.20997875510706"><ele>264.1428571428571</ele><time>2026-04-10T10:41:39.002Z</time></trkpt><trkpt lat="45.054857675329345" lon="8.209903174246815"><ele>265.0</ele><time>2026-04-10T10:41:41.002Z</time></trkpt><trkpt lat="45.054899839248" lon="8.20979987237624"><ele>264.66666666666663</ele><time>2026-04-10T10:41:44.003Z</time></trkpt><trkpt lat="45.0549417748836" lon="8.209686299971757"><ele>264.3333333333333</ele><time>2026-04-10T10:41:47.003Z</time></trkpt><trkpt lat="45.05496985060741" lon="8.20955978988703"><ele>264.0</ele><time>2026-04-10T10:41:50.003Z</time></trkpt><trkpt lat="45.05500771099437" lon="8.209442774721834"><ele>263.6666666666667</ele><time>2026-04-10T10:41:53.003Z</time></trkpt><trkpt lat="45.05506080765998" lon="8.209362348682369"><ele>263.33333333333337</ele><time>2026-04-10T10:41:55.003Z</time></trkpt><trkpt lat="45.055079512669636" lon="8.2092661439375"><ele>263.0</ele><time>2026-04-10T10:41:57.003Z</time></trkpt><trkpt lat="45.05510153438112" lon="8.209154002638797"><ele>263.0</ele><time>2026-04-10T10:41:59.999Z</time></trkpt><trkpt lat="45.055121237688084" lon="8.20906206450461"><ele>263.0</ele><time>2026-04-10T10:42:01.999Z</time></trkpt><trkpt lat="45.055146246612075" lon="8.208963612502979"><ele>263.0</ele><time>2026-04-10T10:42:04.999Z</time></trkpt><trkpt lat="45.05517303229066" lon="8.208880000458258"><ele>263.0</ele><time>2026-04-10T10:42:06.999Z</time></trkpt><trkpt lat="45.05520933435538" lon="8.2087802655711"><ele>263.0</ele><time>2026-04-10T10:42:09.999Z</time></trkpt><trkpt lat="45.05523519702149" lon="8.208683498828872"><ele>263.0</ele><time>2026-04-10T10:42:12.999Z</time></trkpt><trkpt lat="45.05528103751425" lon="8.208621464977652"><ele>263.0</ele><time>2026-04-10T10:42:14.999Z</time></trkpt><trkpt lat="45.05534802920536" lon="8.208563960069053"><ele>264.6666666666667</ele><time>2026-04-10T10:42:17.999Z</time></trkpt><trkpt lat="45.05542084253093" lon="8.208487041756804"><ele>266.33333333333337</ele><time>2026-04-10T10:42:21Z</time></trkpt><trkpt lat="45.055491170380556" lon="8.208398687639248"><ele>268.0</ele><time>2026-04-10T10:42:24Z</time></trkpt><trkpt lat="45.05555784448192" lon="8.208312691951688"><ele>269.6666666666667</ele><time>2026-04-10T10:42:27Z</time></trkpt><trkpt lat="45.05562286828842" lon="8.208238954330875"><ele>271.3333333333333</ele><time>2026-04-10T10:42:29Z</time></trkpt><trkpt lat="45.05567520397933" lon="8.208170841217804"><ele>273.0</ele><time>2026-04-10T10:42:31Z</time></trkpt><trkpt lat="45.05574379195453" lon="8.208125761762094"><ele>274.14285714285717</ele><time>2026-04-10T10:42:33Z</time></trkpt><trkpt lat="45.05579080264792" lon="8.20806161622412"><ele>275.2857142857143</ele><time>2026-04-10T10:42:35Z</time></trkpt><trkpt lat="45.05585094585419" lon="8.208001181848038"><ele>276.42857142857144</ele><time>2026-04-10T10:42:37Z</time></trkpt><trkpt lat="45.05589831400451" lon="8.207921411621463"><ele>277.57142857142856</ele><time>2026-04-10T10:42:39Z</time></trkpt><trkpt lat="45.055944264086946" lon="8.207816148605456"><ele>278.7142857142857</ele><time>2026-04-10T10:42:42Z</time></trkpt><trkpt lat="45.05598267457063" lon="8.207732651288904"><ele>279.8571428571429</ele><time>2026-04-10T10:42:44.001Z</time></trkpt><trkpt lat="45.05601975001254" lon="8.207653936211695"><ele>281.0</ele><time>2026-04-10T10:42:46.001Z</time></trkpt><trkpt lat="45.056061988607205" lon="8.207582521525495"><ele>281.0</ele><time>2026-04-10T10:42:48.001Z</time></trkpt><trkpt lat="45.05610254945549" lon="8.20750096016236"><ele>281.0</ele><time>2026-04-10T10:42:50.001Z</time></trkpt><trkpt lat="45.05615868164511" lon="8.207396084175361"><ele>281.0</ele><time>2026-04-10T10:42:53.001Z</time></trkpt><trkpt lat="45.0562144715913" lon="8.20730157515093"><ele>281.0</ele><time>2026-04-10T10:42:56.001Z</time></trkpt><trkpt lat="45.05627964273702" lon="8.207209359156778"><ele>281.0</ele><time>2026-04-10T10:42:59.001Z</time></trkpt><trkpt lat="45.05634329747945" lon="8.207105502264326"><ele>281.0</ele><time>2026-04-10T10:43:02.001Z</time></trkpt><trkpt lat="45.05640775919393" lon="8.20701644825355"><ele>281.83333333333337</ele><time>2026-04-10T10:43:05.001Z</time></trkpt><trkpt lat="45.05646712721388" lon="8.20693237903912"><ele>282.6666666666667</ele><time>2026-04-10T10:43:08.001Z</time></trkpt><trkpt lat="45.056524608782034" lon="8.206858741695612"><ele>283.5</ele><time>2026-04-10T10:43:11.001Z</time></trkpt><trkpt lat="45.0565879013615" lon="8.206778472682489"><ele>284.3333333333333</ele><time>2026-04-10T10:43:14.002Z</time></trkpt><trkpt lat="45.05664541497258" lon="8.206687404026557"><ele>285.16666666666663</ele><time>2026-04-10T10:43:17.002Z</time></trkpt><trkpt lat="45.056704243063386" lon="8.206599068761886"><ele>286.0</ele><time>2026-04-10T10:43:20.002Z</time></trkpt><trkpt lat="45.05675803945766" lon="8.206514309847647"><ele>287.3333333333333</ele><time>2026-04-10T10:43:23.002Z</time></trkpt><trkpt lat="45.056814397183985" lon="8.20642188313859"><ele>288.66666666666663</ele><time>2026-04-10T10:43:26.002Z</time></trkpt><trkpt lat="45.056872508496" lon="8.206348100650173"><ele>290.0</ele><time>2026-04-10T10:43:29.002Z</time></trkpt><trkpt lat="45.056905759403755" lon="8.206228369641057"><ele>291.3333333333333</ele><time>2026-04-10T10:43:32.002Z</time></trkpt><trkpt lat="45.05686217737996" lon="8.206055528268703"><ele>292.6666666666667</ele><time>2026-04-10T10:43:36.002Z</time></trkpt><trkpt lat="45.05683348854688" lon="8.205973456647921"><ele>294.0</ele><time>2026-04-10T10:43:39.002Z</time></trkpt><trkpt lat="45.05683827906253" lon="8.20587342273866"><ele>294.0</ele><time>2026-04-10T10:43:43.002Z</time></trkpt><trkpt lat="45.056907471579976" lon="8.205914176720617"><ele>294.0</ele><time>2026-04-10T10:43:45.003Z</time></trkpt><trkpt lat="45.056972887198754" lon="8.205996363019741"><ele>294.0</ele><time>2026-04-10T10:43:47.003Z</time></trkpt><trkpt lat="45.05704538588596" lon="8.206085745882113"><ele>294.0</ele><time>2026-04-10T10:43:50.003Z</time></trkpt><trkpt lat="45.057100032352274" lon="8.206137485673052"><ele>294.0</ele><time>2026-04-10T10:43:52.003Z</time></trkpt><trkpt lat="45.057163812459066" lon="8.206190956075517"><ele>294.0</ele><time>2026-04-10T10:43:54.003Z</time></trkpt><trkpt lat="45.057220367880326" lon="8.206290881903607"><ele>294.0</ele><time>2026-04-10T10:43:57.003Z</time></trkpt><trkpt lat="45.057222227824944" lon="8.206388306133443"><ele>294.0</ele><time>2026-04-10T10:43:59.003Z</time></trkpt><trkpt lat="45.057188278333285" lon="8.206469753512858"><ele>294.0</ele><time>2026-04-10T10:44:01.003Z</time></trkpt><trkpt lat="45.05716049770261" lon="8.20659473046616"><ele>294.0</ele><time>2026-04-10T10:44:04.003Z</time></trkpt><trkpt lat="45.05712375659117" lon="8.206708289101112"><ele>294.0</ele><time>2026-04-10T10:44:06.998Z</time></trkpt><trkpt lat="45.05711020277229" lon="8.206805822134031"><ele>294.0</ele><time>2026-04-10T10:44:08.999Z</time></trkpt><trkpt lat="45.057102799211386" lon="8.206901989820317"><ele>292.8333333333333</ele><time>2026-04-10T10:44:10.999Z</time></trkpt><trkpt lat="45.05710457784529" lon="8.207032635468439"><ele>291.6666666666667</ele><time>2026-04-10T10:44:13.999Z</time></trkpt><trkpt lat="45.057089216153514" lon="8.207152868551582"><ele>290.5</ele><time>2026-04-10T10:44:16.999Z</time></trkpt><trkpt lat="45.05706063844315" lon="8.207276103224395"><ele>289.33333333333337</ele><time>2026-04-10T10:44:19.999Z</time></trkpt><trkpt lat="45.05700893644902" lon="8.207361277592202"><ele>288.1666666666667</ele><time>2026-04-10T10:44:22.999Z</time></trkpt><trkpt lat="45.056967143030626" lon="8.207463534228795"><ele>287.0</ele><time>2026-04-10T10:44:26Z</time></trkpt><trkpt lat="45.05693718613027" lon="8.207583287113193"><ele>287.0</ele><time>2026-04-10T10:44:29Z</time></trkpt><trkpt lat="45.05694507533031" lon="8.207734067191438"><ele>287.0</ele><time>2026-04-10T10:44:32Z</time></trkpt><trkpt lat="45.05700831744562" lon="8.20780581034452"><ele>287.0</ele><time>2026-04-10T10:44:34Z</time></trkpt><trkpt lat="45.057098540562464" lon="8.20783568330097"><ele>287.0</ele><time>2026-04-10T10:44:37Z</time></trkpt><trkpt lat="45.05718172295434" lon="8.207878070104602"><ele>287.0</ele><time>2026-04-10T10:44:40Z</time></trkpt><trkpt lat="45.057258485029465" lon="8.207937319845602"><ele>287.0</ele><time>2026-04-10T10:44:43.001Z</time></trkpt><trkpt lat="45.05734457379362" lon="8.20797820512673"><ele>287.0</ele><time>2026-04-10T10:44:46.001Z</time></trkpt><trkpt lat="45.05742802912001" lon="8.208017837433"><ele>287.0</ele><time>2026-04-10T10:44:49.001Z</time></trkpt><trkpt lat="45.057494193234895" lon="8.208045350595786"><ele>287.0</ele><time>2026-04-10T10:44:51.001Z</time></trkpt><trkpt lat="45.05756857222541" lon="8.208052127469136"><ele>287.0</ele><time>2026-04-10T10:44:53.001Z</time></trkpt><trkpt lat="45.057637637000084" lon="8.208083177079455"><ele>287.0</ele><time>2026-04-10T10:44:55.001Z</time></trkpt><trkpt lat="45.0577099371564" lon="8.208101273961644"><ele>289.42857142857144</ele><time>2026-04-10T10:44:57.001Z</time></trkpt><trkpt lat="45.05777867829794" lon="8.208127755191"><ele>291.8571428571429</ele><time>2026-04-10T10:44:59.001Z</time></trkpt><trkpt lat="45.05784539662677" lon="8.208073630011175"><ele>294.2857142857143</ele><time>2026-04-10T10:45:01.001Z</time></trkpt><trkpt lat="45.05786678153395" lon="8.207961882042763"><ele>296.7142857142857</ele><time>2026-04-10T10:45:03.001Z</time></trkpt><trkpt lat="45.05785684028918" lon="8.207850892739065"><ele>299.14285714285717</ele><time>2026-04-10T10:45:05.001Z</time></trkpt><trkpt lat="45.05786009913341" lon="8.207757471895656"><ele>301.57142857142856</ele><time>2026-04-10T10:45:07.001Z</time></trkpt><trkpt lat="45.05786565491576" lon="8.207656433382343"><ele>304.0</ele><time>2026-04-10T10:45:09.001Z</time></trkpt><trkpt lat="45.05787464891829" lon="8.207564252198694"><ele>304.0</ele><time>2026-04-10T10:45:11.001Z</time></trkpt><trkpt lat="45.05789158434636" lon="8.207434408303254"><ele>304.0</ele><time>2026-04-10T10:45:14.002Z</time></trkpt><trkpt lat="45.05790792241221" lon="8.20731613578649"><ele>304.0</ele><time>2026-04-10T10:45:17.002Z</time></trkpt><trkpt lat="45.057924009958384" lon="8.207199675470823"><ele>304.0</ele><time>2026-04-10T10:45:20.002Z</time></trkpt><trkpt lat="45.05793322839576" lon="8.207098335117296"><ele>304.0</ele><time>2026-04-10T10:45:22.002Z</time></trkpt><trkpt lat="45.057941074788644" lon="8.207007251999112"><ele>304.0</ele><time>2026-04-10T10:45:24.002Z</time></trkpt><trkpt lat="45.057950955734675" lon="8.206896068563292"><ele>303.8333333333333</ele><time>2026-04-10T10:45:27.002Z</time></trkpt><trkpt lat="45.05794831262259" lon="8.206774906102172"><ele>303.66666666666663</ele><time>2026-04-10T10:45:30.002Z</time></trkpt><trkpt lat="45.05797696050023" lon="8.206692236192039"><ele>303.5</ele><time>2026-04-10T10:45:32.002Z</time></trkpt><trkpt lat="45.05799441840047" lon="8.206569547632805"><ele>303.3333333333333</ele><time>2026-04-10T10:45:35.002Z</time></trkpt><trkpt lat="45.05801329680615" lon="8.20643687620674"><ele>303.1666666666667</ele><time>2026-04-10T10:45:38.002Z</time></trkpt><trkpt lat="45.05802562504926" lon="8.20634373818403"><ele>303.0</ele><time>2026-04-10T10:45:40.002Z</time></trkpt><trkpt lat="45.0580374738584" lon="8.206250783632125"><ele>303.0</ele><time>2026-04-10T10:45:42.002Z</time></trkpt><trkpt lat="45.05803314669841" lon="8.206160945717176"><ele>303.0</ele><time>2026-04-10T10:45:44.003Z</time></trkpt><trkpt lat="45.05806438583399" lon="8.206039877640906"><ele>303.0</ele><time>2026-04-10T10:45:47.003Z</time></trkpt><trkpt lat="45.058063182464736" lon="8.20594076708297"><ele>303.0</ele><time>2026-04-10T10:45:49.003Z</time></trkpt><trkpt lat="45.05807237015891" lon="8.20584036923556"><ele>303.0</ele><time>2026-04-10T10:45:51.003Z</time></trkpt><trkpt lat="45.058066843159594" lon="8.205739313217952"><ele>303.0</ele><time>2026-04-10T10:45:53.003Z</time></trkpt><trkpt lat="45.058050031880256" lon="8.205650869333068"><ele>303.0</ele><time>2026-04-10T10:45:55.003Z</time></trkpt><trkpt lat="45.05803367812173" lon="8.205563443660134"><ele>304.8333333333333</ele><time>2026-04-10T10:45:57.003Z</time></trkpt><trkpt lat="45.05796848120241" lon="8.20551406801031"><ele>306.6666666666667</ele><time>2026-04-10T10:45:59.003Z</time></trkpt><trkpt lat="45.05788993464415" lon="8.205428368408505"><ele>308.5</ele><time>2026-04-10T10:46:02.003Z</time></trkpt><trkpt lat="45.05779936937926" lon="8.205390887161034"><ele>310.33333333333337</ele><time>2026-04-10T10:46:05.003Z</time></trkpt><trkpt lat="45.05773703245852" lon="8.205350049338916"><ele>312.1666666666667</ele><time>2026-04-10T10:46:07.003Z</time></trkpt><trkpt lat="45.057663899358616" lon="8.205275255922956"><ele>314.0</ele><time>2026-04-10T10:46:10.003Z</time></trkpt><trkpt lat="45.057625114385786" lon="8.20517572049415"><ele>314.0</ele><time>2026-04-10T10:46:12.999Z</time></trkpt><trkpt lat="45.05757040963784" lon="8.205069038867627"><ele>314.0</ele><time>2026-04-10T10:46:15.999Z</time></trkpt><trkpt lat="45.057529461489885" lon="8.204976332669359"><ele>314.0</ele><time>2026-04-10T10:46:17.999Z</time></trkpt><trkpt lat="45.05750017582141" lon="8.204840547599389"><ele>314.0</ele><time>2026-04-10T10:46:19.999Z</time></trkpt><trkpt lat="45.057460592604876" lon="8.204700713484216"><ele>314.0</ele><time>2026-04-10T10:46:21.999Z</time></trkpt><trkpt lat="45.057430830645906" lon="8.204555090742364"><ele>315.33333333333337</ele><time>2026-04-10T10:46:23.999Z</time></trkpt><trkpt lat="45.05744613504749" lon="8.204418327166394"><ele>316.6666666666667</ele><time>2026-04-10T10:46:25.999Z</time></trkpt><trkpt lat="45.0574493815987" lon="8.2042934663067"><ele>318.0</ele><time>2026-04-10T10:46:27.999Z</time></trkpt><trkpt lat="45.05745144382157" lon="8.204181657842836"><ele>319.3333333333333</ele><time>2026-04-10T10:46:30Z</time></trkpt><trkpt lat="45.057437053309734" lon="8.204091484092011"><ele>320.66666666666663</ele><time>2026-04-10T10:46:32Z</time></trkpt><trkpt lat="45.05745232795946" lon="8.203991273286954"><ele>322.0</ele><time>2026-04-10T10:46:34Z</time></trkpt><trkpt lat="45.057441429380766" lon="8.20388683462583"><ele>324.66666666666663</ele><time>2026-04-10T10:46:36Z</time></trkpt><trkpt lat="45.0574278516305" lon="8.203771567368927"><ele>327.3333333333333</ele><time>2026-04-10T10:46:38Z</time></trkpt><trkpt lat="45.057408759752676" lon="8.203684344038816"><ele>330.0</ele><time>2026-04-10T10:46:40Z</time></trkpt><trkpt lat="45.05739363852281" lon="8.203594642309154"><ele>332.6666666666667</ele><time>2026-04-10T10:46:42Z</time></trkpt><trkpt lat="45.05738214525015" lon="8.203504477840742"><ele>335.33333333333337</ele><time>2026-04-10T10:46:44Z</time></trkpt><trkpt lat="45.05736480262008" lon="8.20341215996936"><ele>338.0</ele><time>2026-04-10T10:46:46Z</time></trkpt><trkpt lat="45.05725815781514" lon="8.203319056340762"><ele>338.0</ele><time>2026-04-10T10:46:48.001Z</time></trkpt><trkpt lat="45.05718212361182" lon="8.20336825387"><ele>338.0</ele><time>2026-04-10T10:46:49.001Z</time></trkpt><trkpt lat="45.05715169403138" lon="8.20346149052196"><ele>338.0</ele><time>2026-04-10T10:46:50.001Z</time></trkpt><trkpt lat="45.0570953253803" lon="8.203574188267982"><ele>338.0</ele><time>2026-04-10T10:46:52.001Z</time></trkpt><trkpt lat="45.05705832106428" lon="8.20367830074042"><ele>338.0</ele><time>2026-04-10T10:46:54.001Z</time></trkpt><trkpt lat="45.05702370685907" lon="8.203766208186243"><ele>338.0</ele><time>2026-04-10T10:46:56.001Z</time></trkpt><trkpt lat="45.056967532569836" lon="8.203866924501215"><ele>338.0</ele><time>2026-04-10T10:46:59.001Z</time></trkpt><trkpt lat="45.056893692098946" lon="8.203954613440498"><ele>338.0</ele><time>2026-04-10T10:47:02.001Z</time></trkpt><trkpt lat="45.05682140974821" lon="8.20403818023152"><ele>338.0</ele><time>2026-04-10T10:47:05.001Z</time></trkpt><trkpt lat="45.05676564821751" lon="8.20407993110817"><ele>338.0</ele><time>2026-04-10T10:47:07.001Z</time></trkpt><trkpt lat="45.05670991853794" lon="8.204122319144169"><ele>338.0</ele><time>2026-04-10T10:47:09.001Z</time></trkpt><trkpt lat="45.05664696727254" lon="8.204182970722396"><ele>338.0</ele><time>2026-04-10T10:47:12.001Z</time></trkpt><trkpt lat="45.05658435017892" lon="8.204241035351304"><ele>339.6666666666667</ele><time>2026-04-10T10:47:14.001Z</time></trkpt><trkpt lat="45.056515833366035" lon="8.204296102875318"><ele>341.33333333333337</ele><time>2026-04-10T10:47:16.002Z</time></trkpt><trkpt lat="45.05645689862626" lon="8.204363297691051"><ele>343.0</ele><time>2026-04-10T10:47:18.002Z</time></trkpt><trkpt lat="45.056403141956224" lon="8.204447401293878"><ele>344.6666666666667</ele><time>2026-04-10T10:47:20.002Z</time></trkpt><trkpt lat="45.05637119423655" lon="8.204537887407982"><ele>346.3333333333333</ele><time>2026-04-10T10:47:22.002Z</time></trkpt><trkpt lat="45.05632236920485" lon="8.204657950023845"><ele>348.0</ele><time>2026-04-10T10:47:25.002Z</time></trkpt><trkpt lat="45.0562862804417" lon="8.204773673867082"><ele>345.3333333333333</ele><time>2026-04-10T10:47:27.002Z</time></trkpt><trkpt lat="45.05624486284364" lon="8.204872376695773"><ele>342.6666666666667</ele><time>2026-04-10T10:47:29.002Z</time></trkpt><trkpt lat="45.05619472086696" lon="8.204989959831998"><ele>340.0</ele><time>2026-04-10T10:47:31.002Z</time></trkpt><trkpt lat="45.05616336925087" lon="8.205089398280135"><ele>337.33333333333337</ele><time>2026-04-10T10:47:33.002Z</time></trkpt><trkpt lat="45.05612214854293" lon="8.205190992595181"><ele>334.6666666666667</ele><time>2026-04-10T10:47:35.002Z</time></trkpt><trkpt lat="45.05607143655244" lon="8.205298753617107"><ele>332.0</ele><time>2026-04-10T10:47:37.002Z</time></trkpt><trkpt lat="45.05600751598691" lon="8.205393815872908"><ele>332.0</ele><time>2026-04-10T10:47:39.002Z</time></trkpt><trkpt lat="45.055960688390684" lon="8.205477102050015"><ele>332.0</ele><time>2026-04-10T10:47:41.002Z</time></trkpt><trkpt lat="45.055895519170804" lon="8.205540362092142"><ele>332.0</ele><time>2026-04-10T10:47:43.002Z</time></trkpt><trkpt lat="45.055817965566995" lon="8.20560307312878"><ele>332.0</ele><time>2026-04-10T10:47:45.002Z</time></trkpt><trkpt lat="45.05574054461031" lon="8.205615868899052"><ele>332.0</ele><time>2026-04-10T10:47:47.002Z</time></trkpt><trkpt lat="45.05567187955488" lon="8.205566221971502"><ele>332.0</ele><time>2026-04-10T10:47:49.003Z</time></trkpt><trkpt lat="45.055618003249435" lon="8.2054904167485"><ele>332.83333333333337</ele><time>2026-04-10T10:47:51.003Z</time></trkpt><trkpt lat="45.05557100414282" lon="8.20542270423441"><ele>333.6666666666667</ele><time>2026-04-10T10:47:53.003Z</time></trkpt><trkpt lat="45.05551081945228" lon="8.205342798136728"><ele>334.5</ele><time>2026-04-10T10:47:55.003Z</time></trkpt><trkpt lat="45.055460668343365" lon="8.205257588274748"><ele>335.3333333333333</ele><time>2026-04-10T10:47:57.003Z</time></trkpt><trkpt lat="45.05540462813174" lon="8.205179054729632"><ele>336.16666666666663</ele><time>2026-04-10T10:47:59.003Z</time></trkpt><trkpt lat="45.055342923652866" lon="8.20511127572408"><ele>337.0</ele><time>2026-04-10T10:48:01.003Z</time></trkpt><trkpt lat="45.05525855195953" lon="8.205072915182571"><ele>337.0</ele><time>2026-04-10T10:48:03.003Z</time></trkpt><trkpt lat="45.05518163581613" lon="8.20504288119984"><ele>337.0</ele><time>2026-04-10T10:48:05.003Z</time></trkpt><trkpt lat="45.05510583067077" lon="8.205015898021594"><ele>337.0</ele><time>2026-04-10T10:48:07.003Z</time></trkpt><trkpt lat="45.055031525826365" lon="8.205003991439481"><ele>337.0</ele><time>2026-04-10T10:48:09.003Z</time></trkpt><trkpt lat="45.054961619163926" lon="8.20501943060357"><ele>337.0</ele><time>2026-04-10T10:48:11.003Z</time></trkpt><trkpt lat="45.05488761043848" lon="8.205064771085855"><ele>337.0</ele><time>2026-04-10T10:48:13.003Z</time></trkpt><trkpt lat="45.05481398052716" lon="8.205090608927737"><ele>338.7142857142857</ele><time>2026-04-10T10:48:15.003Z</time></trkpt><trkpt lat="45.05474843073448" lon="8.205124749852446"><ele>340.42857142857144</ele><time>2026-04-10T10:48:17.003Z</time></trkpt><trkpt lat="45.05468524944613" lon="8.205152157911176"><ele>342.1428571428571</ele><time>2026-04-10T10:48:18.998Z</time></trkpt><trkpt lat="45.054598839293256" lon="8.2051766649546"><ele>343.8571428571429</ele><time>2026-04-10T10:48:21.999Z</time></trkpt><trkpt lat="45.054536909820754" lon="8.2051541018818"><ele>345.57142857142856</ele><time>2026-04-10T10:48:23.999Z</time></trkpt><trkpt lat="45.054463946233064" lon="8.205098740986893"><ele>347.2857142857143</ele><time>2026-04-10T10:48:26.999Z</time></trkpt><trkpt lat="45.05440912216504" lon="8.205045180801525"><ele>349.0</ele><time>2026-04-10T10:48:28.999Z</time></trkpt><trkpt lat="45.054334915853914" lon="8.205041640498571"><ele>349.0</ele><time>2026-04-10T10:48:30.999Z</time></trkpt><trkpt lat="45.05426475010697" lon="8.205086398358773"><ele>349.0</ele><time>2026-04-10T10:48:32.999Z</time></trkpt><trkpt lat="45.054199455082" lon="8.20514733329909"><ele>349.0</ele><time>2026-04-10T10:48:34.999Z</time></trkpt><trkpt lat="45.0541259401545" lon="8.205180414935294"><ele>349.0</ele><time>2026-04-10T10:48:37Z</time></trkpt><trkpt lat="45.05403918317759" lon="8.205188997291389"><ele>349.0</ele><time>2026-04-10T10:48:39Z</time></trkpt><trkpt lat="45.05396615738848" lon="8.205192914766732"><ele>349.0</ele><time>2026-04-10T10:48:41Z</time></trkpt><trkpt lat="45.053884977496885" lon="8.205196255208133"><ele>348.71428571428567</ele><time>2026-04-10T10:48:43Z</time></trkpt><trkpt lat="45.05381029400071" lon="8.205197022488665"><ele>348.42857142857144</ele><time>2026-04-10T10:48:45Z</time></trkpt><trkpt lat="45.053736172917134" lon="8.205197022490783"><ele>348.1428571428571</ele><time>2026-04-10T10:48:47Z</time></trkpt><trkpt lat="45.05366491180678" lon="8.205191870714495"><ele>347.85714285714283</ele><time>2026-04-10T10:48:49Z</time></trkpt><trkpt lat="45.05359458436189" lon="8.20518906265283"><ele>347.57142857142856</ele><time>2026-04-10T10:48:51Z</time></trkpt><trkpt lat="45.05352506931108" lon="8.20521076041932"><ele>347.2857142857143</ele><time>2026-04-10T10:48:53Z</time></trkpt><trkpt lat="45.05343926046714" lon="8.205222222225629"><ele>347.0</ele><time>2026-04-10T10:48:55.001Z</time></trkpt><trkpt lat="45.053367402014224" lon="8.205247756628474"><ele>347.0</ele><time>2026-04-10T10:48:57.001Z</time></trkpt><trkpt lat="45.05329652138951" lon="8.205274461359462"><ele>347.0</ele><time>2026-04-10T10:48:59.001Z</time></trkpt><trkpt lat="45.05322960766829" lon="8.20530845182678"><ele>347.0</ele><time>2026-04-10T10:49:01.001Z</time></trkpt><trkpt lat="45.05316767802224" lon="8.20533011207517"><ele>347.0</ele><time>2026-04-10T10:49:03.001Z</time></trkpt><trkpt lat="45.053103226022905" lon="8.205344589172544"><ele>347.0</ele><time>2026-04-10T10:49:05.001Z</time></trkpt><trkpt lat="45.053022067221015" lon="8.205340103897003"><ele>347.0</ele><time>2026-04-10T10:49:07.001Z</time></trkpt><trkpt lat="45.052953270589356" lon="8.205358925716789"><ele>347.0</ele><time>2026-04-10T10:49:09.001Z</time></trkpt><trkpt lat="45.05288890270664" lon="8.205374756889624"><ele>347.0</ele><time>2026-04-10T10:49:11.001Z</time></trkpt><trkpt lat="45.05283567186549" lon="8.205455741335955"><ele>347.0</ele><time>2026-04-10T10:49:13.001Z</time></trkpt><trkpt lat="45.05279031300603" lon="8.205531137686577"><ele>347.0</ele><time>2026-04-10T10:49:16.001Z</time></trkpt><trkpt lat="45.052737234460054" lon="8.205585424097244"><ele>347.0</ele><time>2026-04-10T10:49:18.001Z</time></trkpt><trkpt lat="45.05266372115617" lon="8.205642190174734"><ele>347.0</ele><time>2026-04-10T10:49:21.001Z</time></trkpt><trkpt lat="45.05258456783449" lon="8.20568401556413"><ele>347.0</ele><time>2026-04-10T10:49:23.002Z</time></trkpt><trkpt lat="45.05250690728317" lon="8.205734993915907"><ele>343.0</ele><time>2026-04-10T10:49:25.002Z</time></trkpt><trkpt lat="45.052423283751665" lon="8.20579544031619"><ele>339.0</ele><time>2026-04-10T10:49:27.002Z</time></trkpt><trkpt lat="45.05231824688898" lon="8.205858150296134"><ele>335.0</ele><time>2026-04-10T10:49:29.002Z</time></trkpt><trkpt lat="45.052226498615035" lon="8.205904116500722"><ele>331.0</ele><time>2026-04-10T10:49:31.002Z</time></trkpt><trkpt lat="45.052155300118834" lon="8.205947054946746"><ele>327.0</ele><time>2026-04-10T10:49:33.002Z</time></trkpt><trkpt lat="45.05208907322949" lon="8.205971743438253"><ele>327.0</ele><time>2026-04-10T10:49:35.002Z</time></trkpt><trkpt lat="45.052020837152085" lon="8.206028871903005"><ele>327.0</ele><time>2026-04-10T10:58:31.003Z</time></trkpt><trkpt lat="45.05196087307843" lon="8.206108021269813"><ele>327.0</ele><time>2026-04-10T10:58:36.003Z</time></trkpt><trkpt lat="45.051933295773054" lon="8.206191189875602"><ele>327.0</ele><time>2026-04-10T10:58:38.003Z</time></trkpt><trkpt lat="45.05191256167733" lon="8.206275491074004"><ele>327.0</ele><time>2026-04-10T10:58:40.003Z</time></trkpt><trkpt lat="45.05188988384209" lon="8.206394197031775"><ele>327.0</ele><time>2026-04-10T10:58:42.003Z</time></trkpt><trkpt lat="45.05187900174288" lon="8.206520958475899"><ele>328.5</ele><time>2026-04-10T10:58:44.003Z</time></trkpt><trkpt lat="45.051875208928486" lon="8.206669280022972"><ele>330.0</ele><time>2026-04-10T10:58:46.003Z</time></trkpt><trkpt lat="45.05187521854617" lon="8.206787017803078"><ele>331.5</ele><time>2026-04-10T10:58:47.999Z</time></trkpt><trkpt lat="45.05186837838425" lon="8.206913995898457"><ele>333.0</ele><time>2026-04-10T10:58:50.999Z</time></trkpt><trkpt lat="45.05185516696874" lon="8.207004756758295"><ele>334.5</ele><time>2026-04-10T10:58:53.999Z</time></trkpt><trkpt lat="45.05179788115725" lon="8.207117417755027"><ele>336.0</ele><time>2026-04-10T10:58:56.999Z</time></trkpt><trkpt lat="45.051671469541915" lon="8.207163165790934"><ele>333.8333333333333</ele><time>2026-04-10T10:58:58.999Z</time></trkpt><trkpt lat="45.051563425878996" lon="8.207244965317527"><ele>331.6666666666667</ele><time>2026-04-10T10:59:00.999Z</time></trkpt><trkpt lat="45.051519805637746" lon="8.207314290148345"><ele>329.5</ele><time>2026-04-10T10:59:01.999Z</time></trkpt><trkpt lat="45.05145460954705" lon="8.207355605166619"><ele>327.33333333333337</ele><time>2026-04-10T10:59:02.999Z</time></trkpt><trkpt lat="45.051388843008084" lon="8.207410697191614"><ele>325.1666666666667</ele><time>2026-04-10T10:59:03.999Z</time></trkpt><trkpt lat="45.05131925527994" lon="8.207467780346118"><ele>323.0</ele><time>2026-04-10T10:59:05Z</time></trkpt><trkpt lat="45.05123919666457" lon="8.207485127932719"><ele>323.0</ele><time>2026-04-10T10:59:06Z</time></trkpt><trkpt lat="45.05116541101565" lon="8.207504005815608"><ele>323.0</ele><time>2026-04-10T10:59:07Z</time></trkpt><trkpt lat="45.05109394449556" lon="8.207514132084892"><ele>323.0</ele><time>2026-04-10T10:59:08Z</time></trkpt><trkpt lat="45.05101395384173" lon="8.207530676697296"><ele>323.0</ele><time>2026-04-10T10:59:09Z</time></trkpt><trkpt lat="45.05092643476951" lon="8.207569370950358"><ele>323.0</ele><time>2026-04-10T10:59:10Z</time></trkpt><trkpt lat="45.050824320732545" lon="8.207602361987028"><ele>323.0</ele><time>2026-04-10T10:59:11Z</time></trkpt><trkpt lat="45.05073049390253" lon="8.207686889251429"><ele>319.2</ele><time>2026-04-10T10:59:12Z</time></trkpt><trkpt lat="45.0506259523389" lon="8.207761575580856"><ele>315.4</ele><time>2026-04-10T10:59:13Z</time></trkpt><trkpt lat="45.050519865231095" lon="8.207810606551016"><ele>311.59999999999997</ele><time>2026-04-10T10:59:14Z</time></trkpt><trkpt lat="45.05042657879965" lon="8.207878650067702"><ele>307.79999999999995</ele><time>2026-04-10T10:59:15Z</time></trkpt><trkpt lat="45.05035309584689" lon="8.207938198664852"><ele>304.0</ele><time>2026-04-10T10:59:16Z</time></trkpt><trkpt lat="45.050283572734145" lon="8.20800050761849"><ele>304.0</ele><time>2026-04-10T10:59:17Z</time></trkpt><trkpt lat="45.05022359762431" lon="8.208057067591536"><ele>304.0</ele><time>2026-04-10T10:59:18Z</time></trkpt><trkpt lat="45.05016536811684" lon="8.208105445254823"><ele>304.0</ele><time>2026-04-10T10:59:19Z</time></trkpt><trkpt lat="45.05011232854597" lon="8.20815563384649"><ele>304.0</ele><time>2026-04-10T10:59:20Z</time></trkpt><trkpt lat="45.05001289285185" lon="8.208215851742585"><ele>304.0</ele><time>2026-04-10T10:59:22Z</time></trkpt><trkpt lat="45.0499496882047" lon="8.208243383242145"><ele>304.0</ele><time>2026-04-10T10:59:23Z</time></trkpt><trkpt lat="45.04989357979213" lon="8.208288345962288"><ele>304.0</ele><time>2026-04-10T10:59:24Z</time></trkpt><trkpt lat="45.04979620454895" lon="8.208389658051791"><ele>302.3333333333333</ele><time>2026-04-10T10:59:26Z</time></trkpt><trkpt lat="45.04970097797155" lon="8.208503995222772"><ele>300.66666666666663</ele><time>2026-04-10T10:59:28Z</time></trkpt><trkpt lat="45.0496521655905" lon="8.20856047717191"><ele>299.0</ele><time>2026-04-10T10:59:29Z</time></trkpt><trkpt lat="45.04960456101193" lon="8.208634717648202"><ele>297.3333333333333</ele><time>2026-04-10T10:59:30Z</time></trkpt><trkpt lat="45.049539234259" lon="8.208685141807711"><ele>295.6666666666667</ele><time>2026-04-10T10:59:31.001Z</time></trkpt><trkpt lat="45.04947707288993" lon="8.208735760499197"><ele>294.0</ele><time>2026-04-10T10:59:32.001Z</time></trkpt><trkpt lat="45.049413344118506" lon="8.208783875391477"><ele>294.0</ele><time>2026-04-10T10:59:33.001Z</time></trkpt><trkpt lat="45.049339433738474" lon="8.208819695172423"><ele>294.0</ele><time>2026-04-10T10:59:34.001Z</time></trkpt><trkpt lat="45.049263027492835" lon="8.208859513688735"><ele>294.0</ele><time>2026-04-10T10:59:35.001Z</time></trkpt><trkpt lat="45.04918887521325" lon="8.208917872001186"><ele>294.0</ele><time>2026-04-10T10:59:36.001Z</time></trkpt><trkpt lat="45.04910554774268" lon="8.208958407464735"><ele>294.0</ele><time>2026-04-10T10:59:37.001Z</time></trkpt><trkpt lat="45.04903388299045" lon="8.209011441236441"><ele>294.0</ele><time>2026-04-10T10:59:38.001Z</time></trkpt><trkpt lat="45.04896837320146" lon="8.2090630261474"><ele>292.8333333333333</ele><time>2026-04-10T10:59:39.001Z</time></trkpt><trkpt lat="45.04890982884635" lon="8.209118479451805"><ele>291.6666666666667</ele><time>2026-04-10T10:59:40.001Z</time></trkpt><trkpt lat="45.04885279592708" lon="8.209172749472856"><ele>290.5</ele><time>2026-04-10T10:59:41.001Z</time></trkpt><trkpt lat="45.04875891191292" lon="8.209253812696257"><ele>289.33333333333337</ele><time>2026-04-10T10:59:43.001Z</time></trkpt><trkpt lat="45.04866959433184" lon="8.20931407368822"><ele>288.1666666666667</ele><time>2026-04-10T10:59:45.001Z</time></trkpt><trkpt lat="45.04858621667276" lon="8.209346353101363"><ele>287.0</ele><time>2026-04-10T10:59:47.001Z</time></trkpt><trkpt lat="45.04850142566012" lon="8.209365150297366"><ele>287.0</ele><time>2026-04-10T10:59:50.001Z</time></trkpt><trkpt lat="45.048457552921334" lon="8.209463188729588"><ele>287.0</ele><time>2026-04-10T10:59:52.001Z</time></trkpt><trkpt lat="45.04841228229008" lon="8.209573010329006"><ele>287.0</ele><time>2026-04-10T10:59:54.001Z</time></trkpt><trkpt lat="45.048392649667356" lon="8.20970824807129"><ele>287.0</ele><time>2026-04-10T10:59:56.001Z</time></trkpt><trkpt lat="45.04837932681336" lon="8.209840157518036"><ele>287.0</ele><time>2026-04-10T10:59:58.001Z</time></trkpt><trkpt lat="45.048397372906784" lon="8.209978230773547"><ele>287.4</ele><time>2026-04-10T11:00:00.001Z</time></trkpt><trkpt lat="45.04836256391242" lon="8.21010266656325"><ele>287.79999999999995</ele><time>2026-04-10T11:00:02.001Z</time></trkpt><trkpt lat="45.0483113847856" lon="8.210189786331485"><ele>288.2</ele><time>2026-04-10T11:00:04.002Z</time></trkpt><trkpt lat="45.04824731613414" lon="8.210269565851863"><ele>288.59999999999997</ele><time>2026-04-10T11:00:06.002Z</time></trkpt><trkpt lat="45.04818543016909" lon="8.210380617268207"><ele>289.0</ele><time>2026-04-10T11:00:08.002Z</time></trkpt><trkpt lat="45.048132322412954" lon="8.21049525566554"><ele>286.8333333333333</ele><time>2026-04-10T11:00:10.002Z</time></trkpt><trkpt lat="45.04809805705547" lon="8.210591885230162"><ele>284.66666666666663</ele><time>2026-04-10T11:00:12.002Z</time></trkpt><trkpt lat="45.04807608450657" lon="8.21068879739721"><ele>282.5</ele><time>2026-04-10T11:00:15.002Z</time></trkpt><trkpt lat="45.048027932249774" lon="8.210775783594677"><ele>280.3333333333333</ele><time>2026-04-10T11:00:18.002Z</time></trkpt><trkpt lat="45.047936729979966" lon="8.210813062519502"><ele>278.1666666666667</ele><time>2026-04-10T11:00:22.002Z</time></trkpt><trkpt lat="45.047846777368974" lon="8.210776490785932"><ele>276.0</ele><time>2026-04-10T11:00:24.002Z</time></trkpt><trkpt lat="45.04775490253565" lon="8.210779622926786"><ele>276.0</ele><time>2026-04-10T11:00:26.002Z</time></trkpt><trkpt lat="45.04766611542256" lon="8.21082793450338"><ele>276.0</ele><time>2026-04-10T11:00:28.002Z</time></trkpt><trkpt lat="45.04760621732347" lon="8.210960787980376"><ele>276.0</ele><time>2026-04-10T11:00:30.002Z</time></trkpt><trkpt lat="45.04757643005296" lon="8.211079049458993"><ele>276.0</ele><time>2026-04-10T11:00:32.002Z</time></trkpt><trkpt lat="45.047539303029765" lon="8.211183195513465"><ele>276.0</ele><time>2026-04-10T11:00:34.002Z</time></trkpt><trkpt lat="45.04750176099477" lon="8.211313370341886"><ele>273.0</ele><time>2026-04-10T11:00:36.003Z</time></trkpt><trkpt lat="45.047441183106635" lon="8.211423940931159"><ele>270.0</ele><time>2026-04-10T11:00:38.003Z</time></trkpt><trkpt lat="45.04739810540869" lon="8.211537345958469"><ele>267.0</ele><time>2026-04-10T11:00:40.003Z</time></trkpt><trkpt lat="45.047370399501915" lon="8.211668145312885"><ele>264.0</ele><time>2026-04-10T11:00:42.003Z</time></trkpt><trkpt lat="45.04731332177716" lon="8.211779517898886"><ele>261.0</ele><time>2026-04-10T11:00:44.003Z</time></trkpt><trkpt lat="45.047246492331304" lon="8.211880315890882"><ele>261.0</ele><time>2026-04-10T11:00:46.003Z</time></trkpt><trkpt lat="45.04718342938002" lon="8.211959919064277"><ele>261.0</ele><time>2026-04-10T11:00:48.003Z</time></trkpt><trkpt lat="45.04707267256331" lon="8.212028280899728"><ele>261.0</ele><time>2026-04-10T11:00:50.003Z</time></trkpt><trkpt lat="45.04700954046558" lon="8.212044605083078"><ele>261.0</ele><time>2026-04-10T11:00:51.003Z</time></trkpt><trkpt lat="45.04689105607771" lon="8.212078140494864"><ele>261.0</ele><time>2026-04-10T11:00:53.003Z</time></trkpt><trkpt lat="45.04683033928062" lon="8.212103612265311"><ele>261.0</ele><time>2026-04-10T11:00:53.997Z</time></trkpt><trkpt lat="45.04672235402989" lon="8.212200253021553"><ele>261.0</ele><time>2026-04-10T11:00:55.998Z</time></trkpt><trkpt lat="45.04668328773038" lon="8.212298128539237"><ele>261.0</ele><time>2026-04-10T11:00:56.998Z</time></trkpt><trkpt lat="45.04664417930984" lon="8.212404237316122"><ele>261.0</ele><time>2026-04-10T11:00:57.998Z</time></trkpt><trkpt lat="45.046608946824634" lon="8.212499412046906"><ele>261.0</ele><time>2026-04-10T11:00:58.998Z</time></trkpt><trkpt lat="45.04657924855581" lon="8.212580063325127"><ele>261.0</ele><time>2026-04-10T11:00:59.998Z</time></trkpt><trkpt lat="45.04654842871261" lon="8.212720919589685"><ele>258.5</ele><time>2026-04-10T11:01:01.998Z</time></trkpt><trkpt lat="45.046530454544445" lon="8.212813985339643"><ele>256.0</ele><time>2026-04-10T11:01:03.998Z</time></trkpt><trkpt lat="45.046502064203324" lon="8.21291100590051"><ele>253.5</ele><time>2026-04-10T11:01:08.999Z</time></trkpt><trkpt lat="45.04650577456428" lon="8.213022283207241"><ele>251.0</ele><time>2026-04-10T11:01:11.999Z</time></trkpt><trkpt lat="45.046503865540885" lon="8.213147014478288"><ele>248.5</ele><time>2026-04-10T11:01:15.999Z</time></trkpt><trkpt lat="45.046505765495674" lon="8.213256698679269"><ele>246.0</ele><time>2026-04-10T11:01:19Z</time></trkpt><trkpt lat="45.04651290226761" lon="8.213361673564652"><ele>245.33333333333334</ele><time>2026-04-10T11:01:24Z</time></trkpt><trkpt lat="45.04652485022674" lon="8.213475455258324"><ele>244.66666666666669</ele><time>2026-04-10T11:01:28Z</time></trkpt><trkpt lat="45.0465373180526" lon="8.213578928813098"><ele>244.0</ele><time>2026-04-10T11:01:31Z</time></trkpt><trkpt lat="45.04653842327647" lon="8.213675247013978"><ele>243.33333333333334</ele><time>2026-04-10T11:01:33Z</time></trkpt><trkpt lat="45.046530390984266" lon="8.213826137483263"><ele>242.66666666666669</ele><time>2026-04-10T11:01:35Z</time></trkpt><trkpt lat="45.04651303279753" lon="8.213943020289738"><ele>242.0</ele><time>2026-04-10T11:01:37.001Z</time></trkpt><trkpt lat="45.04648898918906" lon="8.2140348000796"><ele>237.0</ele><time>2026-04-10T11:01:39.001Z</time></trkpt><trkpt lat="45.04597771537272" lon="8.214200969331369"><ele>237.0</ele><time>2026-04-10T11:01:40.001Z</time></trkpt><trkpt lat="45.045904073561665" lon="8.214273788312434"><ele>237.0</ele><time>2026-04-10T11:01:42.001Z</time></trkpt><trkpt lat="45.045811156951295" lon="8.214319812088995"><ele>237.0</ele><time>2026-04-10T11:01:44.001Z</time></trkpt><trkpt lat="45.04572143948461" lon="8.214326948466061"><ele>237.0</ele><time>2026-04-10T11:01:46.001Z</time></trkpt><trkpt lat="45.045633624084594" lon="8.214358400249342"><ele>237.0</ele><time>2026-04-10T11:01:48.001Z</time></trkpt><trkpt lat="45.04555918720323" lon="8.214427154070991"><ele>234.6</ele><time>2026-04-10T11:01:50.001Z</time></trkpt><trkpt lat="45.04550530077329" lon="8.214518178636252"><ele>232.2</ele><time>2026-04-10T11:01:52.001Z</time></trkpt><trkpt lat="45.0454578579517" lon="8.214632961784309"><ele>229.8</ele><time>2026-04-10T11:01:54.001Z</time></trkpt><trkpt lat="45.045402211930266" lon="8.214735547216229"><ele>227.4</ele><time>2026-04-10T11:01:56.001Z</time></trkpt><trkpt lat="45.04532152353666" lon="8.2148311275548"><ele>225.0</ele><time>2026-04-10T11:01:58.001Z</time></trkpt><trkpt lat="45.045229697405574" lon="8.214932059494693"><ele>224.66666666666666</ele><time>2026-04-10T11:02:00.001Z</time></trkpt><trkpt lat="45.04513712760807" lon="8.215028237547756"><ele>224.33333333333331</ele><time>2026-04-10T11:02:02.001Z</time></trkpt><trkpt lat="45.04506599170639" lon="8.21516447879985"><ele>224.0</ele><time>2026-04-10T11:02:04.002Z</time></trkpt><trkpt lat="45.04502573813505" lon="8.215246741955958"><ele>223.66666666666666</ele><time>2026-04-10T11:02:05.002Z</time></trkpt><trkpt lat="45.04497513246382" lon="8.215328523550115"><ele>223.33333333333331</ele><time>2026-04-10T11:02:06.002Z</time></trkpt><trkpt lat="45.04493317363308" lon="8.21540243194945"><ele>223.0</ele><time>2026-04-10T11:02:07.002Z</time></trkpt><trkpt lat="45.04488909057378" lon="8.215467247277111"><ele>223.2</ele><time>2026-04-10T11:02:08.002Z</time></trkpt><trkpt lat="45.044808656685944" lon="8.215582217822737"><ele>223.4</ele><time>2026-04-10T11:02:10.002Z</time></trkpt><trkpt lat="45.04474578059358" lon="8.215696256597086"><ele>223.59999999999997</ele><time>2026-04-10T11:02:12.002Z</time></trkpt><trkpt lat="45.04471154630756" lon="8.215804653665348"><ele>223.79999999999998</ele><time>2026-04-10T11:02:14.002Z</time></trkpt><trkpt lat="45.04468838198016" lon="8.215904214036145"><ele>224.0</ele><time>2026-04-10T11:02:16.002Z</time></trkpt><trkpt lat="45.04467494070876" lon="8.216008820577652"><ele>224.00000000000003</ele><time>2026-04-10T11:02:18.002Z</time></trkpt><trkpt lat="45.044665987167484" lon="8.216108060482757"><ele>224.0</ele><time>2026-04-10T11:02:20.002Z</time></trkpt><trkpt lat="45.044656488183136" lon="8.216236310971878"><ele>224.0</ele><time>2026-04-10T11:02:23.002Z</time></trkpt><trkpt lat="45.04463964297346" lon="8.216356151047572"><ele>224.0</ele><time>2026-04-10T11:02:26.002Z</time></trkpt><trkpt lat="45.04461206996287" lon="8.216461683759809"><ele>224.00000000000003</ele><time>2026-04-10T11:02:29.002Z</time></trkpt><trkpt lat="45.044587753204254" lon="8.216564264672376"><ele>224.0</ele><time>2026-04-10T11:02:32.002Z</time></trkpt><trkpt lat="45.04455885014231" lon="8.216654633670213"><ele>225.66666666666669</ele><time>2026-04-10T11:02:35.002Z</time></trkpt><trkpt lat="45.044519798732715" lon="8.21675621222938"><ele>227.33333333333334</ele><time>2026-04-10T11:02:38.003Z</time></trkpt><trkpt lat="45.04450383609544" lon="8.216854755056314"><ele>229.0</ele><time>2026-04-10T11:02:41.003Z</time></trkpt><trkpt lat="45.044494636654335" lon="8.216963289051261"><ele>230.66666666666669</ele><time>2026-04-10T11:02:44.003Z</time></trkpt><trkpt lat="45.044496715886964" lon="8.217073593722368"><ele>232.33333333333334</ele><time>2026-04-10T11:02:47.003Z</time></trkpt><trkpt lat="45.04449598408143" lon="8.217173858962363"><ele>234.0</ele><time>2026-04-10T11:02:50.003Z</time></trkpt><trkpt lat="45.04450869165668" lon="8.217293156598037"><ele>235.16666666666666</ele><time>2026-04-10T11:02:53.003Z</time></trkpt><trkpt lat="45.044518507495" lon="8.217403027494246"><ele>236.33333333333331</ele><time>2026-04-10T11:02:56.003Z</time></trkpt><trkpt lat="45.04453133534618" lon="8.217504129846434"><ele>237.5</ele><time>2026-04-10T11:02:59.003Z</time></trkpt><trkpt lat="45.04454783021691" lon="8.217604917379935"><ele>238.66666666666666</ele><time>2026-04-10T11:03:01.998Z</time></trkpt><trkpt lat="45.04452470420488" lon="8.217724718788494"><ele>239.83333333333331</ele><time>2026-04-10T11:03:04.998Z</time></trkpt><trkpt lat="45.04443553290096" lon="8.217751455528003"><ele>241.0</ele><time>2026-04-10T11:03:07.998Z</time></trkpt><trkpt lat="45.04436828647243" lon="8.217742963294794"><ele>241.0</ele><time>2026-04-10T11:03:09.999Z</time></trkpt><trkpt lat="45.04428933933146" lon="8.217764947259916"><ele>241.00000000000003</ele><time>2026-04-10T11:03:11.999Z</time></trkpt><trkpt lat="45.044214635138616" lon="8.217787692556623"><ele>241.0</ele><time>2026-04-10T11:03:13.999Z</time></trkpt><trkpt lat="45.04413110612041" lon="8.217819212046752"><ele>241.0</ele><time>2026-04-10T11:03:16.999Z</time></trkpt><trkpt lat="45.044067561476886" lon="8.217835983022951"><ele>241.00000000000003</ele><time>2026-04-10T11:03:18.999Z</time></trkpt><trkpt lat="45.04400622301053" lon="8.217857510241158"><ele>241.0</ele><time>2026-04-10T11:03:20.999Z</time></trkpt><trkpt lat="45.04394389939374" lon="8.217876539896048"><ele>241.0</ele><time>2026-04-10T11:03:23Z</time></trkpt><trkpt lat="45.043848600486264" lon="8.21790056921263"><ele>241.71428571428572</ele><time>2026-04-10T11:03:26Z</time></trkpt><trkpt lat="45.043782862065264" lon="8.21791973771895"><ele>242.42857142857144</ele><time>2026-04-10T11:03:28Z</time></trkpt><trkpt lat="45.04369091516124" lon="8.217947178503794"><ele>243.14285714285717</ele><time>2026-04-10T11:03:31Z</time></trkpt><trkpt lat="45.04362446592717" lon="8.21796465440217"><ele>243.8571428571429</ele><time>2026-04-10T11:03:33Z</time></trkpt><trkpt lat="45.04355373521441" lon="8.2179825670589"><ele>244.57142857142858</ele><time>2026-04-10T11:03:35Z</time></trkpt><trkpt lat="45.043478948249984" lon="8.218004480408283"><ele>245.28571428571433</ele><time>2026-04-10T11:03:37Z</time></trkpt><trkpt lat="45.04341426012764" lon="8.218028583241292"><ele>246.00000000000003</ele><time>2026-04-10T11:03:39Z</time></trkpt><trkpt lat="45.043350910130464" lon="8.218056221884382"><ele>245.8571428571429</ele><time>2026-04-10T11:03:41.001Z</time></trkpt><trkpt lat="45.043297120401064" lon="8.218107118690622"><ele>245.71428571428572</ele><time>2026-04-10T11:03:43.001Z</time></trkpt><trkpt lat="45.04325294842561" lon="8.218181967117706"><ele>245.57142857142858</ele><time>2026-04-10T11:03:46.001Z</time></trkpt><trkpt lat="45.043289501019075" lon="8.218277468816874"><ele>245.42857142857144</ele><time>2026-04-10T11:03:49.001Z</time></trkpt><trkpt lat="45.04335033487757" lon="8.218312657686326"><ele>245.28571428571428</ele><time>2026-04-10T11:03:51.001Z</time></trkpt><trkpt lat="45.04342656216926" lon="8.218366600663831"><ele>245.14285714285714</ele><time>2026-04-10T11:03:54.001Z</time></trkpt><trkpt lat="45.04349097444263" lon="8.218426226392705"><ele>245.0</ele><time>2026-04-10T11:03:57.001Z</time></trkpt><trkpt lat="45.04356654609044" lon="8.218483445134954"><ele>246.33333333333334</ele><time>2026-04-10T11:04:00.001Z</time></trkpt><trkpt lat="45.04363515718993" lon="8.21854975798304"><ele>247.66666666666669</ele><time>2026-04-10T11:04:03.001Z</time></trkpt><trkpt lat="45.043708430483264" lon="8.218607272654173"><ele>249.0</ele><time>2026-04-10T11:04:06.001Z</time></trkpt><trkpt lat="45.04376129787825" lon="8.218664450966438"><ele>250.33333333333331</ele><time>2026-04-10T11:04:08.002Z</time></trkpt><trkpt lat="45.04382161931534" lon="8.218725465018851"><ele>251.66666666666666</ele><time>2026-04-10T11:04:10.002Z</time></trkpt><trkpt lat="45.04388880197227" lon="8.218791041163865"><ele>253.0</ele><time>2026-04-10T11:04:12.002Z</time></trkpt><trkpt lat="45.04395515004965" lon="8.218842000653614"><ele>252.99999999999997</ele><time>2026-04-10T11:04:14.002Z</time></trkpt><trkpt lat="45.04401869494146" lon="8.218905229809497"><ele>253.0</ele><time>2026-04-10T11:04:16.002Z</time></trkpt><trkpt lat="45.04407941506422" lon="8.218970498135146"><ele>253.0</ele><time>2026-04-10T11:04:18.002Z</time></trkpt><trkpt lat="45.044153583573674" lon="8.219034115987895"><ele>253.0</ele><time>2026-04-10T11:04:20.002Z</time></trkpt><trkpt lat="45.04423297680101" lon="8.219100510119697"><ele>252.99999999999997</ele><time>2026-04-10T11:04:22.002Z</time></trkpt><trkpt lat="45.044315169392966" lon="8.219176802824112"><ele>253.0</ele><time>2026-04-10T11:04:24.002Z</time></trkpt><trkpt lat="45.044396904524696" lon="8.219243468986633"><ele>254.49999999999997</ele><time>2026-04-10T11:04:26.002Z</time></trkpt><trkpt lat="45.04446328805731" lon="8.219316142291861"><ele>256.0</ele><time>2026-04-10T11:04:28.002Z</time></trkpt><trkpt lat="45.044539043018695" lon="8.21936534065205"><ele>257.5</ele><time>2026-04-10T11:04:30.002Z</time></trkpt><trkpt lat="45.044605957781975" lon="8.219419519863857"><ele>259.0</ele><time>2026-04-10T11:04:32.002Z</time></trkpt><trkpt lat="45.04466798595094" lon="8.219468973248363"><ele>260.5</ele><time>2026-04-10T11:04:34.002Z</time></trkpt><trkpt lat="45.044734462379644" lon="8.219540584758615"><ele>262.0</ele><time>2026-04-10T11:04:37.002Z</time></trkpt><trkpt lat="45.0447417321916" lon="8.219656714031915"><ele>262.0</ele><time>2026-04-10T11:04:41.003Z</time></trkpt><trkpt lat="45.04475576084659" lon="8.219767464556906"><ele>262.0</ele><time>2026-04-10T11:04:46.003Z</time></trkpt><trkpt lat="45.04475425564124" lon="8.21990224803227"><ele>262.0</ele><time>2026-04-10T11:04:49.003Z</time></trkpt><trkpt lat="45.04475999804848" lon="8.219995473673878"><ele>262.0</ele><time>2026-04-10T11:04:51.003Z</time></trkpt><trkpt lat="45.04478408585942" lon="8.220112836524013"><ele>262.0</ele><time>2026-04-10T11:04:54.003Z</time></trkpt><trkpt lat="45.04478890389829" lon="8.22021587877671"><ele>262.0</ele><time>2026-04-10T11:04:58.003Z</time></trkpt><trkpt lat="45.044806211753226" lon="8.220116465795872"><ele>262.0</ele><time>2026-04-10T11:05:03.003Z</time></trkpt><trkpt lat="45.04477976562784" lon="8.220010732423319"><ele>262.0</ele><time>2026-04-10T11:05:05.997Z</time></trkpt><trkpt lat="45.04474204834058" lon="8.219926776724275"><ele>262.0</ele><time>2026-04-10T11:05:07.998Z</time></trkpt><trkpt lat="45.044733186769754" lon="8.219809586974451"><ele>262.0</ele><time>2026-04-10T11:05:09.998Z</time></trkpt><trkpt lat="45.04473328822379" lon="8.219711684011413"><ele>262.0</ele><time>2026-04-10T11:05:11.998Z</time></trkpt><trkpt lat="45.04468733025415" lon="8.219605297439571"><ele>262.0</ele><time>2026-04-10T11:05:14.998Z</time></trkpt><trkpt lat="45.04462075546106" lon="8.21956287258642"><ele>262.0</ele><time>2026-04-10T11:05:16.999Z</time></trkpt><trkpt lat="45.044516415445244" lon="8.21952445107919"><ele>262.0</ele><time>2026-04-10T11:05:19.999Z</time></trkpt><trkpt lat="45.04445399963313" lon="8.219536362471253"><ele>262.0</ele><time>2026-04-10T11:05:21.999Z</time></trkpt><trkpt lat="45.04437971310266" lon="8.219586461193495"><ele>262.0</ele><time>2026-04-10T11:05:23.999Z</time></trkpt><trkpt lat="45.044350979563205" lon="8.219677613934254"><ele>262.0</ele><time>2026-04-10T11:05:25.999Z</time></trkpt><trkpt lat="45.04435337068766" lon="8.219769963037217"><ele>262.0</ele><time>2026-04-10T11:05:27.999Z</time></trkpt><trkpt lat="45.044364851967146" lon="8.219872092396086"><ele>263.0</ele><time>2026-04-10T11:05:30Z</time></trkpt><trkpt lat="45.04435786091219" lon="8.219990324464321"><ele>264.0</ele><time>2026-04-10T11:05:32Z</time></trkpt><trkpt lat="45.04432922382902" lon="8.22011101906441"><ele>265.0</ele><time>2026-04-10T11:05:34Z</time></trkpt><trkpt lat="45.044305424984294" lon="8.220195750929504"><ele>266.0</ele><time>2026-04-10T11:05:36Z</time></trkpt><trkpt lat="45.044284430327274" lon="8.22028829886124"><ele>267.0</ele><time>2026-04-10T11:05:38Z</time></trkpt><trkpt lat="45.04426427984521" lon="8.220388795491663"><ele>268.0</ele><time>2026-04-10T11:05:40Z</time></trkpt><trkpt lat="45.04424308300658" lon="8.220493554891707"><ele>268.0</ele><time>2026-04-10T11:05:42Z</time></trkpt><trkpt lat="45.04421641449109" lon="8.220608778413656"><ele>268.0</ele><time>2026-04-10T11:05:44Z</time></trkpt><trkpt lat="45.04419664701213" lon="8.220719770072847"><ele>268.0</ele><time>2026-04-10T11:05:46.001Z</time></trkpt><trkpt lat="45.04417896537168" lon="8.220819841193462"><ele>268.0</ele><time>2026-04-10T11:05:48.001Z</time></trkpt><trkpt lat="45.0441631800087" lon="8.220923084461957"><ele>268.0</ele><time>2026-04-10T11:05:50.001Z</time></trkpt><trkpt lat="45.044144278734215" lon="8.221030461021597"><ele>268.0</ele><time>2026-04-10T11:05:52.001Z</time></trkpt><trkpt lat="45.04412371354071" lon="8.22113737924536"><ele>268.16666666666663</ele><time>2026-04-10T11:05:54.001Z</time></trkpt><trkpt lat="45.04410579634173" lon="8.221242336164634"><ele>268.3333333333333</ele><time>2026-04-10T11:05:56.001Z</time></trkpt><trkpt lat="45.044088789813486" lon="8.22134800194834"><ele>268.5</ele><time>2026-04-10T11:05:58.001Z</time></trkpt><trkpt lat="45.04406965174322" lon="8.221448429065703"><ele>268.6666666666667</ele><time>2026-04-10T11:06:00.001Z</time></trkpt><trkpt lat="45.04405774682921" lon="8.221555131544429"><ele>268.83333333333337</ele><time>2026-04-10T11:06:02.001Z</time></trkpt><trkpt lat="45.04403688304266" lon="8.221658427023382"><ele>269.0</ele><time>2026-04-10T11:06:04.001Z</time></trkpt><trkpt lat="45.044022491124316" lon="8.22176079163673"><ele>269.0</ele><time>2026-04-10T11:06:06.001Z</time></trkpt><trkpt lat="45.04400294949494" lon="8.221853849228077"><ele>269.0</ele><time>2026-04-10T11:06:08.001Z</time></trkpt><trkpt lat="45.04399011063769" lon="8.221951550328154"><ele>269.0</ele><time>2026-04-10T11:06:10.001Z</time></trkpt><trkpt lat="45.04397643086665" lon="8.222045123557644"><ele>269.0</ele><time>2026-04-10T11:06:12.001Z</time></trkpt><trkpt lat="45.043969714008824" lon="8.222141018786349"><ele>269.0</ele><time>2026-04-10T11:06:14.002Z</time></trkpt><trkpt lat="45.04397166524203" lon="8.222240182924153"><ele>269.0</ele><time>2026-04-10T11:06:16.002Z</time></trkpt><trkpt lat="45.04396997128879" lon="8.2223556716195"><ele>269.0</ele><time>2026-04-10T11:06:18.002Z</time></trkpt><trkpt lat="45.04395854574674" lon="8.22247767716387"><ele>268.0</ele><time>2026-04-10T11:06:20.002Z</time></trkpt><trkpt lat="45.04394091182716" lon="8.2226036105005"><ele>267.0</ele><time>2026-04-10T11:06:22.002Z</time></trkpt><trkpt lat="45.043918461495615" lon="8.222741526627752"><ele>266.0</ele><time>2026-04-10T11:06:24.002Z</time></trkpt><trkpt lat="45.043895241790466" lon="8.222877639383341"><ele>265.0</ele><time>2026-04-10T11:06:26.002Z</time></trkpt><trkpt lat="45.04387867757754" lon="8.22300336364096"><ele>264.0</ele><time>2026-04-10T11:06:28.002Z</time></trkpt><trkpt lat="45.04386380224185" lon="8.223114189728639"><ele>264.0</ele><time>2026-04-10T11:06:30.002Z</time></trkpt><trkpt lat="45.04384968643144" lon="8.22323871653365"><ele>264.0</ele><time>2026-04-10T11:06:32.002Z</time></trkpt><trkpt lat="45.043831421869925" lon="8.223392479517292"><ele>264.0</ele><time>2026-04-10T11:06:34.002Z</time></trkpt><trkpt lat="45.04381193923526" lon="8.223533042436829"><ele>264.0</ele><time>2026-04-10T11:06:36.002Z</time></trkpt><trkpt lat="45.043796955477866" lon="8.223646065509923"><ele>264.0</ele><time>2026-04-10T11:06:38.002Z</time></trkpt><trkpt lat="45.04378199049294" lon="8.22374636385485"><ele>264.0</ele><time>2026-04-10T11:06:40.002Z</time></trkpt><trkpt lat="45.04376241787527" lon="8.223884490949084"><ele>264.0</ele><time>2026-04-10T11:06:42.002Z</time></trkpt><trkpt lat="45.04374304176475" lon="8.22400981822458"><ele>264.0</ele><time>2026-04-10T11:06:44.002Z</time></trkpt><trkpt lat="45.04372723166883" lon="8.224127746874366"><ele>264.0</ele><time>2026-04-10T11:06:46.003Z</time></trkpt><trkpt lat="45.0437062013125" lon="8.224233403374006"><ele>264.0</ele><time>2026-04-10T11:06:48.003Z</time></trkpt><trkpt lat="45.043681856394606" lon="8.224346816128506"><ele>264.0</ele><time>2026-04-10T11:06:50.003Z</time></trkpt><trkpt lat="45.043658727091014" lon="8.224473434909074"><ele>264.0</ele><time>2026-04-10T11:06:52.003Z</time></trkpt><trkpt lat="45.04363146854933" lon="8.224593436416264"><ele>264.0</ele><time>2026-04-10T11:06:54.003Z</time></trkpt><trkpt lat="45.043601584715546" lon="8.22471514612377"><ele>264.0</ele><time>2026-04-10T11:06:56.003Z</time></trkpt><trkpt lat="45.04357687978522" lon="8.22484488909642"><ele>264.0</ele><time>2026-04-10T11:06:58.003Z</time></trkpt><trkpt lat="45.043551682104926" lon="8.22499681337903"><ele>264.0</ele><time>2026-04-10T11:07:00.003Z</time></trkpt><trkpt lat="45.04354038437921" lon="8.225154962195896"><ele>263.8</ele><time>2026-04-10T11:07:02.003Z</time></trkpt><trkpt lat="45.0435443537369" lon="8.225308399629359"><ele>263.59999999999997</ele><time>2026-04-10T11:07:04.003Z</time></trkpt><trkpt lat="45.043555867334184" lon="8.225460274234882"><ele>263.4</ele><time>2026-04-10T11:07:06.003Z</time></trkpt><trkpt lat="45.04356662835424" lon="8.225581802461507"><ele>263.2</ele><time>2026-04-10T11:07:08.003Z</time></trkpt><trkpt lat="45.04356250355768" lon="8.225724741221152"><ele>263.0</ele><time>2026-04-10T11:07:10.003Z</time></trkpt><trkpt lat="45.04355005534816" lon="8.225892248706964"><ele>262.2</ele><time>2026-04-10T11:07:11.997Z</time></trkpt><trkpt lat="45.04354465863658" lon="8.225984257442509"><ele>261.4</ele><time>2026-04-10T11:07:12.998Z</time></trkpt><trkpt lat="45.04353920399515" lon="8.22615869355019"><ele>260.59999999999997</ele><time>2026-04-10T11:07:14.998Z</time></trkpt><trkpt lat="45.043545343082904" lon="8.226333658480192"><ele>259.8</ele><time>2026-04-10T11:07:16.998Z</time></trkpt><trkpt lat="45.043546518686256" lon="8.226488638819303"><ele>259.0</ele><time>2026-04-10T11:07:18.998Z</time></trkpt><trkpt lat="45.04356573430539" lon="8.226587870354193"><ele>258.14285714285717</ele><time>2026-04-10T11:07:21.998Z</time></trkpt><trkpt lat="45.04360990135165" lon="8.226665742148187"><ele>257.2857142857143</ele><time>2026-04-10T11:07:30.999Z</time></trkpt><trkpt lat="45.04364265640999" lon="8.226755756692581"><ele>256.42857142857144</ele><time>2026-04-10T11:07:32.999Z</time></trkpt><trkpt lat="45.04369121628376" lon="8.226829173790208"><ele>255.57142857142858</ele><time>2026-04-10T11:07:35Z</time></trkpt><trkpt lat="45.04378298965109" lon="8.226834240302235"><ele>254.71428571428572</ele><time>2026-04-10T11:07:38Z</time></trkpt><trkpt lat="45.04384743854259" lon="8.226801195461416"><ele>253.8571428571429</ele><time>2026-04-10T11:07:40Z</time></trkpt><trkpt lat="45.04389807272845" lon="8.22674476127543"><ele>253.00000000000003</ele><time>2026-04-10T11:07:43Z</time></trkpt><trkpt lat="45.043968380060534" lon="8.226768914221692"><ele>253.00000000000003</ele><time>2026-04-10T11:07:46Z</time></trkpt><trkpt lat="45.044024180159525" lon="8.226841592057081"><ele>253.0</ele><time>2026-04-10T11:07:48Z</time></trkpt><trkpt lat="45.044097221365924" lon="8.226925611306626"><ele>253.00000000000003</ele><time>2026-04-10T11:07:50Z</time></trkpt><trkpt lat="45.04414055155749" lon="8.22699397305895"><ele>253.00000000000003</ele><time>2026-04-10T11:07:52.001Z</time></trkpt><trkpt lat="45.0441903826673" lon="8.22705663037447"><ele>253.0</ele><time>2026-04-10T11:07:57.001Z</time></trkpt><trkpt lat="45.044136923629104" lon="8.22698851612621"><ele>253.00000000000003</ele><time>2026-04-10T11:08:05.001Z</time></trkpt><trkpt lat="45.04408670995193" lon="8.226928450453382"><ele>253.00000000000003</ele><time>2026-04-10T11:08:07.001Z</time></trkpt><trkpt lat="45.04403329263409" lon="8.226869476853636"><ele>252.99999999999997</ele><time>2026-04-10T11:08:09.001Z</time></trkpt><trkpt lat="45.0439750123103" lon="8.226827609390337"><ele>253.0</ele><time>2026-04-10T11:08:11.001Z</time></trkpt><trkpt lat="45.043890126077606" lon="8.226813376611648"><ele>253.0</ele><time>2026-04-10T11:08:14.001Z</time></trkpt><trkpt lat="45.04380762924716" lon="8.226836958045887"><ele>253.0</ele><time>2026-04-10T11:08:17.001Z</time></trkpt><trkpt lat="45.04371511462486" lon="8.226845392541057"><ele>252.99999999999997</ele><time>2026-04-10T11:08:20.002Z</time></trkpt><trkpt lat="45.043649793187114" lon="8.226792250488966"><ele>253.0</ele><time>2026-04-10T11:08:22.002Z</time></trkpt><trkpt lat="45.043612288583496" lon="8.226706905047891"><ele>253.0</ele><time>2026-04-10T11:08:24.002Z</time></trkpt><trkpt lat="45.043553690998735" lon="8.22664754919422"><ele>253.0</ele><time>2026-04-10T11:08:27.002Z</time></trkpt><trkpt lat="45.04349828667902" lon="8.22669406750228"><ele>253.0</ele><time>2026-04-10T11:08:29.002Z</time></trkpt><trkpt lat="45.04341849922029" lon="8.226751248494232"><ele>253.0</ele><time>2026-04-10T11:08:31.002Z</time></trkpt><trkpt lat="45.04333922366702" lon="8.226815161020545"><ele>253.0</ele><time>2026-04-10T11:08:33.002Z</time></trkpt><trkpt lat="45.04319648424329" lon="8.226897370575227"><ele>251.33333333333331</ele><time>2026-04-10T11:08:35.002Z</time></trkpt><trkpt lat="45.043130699730234" lon="8.226937492594226"><ele>249.66666666666666</ele><time>2026-04-10T11:08:36.002Z</time></trkpt><trkpt lat="45.04306527177336" lon="8.226991175061073"><ele>248.0</ele><time>2026-04-10T11:08:37.002Z</time></trkpt><trkpt lat="45.042991136305965" lon="8.227044694298515"><ele>246.33333333333331</ele><time>2026-04-10T11:08:38.002Z</time></trkpt><trkpt lat="45.04291960418621" lon="8.227094157407471"><ele>244.66666666666666</ele><time>2026-04-10T11:08:39.002Z</time></trkpt><trkpt lat="45.04284365822789" lon="8.22712431852844"><ele>243.0</ele><time>2026-04-10T11:08:40.002Z</time></trkpt><trkpt lat="45.04278206658453" lon="8.227167206144788"><ele>243.0</ele><time>2026-04-10T11:08:41.002Z</time></trkpt><trkpt lat="45.04271951002218" lon="8.227210765691742"><ele>243.0</ele><time>2026-04-10T11:08:42.002Z</time></trkpt><trkpt lat="45.042610573193855" lon="8.22731049285624"><ele>243.0</ele><time>2026-04-10T11:08:44.002Z</time></trkpt><trkpt lat="45.04250343091475" lon="8.22736122639181"><ele>243.0</ele><time>2026-04-10T11:08:46.002Z</time></trkpt><trkpt lat="45.04243158827462" lon="8.227428877567142"><ele>243.0</ele><time>2026-04-10T11:08:48.002Z</time></trkpt><trkpt lat="45.0424447749539" lon="8.227613401633462"><ele>242.83333333333334</ele><time>2026-04-10T11:08:52.003Z</time></trkpt><trkpt lat="45.04248254265439" lon="8.227690980648722"><ele>242.66666666666669</ele><time>2026-04-10T11:08:54.003Z</time></trkpt><trkpt lat="45.04253539998706" lon="8.2277912545438"><ele>242.5</ele><time>2026-04-10T11:08:57.003Z</time></trkpt><trkpt lat="45.042597653952576" lon="8.227877317562976"><ele>242.33333333333334</ele><time>2026-04-10T11:09:00.003Z</time></trkpt><trkpt lat="45.042671768271745" lon="8.227943829817173"><ele>242.16666666666669</ele><time>2026-04-10T11:09:03.003Z</time></trkpt><trkpt lat="45.042749086614094" lon="8.228008755622907"><ele>242.0</ele><time>2026-04-10T11:09:06.003Z</time></trkpt><trkpt lat="45.0428375222442" lon="8.22805127143908"><ele>242.00000000000003</ele><time>2026-04-10T11:09:09.003Z</time></trkpt><trkpt lat="45.04290652121835" lon="8.228078095802143"><ele>242.0</ele><time>2026-04-10T11:09:11.003Z</time></trkpt><trkpt lat="45.042969209160304" lon="8.228101788305635"><ele>242.0</ele><time>2026-04-10T11:09:13.003Z</time></trkpt><trkpt lat="45.04306159708301" lon="8.228139038026423"><ele>242.0</ele><time>2026-04-10T11:09:16.003Z</time></trkpt><trkpt lat="45.0431320780319" lon="8.228146638692227"><ele>242.00000000000003</ele><time>2026-04-10T11:09:17.998Z</time></trkpt><trkpt lat="45.04320171999774" lon="8.228192132094106"><ele>242.0</ele><time>2026-04-10T11:09:19.998Z</time></trkpt><trkpt lat="45.043268845275975" lon="8.228230624292106"><ele>241.2</ele><time>2026-04-10T11:09:21.998Z</time></trkpt><trkpt lat="45.043348712538666" lon="8.22827137883389"><ele>240.39999999999998</ele><time>2026-04-10T11:09:23.998Z</time></trkpt><trkpt lat="45.04343425459911" lon="8.228315263371552"><ele>239.60000000000002</ele><time>2026-04-10T11:09:25.998Z</time></trkpt><trkpt lat="45.04350407102702" lon="8.228370068786365"><ele>238.8</ele><time>2026-04-10T11:09:27.998Z</time></trkpt><trkpt lat="45.04359998612946" lon="8.228425370262757"><ele>238.0</ele><time>2026-04-10T11:09:29.999Z</time></trkpt><trkpt lat="45.04367907673104" lon="8.22849462916072"><ele>238.0</ele><time>2026-04-10T11:09:31.999Z</time></trkpt><trkpt lat="45.04374390162992" lon="8.228552821420564"><ele>238.0</ele><time>2026-04-10T11:09:33.999Z</time></trkpt><trkpt lat="45.04381151612066" lon="8.228640562051348"><ele>238.0</ele><time>2026-04-10T11:09:35.999Z</time></trkpt><trkpt lat="45.04387144789646" lon="8.228738301971214"><ele>238.0</ele><time>2026-04-10T11:09:37.999Z</time></trkpt><trkpt lat="45.043915989750005" lon="8.228868340186388"><ele>238.0</ele><time>2026-04-10T11:09:40Z</time></trkpt><trkpt lat="45.04397117994719" lon="8.229010623470803"><ele>236.49999999999997</ele><time>2026-04-10T11:09:42Z</time></trkpt><trkpt lat="45.044016866769915" lon="8.229109443148712"><ele>235.0</ele><time>2026-04-10T11:09:44Z</time></trkpt><trkpt lat="45.04405842469897" lon="8.229239808328844"><ele>233.5</ele><time>2026-04-10T11:09:46Z</time></trkpt><trkpt lat="45.04407360277074" lon="8.229361687009682"><ele>232.0</ele><time>2026-04-10T11:09:48Z</time></trkpt><trkpt lat="45.04410558137248" lon="8.229474834462021"><ele>230.49999999999997</ele><time>2026-04-10T11:09:50Z</time></trkpt><trkpt lat="45.04414486543535" lon="8.229574729865835"><ele>229.0</ele><time>2026-04-10T11:09:53Z</time></trkpt><trkpt lat="45.04394419318149" lon="8.229732658232953"><ele>228.79999999999998</ele><time>2026-04-10T11:09:57Z</time></trkpt><trkpt lat="45.04383594682388" lon="8.229782987455664"><ele>228.59999999999997</ele><time>2026-04-10T11:09:59.001Z</time></trkpt><trkpt lat="45.04374054077935" lon="8.229831359570806"><ele>228.4</ele><time>2026-04-10T11:10:01.001Z</time></trkpt><trkpt lat="45.043654183786444" lon="8.229863605938736"><ele>228.2</ele><time>2026-04-10T11:10:03.001Z</time></trkpt><trkpt lat="45.04358894587483" lon="8.229889868411147"><ele>228.0</ele><time>2026-04-10T11:10:05.001Z</time></trkpt><trkpt lat="45.043515286654504" lon="8.229935366746906"><ele>226.16666666666666</ele><time>2026-04-10T11:10:08.001Z</time></trkpt><trkpt lat="45.043433382777415" lon="8.229980173548007"><ele>224.33333333333331</ele><time>2026-04-10T11:10:10.001Z</time></trkpt><trkpt lat="45.04339270317456" lon="8.230054224169999"><ele>222.5</ele><time>2026-04-10T11:10:12.001Z</time></trkpt><trkpt lat="45.04340014008786" lon="8.230161856409099"><ele>220.66666666666666</ele><time>2026-04-10T11:10:14.001Z</time></trkpt><trkpt lat="45.0434128141545" lon="8.23025350925605"><ele>218.83333333333331</ele><time>2026-04-10T11:10:16.001Z</time></trkpt><trkpt lat="45.043459993802536" lon="8.230362347374996"><ele>217.0</ele><time>2026-04-10T11:10:18.001Z</time></trkpt><trkpt lat="45.04349853809958" lon="8.230448201111928"><ele>216.99999999999997</ele><time>2026-04-10T11:10:20.001Z</time></trkpt><trkpt lat="45.0435276135989" lon="8.2305533054052"><ele>217.0</ele><time>2026-04-10T11:10:22.001Z</time></trkpt><trkpt lat="45.04357925405375" lon="8.230672971240443"><ele>217.0</ele><time>2026-04-10T11:10:24.001Z</time></trkpt><trkpt lat="45.043595214433026" lon="8.230761566365008"><ele>217.0</ele><time>2026-04-10T11:10:26.002Z</time></trkpt><trkpt lat="45.043635941312466" lon="8.230885736650482"><ele>216.99999999999997</ele><time>2026-04-10T11:10:39.002Z</time></trkpt><trkpt lat="45.04367007173107" lon="8.231008713380847"><ele>217.0</ele><time>2026-04-10T11:10:41.002Z</time></trkpt><trkpt lat="45.04370728015941" lon="8.231133256696003"><ele>214.39999999999998</ele><time>2026-04-10T11:10:43.002Z</time></trkpt><trkpt lat="45.04374309860212" lon="8.231263916441465"><ele>211.79999999999998</ele><time>2026-04-10T11:10:45.002Z</time></trkpt><trkpt lat="45.04378630088148" lon="8.231405441211404"><ele>209.2</ele><time>2026-04-10T11:10:47.002Z</time></trkpt><trkpt lat="45.043838154995704" lon="8.231558861317005"><ele>206.6</ele><time>2026-04-10T11:10:49.002Z</time></trkpt><trkpt lat="45.04389730740024" lon="8.23169385042274"><ele>204.0</ele><time>2026-04-10T11:10:51.002Z</time></trkpt><trkpt lat="45.043973092822654" lon="8.231810282178072"><ele>202.79999999999998</ele><time>2026-04-10T11:10:53.002Z</time></trkpt><trkpt lat="45.04402211839247" lon="8.231928672265786"><ele>201.6</ele><time>2026-04-10T11:10:55.002Z</time></trkpt><trkpt lat="45.0440692828146" lon="8.23205394439555"><ele>200.4</ele><time>2026-04-10T11:10:57.002Z</time></trkpt><trkpt lat="45.044124710951" lon="8.232186860320457"><ele>199.2</ele><time>2026-04-10T11:10:59.003Z</time></trkpt><trkpt lat="45.044171403429004" lon="8.232315560485798"><ele>198.0</ele><time>2026-04-10T11:11:01.003Z</time></trkpt><trkpt lat="45.044218081373714" lon="8.232450363760048"><ele>195.8</ele><time>2026-04-10T11:11:03.003Z</time></trkpt><trkpt lat="45.04426894604609" lon="8.232598359977908"><ele>193.60000000000002</ele><time>2026-04-10T11:11:05.003Z</time></trkpt><trkpt lat="45.04432757838565" lon="8.23272889801271"><ele>191.39999999999998</ele><time>2026-04-10T11:11:07.003Z</time></trkpt><trkpt lat="45.04437426662788" lon="8.232865132371074"><ele>189.2</ele><time>2026-04-10T11:11:09.003Z</time></trkpt><trkpt lat="45.044418179084815" lon="8.232991504865467"><ele>187.0</ele><time>2026-04-10T11:11:11.003Z</time></trkpt><trkpt lat="45.044459000953516" lon="8.233116737551514"><ele>186.16666666666669</ele><time>2026-04-10T11:11:13.003Z</time></trkpt><trkpt lat="45.04449959697295" lon="8.233239376445807"><ele>185.33333333333334</ele><time>2026-04-10T11:11:15.003Z</time></trkpt><trkpt lat="45.0445351536417" lon="8.233338840536934"><ele>184.5</ele><time>2026-04-10T11:11:17.003Z</time></trkpt><trkpt lat="45.044570504086536" lon="8.233446865038282"><ele>183.66666666666666</ele><time>2026-04-10T11:11:19.003Z</time></trkpt><trkpt lat="45.04459821185597" lon="8.233540427984758"><ele>182.83333333333331</ele><time>2026-04-10T11:11:21.003Z</time></trkpt><trkpt lat="45.04463814855051" lon="8.23361869362872"><ele>182.0</ele><time>2026-04-10T11:11:23.003Z</time></trkpt><trkpt lat="45.04468071400098" lon="8.233741492946526"><ele>182.0</ele><time>2026-04-10T11:11:24.998Z</time></trkpt><trkpt lat="45.0447289914579" lon="8.233875368560907"><ele>182.0</ele><time>2026-04-10T11:11:26.998Z</time></trkpt><trkpt lat="45.044785001227666" lon="8.234021906747746"><ele>182.0</ele><time>2026-04-10T11:11:28.998Z</time></trkpt><trkpt lat="45.04481558196733" lon="8.234100340110812"><ele>182.0</ele><time>2026-04-10T11:11:29.998Z</time></trkpt><trkpt lat="45.0448460707142" lon="8.23417948837332"><ele>182.0</ele><time>2026-04-10T11:11:30.998Z</time></trkpt><trkpt lat="45.04487698387397" lon="8.234259224001994"><ele>182.0</ele><time>2026-04-10T11:11:31.999Z</time></trkpt><trkpt lat="45.044907175805534" lon="8.234339674803705"><ele>181.6</ele><time>2026-04-10T11:11:32.999Z</time></trkpt><trkpt lat="45.044940218077095" lon="8.234418080162538"><ele>181.2</ele><time>2026-04-10T11:11:33.999Z</time></trkpt><trkpt lat="45.04497250313563" lon="8.234501687598085"><ele>180.8</ele><time>2026-04-10T11:11:34.999Z</time></trkpt><trkpt lat="45.0450329552874" lon="8.234642419204993"><ele>180.4</ele><time>2026-04-10T11:11:36.999Z</time></trkpt><trkpt lat="45.04509685323626" lon="8.234776761975972"><ele>180.0</ele><time>2026-04-10T11:11:38.999Z</time></trkpt><trkpt lat="45.04516524406994" lon="8.234903744774458"><ele>180.0</ele><time>2026-04-10T11:11:40.999Z</time></trkpt><trkpt lat="45.04520954135119" lon="8.235029630276479"><ele>180.0</ele><time>2026-04-10T11:11:42.999Z</time></trkpt><trkpt lat="45.04525279344226" lon="8.235141485652486"><ele>180.0</ele><time>2026-04-10T11:11:45Z</time></trkpt><trkpt lat="45.04530569602598" lon="8.235255565836585"><ele>180.0</ele><time>2026-04-10T11:11:47Z</time></trkpt><trkpt lat="45.04536628947263" lon="8.235386641593047"><ele>180.0</ele><time>2026-04-10T11:11:49Z</time></trkpt><trkpt lat="45.04542852195923" lon="8.235483539858524"><ele>180.0</ele><time>2026-04-10T11:11:51Z</time></trkpt><trkpt lat="45.04549522565888" lon="8.235560187645522"><ele>180.0</ele><time>2026-04-10T11:11:53Z</time></trkpt><trkpt lat="45.045556640492435" lon="8.23552265303148"><ele>180.0</ele><time>2026-04-10T11:11:55Z</time></trkpt><trkpt lat="45.04561569998962" lon="8.235429334597704"><ele>180.0</ele><time>2026-04-10T11:11:57Z</time></trkpt><trkpt lat="45.045685129777425" lon="8.235364130001942"><ele>180.0</ele><time>2026-04-10T11:11:59Z</time></trkpt><trkpt lat="45.045750721280235" lon="8.235295859051416"><ele>180.0</ele><time>2026-04-10T11:12:01Z</time></trkpt><trkpt lat="45.045816624537444" lon="8.235241219860958"><ele>180.2</ele><time>2026-04-10T11:12:03.001Z</time></trkpt><trkpt lat="45.045887951251615" lon="8.235210812023054"><ele>180.4</ele><time>2026-04-10T11:12:05.001Z</time></trkpt><trkpt lat="45.045973638895376" lon="8.235186021243631"><ele>180.60000000000002</ele><time>2026-04-10T11:12:07.001Z</time></trkpt><trkpt lat="45.04606932046602" lon="8.235198750684843"><ele>180.8</ele><time>2026-04-10T11:12:09.001Z</time></trkpt><trkpt lat="45.04617432759216" lon="8.235217375324009"><ele>181.0</ele><time>2026-04-10T11:12:11.001Z</time></trkpt><trkpt lat="45.046269029411285" lon="8.235249454448416"><ele>181.0</ele><time>2026-04-10T11:12:13.001Z</time></trkpt><trkpt lat="45.046361596257356" lon="8.235296901555824"><ele>181.0</ele><time>2026-04-10T11:12:15.001Z</time></trkpt><trkpt lat="45.046451115776584" lon="8.235362545818193"><ele>181.0</ele><time>2026-04-10T11:12:17.001Z</time></trkpt><trkpt lat="45.04652448977564" lon="8.235474999207586"><ele>181.0</ele><time>2026-04-10T11:12:19.001Z</time></trkpt><trkpt lat="45.04661641312046" lon="8.23553127651628"><ele>181.0</ele><time>2026-04-10T11:12:21.001Z</time></trkpt><trkpt lat="45.04669829250259" lon="8.235569738706229"><ele>181.16666666666669</ele><time>2026-04-10T11:12:23.001Z</time></trkpt><trkpt lat="45.0467815932038" lon="8.235604345039505"><ele>181.33333333333334</ele><time>2026-04-10T11:12:25.001Z</time></trkpt><trkpt lat="45.04686017694936" lon="8.235633597320156"><ele>181.5</ele><time>2026-04-10T11:12:27.001Z</time></trkpt><trkpt lat="45.04693236958214" lon="8.23565862039442"><ele>181.66666666666666</ele><time>2026-04-10T11:12:30.002Z</time></trkpt><trkpt lat="45.04699411770027" lon="8.235677459321126"><ele>181.83333333333331</ele><time>2026-04-10T11:12:33.002Z</time></trkpt><trkpt lat="45.04690454915143" lon="8.23564903227775"><ele>182.0</ele><time>2026-04-10T11:12:38.002Z</time></trkpt><trkpt lat="45.04683243024908" lon="8.235623945858832"><ele>182.0</ele><time>2026-04-10T11:12:40.002Z</time></trkpt><trkpt lat="45.04676091248883" lon="8.2355960609833"><ele>182.0</ele><time>2026-04-10T11:12:42.002Z</time></trkpt><trkpt lat="45.046688975665056" lon="8.235565386436683"><ele>182.0</ele><time>2026-04-10T11:12:44.002Z</time></trkpt><trkpt lat="45.046614815994836" lon="8.235530737763744"><ele>182.0</ele><time>2026-04-10T11:12:46.002Z</time></trkpt><trkpt lat="45.04652924711542" lon="8.23547824578702"><ele>182.0</ele><time>2026-04-10T11:12:48.002Z</time></trkpt><trkpt lat="45.046440417542456" lon="8.235415085442815"><ele>182.0</ele><time>2026-04-10T11:12:50.002Z</time></trkpt><trkpt lat="45.04634762719758" lon="8.235350518094329"><ele>181.75</ele><time>2026-04-10T11:12:52.002Z</time></trkpt><trkpt lat="45.046211309031825" lon="8.235262136753951"><ele>181.5</ele><time>2026-04-10T11:12:54.002Z</time></trkpt><trkpt lat="45.04615310256388" lon="8.235215369602372"><ele>181.25</ele><time>2026-04-10T11:12:55.002Z</time></trkpt><trkpt lat="45.04603367793768" lon="8.235194795003501"><ele>181.0</ele><time>2026-04-10T11:12:57.002Z</time></trkpt><trkpt lat="45.0459109867851" lon="8.235215770237783"><ele>180.8</ele><time>2026-04-10T11:12:59.002Z</time></trkpt><trkpt lat="45.04579226080629" lon="8.235266367223907"><ele>180.60000000000002</ele><time>2026-04-10T11:13:01.002Z</time></trkpt><trkpt lat="45.04573399995961" lon="8.235301254722279"><ele>180.4</ele><time>2026-04-10T11:13:02.003Z</time></trkpt><trkpt lat="45.045634674436926" lon="8.235401956825969"><ele>180.2</ele><time>2026-04-10T11:13:04.003Z</time></trkpt><trkpt lat="45.045552466104496" lon="8.235516943699688"><ele>180.0</ele><time>2026-04-10T11:13:06.003Z</time></trkpt><trkpt lat="45.04549140808065" lon="8.235645454506571"><ele>180.0</ele><time>2026-04-10T11:13:08.003Z</time></trkpt><trkpt lat="45.04551811598615" lon="8.235779015807603"><ele>180.0</ele><time>2026-04-10T11:13:10.003Z</time></trkpt><trkpt lat="45.045553464139346" lon="8.235913500395538"><ele>180.0</ele><time>2026-04-10T11:13:12.003Z</time></trkpt><trkpt lat="45.04558914794028" lon="8.236043970780493"><ele>180.0</ele><time>2026-04-10T11:13:14.003Z</time></trkpt><trkpt lat="45.04561502973572" lon="8.23617829407369"><ele>180.0</ele><time>2026-04-10T11:13:16.003Z</time></trkpt><trkpt lat="45.04562975266853" lon="8.236325890482536"><ele>180.2</ele><time>2026-04-10T11:13:18.003Z</time></trkpt><trkpt lat="45.045651898817646" lon="8.236477265142574"><ele>180.4</ele><time>2026-04-10T11:13:20.003Z</time></trkpt><trkpt lat="45.045683098891296" lon="8.236615434220136"><ele>180.60000000000002</ele><time>2026-04-10T11:13:22.003Z</time></trkpt><trkpt lat="45.045709947235515" lon="8.236753164183318"><ele>180.8</ele><time>2026-04-10T11:13:24.003Z</time></trkpt><trkpt lat="45.04574173070596" lon="8.236875877532116"><ele>181.0</ele><time>2026-04-10T11:13:26.003Z</time></trkpt><trkpt lat="45.0457409345962" lon="8.236990074141923"><ele>181.0</ele><time>2026-04-10T11:13:28.003Z</time></trkpt><trkpt lat="45.045778323357396" lon="8.237120143526282"><ele>181.0</ele><time>2026-04-10T11:13:30.998Z</time></trkpt><trkpt lat="45.04582354326289" lon="8.237210923311553"><ele>181.0</ele><time>2026-04-10T11:13:32.998Z</time></trkpt><trkpt lat="45.04584823594946" lon="8.237314471289325"><ele>181.0</ele><time>2026-04-10T11:13:34.999Z</time></trkpt><trkpt lat="45.04587950445809" lon="8.237420042073106"><ele>181.0</ele><time>2026-04-10T11:13:36.999Z</time></trkpt><trkpt lat="45.04591027611018" lon="8.237519217223996"><ele>181.0</ele><time>2026-04-10T11:13:38.999Z</time></trkpt><trkpt lat="45.04594407635201" lon="8.23762249547994"><ele>182.0</ele><time>2026-04-10T11:13:40.999Z</time></trkpt><trkpt lat="45.04596629842645" lon="8.237716749475203"><ele>183.0</ele><time>2026-04-10T11:13:42.999Z</time></trkpt><trkpt lat="45.045997669830946" lon="8.23783720249696"><ele>184.0</ele><time>2026-04-10T11:13:45.999Z</time></trkpt><trkpt lat="45.0460140622124" lon="8.237936018305057"><ele>185.0</ele><time>2026-04-10T11:13:47.999Z</time></trkpt><trkpt lat="45.04603690235213" lon="8.238020876339151"><ele>186.0</ele><time>2026-04-10T11:13:50Z</time></trkpt><trkpt lat="45.046059047850406" lon="8.238109002975099"><ele>187.0</ele><time>2026-04-10T11:13:52Z</time></trkpt><trkpt lat="45.04609805042218" lon="8.238198178671034"><ele>188.0</ele><time>2026-04-10T11:13:54Z</time></trkpt><trkpt lat="45.04611057120481" lon="8.238301483520832"><ele>188.42857142857142</ele><time>2026-04-10T11:13:56Z</time></trkpt><trkpt lat="45.046125442558285" lon="8.23840443753722"><ele>188.85714285714283</ele><time>2026-04-10T11:13:58Z</time></trkpt><trkpt lat="45.046147529573105" lon="8.238494484137957"><ele>189.28571428571428</ele><time>2026-04-10T11:14:00Z</time></trkpt><trkpt lat="45.04616616232345" lon="8.238604995108853"><ele>189.71428571428572</ele><time>2026-04-10T11:14:02Z</time></trkpt><trkpt lat="45.04618180078765" lon="8.238714842400864"><ele>190.14285714285714</ele><time>2026-04-10T11:14:04Z</time></trkpt><trkpt lat="45.046195154270166" lon="8.238815958025677"><ele>190.57142857142858</ele><time>2026-04-10T11:14:06Z</time></trkpt><trkpt lat="45.046211165282166" lon="8.238915708254204"><ele>191.0</ele><time>2026-04-10T11:14:08.001Z</time></trkpt><trkpt lat="45.04622264290654" lon="8.239013004239052"><ele>192.14285714285714</ele><time>2026-04-10T11:14:10.001Z</time></trkpt><trkpt lat="45.046240289558206" lon="8.239106287180698"><ele>193.28571428571428</ele><time>2026-04-10T11:14:12.001Z</time></trkpt><trkpt lat="45.046247603219946" lon="8.239207824557555"><ele>194.42857142857142</ele><time>2026-04-10T11:14:14.001Z</time></trkpt><trkpt lat="45.046261752725925" lon="8.239310644171898"><ele>195.57142857142856</ele><time>2026-04-10T11:14:16.001Z</time></trkpt><trkpt lat="45.04627221560456" lon="8.239403484095003"><ele>196.71428571428572</ele><time>2026-04-10T11:14:18.001Z</time></trkpt><trkpt lat="45.04628717167763" lon="8.239491690484348"><ele>197.85714285714283</ele><time>2026-04-10T11:14:20.001Z</time></trkpt><trkpt lat="45.046307226222986" lon="8.239580723526636"><ele>199.0</ele><time>2026-04-10T11:14:22.001Z</time></trkpt><trkpt lat="45.04632720915995" lon="8.23967026050693"><ele>198.99999999999997</ele><time>2026-04-10T11:14:24.001Z</time></trkpt><trkpt lat="45.046353701619346" lon="8.239752746403953"><ele>199.0</ele><time>2026-04-10T11:14:26.001Z</time></trkpt><trkpt lat="45.04640873088409" lon="8.23985019929423"><ele>199.0</ele><time>2026-04-10T11:14:29.001Z</time></trkpt><trkpt lat="45.04645429626079" lon="8.239960737539283"><ele>199.0</ele><time>2026-04-10T11:14:32.001Z</time></trkpt><trkpt lat="45.04645039915214" lon="8.24006619132762"><ele>198.99999999999997</ele><time>2026-04-10T11:14:35.002Z</time></trkpt><trkpt lat="45.04644703443047" lon="8.240182603844332"><ele>199.0</ele><time>2026-04-10T11:14:38.002Z</time></trkpt><trkpt lat="45.04643613807566" lon="8.240288963990794"><ele>200.49999999999997</ele><time>2026-04-10T11:14:41.002Z</time></trkpt><trkpt lat="45.046425288708726" lon="8.240405738330447"><ele>202.0</ele><time>2026-04-10T11:14:44.002Z</time></trkpt><trkpt lat="45.04641156130661" lon="8.240511593707357"><ele>203.5</ele><time>2026-04-10T11:14:47.002Z</time></trkpt><trkpt lat="45.04641016340531" lon="8.24060958533977"><ele>205.0</ele><time>2026-04-10T11:14:49.002Z</time></trkpt><trkpt lat="45.04640093683724" lon="8.240737278008444"><ele>206.49999999999997</ele><time>2026-04-10T11:14:52.002Z</time></trkpt><trkpt lat="45.0463942115399" lon="8.240867894265685"><ele>208.0</ele><time>2026-04-10T11:14:55.002Z</time></trkpt><trkpt lat="45.046389906789365" lon="8.24098052776361"><ele>209.16666666666666</ele><time>2026-04-10T11:14:58.002Z</time></trkpt><trkpt lat="45.04638159067874" lon="8.241073180461223"><ele>210.33333333333331</ele><time>2026-04-10T11:15:00.002Z</time></trkpt><trkpt lat="45.04637841861585" lon="8.24116402680644"><ele>211.5</ele><time>2026-04-10T11:15:02.002Z</time></trkpt><trkpt lat="45.046365206085106" lon="8.241298889217989"><ele>212.66666666666669</ele><time>2026-04-10T11:15:05.002Z</time></trkpt><trkpt lat="45.0463602805748" lon="8.24138969486754"><ele>213.83333333333334</ele><time>2026-04-10T11:15:07.003Z</time></trkpt><trkpt lat="45.04634735617987" lon="8.241519213337059"><ele>215.0</ele><time>2026-04-10T11:15:10.003Z</time></trkpt><trkpt lat="45.0463299295908" lon="8.241646468269524"><ele>216.00000000000003</ele><time>2026-04-10T11:15:13.003Z</time></trkpt><trkpt lat="45.04630011850611" lon="8.24174628219394"><ele>217.0</ele><time>2026-04-10T11:15:16.003Z</time></trkpt><trkpt lat="45.04628819655976" lon="8.241842964796195"><ele>218.0</ele><time>2026-04-10T11:15:19.003Z</time></trkpt><trkpt lat="45.04627912301828" lon="8.241954954875652"><ele>219.0</ele><time>2026-04-10T11:15:22.003Z</time></trkpt><trkpt lat="45.04627777820168" lon="8.24206721929199"><ele>220.00000000000003</ele><time>2026-04-10T11:15:25.003Z</time></trkpt><trkpt lat="45.04627666909942" lon="8.242180520560504"><ele>221.0</ele><time>2026-04-10T11:15:28.003Z</time></trkpt><trkpt lat="45.04627773999265" lon="8.242303078273679"><ele>222.50000000000003</ele><time>2026-04-10T11:15:31.003Z</time></trkpt><trkpt lat="45.046280398122555" lon="8.242433755407456"><ele>224.0</ele><time>2026-04-10T11:15:34.003Z</time></trkpt><trkpt lat="45.046291203926806" lon="8.24255363292536"><ele>225.5</ele><time>2026-04-10T11:15:36.998Z</time></trkpt><trkpt lat="45.04629926849871" lon="8.242667384589808"><ele>227.0</ele><time>2026-04-10T11:15:39.999Z</time></trkpt><trkpt lat="45.04629940022932" lon="8.242776375549647"><ele>228.50000000000003</ele><time>2026-04-10T11:15:42.999Z</time></trkpt><trkpt lat="45.04630369099956" lon="8.242884286828778"><ele>230.0</ele><time>2026-04-10T11:15:45.999Z</time></trkpt><trkpt lat="45.04630983415841" lon="8.242990033101087"><ele>229.99999999999997</ele><time>2026-04-10T11:15:48.999Z</time></trkpt><trkpt lat="45.04632127078673" lon="8.243094089446798"><ele>230.0</ele><time>2026-04-10T11:15:51.999Z</time></trkpt><trkpt lat="45.046327054085886" lon="8.243185742361318"><ele>229.99999999999997</ele><time>2026-04-10T11:15:55Z</time></trkpt><trkpt lat="45.046335439587764" lon="8.243287013823135"><ele>229.99999999999997</ele><time>2026-04-10T11:15:58Z</time></trkpt><trkpt lat="45.04634292016807" lon="8.243389734217727"><ele>230.0</ele><time>2026-04-10T11:16:01Z</time></trkpt><trkpt lat="45.04634295053945" lon="8.243484903818215"><ele>229.99999999999997</ele><time>2026-04-10T11:16:04Z</time></trkpt><trkpt lat="45.04635028653162" lon="8.243579926298553"><ele>229.99999999999997</ele><time>2026-04-10T11:16:07Z</time></trkpt><trkpt lat="45.04634834874051" lon="8.243671096211688"><ele>232.00000000000003</ele><time>2026-04-10T11:16:10Z</time></trkpt><trkpt lat="45.04635590774593" lon="8.243775683284314"><ele>234.0</ele><time>2026-04-10T11:16:14.001Z</time></trkpt><trkpt lat="45.04635690672255" lon="8.243882679409133"><ele>236.0</ele><time>2026-04-10T11:16:18.001Z</time></trkpt><trkpt lat="45.04636118041392" lon="8.243992253246798"><ele>238.0</ele><time>2026-04-10T11:16:22.001Z</time></trkpt><trkpt lat="45.04636124845984" lon="8.24411330829473"><ele>240.00000000000003</ele><time>2026-04-10T11:16:26.001Z</time></trkpt><trkpt lat="45.04637581033029" lon="8.24422970223155"><ele>242.0</ele><time>2026-04-10T11:16:29.001Z</time></trkpt><trkpt lat="45.04636887366399" lon="8.244331108216668"><ele>243.7142857142857</ele><time>2026-04-10T11:16:32.001Z</time></trkpt><trkpt lat="45.04636206982066" lon="8.2444360399706"><ele>245.4285714285714</ele><time>2026-04-10T11:16:35.001Z</time></trkpt><trkpt lat="45.04635382125931" lon="8.244534654995078"><ele>247.14285714285714</ele><time>2026-04-10T11:16:38.001Z</time></trkpt><trkpt lat="45.04633052571145" lon="8.24464153195329"><ele>248.85714285714283</ele><time>2026-04-10T11:16:42.002Z</time></trkpt><trkpt lat="45.04629815430307" lon="8.24472680273506"><ele>250.57142857142856</ele><time>2026-04-10T11:16:46.002Z</time></trkpt><trkpt lat="45.04627030187833" lon="8.244821322376145"><ele>252.28571428571428</ele><time>2026-04-10T11:16:49.002Z</time></trkpt><trkpt lat="45.04626647516298" lon="8.244940892026207"><ele>254.0</ele><time>2026-04-10T11:16:52.002Z</time></trkpt><trkpt lat="45.046231969447064" lon="8.245054523971142"><ele>254.83333333333334</ele><time>2026-04-10T11:16:55.002Z</time></trkpt><trkpt lat="45.04616095819137" lon="8.245143952623135"><ele>255.66666666666669</ele><time>2026-04-10T11:16:58.002Z</time></trkpt><trkpt lat="45.04611455173289" lon="8.245214282875631"><ele>256.5</ele><time>2026-04-10T11:17:00.002Z</time></trkpt><trkpt lat="45.04606775480773" lon="8.245294119033026"><ele>257.3333333333333</ele><time>2026-04-10T11:17:02.002Z</time></trkpt><trkpt lat="45.04600568889799" lon="8.245373807230063"><ele>258.16666666666663</ele><time>2026-04-10T11:17:04.002Z</time></trkpt><trkpt lat="45.04595621113026" lon="8.245475337671005"><ele>259.0</ele><time>2026-04-10T11:17:06.002Z</time></trkpt><trkpt lat="45.04588582462874" lon="8.24555183019786"><ele>259.8</ele><time>2026-04-10T11:17:08.002Z</time></trkpt><trkpt lat="45.04582115181377" lon="8.24565138784955"><ele>260.59999999999997</ele><time>2026-04-10T11:17:10.002Z</time></trkpt><trkpt lat="45.04575620053995" lon="8.245759205583486"><ele>261.4</ele><time>2026-04-10T11:17:12.002Z</time></trkpt><trkpt lat="45.045686963755564" lon="8.24586479133208"><ele>262.2</ele><time>2026-04-10T11:17:14.003Z</time></trkpt><trkpt lat="45.04562448483879" lon="8.245981014874054"><ele>263.0</ele><time>2026-04-10T11:17:16.003Z</time></trkpt><trkpt lat="45.04556229546223" lon="8.246101185425857"><ele>263.0</ele><time>2026-04-10T11:17:18.003Z</time></trkpt><trkpt lat="45.04550090448172" lon="8.246226508026846"><ele>263.0</ele><time>2026-04-10T11:17:20.003Z</time></trkpt><trkpt lat="45.045437061759266" lon="8.246340961199394"><ele>263.0</ele><time>2026-04-10T11:17:22.003Z</time></trkpt><trkpt lat="45.04538945974592" lon="8.246448988248973"><ele>263.0</ele><time>2026-04-10T11:17:24.003Z</time></trkpt><trkpt lat="45.04534353223697" lon="8.246544576686421"><ele>263.0</ele><time>2026-04-10T11:17:26.003Z</time></trkpt><trkpt lat="45.045293936531266" lon="8.24663206036082"><ele>262.42857142857144</ele><time>2026-04-10T11:17:28.003Z</time></trkpt><trkpt lat="45.04524077401177" lon="8.246719080588589"><ele>261.85714285714283</ele><time>2026-04-10T11:17:30.003Z</time></trkpt><trkpt lat="45.04518752281578" lon="8.246797973677223"><ele>261.2857142857143</ele><time>2026-04-10T11:17:32.003Z</time></trkpt><trkpt lat="45.04514178845527" lon="8.24687378534837"><ele>260.7142857142857</ele><time>2026-04-10T11:17:34.003Z</time></trkpt><trkpt lat="45.045094110367316" lon="8.246935397828729"><ele>260.1428571428571</ele><time>2026-04-10T11:17:36.003Z</time></trkpt><trkpt lat="45.04504687098253" lon="8.247003657811172"><ele>259.57142857142856</ele><time>2026-04-10T11:17:38.003Z</time></trkpt><trkpt lat="45.04500496139487" lon="8.247084888402009"><ele>259.0</ele><time>2026-04-10T11:17:40.003Z</time></trkpt><trkpt lat="45.044980248568066" lon="8.247189586329185"><ele>256.4</ele><time>2026-04-10T11:17:41.998Z</time></trkpt><trkpt lat="45.044939004696765" lon="8.247303478938916"><ele>253.79999999999998</ele><time>2026-04-10T11:17:43.998Z</time></trkpt><trkpt lat="45.04489699593102" lon="8.247442622027584"><ele>251.20000000000002</ele><time>2026-04-10T11:17:45.999Z</time></trkpt><trkpt lat="45.04484899024475" lon="8.247598623873811"><ele>248.60000000000002</ele><time>2026-04-10T11:17:47.999Z</time></trkpt><trkpt lat="45.04480314633704" lon="8.247763367766794"><ele>246.0</ele><time>2026-04-10T11:17:49.999Z</time></trkpt><trkpt lat="45.044781409299105" lon="8.247850415348001"><ele>246.00000000000003</ele><time>2026-04-10T11:17:50.999Z</time></trkpt><trkpt lat="45.04475913228323" lon="8.24793425840749"><ele>246.0</ele><time>2026-04-10T11:17:51.999Z</time></trkpt><trkpt lat="45.04473229777212" lon="8.248016708389553"><ele>246.00000000000003</ele><time>2026-04-10T11:17:52.999Z</time></trkpt><trkpt lat="45.04471562263705" lon="8.248105979081059"><ele>246.00000000000003</ele><time>2026-04-10T11:17:53.999Z</time></trkpt><trkpt lat="45.04469726653481" lon="8.24819690340205"><ele>246.0</ele><time>2026-04-10T11:17:54.999Z</time></trkpt><trkpt lat="45.04468501121194" lon="8.24828789864444"><ele>246.00000000000003</ele><time>2026-04-10T11:17:55.999Z</time></trkpt><trkpt lat="45.0446594261439" lon="8.248456919203909"><ele>246.00000000000003</ele><time>2026-04-10T11:17:57.999Z</time></trkpt><trkpt lat="45.04462740658498" lon="8.248618723411605"><ele>246.20000000000002</ele><time>2026-04-10T11:17:59.999Z</time></trkpt><trkpt lat="45.04459768582181" lon="8.248772492530613"><ele>246.40000000000003</ele><time>2026-04-10T11:18:02Z</time></trkpt><trkpt lat="45.04457829443023" lon="8.248924648633428"><ele>246.6</ele><time>2026-04-10T11:18:04Z</time></trkpt><trkpt lat="45.04454919247577" lon="8.249067948249394"><ele>246.8</ele><time>2026-04-10T11:18:06Z</time></trkpt><trkpt lat="45.044529527776355" lon="8.249210501216256"><ele>247.0</ele><time>2026-04-10T11:18:08Z</time></trkpt><trkpt lat="45.04450622202701" lon="8.249341967725297"><ele>247.66666666666666</ele><time>2026-04-10T11:18:10Z</time></trkpt><trkpt lat="45.044484612284506" lon="8.249462195927688"><ele>248.33333333333331</ele><time>2026-04-10T11:18:12Z</time></trkpt><trkpt lat="45.04445961304145" lon="8.249572878085283"><ele>249.0</ele><time>2026-04-10T11:18:14Z</time></trkpt><trkpt lat="45.04444018944532" lon="8.249681691772087"><ele>249.66666666666669</ele><time>2026-04-10T11:18:16Z</time></trkpt><trkpt lat="45.04442291390608" lon="8.249792669748045"><ele>250.33333333333334</ele><time>2026-04-10T11:18:18Z</time></trkpt><trkpt lat="45.044412053335044" lon="8.249902833244473"><ele>251.0</ele><time>2026-04-10T11:18:20Z</time></trkpt><trkpt lat="45.04439205757138" lon="8.250004592045247"><ele>251.57142857142856</ele><time>2026-04-10T11:18:22.001Z</time></trkpt><trkpt lat="45.04437993424172" lon="8.250105995459142"><ele>252.14285714285714</ele><time>2026-04-10T11:18:24.001Z</time></trkpt><trkpt lat="45.04436196381794" lon="8.250200454969265"><ele>252.71428571428572</ele><time>2026-04-10T11:18:26.001Z</time></trkpt><trkpt lat="45.044365989599704" lon="8.250297408682364"><ele>253.28571428571428</ele><time>2026-04-10T11:18:28.001Z</time></trkpt><trkpt lat="45.04437244713913" lon="8.250392328640775"><ele>253.8571428571429</ele><time>2026-04-10T11:18:30.001Z</time></trkpt><trkpt lat="45.044400804957725" lon="8.250480208040338"><ele>254.42857142857144</ele><time>2026-04-10T11:18:32.001Z</time></trkpt><trkpt lat="45.044447040654696" lon="8.250556352167456"><ele>255.0</ele><time>2026-04-10T11:18:34.001Z</time></trkpt><trkpt lat="45.044502291297114" lon="8.250625991435033"><ele>256.0</ele><time>2026-04-10T11:18:36.001Z</time></trkpt><trkpt lat="45.04455735263978" lon="8.250694774598069"><ele>257.0</ele><time>2026-04-10T11:18:38.001Z</time></trkpt><trkpt lat="45.044609702612185" lon="8.250768976047263"><ele>258.0</ele><time>2026-04-10T11:18:40.001Z</time></trkpt><trkpt lat="45.04465781627651" lon="8.25085475648493"><ele>259.0</ele><time>2026-04-10T11:18:42.001Z</time></trkpt><trkpt lat="45.04470382066601" lon="8.250940500511131"><ele>260.0</ele><time>2026-04-10T11:18:44.001Z</time></trkpt><trkpt lat="45.04474279324972" lon="8.25103187130697"><ele>261.0</ele><time>2026-04-10T11:18:46.001Z</time></trkpt><trkpt lat="45.04477346411467" lon="8.251120886494586"><ele>262.0</ele><time>2026-04-10T11:18:48.001Z</time></trkpt><trkpt lat="45.04480579356746" lon="8.251204095510584"><ele>262.0</ele><time>2026-04-10T11:18:50.002Z</time></trkpt><trkpt lat="45.04484006951796" lon="8.251283660271067"><ele>262.0</ele><time>2026-04-10T11:18:52.002Z</time></trkpt><trkpt lat="45.044882913846585" lon="8.251372011811604"><ele>262.0</ele><time>2026-04-10T11:18:54.002Z</time></trkpt><trkpt lat="45.0449380653019" lon="8.251441185577116"><ele>262.0</ele><time>2026-04-10T11:18:56.002Z</time></trkpt><trkpt lat="45.04498779431999" lon="8.251513335942013"><ele>262.0</ele><time>2026-04-10T11:18:58.002Z</time></trkpt><trkpt lat="45.04503858944296" lon="8.251577732841353"><ele>262.0</ele><time>2026-04-10T11:19:00.002Z</time></trkpt><trkpt lat="45.045115587567736" lon="8.251655611866395"><ele>262.0</ele><time>2026-04-10T11:19:03.002Z</time></trkpt><trkpt lat="45.04517801703304" lon="8.251701928715555"><ele>263.14285714285717</ele><time>2026-04-10T11:19:05.002Z</time></trkpt><trkpt lat="45.045245622508055" lon="8.251755787066786"><ele>264.28571428571433</ele><time>2026-04-10T11:19:07.002Z</time></trkpt><trkpt lat="45.04531833637639" lon="8.251780813671566"><ele>265.42857142857144</ele><time>2026-04-10T11:19:09.002Z</time></trkpt><trkpt lat="45.045383585076365" lon="8.251810485158003"><ele>266.57142857142856</ele><time>2026-04-10T11:19:11.002Z</time></trkpt><trkpt lat="45.045445129654524" lon="8.251855971608252"><ele>267.71428571428567</ele><time>2026-04-10T11:19:13.002Z</time></trkpt><trkpt lat="45.04550599262439" lon="8.251901114209206"><ele>268.85714285714283</ele><time>2026-04-10T11:19:15.002Z</time></trkpt><trkpt lat="45.04556748305353" lon="8.25195191401427"><ele>270.0</ele><time>2026-04-10T11:19:17.002Z</time></trkpt><trkpt lat="45.04563860446168" lon="8.252024478029584"><ele>270.0</ele><time>2026-04-10T11:19:20.002Z</time></trkpt><trkpt lat="45.04563809390966" lon="8.25213785793085"><ele>270.0</ele><time>2026-04-10T11:19:23.003Z</time></trkpt><trkpt lat="45.04557324164607" lon="8.252202437896852"><ele>270.0</ele><time>2026-04-10T11:19:25.003Z</time></trkpt><trkpt lat="45.04550846081736" lon="8.252259256884956"><ele>270.0</ele><time>2026-04-10T11:19:27.003Z</time></trkpt><trkpt lat="45.04544016844819" lon="8.252320523738609"><ele>270.0</ele><time>2026-04-10T11:19:29.003Z</time></trkpt><trkpt lat="45.04539433729337" lon="8.252405398990922"><ele>270.0</ele><time>2026-04-10T11:19:31.003Z</time></trkpt><trkpt lat="45.04536384211669" lon="8.252490599245034"><ele>270.2</ele><time>2026-04-10T11:19:33.003Z</time></trkpt><trkpt lat="45.04534846096485" lon="8.252596822983897"><ele>270.4</ele><time>2026-04-10T11:19:36.003Z</time></trkpt><trkpt lat="45.045360731756965" lon="8.252715628807163"><ele>270.6</ele><time>2026-04-10T11:19:38.003Z</time></trkpt><trkpt lat="45.04540318515785" lon="8.252856597114548"><ele>270.8</ele><time>2026-04-10T11:19:40.003Z</time></trkpt><trkpt lat="45.04543380092259" lon="8.253005280710264"><ele>271.0</ele><time>2026-04-10T11:19:42.003Z</time></trkpt><trkpt lat="45.04546930875697" lon="8.25315290234098"><ele>270.40000000000003</ele><time>2026-04-10T11:19:44.003Z</time></trkpt><trkpt lat="45.04553251378704" lon="8.253293587647038"><ele>269.8</ele><time>2026-04-10T11:19:46.003Z</time></trkpt><trkpt lat="45.04560714778906" lon="8.253436578042894"><ele>269.20000000000005</ele><time>2026-04-10T11:19:47.998Z</time></trkpt><trkpt lat="45.045645594307004" lon="8.253511573793146"><ele>268.6</ele><time>2026-04-10T11:19:48.998Z</time></trkpt><trkpt lat="45.0457041553625" lon="8.253665704620408"><ele>268.0</ele><time>2026-04-10T11:19:50.998Z</time></trkpt><trkpt lat="45.04575320131124" lon="8.253813951711988"><ele>266.66666666666663</ele><time>2026-04-10T11:19:52.998Z</time></trkpt><trkpt lat="45.04581190593122" lon="8.25396391649691"><ele>265.3333333333333</ele><time>2026-04-10T11:19:54.998Z</time></trkpt><trkpt lat="45.04583757195087" lon="8.254045754504956"><ele>264.0</ele><time>2026-04-10T11:19:55.999Z</time></trkpt><trkpt lat="45.045865721993174" lon="8.254211652244349"><ele>262.6666666666667</ele><time>2026-04-10T11:19:57.999Z</time></trkpt><trkpt lat="45.045875875572634" lon="8.254305626364985"><ele>261.33333333333337</ele><time>2026-04-10T11:19:58.999Z</time></trkpt><trkpt lat="45.045889295374536" lon="8.25439591364462"><ele>260.0</ele><time>2026-04-10T11:19:59.999Z</time></trkpt><trkpt lat="45.0459240374282" lon="8.254555657043891"><ele>260.0</ele><time>2026-04-10T11:20:01.999Z</time></trkpt><trkpt lat="45.045953439759415" lon="8.254670023456065"><ele>260.0</ele><time>2026-04-10T11:20:03.999Z</time></trkpt><trkpt lat="45.045981314234886" lon="8.254777707349454"><ele>260.0</ele><time>2026-04-10T11:20:05.999Z</time></trkpt><trkpt lat="45.04601443730471" lon="8.254880608142063"><ele>260.0</ele><time>2026-04-10T11:20:07.999Z</time></trkpt><trkpt lat="45.04608461194864" lon="8.254960477877077"><ele>260.0</ele><time>2026-04-10T11:20:10Z</time></trkpt><trkpt lat="45.04614411659428" lon="8.255034100873244"><ele>260.0</ele><time>2026-04-10T11:20:12Z</time></trkpt><trkpt lat="45.04619654994561" lon="8.255108602727335"><ele>259.0</ele><time>2026-04-10T11:20:14Z</time></trkpt><trkpt lat="45.04626092703203" lon="8.255183566706418"><ele>258.0</ele><time>2026-04-10T11:20:16Z</time></trkpt><trkpt lat="45.04632349247016" lon="8.255272804665726"><ele>257.0</ele><time>2026-04-10T11:20:18Z</time></trkpt><trkpt lat="45.04637332853816" lon="8.255393258015488"><ele>256.0</ele><time>2026-04-10T11:20:20Z</time></trkpt><trkpt lat="45.046402498414295" lon="8.255516685978458"><ele>255.0</ele><time>2026-04-10T11:20:22Z</time></trkpt><trkpt lat="45.04639716756315" lon="8.255656520088113"><ele>254.6</ele><time>2026-04-10T11:20:24Z</time></trkpt><trkpt lat="45.04636688887547" lon="8.255789352077205"><ele>254.2</ele><time>2026-04-10T11:20:26.001Z</time></trkpt><trkpt lat="45.04633535260474" lon="8.255916847177012"><ele>253.8</ele><time>2026-04-10T11:20:28.001Z</time></trkpt><trkpt lat="45.04630001985783" lon="8.25604470568196"><ele>253.4</ele><time>2026-04-10T11:20:30.001Z</time></trkpt><trkpt lat="45.04627832395574" lon="8.256168944747984"><ele>253.0</ele><time>2026-04-10T11:20:32.001Z</time></trkpt><trkpt lat="45.04625091102981" lon="8.25629642552096"><ele>253.0</ele><time>2026-04-10T11:20:34.001Z</time></trkpt><trkpt lat="45.04621967220585" lon="8.25643658800157"><ele>253.0</ele><time>2026-04-10T11:20:36.001Z</time></trkpt><trkpt lat="45.046190849963196" lon="8.256570212233862"><ele>253.0</ele><time>2026-04-10T11:20:38.001Z</time></trkpt><trkpt lat="45.046179455903136" lon="8.25671721860582"><ele>253.0</ele><time>2026-04-10T11:20:40.001Z</time></trkpt><trkpt lat="45.04615833457412" lon="8.25686302877419"><ele>253.0</ele><time>2026-04-10T11:20:42.001Z</time></trkpt><trkpt lat="45.04614520254147" lon="8.257010037669918"><ele>253.0</ele><time>2026-04-10T11:20:44.001Z</time></trkpt><trkpt lat="45.04611768357985" lon="8.257150997915492"><ele>253.0</ele><time>2026-04-10T11:20:46.001Z</time></trkpt><trkpt lat="45.046122701403384" lon="8.257294472024112"><ele>253.0</ele><time>2026-04-10T11:20:48.001Z</time></trkpt><trkpt lat="45.0461140937479" lon="8.257439175370017"><ele>253.0</ele><time>2026-04-10T11:20:50.001Z</time></trkpt><trkpt lat="45.046109148879246" lon="8.257574405719453"><ele>253.0</ele><time>2026-04-10T11:20:52.001Z</time></trkpt><trkpt lat="45.046102528900995" lon="8.257697501273977"><ele>252.99999999999997</ele><time>2026-04-10T11:20:54.002Z</time></trkpt><trkpt lat="45.046101931564095" lon="8.257822749329883"><ele>253.0</ele><time>2026-04-10T11:20:56.002Z</time></trkpt><trkpt lat="45.04609713879256" lon="8.25792806233705"><ele>253.0</ele><time>2026-04-10T11:20:58.002Z</time></trkpt><trkpt lat="45.046123065282245" lon="8.258011730957163"><ele>253.0</ele><time>2026-04-10T11:21:00.002Z</time></trkpt><trkpt lat="45.046173367777946" lon="8.258099734797037"><ele>252.99999999999997</ele><time>2026-04-10T11:21:02.002Z</time></trkpt><trkpt lat="45.04622935527343" lon="8.25818724035107"><ele>253.0</ele><time>2026-04-10T11:21:04.002Z</time></trkpt><trkpt lat="45.046291303256375" lon="8.258263561151766"><ele>253.83333333333331</ele><time>2026-04-10T11:21:06.002Z</time></trkpt><trkpt lat="45.04636032434897" lon="8.258327172837415"><ele>254.66666666666666</ele><time>2026-04-10T11:21:08.002Z</time></trkpt><trkpt lat="45.0464237326792" lon="8.258397070131041"><ele>255.5</ele><time>2026-04-10T11:21:10.002Z</time></trkpt><trkpt lat="45.04648802554792" lon="8.25846774521721"><ele>256.3333333333333</ele><time>2026-04-10T11:21:12.002Z</time></trkpt><trkpt lat="45.04655522033841" lon="8.258530070863145"><ele>257.1666666666667</ele><time>2026-04-10T11:21:14.002Z</time></trkpt><trkpt lat="45.04662172233948" lon="8.258583648601386"><ele>258.0</ele><time>2026-04-10T11:21:16.002Z</time></trkpt><trkpt lat="45.04668560434114" lon="8.258642598141769"><ele>260.1666666666667</ele><time>2026-04-10T11:21:18.002Z</time></trkpt><trkpt lat="45.04676559210713" lon="8.258689466041309"><ele>262.3333333333333</ele><time>2026-04-10T11:21:21.002Z</time></trkpt><trkpt lat="45.04681711084935" lon="8.258747097751527"><ele>264.5</ele><time>2026-04-10T11:21:24.002Z</time></trkpt><trkpt lat="45.04688395668039" lon="8.258838283121458"><ele>266.66666666666663</ele><time>2026-04-10T11:21:27.003Z</time></trkpt><trkpt lat="45.04689368979546" lon="8.258973782147475"><ele>268.8333333333333</ele><time>2026-04-10T11:21:30.003Z</time></trkpt><trkpt lat="45.04687359271308" lon="8.259061799314585"><ele>271.0</ele><time>2026-04-10T11:21:32.003Z</time></trkpt><trkpt lat="45.04687112105747" lon="8.259188977965067"><ele>272.1428571428571</ele><time>2026-04-10T11:21:35.003Z</time></trkpt><trkpt lat="45.046881037319544" lon="8.25928060311669"><ele>273.2857142857143</ele><time>2026-04-10T11:21:37.003Z</time></trkpt><trkpt lat="45.04689968934984" lon="8.2593749120639"><ele>274.42857142857144</ele><time>2026-04-10T11:21:39.003Z</time></trkpt><trkpt lat="45.04691536281775" lon="8.25947431572281"><ele>275.57142857142856</ele><time>2026-04-10T11:21:41.003Z</time></trkpt><trkpt lat="45.04693290650146" lon="8.259566280096"><ele>276.7142857142857</ele><time>2026-04-10T11:21:43.003Z</time></trkpt><trkpt lat="45.04695730971519" lon="8.259663005712584"><ele>277.85714285714283</ele><time>2026-04-10T11:21:45.003Z</time></trkpt><trkpt lat="45.04701297041082" lon="8.259758795427249"><ele>279.0</ele><time>2026-04-10T11:21:48.003Z</time></trkpt><trkpt lat="45.047047611358785" lon="8.259857360525002"><ele>280.5</ele><time>2026-04-10T11:21:50.003Z</time></trkpt><trkpt lat="45.04708917716788" lon="8.259969927735503"><ele>282.0</ele><time>2026-04-10T11:21:52.003Z</time></trkpt><trkpt lat="45.04712160835286" lon="8.260055044958296"><ele>283.5</ele><time>2026-04-10T11:21:53.003Z</time></trkpt><trkpt lat="45.047165785744305" lon="8.260135823798828"><ele>285.0</ele><time>2026-04-10T11:21:53.998Z</time></trkpt><trkpt lat="45.04720585849772" lon="8.260219620067332"><ele>286.5</ele><time>2026-04-10T11:21:54.998Z</time></trkpt><trkpt lat="45.04725649990598" lon="8.260305559984118"><ele>288.0</ele><time>2026-04-10T11:21:55.998Z</time></trkpt><trkpt lat="45.0473146265755" lon="8.260378910880224"><ele>288.0</ele><time>2026-04-10T11:21:56.998Z</time></trkpt><trkpt lat="45.04737557332948" lon="8.260446793573822"><ele>288.0</ele><time>2026-04-10T11:21:57.998Z</time></trkpt><trkpt lat="45.04744418642641" lon="8.260523445681164"><ele>288.0</ele><time>2026-04-10T11:21:58.998Z</time></trkpt><trkpt lat="45.04752260010131" lon="8.260600077666968"><ele>288.0</ele><time>2026-04-10T11:21:59.999Z</time></trkpt><trkpt lat="45.04760062609046" lon="8.260690253618112"><ele>288.0</ele><time>2026-04-10T11:22:00.999Z</time></trkpt><trkpt lat="45.04768955759878" lon="8.260787302302697"><ele>285.5</ele><time>2026-04-10T11:22:01.999Z</time></trkpt><trkpt lat="45.04777777236302" lon="8.260894014255983"><ele>283.0</ele><time>2026-04-10T11:22:02.999Z</time></trkpt><trkpt lat="45.04786514801033" lon="8.260998162736838"><ele>280.5</ele><time>2026-04-10T11:22:03.999Z</time></trkpt><trkpt lat="45.04795644917011" lon="8.261104397560235"><ele>278.0</ele><time>2026-04-10T11:22:04.999Z</time></trkpt><trkpt lat="45.04805242493974" lon="8.261216111323465"><ele>278.0</ele><time>2026-04-10T11:22:05.999Z</time></trkpt><trkpt lat="45.04815433390238" lon="8.261326807551137"><ele>278.0</ele><time>2026-04-10T11:22:06.999Z</time></trkpt><trkpt lat="45.04824945865428" lon="8.261436172155165"><ele>278.0</ele><time>2026-04-10T11:22:07.999Z</time></trkpt><trkpt lat="45.04835262081356" lon="8.261554132113728"><ele>278.0</ele><time>2026-04-10T11:22:08.999Z</time></trkpt><trkpt lat="45.04844761311419" lon="8.261678405625098"><ele>274.25</ele><time>2026-04-10T11:22:09.999Z</time></trkpt><trkpt lat="45.04853958487749" lon="8.261799045045958"><ele>270.5</ele><time>2026-04-10T11:22:10.999Z</time></trkpt><trkpt lat="45.04861286019177" lon="8.261928560197484"><ele>266.75</ele><time>2026-04-10T11:22:11.999Z</time></trkpt><trkpt lat="45.0486950285384" lon="8.262067477843383"><ele>263.0</ele><time>2026-04-10T11:22:12.999Z</time></trkpt><trkpt lat="45.04876010097281" lon="8.262210523898997"><ele>262.2</ele><time>2026-04-10T11:22:14Z</time></trkpt><trkpt lat="45.04881443160891" lon="8.262351638220828"><ele>261.4</ele><time>2026-04-10T11:22:15Z</time></trkpt><trkpt lat="45.04886873121402" lon="8.262486281496125"><ele>260.59999999999997</ele><time>2026-04-10T11:22:16Z</time></trkpt><trkpt lat="45.04891554547151" lon="8.262615967479112"><ele>259.8</ele><time>2026-04-10T11:22:17Z</time></trkpt><trkpt lat="45.048965416503776" lon="8.262730479327976"><ele>259.0</ele><time>2026-04-10T11:22:18Z</time></trkpt><trkpt lat="45.04900859025537" lon="8.262839223091477"><ele>259.0</ele><time>2026-04-10T11:22:19Z</time></trkpt><trkpt lat="45.049048961769756" lon="8.262939646641932"><ele>259.0</ele><time>2026-04-10T11:22:20Z</time></trkpt><trkpt lat="45.0490858381843" lon="8.263027523639295"><ele>259.0</ele><time>2026-04-10T11:22:21Z</time></trkpt><trkpt lat="45.04912039730509" lon="8.26310361930203"><ele>259.0</ele><time>2026-04-10T11:22:22Z</time></trkpt><trkpt lat="45.049169406509826" lon="8.2632196663762"><ele>259.0</ele><time>2026-04-10T11:22:24Z</time></trkpt><trkpt lat="45.049219856751954" lon="8.26331915799827"><ele>259.0</ele><time>2026-04-10T11:22:26Z</time></trkpt><trkpt lat="45.049266529125234" lon="8.263410439591203"><ele>260.16666666666663</ele><time>2026-04-10T11:22:28Z</time></trkpt><trkpt lat="45.04931360197581" lon="8.263494149070365"><ele>261.3333333333333</ele><time>2026-04-10T11:22:30Z</time></trkpt><trkpt lat="45.04935961778824" lon="8.263580392173491"><ele>262.5</ele><time>2026-04-10T11:22:32Z</time></trkpt><trkpt lat="45.049402342731014" lon="8.263662686493019"><ele>263.6666666666667</ele><time>2026-04-10T11:22:34.001Z</time></trkpt><trkpt lat="45.04945622853291" lon="8.263767395729873"><ele>264.83333333333337</ele><time>2026-04-10T11:22:37.001Z</time></trkpt><trkpt lat="45.04949964705369" lon="8.263853602747597"><ele>266.0</ele><time>2026-04-10T11:22:40.001Z</time></trkpt><trkpt lat="45.04951937091906" lon="8.263953741206901"><ele>267.5</ele><time>2026-04-10T11:22:44.001Z</time></trkpt><trkpt lat="45.04949909592359" lon="8.264066415268095"><ele>269.0</ele><time>2026-04-10T11:22:48.001Z</time></trkpt><trkpt lat="45.0494447408857" lon="8.264143800017386"><ele>270.5</ele><time>2026-04-10T11:22:51.001Z</time></trkpt><trkpt lat="45.049412861834305" lon="8.264240507654987"><ele>272.0</ele><time>2026-04-10T11:22:54.001Z</time></trkpt><trkpt lat="45.049373723492636" lon="8.264326991174695"><ele>273.5</ele><time>2026-04-10T11:22:57.001Z</time></trkpt><trkpt lat="45.04934785552251" lon="8.2644147071243"><ele>275.0</ele><time>2026-04-10T11:23:00.002Z</time></trkpt><trkpt lat="45.049318101078335" lon="8.264522258537289"><ele>275.0</ele><time>2026-04-10T11:23:03.002Z</time></trkpt><trkpt lat="45.04926358606475" lon="8.264631292278745"><ele>275.0</ele><time>2026-04-10T11:23:06.002Z</time></trkpt><trkpt lat="45.04922907316409" lon="8.264707922231194"><ele>275.0</ele><time>2026-04-10T11:23:08.002Z</time></trkpt><trkpt lat="45.04918313953097" lon="8.264778381406456"><ele>275.0</ele><time>2026-04-10T11:23:10.002Z</time></trkpt><trkpt lat="45.04914476796287" lon="8.264857183062535"><ele>275.0</ele><time>2026-04-10T11:23:12.002Z</time></trkpt><trkpt lat="45.04910724060973" lon="8.264929253778131"><ele>275.0</ele><time>2026-04-10T11:23:14.002Z</time></trkpt><trkpt lat="45.049064187534064" lon="8.265006466122104"><ele>275.0</ele><time>2026-04-10T11:23:16.002Z</time></trkpt><trkpt lat="45.04901531497017" lon="8.265084408431449"><ele>275.0</ele><time>2026-04-10T11:23:18.002Z</time></trkpt><trkpt lat="45.048975804033795" lon="8.265174835979135"><ele>275.0</ele><time>2026-04-10T11:23:20.002Z</time></trkpt><trkpt lat="45.04891943039484" lon="8.265292659132227"><ele>275.0</ele><time>2026-04-10T11:23:23.002Z</time></trkpt><trkpt lat="45.04889325518579" lon="8.265383284417315"><ele>275.0</ele><time>2026-04-10T11:23:26.002Z</time></trkpt><trkpt lat="45.04894611806469" lon="8.265470698787837"><ele>275.0</ele><time>2026-04-10T11:23:31.002Z</time></trkpt><trkpt lat="45.04901225748549" lon="8.26546700945351"><ele>275.0</ele><time>2026-04-10T11:23:33.003Z</time></trkpt><trkpt lat="45.04908825091407" lon="8.265442222228772"><ele>276.6666666666667</ele><time>2026-04-10T11:23:35.003Z</time></trkpt><trkpt lat="45.04915619333204" lon="8.265442603671506"><ele>278.33333333333337</ele><time>2026-04-10T11:23:37.003Z</time></trkpt><trkpt lat="45.0492255281605" lon="8.265445178707935"><ele>280.0</ele><time>2026-04-10T11:23:39.003Z</time></trkpt><trkpt lat="45.04929933159409" lon="8.265518347351927"><ele>281.6666666666667</ele><time>2026-04-10T11:23:42.003Z</time></trkpt><trkpt lat="45.04937691029058" lon="8.265594734447294"><ele>283.3333333333333</ele><time>2026-04-10T11:23:45.003Z</time></trkpt><trkpt lat="45.04945068076532" lon="8.265665506905098"><ele>285.0</ele><time>2026-04-10T11:23:48.003Z</time></trkpt><trkpt lat="45.04951341864986" lon="8.265700192489657"><ele>286.7142857142857</ele><time>2026-04-10T11:23:50.003Z</time></trkpt><trkpt lat="45.04956139293707" lon="8.265764998127"><ele>288.42857142857144</ele><time>2026-04-10T11:23:52.003Z</time></trkpt><trkpt lat="45.04959318404171" lon="8.265847708832524"><ele>290.14285714285717</ele><time>2026-04-10T11:23:54.003Z</time></trkpt><trkpt lat="45.04964174078509" lon="8.265920562615616"><ele>291.8571428571429</ele><time>2026-04-10T11:23:56.003Z</time></trkpt><trkpt lat="45.04969487996287" lon="8.26603260399127"><ele>293.5714285714286</ele><time>2026-04-10T11:23:59.003Z</time></trkpt><trkpt lat="45.049697921669605" lon="8.266139342607303"><ele>295.2857142857143</ele><time>2026-04-10T11:24:02.998Z</time></trkpt><trkpt lat="45.049712339338804" lon="8.266242506080133"><ele>297.0</ele><time>2026-04-10T11:24:05.999Z</time></trkpt><trkpt lat="45.04976980146926" lon="8.266335020251764"><ele>297.0</ele><time>2026-04-10T11:24:08.999Z</time></trkpt><trkpt lat="45.04984446240032" lon="8.266374762932454"><ele>297.0</ele><time>2026-04-10T11:24:11.999Z</time></trkpt><trkpt lat="45.04992123383102" lon="8.266426709866792"><ele>297.0</ele><time>2026-04-10T11:24:14.999Z</time></trkpt><trkpt lat="45.04999905358856" lon="8.266471501330795"><ele>297.0</ele><time>2026-04-10T11:24:17.999Z</time></trkpt><trkpt lat="45.05008727838468" lon="8.266529280843436"><ele>297.0</ele><time>2026-04-10T11:24:21Z</time></trkpt><trkpt lat="45.05017072222049" lon="8.266572851219648"><ele>297.0</ele><time>2026-04-10T11:24:23Z</time></trkpt><trkpt lat="45.050259124979625" lon="8.26664142153311"><ele>296.6666666666667</ele><time>2026-04-10T11:24:25Z</time></trkpt><trkpt lat="45.050368932000765" lon="8.266724913246021"><ele>296.3333333333333</ele><time>2026-04-10T11:24:27Z</time></trkpt><trkpt lat="45.05043930551253" lon="8.266760798010258"><ele>296.0</ele><time>2026-04-10T11:24:28Z</time></trkpt><trkpt lat="45.050503288705634" lon="8.26680943884363"><ele>295.66666666666663</ele><time>2026-04-10T11:24:29Z</time></trkpt><trkpt lat="45.05056386007455" lon="8.26684891538848"><ele>295.3333333333333</ele><time>2026-04-10T11:24:30Z</time></trkpt><trkpt lat="45.05062662665774" lon="8.266900480833518"><ele>295.0</ele><time>2026-04-10T11:24:31Z</time></trkpt><trkpt lat="45.050681229497826" lon="8.266949690590444"><ele>295.0</ele><time>2026-04-10T11:24:32Z</time></trkpt><trkpt lat="45.050776800524574" lon="8.26700879283114"><ele>295.0</ele><time>2026-04-10T11:24:34Z</time></trkpt><trkpt lat="45.05086552926055" lon="8.267075608701427"><ele>295.0</ele><time>2026-04-10T11:24:36Z</time></trkpt><trkpt lat="45.05095794633065" lon="8.26708441102455"><ele>295.0</ele><time>2026-04-10T11:24:38.001Z</time></trkpt><trkpt lat="45.05103874192764" lon="8.26710804655593"><ele>295.0</ele><time>2026-04-10T11:24:40.001Z</time></trkpt><trkpt lat="45.05111728332394" lon="8.267096215600269"><ele>296.66666666666663</ele><time>2026-04-10T11:24:42.001Z</time></trkpt><trkpt lat="45.05120003020915" lon="8.267140051850884"><ele>298.3333333333333</ele><time>2026-04-10T11:24:44.001Z</time></trkpt><trkpt lat="45.051279941024454" lon="8.267132282236998"><ele>300.0</ele><time>2026-04-10T11:24:46.001Z</time></trkpt><trkpt lat="45.05136893775362" lon="8.267121355901413"><ele>301.6666666666667</ele><time>2026-04-10T11:24:48.001Z</time></trkpt><trkpt lat="45.05145128180366" lon="8.267111246256846"><ele>303.33333333333337</ele><time>2026-04-10T11:24:50.001Z</time></trkpt><trkpt lat="45.05154182084857" lon="8.267092065860723"><ele>305.0</ele><time>2026-04-10T11:24:52.001Z</time></trkpt><trkpt lat="45.05160603133582" lon="8.267041350465366"><ele>305.0</ele><time>2026-04-10T11:24:54.001Z</time></trkpt><trkpt lat="45.05164816030525" lon="8.266920282165533"><ele>305.0</ele><time>2026-04-10T11:24:57.001Z</time></trkpt><trkpt lat="45.051627447184835" lon="8.266820224092623"><ele>305.0</ele><time>2026-04-10T11:24:59.001Z</time></trkpt><trkpt lat="45.05151740623547" lon="8.266772471208"><ele>305.0</ele><time>2026-04-10T11:25:01.001Z</time></trkpt><trkpt lat="45.05143743347143" lon="8.266736409683997"><ele>305.0</ele><time>2026-04-10T11:25:03.001Z</time></trkpt><trkpt lat="45.05132331836325" lon="8.2666759619971"><ele>305.0</ele><time>2026-04-10T11:25:06.002Z</time></trkpt><trkpt lat="45.05125115396252" lon="8.26662820881313"><ele>305.0</ele><time>2026-04-10T11:25:08.002Z</time></trkpt><trkpt lat="45.051185606892055" lon="8.266569042248262"><ele>305.0</ele><time>2026-04-10T11:25:10.002Z</time></trkpt><trkpt lat="45.051118451113794" lon="8.266507928062511"><ele>305.0</ele><time>2026-04-10T11:25:12.002Z</time></trkpt><trkpt lat="45.05107409624872" lon="8.266431971827558"><ele>305.0</ele><time>2026-04-10T11:25:14.002Z</time></trkpt><trkpt lat="45.051082965428115" lon="8.266312059962372"><ele>305.0</ele><time>2026-04-10T11:25:17.002Z</time></trkpt><trkpt lat="45.0511769233009" lon="8.266272199149906"><ele>305.0</ele><time>2026-04-10T11:25:20.002Z</time></trkpt><trkpt lat="45.05121943344362" lon="8.266383169174878"><ele>305.0</ele><time>2026-04-10T11:25:22.002Z</time></trkpt><trkpt lat="45.05128762152391" lon="8.266412238867597"><ele>305.0</ele><time>2026-04-10T11:25:24.002Z</time></trkpt><trkpt lat="45.05136342112089" lon="8.266453835688052"><ele>305.0</ele><time>2026-04-10T11:25:26.002Z</time></trkpt><trkpt lat="45.05143823248201" lon="8.266478542658254"><ele>305.0</ele><time>2026-04-10T11:25:28.002Z</time></trkpt><trkpt lat="45.051509853803275" lon="8.266497628501998"><ele>305.0</ele><time>2026-04-10T11:25:30.002Z</time></trkpt><trkpt lat="45.05157409592981" lon="8.26652872980427"><ele>305.7142857142857</ele><time>2026-04-10T11:25:32.002Z</time></trkpt><trkpt lat="45.05164068435804" lon="8.266544593059983"><ele>306.4285714285714</ele><time>2026-04-10T11:25:34.002Z</time></trkpt><trkpt lat="45.05169881936228" lon="8.266593006022521"><ele>307.1428571428571</ele><time>2026-04-10T11:25:36.002Z</time></trkpt><trkpt lat="45.051761460347784" lon="8.266611680171444"><ele>307.8571428571429</ele><time>2026-04-10T11:25:38.003Z</time></trkpt><trkpt lat="45.051846044392185" lon="8.266637218390118"><ele>308.57142857142856</ele><time>2026-04-10T11:25:41.003Z</time></trkpt><trkpt lat="45.051918343425974" lon="8.26667111014578"><ele>309.2857142857143</ele><time>2026-04-10T11:25:44.003Z</time></trkpt><trkpt lat="45.05197776890773" lon="8.266636036555468"><ele>310.0</ele><time>2026-04-10T11:25:46.003Z</time></trkpt><trkpt lat="45.0519915235497" lon="8.266758025672825"><ele>310.0</ele><time>2026-04-10T11:25:48.003Z</time></trkpt><trkpt lat="45.05192526649362" lon="8.266791605951449"><ele>310.0</ele><time>2026-04-10T11:25:52.003Z</time></trkpt><trkpt lat="45.05190101242503" lon="8.2668934622247"><ele>310.0</ele><time>2026-04-10T11:25:54.003Z</time></trkpt><trkpt lat="45.05199971048822" lon="8.26700670825368"><ele>310.0</ele><time>2026-04-10T11:25:56.003Z</time></trkpt><trkpt lat="45.05207036017405" lon="8.267064911145791"><ele>310.0</ele><time>2026-04-10T11:28:21Z</time></trkpt><trkpt lat="45.052008600208616" lon="8.267014258501778"><ele>310.0</ele><time>2026-04-10T11:32:15.003Z</time></trkpt><trkpt lat="45.05195762555927" lon="8.266952942579"><ele>310.0</ele><time>2026-04-10T11:32:21.003Z</time></trkpt><trkpt lat="45.0518837763991" lon="8.266931237376115"><ele>310.0</ele><time>2026-04-10T11:32:27Z</time></trkpt><trkpt lat="45.05181547144598" lon="8.266910213776358"><ele>310.0</ele><time>2026-04-10T11:32:30Z</time></trkpt><trkpt lat="45.0517341781158" lon="8.2668806958049"><ele>310.0</ele><time>2026-04-10T11:32:33Z</time></trkpt><trkpt lat="45.051673961338096" lon="8.26685320718731"><ele>310.0</ele><time>2026-04-10T11:32:35Z</time></trkpt><trkpt lat="45.05160145413116" lon="8.266868209678954"><ele>310.0</ele><time>2026-04-10T11:32:39Z</time></trkpt><trkpt lat="45.05166398837605" lon="8.266933731978193"><ele>310.0</ele><time>2026-04-10T11:32:44Z</time></trkpt><trkpt lat="45.051726285609796" lon="8.26697288663408"><ele>310.0</ele><time>2026-04-10T11:32:46Z</time></trkpt><trkpt lat="45.05178733499288" lon="8.267006341284256"><ele>310.0</ele><time>2026-04-10T11:32:48Z</time></trkpt><trkpt lat="45.051857530858456" lon="8.267052485976095"><ele>310.0</ele><time>2026-04-10T11:32:51Z</time></trkpt><trkpt lat="45.05193470131765" lon="8.267092352530359"><ele>310.0</ele><time>2026-04-10T11:32:54Z</time></trkpt><trkpt lat="45.05199759341023" lon="8.267133963727373"><ele>310.0</ele><time>2026-04-10T11:32:57.001Z</time></trkpt><trkpt lat="45.052061023912216" lon="8.267167511380272"><ele>310.0</ele><time>2026-04-10T11:33:00.001Z</time></trkpt><trkpt lat="45.05212178493215" lon="8.267119653458337"><ele>310.0</ele><time>2026-04-10T11:33:04.001Z</time></trkpt><trkpt lat="45.05214067465074" lon="8.267033449864847"><ele>310.0</ele><time>2026-04-10T11:33:07.001Z</time></trkpt><trkpt lat="45.05216799322287" lon="8.266938348862338"><ele>310.0</ele><time>2026-04-10T11:33:11.001Z</time></trkpt><trkpt lat="45.052163131963056" lon="8.26705500694147"><ele>310.0</ele><time>2026-04-10T11:33:22.001Z</time></trkpt><trkpt lat="45.05212056723711" lon="8.267130508147055"><ele>310.0</ele><time>2026-04-10T11:33:25.001Z</time></trkpt><trkpt lat="45.0520563244475" lon="8.26719500449909"><ele>310.0</ele><time>2026-04-10T11:33:28.001Z</time></trkpt><trkpt lat="45.051977163390895" lon="8.267189202292752"><ele>310.0</ele><time>2026-04-10T11:33:31.002Z</time></trkpt><trkpt lat="45.05191118268215" lon="8.267145326264517"><ele>310.0</ele><time>2026-04-10T11:33:34.002Z</time></trkpt><trkpt lat="45.05183785427577" lon="8.267099190360655"><ele>310.0</ele><time>2026-04-10T11:33:37.002Z</time></trkpt><trkpt lat="45.05177001263627" lon="8.267014526162775"><ele>310.0</ele><time>2026-04-10T11:33:40.002Z</time></trkpt><trkpt lat="45.05167720338916" lon="8.26698558419055"><ele>310.0</ele><time>2026-04-10T11:33:43.002Z</time></trkpt><trkpt lat="45.05158917794993" lon="8.267033489782904"><ele>310.0</ele><time>2026-04-10T11:33:46.002Z</time></trkpt><trkpt lat="45.051494399653755" lon="8.267053193100189"><ele>309.16666666666663</ele><time>2026-04-10T11:33:48.002Z</time></trkpt><trkpt lat="45.05136646354336" lon="8.267066285070532"><ele>308.3333333333333</ele><time>2026-04-10T11:33:50.002Z</time></trkpt><trkpt lat="45.05130154534742" lon="8.267069923714628"><ele>307.5</ele><time>2026-04-10T11:33:51.002Z</time></trkpt><trkpt lat="45.05123464226558" lon="8.267077865634336"><ele>306.6666666666667</ele><time>2026-04-10T11:33:52.002Z</time></trkpt><trkpt lat="45.05116835724686" lon="8.267087112610985"><ele>305.83333333333337</ele><time>2026-04-10T11:33:53.002Z</time></trkpt><trkpt lat="45.051100770728624" lon="8.26709530145261"><ele>305.0</ele><time>2026-04-10T11:33:54.002Z</time></trkpt><trkpt lat="45.05097420077756" lon="8.26708329824929"><ele>305.0</ele><time>2026-04-10T11:33:56.002Z</time></trkpt><trkpt lat="45.05085269410937" lon="8.267036407664063"><ele>305.0</ele><time>2026-04-10T11:33:58.002Z</time></trkpt><trkpt lat="45.050789128196314" lon="8.267000749308123"><ele>305.0</ele><time>2026-04-10T11:33:59.002Z</time></trkpt><trkpt lat="45.050733725819796" lon="8.266952502832522"><ele>305.0</ele><time>2026-04-10T11:34:00.002Z</time></trkpt><trkpt lat="45.05063082012031" lon="8.266882541379813"><ele>305.0</ele><time>2026-04-10T11:34:02.002Z</time></trkpt><trkpt lat="45.050554645822565" lon="8.266824314839926"><ele>303.33333333333337</ele><time>2026-04-10T11:34:04.002Z</time></trkpt><trkpt lat="45.05049204490073" lon="8.266787666955208"><ele>301.6666666666667</ele><time>2026-04-10T11:34:07.003Z</time></trkpt><trkpt lat="45.05039987323579" lon="8.266755563992081"><ele>300.0</ele><time>2026-04-10T11:34:11.003Z</time></trkpt><trkpt lat="45.0503388842593" lon="8.266716341471499"><ele>298.3333333333333</ele><time>2026-04-10T11:34:13.003Z</time></trkpt><trkpt lat="45.05027286685862" lon="8.266659781151757"><ele>296.66666666666663</ele><time>2026-04-10T11:34:15.003Z</time></trkpt><trkpt lat="45.05019342967006" lon="8.266598857092474"><ele>295.0</ele><time>2026-04-10T11:34:17.003Z</time></trkpt><trkpt lat="45.05013139429807" lon="8.266547426471808"><ele>295.0</ele><time>2026-04-10T11:34:19.003Z</time></trkpt><trkpt lat="45.05005588442421" lon="8.26649411817916"><ele>295.0</ele><time>2026-04-10T11:34:21.003Z</time></trkpt><trkpt lat="45.049979167450374" lon="8.266440246074461"><ele>295.0</ele><time>2026-04-10T11:34:23.003Z</time></trkpt><trkpt lat="45.04990673659407" lon="8.266388743387395"><ele>295.0</ele><time>2026-04-10T11:34:25.003Z</time></trkpt><trkpt lat="45.04983491530505" lon="8.266328338205623"><ele>295.0</ele><time>2026-04-10T11:34:27.003Z</time></trkpt><trkpt lat="45.04976718656171" lon="8.266276449720309"><ele>295.0</ele><time>2026-04-10T11:34:29.003Z</time></trkpt><trkpt lat="45.04971492974539" lon="8.26618954294487"><ele>295.3333333333333</ele><time>2026-04-10T11:34:30.999Z</time></trkpt><trkpt lat="45.04961418277746" lon="8.26632126468943"><ele>295.66666666666663</ele><time>2026-04-10T11:34:32.999Z</time></trkpt><trkpt lat="45.04954739344438" lon="8.26626904769085"><ele>296.0</ele><time>2026-04-10T11:34:34.999Z</time></trkpt><trkpt lat="45.04947742467083" lon="8.266321754235882"><ele>296.3333333333333</ele><time>2026-04-10T11:34:36.999Z</time></trkpt><trkpt lat="45.04941354540176" lon="8.266351257832396"><ele>296.6666666666667</ele><time>2026-04-10T11:34:38.999Z</time></trkpt><trkpt lat="45.04935013538315" lon="8.266382557278448"><ele>297.0</ele><time>2026-04-10T11:34:40.999Z</time></trkpt><trkpt lat="45.049288229722734" lon="8.26641145623733"><ele>297.0</ele><time>2026-04-10T11:34:42.999Z</time></trkpt><trkpt lat="45.04920707694073" lon="8.266434817156055"><ele>297.0</ele><time>2026-04-10T11:34:45Z</time></trkpt><trkpt lat="45.04914394189135" lon="8.26650365373449"><ele>297.0</ele><time>2026-04-10T11:34:47Z</time></trkpt><trkpt lat="45.04908194591704" lon="8.266569590914502"><ele>297.0</ele><time>2026-04-10T11:34:49Z</time></trkpt><trkpt lat="45.04901199584343" lon="8.266644141840723"><ele>297.0</ele><time>2026-04-10T11:34:51Z</time></trkpt><trkpt lat="45.048943505929884" lon="8.266714129315512"><ele>297.0</ele><time>2026-04-10T11:34:53Z</time></trkpt><trkpt lat="45.04888484756763" lon="8.266776487019476"><ele>297.5</ele><time>2026-04-10T11:34:55Z</time></trkpt><trkpt lat="45.04883223240403" lon="8.266869229256539"><ele>298.0</ele><time>2026-04-10T11:34:57Z</time></trkpt><trkpt lat="45.04878618402744" lon="8.266944537938633"><ele>298.5</ele><time>2026-04-10T11:34:59Z</time></trkpt><trkpt lat="45.04873461825113" lon="8.267019018875327"><ele>299.0</ele><time>2026-04-10T11:35:01Z</time></trkpt><trkpt lat="45.04868934985921" lon="8.267088731314072"><ele>299.5</ele><time>2026-04-10T11:35:03Z</time></trkpt><trkpt lat="45.04862201535307" lon="8.267154595855347"><ele>300.0</ele><time>2026-04-10T11:35:05Z</time></trkpt><trkpt lat="45.04855949268848" lon="8.267207329314932"><ele>300.57142857142856</ele><time>2026-04-10T11:35:07Z</time></trkpt><trkpt lat="45.04849855086877" lon="8.267282900781005"><ele>301.1428571428571</ele><time>2026-04-10T11:35:09.001Z</time></trkpt><trkpt lat="45.04844357220194" lon="8.267354391503126"><ele>301.71428571428567</ele><time>2026-04-10T11:35:11.001Z</time></trkpt><trkpt lat="45.04838679477995" lon="8.267427895639761"><ele>302.2857142857143</ele><time>2026-04-10T11:35:13.001Z</time></trkpt><trkpt lat="45.04833850985972" lon="8.267512535757934"><ele>302.8571428571429</ele><time>2026-04-10T11:35:15.001Z</time></trkpt><trkpt lat="45.048303256971515" lon="8.267596135496294"><ele>303.4285714285714</ele><time>2026-04-10T11:35:17.001Z</time></trkpt><trkpt lat="45.048258673589466" lon="8.267664760470836"><ele>304.0</ele><time>2026-04-10T11:35:19.001Z</time></trkpt><trkpt lat="45.04822136669375" lon="8.267745519604615"><ele>303.16666666666663</ele><time>2026-04-10T11:35:21.001Z</time></trkpt><trkpt lat="45.04819032191764" lon="8.26783143586241"><ele>302.3333333333333</ele><time>2026-04-10T11:35:23.001Z</time></trkpt><trkpt lat="45.04814906085532" lon="8.267910374467526"><ele>301.5</ele><time>2026-04-10T11:35:25.001Z</time></trkpt><trkpt lat="45.048098230033816" lon="8.268027286921109"><ele>300.6666666666667</ele><time>2026-04-10T11:35:27.001Z</time></trkpt><trkpt lat="45.048035651126604" lon="8.268169047351334"><ele>299.83333333333337</ele><time>2026-04-10T11:35:29.001Z</time></trkpt><trkpt lat="45.04800019660436" lon="8.268247292168521"><ele>299.0</ele><time>2026-04-10T11:35:30.001Z</time></trkpt><trkpt lat="45.04796579497914" lon="8.26832321320409"><ele>299.0</ele><time>2026-04-10T11:35:31.001Z</time></trkpt><trkpt lat="45.04790632208941" lon="8.26846533263897"><ele>299.0</ele><time>2026-04-10T11:35:33.001Z</time></trkpt><trkpt lat="45.047826838067785" lon="8.268585681812322"><ele>299.0</ele><time>2026-04-10T11:35:35.001Z</time></trkpt><trkpt lat="45.04773584123918" lon="8.268699226017349"><ele>299.0</ele><time>2026-04-10T11:35:37.001Z</time></trkpt><trkpt lat="45.04768007780914" lon="8.268763871961266"><ele>299.0</ele><time>2026-04-10T11:35:38.001Z</time></trkpt><trkpt lat="45.04762829798143" lon="8.268825391172308"><ele>299.0</ele><time>2026-04-10T11:35:39.001Z</time></trkpt><trkpt lat="45.04757297386367" lon="8.268901333958336"><ele>299.0</ele><time>2026-04-10T11:35:40.002Z</time></trkpt><trkpt lat="45.04751373459229" lon="8.268970589751973"><ele>299.0</ele><time>2026-04-10T11:35:41.002Z</time></trkpt><trkpt lat="45.047450989281806" lon="8.26905033768477"><ele>299.0</ele><time>2026-04-10T11:35:42.002Z</time></trkpt><trkpt lat="45.04738794031113" lon="8.269125168909932"><ele>299.0</ele><time>2026-04-10T11:35:43.002Z</time></trkpt><trkpt lat="45.047321087835044" lon="8.269200297989467"><ele>299.0</ele><time>2026-04-10T11:35:44.002Z</time></trkpt><trkpt lat="45.047249273701766" lon="8.269277600134396"><ele>296.0</ele><time>2026-04-10T11:35:45.002Z</time></trkpt><trkpt lat="45.047182905520465" lon="8.269365876593564"><ele>293.0</ele><time>2026-04-10T11:35:46.002Z</time></trkpt><trkpt lat="45.04711319431907" lon="8.269455863361927"><ele>290.0</ele><time>2026-04-10T11:35:47.002Z</time></trkpt><trkpt lat="45.04703750614147" lon="8.269542271032803"><ele>287.0</ele><time>2026-04-10T11:35:48.002Z</time></trkpt><trkpt lat="45.046961236727945" lon="8.269629017505752"><ele>284.0</ele><time>2026-04-10T11:35:49.002Z</time></trkpt><trkpt lat="45.04690027457811" lon="8.269719733974398"><ele>283.6666666666667</ele><time>2026-04-10T11:35:50.002Z</time></trkpt><trkpt lat="45.04683392496775" lon="8.269801378867035"><ele>283.33333333333337</ele><time>2026-04-10T11:35:51.002Z</time></trkpt><trkpt lat="45.04676862216759" lon="8.26988155023912"><ele>283.0</ele><time>2026-04-10T11:35:52.002Z</time></trkpt><trkpt lat="45.046699463664936" lon="8.269956028002746"><ele>282.6666666666667</ele><time>2026-04-10T11:35:53.002Z</time></trkpt><trkpt lat="45.04662628282423" lon="8.27003029755982"><ele>282.3333333333333</ele><time>2026-04-10T11:35:54.002Z</time></trkpt><trkpt lat="45.04655848810994" lon="8.270119204889745"><ele>282.0</ele><time>2026-04-10T11:35:55.002Z</time></trkpt><trkpt lat="45.04648726049155" lon="8.270200212980514"><ele>282.0</ele><time>2026-04-10T11:35:56.002Z</time></trkpt><trkpt lat="45.04642376699258" lon="8.270272077415404"><ele>282.0</ele><time>2026-04-10T11:35:57.002Z</time></trkpt><trkpt lat="45.04635311121717" lon="8.270352675803204"><ele>282.0</ele><time>2026-04-10T11:35:58.002Z</time></trkpt><trkpt lat="45.04626983941146" lon="8.270425481573406"><ele>282.0</ele><time>2026-04-10T11:35:59.002Z</time></trkpt><trkpt lat="45.04618777520799" lon="8.270495178162033"><ele>282.0</ele><time>2026-04-10T11:36:00.002Z</time></trkpt><trkpt lat="45.04609780648023" lon="8.270566434303994"><ele>282.0</ele><time>2026-04-10T11:36:01.002Z</time></trkpt><trkpt lat="45.04599332397728" lon="8.270626105122943"><ele>282.0</ele><time>2026-04-10T11:36:02.002Z</time></trkpt><trkpt lat="45.04589761561479" lon="8.27067349641417"><ele>282.0</ele><time>2026-04-10T11:36:03.002Z</time></trkpt><trkpt lat="45.04580914345536" lon="8.270728578530127"><ele>282.0</ele><time>2026-04-10T11:36:04.002Z</time></trkpt><trkpt lat="45.04572566429419" lon="8.270781480859283"><ele>282.0</ele><time>2026-04-10T11:36:05.002Z</time></trkpt><trkpt lat="45.045639622521456" lon="8.270834143813206"><ele>280.8</ele><time>2026-04-10T11:36:06.002Z</time></trkpt><trkpt lat="45.04555623509858" lon="8.270900295583248"><ele>279.6</ele><time>2026-04-10T11:36:07.002Z</time></trkpt><trkpt lat="45.04547353869772" lon="8.270996985339268"><ele>278.40000000000003</ele><time>2026-04-10T11:36:08.002Z</time></trkpt><trkpt lat="45.04540530531625" lon="8.271137392607427"><ele>277.2</ele><time>2026-04-10T11:36:09.002Z</time></trkpt><trkpt lat="45.04534492121128" lon="8.271280804091296"><ele>276.0</ele><time>2026-04-10T11:36:10.002Z</time></trkpt><trkpt lat="45.045288132012956" lon="8.271431451226539"><ele>275.8</ele><time>2026-04-10T11:36:11.002Z</time></trkpt><trkpt lat="45.04524299011307" lon="8.271580745027501"><ele>275.6</ele><time>2026-04-10T11:36:12.002Z</time></trkpt><trkpt lat="45.045181004000256" lon="8.27168299193547"><ele>275.4</ele><time>2026-04-10T11:36:13.003Z</time></trkpt><trkpt lat="45.04512972979811" lon="8.271792917033066"><ele>275.2</ele><time>2026-04-10T11:36:14.003Z</time></trkpt><trkpt lat="45.045086821005725" lon="8.271912449398643"><ele>275.0</ele><time>2026-04-10T11:36:15.003Z</time></trkpt><trkpt lat="45.04501795085853" lon="8.272005085782078"><ele>273.0</ele><time>2026-04-10T11:36:16.003Z</time></trkpt><trkpt lat="45.04494549772029" lon="8.272089841697158"><ele>271.0</ele><time>2026-04-10T11:36:17.003Z</time></trkpt><trkpt lat="45.04488595694937" lon="8.272167346146931"><ele>269.0</ele><time>2026-04-10T11:36:18.003Z</time></trkpt><trkpt lat="45.044840081946006" lon="8.272248691860979"><ele>267.0</ele><time>2026-04-10T11:36:19.003Z</time></trkpt><trkpt lat="45.04478332984987" lon="8.272348822523288"><ele>265.0</ele><time>2026-04-10T11:36:20.003Z</time></trkpt><trkpt lat="45.044735050885535" lon="8.27242823468417"><ele>263.0</ele><time>2026-04-10T11:36:21.003Z</time></trkpt><trkpt lat="45.04468678513232" lon="8.272507516942548"><ele>263.0</ele><time>2026-04-10T11:36:22.003Z</time></trkpt><trkpt lat="45.04464244293288" lon="8.272585268228065"><ele>263.0</ele><time>2026-04-10T11:36:23.003Z</time></trkpt><trkpt lat="45.04458809845503" lon="8.272633876685731"><ele>263.0</ele><time>2026-04-10T11:36:24.003Z</time></trkpt><trkpt lat="45.044493554026225" lon="8.27265399042326"><ele>263.0</ele><time>2026-04-10T11:36:26.003Z</time></trkpt><trkpt lat="45.044430254774184" lon="8.2726619376634"><ele>263.0</ele><time>2026-04-10T11:36:29.003Z</time></trkpt><trkpt lat="45.04443286265856" lon="8.27282787299384"><ele>263.0</ele><time>2026-04-10T11:36:31.003Z</time></trkpt><trkpt lat="45.04445396947081" lon="8.272919713961288"><ele>263.0</ele><time>2026-04-10T11:36:33.003Z</time></trkpt><trkpt lat="45.04445086760174" lon="8.27302125315026"><ele>263.0</ele><time>2026-04-10T11:36:35.003Z</time></trkpt><trkpt lat="45.044458044795554" lon="8.273125846714898"><ele>263.0</ele><time>2026-04-10T11:36:36.999Z</time></trkpt><trkpt lat="45.04446047280041" lon="8.273241651250038"><ele>263.0</ele><time>2026-04-10T11:36:38.999Z</time></trkpt><trkpt lat="45.04445338057894" lon="8.273362403247885"><ele>263.0</ele><time>2026-04-10T11:36:40.999Z</time></trkpt><trkpt lat="45.04445655725979" lon="8.27348994453424"><ele>263.0</ele><time>2026-04-10T11:36:42.999Z</time></trkpt><trkpt lat="45.04442099064713" lon="8.27360936687253"><ele>264.8</ele><time>2026-04-10T11:36:44.999Z</time></trkpt><trkpt lat="45.044405020366014" lon="8.27373552249861"><ele>266.6</ele><time>2026-04-10T11:36:46.999Z</time></trkpt><trkpt lat="45.044376021107155" lon="8.273874033953454"><ele>268.4</ele><time>2026-04-10T11:36:48.999Z</time></trkpt><trkpt lat="45.044348028382295" lon="8.274016945158793"><ele>270.2</ele><time>2026-04-10T11:36:50.999Z</time></trkpt><trkpt lat="45.04432527237921" lon="8.274151387620181"><ele>272.0</ele><time>2026-04-10T11:36:53Z</time></trkpt><trkpt lat="45.04430067328271" lon="8.274271148565669"><ele>273.4</ele><time>2026-04-10T11:36:55Z</time></trkpt><trkpt lat="45.04427066467871" lon="8.2743919565335"><ele>274.79999999999995</ele><time>2026-04-10T11:36:57Z</time></trkpt><trkpt lat="45.04424142096081" lon="8.274512825341837"><ele>276.2</ele><time>2026-04-10T11:36:59Z</time></trkpt><trkpt lat="45.04419908484985" lon="8.274626800577316"><ele>277.59999999999997</ele><time>2026-04-10T11:37:01Z</time></trkpt><trkpt lat="45.044164803528076" lon="8.274747910871806"><ele>279.0</ele><time>2026-04-10T11:37:03Z</time></trkpt><trkpt lat="45.044111001201074" lon="8.274855655040998"><ele>280.3333333333333</ele><time>2026-04-10T11:37:05Z</time></trkpt><trkpt lat="45.044078000029145" lon="8.274969585726454"><ele>281.6666666666667</ele><time>2026-04-10T11:37:07Z</time></trkpt><trkpt lat="45.04404968698379" lon="8.275077927383016"><ele>283.0</ele><time>2026-04-10T11:37:09Z</time></trkpt><trkpt lat="45.044041049546315" lon="8.275213337927246"><ele>284.33333333333337</ele><time>2026-04-10T11:37:11Z</time></trkpt><trkpt lat="45.044026668792135" lon="8.27533953594284"><ele>285.6666666666667</ele><time>2026-04-10T11:37:13.001Z</time></trkpt><trkpt lat="45.044017377225" lon="8.275464238483385"><ele>287.0</ele><time>2026-04-10T11:37:15.001Z</time></trkpt><trkpt lat="45.04403695428941" lon="8.275603194338569"><ele>284.8</ele><time>2026-04-10T11:37:17.001Z</time></trkpt><trkpt lat="45.0440722790123" lon="8.275739921764183"><ele>282.6</ele><time>2026-04-10T11:37:19.001Z</time></trkpt><trkpt lat="45.04411638919635" lon="8.2758663631898"><ele>280.40000000000003</ele><time>2026-04-10T11:37:21.001Z</time></trkpt><trkpt lat="45.044162457897094" lon="8.275985262906332"><ele>278.2</ele><time>2026-04-10T11:37:23.001Z</time></trkpt><trkpt lat="45.04421107731932" lon="8.27610713355574"><ele>276.0</ele><time>2026-04-10T11:37:25.001Z</time></trkpt><trkpt lat="45.0442623640561" lon="8.276235690060231"><ele>276.0</ele><time>2026-04-10T11:37:27.001Z</time></trkpt><trkpt lat="45.044314915879774" lon="8.276366704197324"><ele>276.0</ele><time>2026-04-10T11:37:29.001Z</time></trkpt><trkpt lat="45.04436843699253" lon="8.276499071013632"><ele>276.0</ele><time>2026-04-10T11:37:31.001Z</time></trkpt><trkpt lat="45.04443370707582" lon="8.2766324097843"><ele>276.0</ele><time>2026-04-10T11:37:33.001Z</time></trkpt><trkpt lat="45.04449403280981" lon="8.2767824336143"><ele>275.6666666666667</ele><time>2026-04-10T11:37:35.001Z</time></trkpt><trkpt lat="45.04452279689352" lon="8.276863391806684"><ele>275.3333333333333</ele><time>2026-04-10T11:37:36.001Z</time></trkpt><trkpt lat="45.04455529498664" lon="8.276942178239421"><ele>275.0</ele><time>2026-04-10T11:37:37.001Z</time></trkpt><trkpt lat="45.04462137951613" lon="8.277090486244191"><ele>274.66666666666663</ele><time>2026-04-10T11:37:39.001Z</time></trkpt><trkpt lat="45.044648919807024" lon="8.277170976035334"><ele>274.3333333333333</ele><time>2026-04-10T11:37:40.001Z</time></trkpt><trkpt lat="45.044678546429395" lon="8.27725367313666"><ele>274.0</ele><time>2026-04-10T11:37:41.001Z</time></trkpt><trkpt lat="45.04473889172798" lon="8.277413686235752"><ele>272.66666666666663</ele><time>2026-04-10T11:37:43.002Z</time></trkpt><trkpt lat="45.044800356274806" lon="8.277567894907984"><ele>271.3333333333333</ele><time>2026-04-10T11:37:45.002Z</time></trkpt><trkpt lat="45.04483137907521" lon="8.277651202463685"><ele>270.0</ele><time>2026-04-10T11:37:46.002Z</time></trkpt><trkpt lat="45.04485930597304" lon="8.277732112709774"><ele>268.6666666666667</ele><time>2026-04-10T11:37:47.002Z</time></trkpt><trkpt lat="45.04488598411122" lon="8.27781638094018"><ele>267.33333333333337</ele><time>2026-04-10T11:37:48.002Z</time></trkpt><trkpt lat="45.04491357029343" lon="8.277901209652674"><ele>266.0</ele><time>2026-04-10T11:37:49.002Z</time></trkpt><trkpt lat="45.04494299345815" lon="8.277985226089116"><ele>266.7142857142857</ele><time>2026-04-10T11:37:50.002Z</time></trkpt><trkpt lat="45.04496921577531" lon="8.278069862355462"><ele>267.42857142857144</ele><time>2026-04-10T11:37:51.002Z</time></trkpt><trkpt lat="45.044999439351386" lon="8.278155749473292"><ele>268.1428571428571</ele><time>2026-04-10T11:37:52.002Z</time></trkpt><trkpt lat="45.045027559671645" lon="8.278239614168472"><ele>268.8571428571429</ele><time>2026-04-10T11:37:53.002Z</time></trkpt><trkpt lat="45.04505564560096" lon="8.278325757208425"><ele>269.57142857142856</ele><time>2026-04-10T11:37:54.002Z</time></trkpt><trkpt lat="45.0450863912471" lon="8.278409896485798"><ele>270.2857142857143</ele><time>2026-04-10T11:37:55.002Z</time></trkpt><trkpt lat="45.04511932705982" lon="8.278495724590872"><ele>271.0</ele><time>2026-04-10T11:37:56.002Z</time></trkpt><trkpt lat="45.04514759802444" lon="8.278584046699935"><ele>271.42857142857144</ele><time>2026-04-10T11:37:57.002Z</time></trkpt><trkpt lat="45.04517990498119" lon="8.278672473741521"><ele>271.8571428571429</ele><time>2026-04-10T11:37:58.002Z</time></trkpt><trkpt lat="45.045211962711456" lon="8.27876280534879"><ele>272.28571428571433</ele><time>2026-04-10T11:37:59.002Z</time></trkpt><trkpt lat="45.045241041819054" lon="8.27885300272664"><ele>272.7142857142857</ele><time>2026-04-10T11:38:00.002Z</time></trkpt><trkpt lat="45.04526979246714" lon="8.278944575277862"><ele>273.14285714285717</ele><time>2026-04-10T11:38:01.002Z</time></trkpt><trkpt lat="45.045298585032036" lon="8.279034105382289"><ele>273.5714285714286</ele><time>2026-04-10T11:38:02.002Z</time></trkpt><trkpt lat="45.0453229485443" lon="8.279125316431095"><ele>274.0</ele><time>2026-04-10T11:38:03.002Z</time></trkpt><trkpt lat="45.045338506975526" lon="8.279216642308977"><ele>274.0</ele><time>2026-04-10T11:38:04.002Z</time></trkpt><trkpt lat="45.045345214782415" lon="8.279306548499093"><ele>274.0</ele><time>2026-04-10T11:38:05.002Z</time></trkpt><trkpt lat="45.045334899813" lon="8.27947746587636"><ele>274.0</ele><time>2026-04-10T11:38:07.002Z</time></trkpt><trkpt lat="45.04528214498476" lon="8.279632525576359"><ele>274.0</ele><time>2026-04-10T11:38:09.002Z</time></trkpt><trkpt lat="45.04520511056885" lon="8.279763350032795"><ele>274.0</ele><time>2026-04-10T11:38:11.002Z</time></trkpt><trkpt lat="45.045122044997335" lon="8.279879723544662"><ele>275.59999999999997</ele><time>2026-04-10T11:38:13.002Z</time></trkpt><trkpt lat="45.045050929433096" lon="8.280006563151321"><ele>277.2</ele><time>2026-04-10T11:38:15.003Z</time></trkpt><trkpt lat="45.04498210244484" lon="8.280118570817113"><ele>278.79999999999995</ele><time>2026-04-10T11:38:17.003Z</time></trkpt><trkpt lat="45.04491547014381" lon="8.280243125194723"><ele>280.4</ele><time>2026-04-10T11:38:19.003Z</time></trkpt><trkpt lat="45.04483786648465" lon="8.280348977723882"><ele>282.0</ele><time>2026-04-10T11:38:21.003Z</time></trkpt><trkpt lat="45.0447814404033" lon="8.280457622290728"><ele>282.0</ele><time>2026-04-10T11:38:23.003Z</time></trkpt><trkpt lat="45.04470485204924" lon="8.280560169063843"><ele>282.0</ele><time>2026-04-10T11:38:25.003Z</time></trkpt><trkpt lat="45.04463842793589" lon="8.280660842700883"><ele>282.0</ele><time>2026-04-10T11:38:27.003Z</time></trkpt><trkpt lat="45.04458749808048" lon="8.280771778625724"><ele>282.0</ele><time>2026-04-10T11:38:29.003Z</time></trkpt><trkpt lat="45.044536642236345" lon="8.280895345990148"><ele>282.0</ele><time>2026-04-10T11:38:31.003Z</time></trkpt><trkpt lat="45.04449856559785" lon="8.281020859765494"><ele>281.6</ele><time>2026-04-10T11:38:33.003Z</time></trkpt><trkpt lat="45.04446808116682" lon="8.281140907489997"><ele>281.2</ele><time>2026-04-10T11:38:35.003Z</time></trkpt><trkpt lat="45.044459437995904" lon="8.281281336058377"><ele>280.8</ele><time>2026-04-10T11:38:37.003Z</time></trkpt><trkpt lat="45.04446082956527" lon="8.281416162171658"><ele>280.4</ele><time>2026-04-10T11:38:39.003Z</time></trkpt><trkpt lat="45.044475081013765" lon="8.281564232010506"><ele>280.0</ele><time>2026-04-10T11:38:41.003Z</time></trkpt><trkpt lat="45.044493629401835" lon="8.281714452019234"><ele>280.0</ele><time>2026-04-10T11:38:42.999Z</time></trkpt><trkpt lat="45.0445140406325" lon="8.281879442802184"><ele>280.0</ele><time>2026-04-10T11:38:44.999Z</time></trkpt><trkpt lat="45.0445510542259" lon="8.282045231088622"><ele>280.0</ele><time>2026-04-10T11:38:46.999Z</time></trkpt><trkpt lat="45.04457175572251" lon="8.282218896875108"><ele>280.0</ele><time>2026-04-10T11:38:48.999Z</time></trkpt><trkpt lat="45.0445638401385" lon="8.282395621814295"><ele>278.8</ele><time>2026-04-10T11:38:50.999Z</time></trkpt><trkpt lat="45.044572121989574" lon="8.282576412163095"><ele>277.6</ele><time>2026-04-10T11:38:52.999Z</time></trkpt><trkpt lat="45.0445640804232" lon="8.282752401878868"><ele>276.4</ele><time>2026-04-10T11:38:54.999Z</time></trkpt><trkpt lat="45.044539741981865" lon="8.282921078325588"><ele>275.2</ele><time>2026-04-10T11:38:56.999Z</time></trkpt><trkpt lat="45.044532271026924" lon="8.2830096334082"><ele>274.0</ele><time>2026-04-10T11:38:57.999Z</time></trkpt><trkpt lat="45.0445393473328" lon="8.283102300926844"><ele>274.0</ele><time>2026-04-10T11:38:59Z</time></trkpt><trkpt lat="45.04452288490373" lon="8.283279854775106"><ele>274.0</ele><time>2026-04-10T11:39:01Z</time></trkpt><trkpt lat="45.04451387049861" lon="8.28345634403994"><ele>274.0</ele><time>2026-04-10T11:39:03Z</time></trkpt><trkpt lat="45.04451312973895" lon="8.283547153304726"><ele>274.0</ele><time>2026-04-10T11:39:04Z</time></trkpt><trkpt lat="45.0445132994895" lon="8.28363868779408"><ele>274.0</ele><time>2026-04-10T11:39:05Z</time></trkpt><trkpt lat="45.04451239836412" lon="8.283729503211958"><ele>274.0</ele><time>2026-04-10T11:39:06Z</time></trkpt><trkpt lat="45.04451574735559" lon="8.283824367621408"><ele>274.00000000000006</ele><time>2026-04-10T11:39:07Z</time></trkpt><trkpt lat="45.04451287622299" lon="8.2839159081806"><ele>274.0</ele><time>2026-04-10T11:39:08Z</time></trkpt><trkpt lat="45.04450627011004" lon="8.28400664446802"><ele>274.0</ele><time>2026-04-10T11:39:09Z</time></trkpt><trkpt lat="45.04450408845047" lon="8.284098884795478"><ele>274.0</ele><time>2026-04-10T11:39:10Z</time></trkpt><trkpt lat="45.044509608994204" lon="8.284192591895179"><ele>274.0</ele><time>2026-04-10T11:39:11Z</time></trkpt><trkpt lat="45.04450977602651" lon="8.284285360224638"><ele>274.00000000000006</ele><time>2026-04-10T11:39:12Z</time></trkpt><trkpt lat="45.04450741522563" lon="8.284381411326187"><ele>274.0</ele><time>2026-04-10T11:39:13Z</time></trkpt><trkpt lat="45.04450694210978" lon="8.28447782132735"><ele>274.42857142857144</ele><time>2026-04-10T11:39:14Z</time></trkpt><trkpt lat="45.044505447013556" lon="8.284571848375608"><ele>274.8571428571429</ele><time>2026-04-10T11:39:15Z</time></trkpt><trkpt lat="45.04450730822698" lon="8.284668622173456"><ele>275.2857142857143</ele><time>2026-04-10T11:39:16Z</time></trkpt><trkpt lat="45.044512881189576" lon="8.284766132127187"><ele>275.7142857142857</ele><time>2026-04-10T11:39:17Z</time></trkpt><trkpt lat="45.04451547507693" lon="8.28486243611753"><ele>276.1428571428571</ele><time>2026-04-10T11:39:18Z</time></trkpt><trkpt lat="45.044507334970675" lon="8.284961886780774"><ele>276.57142857142856</ele><time>2026-04-10T11:39:19.001Z</time></trkpt><trkpt lat="45.044510918356416" lon="8.285060875465314"><ele>277.0</ele><time>2026-04-10T11:39:20.001Z</time></trkpt><trkpt lat="45.04451322672773" lon="8.285162759515087"><ele>277.1428571428571</ele><time>2026-04-10T11:39:21.001Z</time></trkpt><trkpt lat="45.04451119386129" lon="8.285265624833883"><ele>277.2857142857143</ele><time>2026-04-10T11:39:22.001Z</time></trkpt><trkpt lat="45.04451374879181" lon="8.285365611096896"><ele>277.42857142857144</ele><time>2026-04-10T11:39:23.001Z</time></trkpt><trkpt lat="45.04451466219792" lon="8.285464774072821"><ele>277.57142857142856</ele><time>2026-04-10T11:39:24.001Z</time></trkpt><trkpt lat="45.044522257171685" lon="8.285564977473905"><ele>277.7142857142857</ele><time>2026-04-10T11:39:25.001Z</time></trkpt><trkpt lat="45.04451612102886" lon="8.285663827449493"><ele>277.85714285714283</ele><time>2026-04-10T11:39:26.001Z</time></trkpt><trkpt lat="45.04451239639451" lon="8.285756816922834"><ele>278.0</ele><time>2026-04-10T11:39:27.001Z</time></trkpt><trkpt lat="45.04451586839271" lon="8.285854081027498"><ele>278.1428571428571</ele><time>2026-04-10T11:39:28.001Z</time></trkpt><trkpt lat="45.04451454645241" lon="8.28594952118698"><ele>278.2857142857143</ele><time>2026-04-10T11:39:29.001Z</time></trkpt><trkpt lat="45.04450918781398" lon="8.286043632319323"><ele>278.42857142857144</ele><time>2026-04-10T11:39:30.001Z</time></trkpt><trkpt lat="45.04451198583901" lon="8.286138834280571"><ele>278.57142857142856</ele><time>2026-04-10T11:39:31.001Z</time></trkpt><trkpt lat="45.044513480773425" lon="8.286232086340762"><ele>278.7142857142857</ele><time>2026-04-10T11:39:32.001Z</time></trkpt><trkpt lat="45.044513865914226" lon="8.286329688907534"><ele>278.85714285714283</ele><time>2026-04-10T11:39:33.001Z</time></trkpt><trkpt lat="45.044526997035376" lon="8.28642284396831"><ele>279.0</ele><time>2026-04-10T11:39:34.001Z</time></trkpt><trkpt lat="45.04454035475634" lon="8.286521379048544"><ele>279.6666666666667</ele><time>2026-04-10T11:39:35.001Z</time></trkpt><trkpt lat="45.04455919498961" lon="8.28662112175007"><ele>280.3333333333333</ele><time>2026-04-10T11:39:36.001Z</time></trkpt><trkpt lat="45.044581588218186" lon="8.286723764887846"><ele>281.0</ele><time>2026-04-10T11:39:37.001Z</time></trkpt><trkpt lat="45.04461029219773" lon="8.286822105142384"><ele>281.66666666666663</ele><time>2026-04-10T11:39:38.001Z</time></trkpt><trkpt lat="45.04464275973347" lon="8.286918657706103"><ele>282.3333333333333</ele><time>2026-04-10T11:39:39.001Z</time></trkpt><trkpt lat="45.04468459592378" lon="8.28700729213873"><ele>283.0</ele><time>2026-04-10T11:39:40.001Z</time></trkpt><trkpt lat="45.04471777980825" lon="8.287106827814503"><ele>283.0</ele><time>2026-04-10T11:39:41.001Z</time></trkpt><trkpt lat="45.04474833850899" lon="8.287206753192962"><ele>283.0</ele><time>2026-04-10T11:39:42.001Z</time></trkpt><trkpt lat="45.04477695903995" lon="8.287308813647439"><ele>283.0</ele><time>2026-04-10T11:39:43.001Z</time></trkpt><trkpt lat="45.044814765277486" lon="8.287398091981723"><ele>283.0</ele><time>2026-04-10T11:39:44.001Z</time></trkpt><trkpt lat="45.04485993477519" lon="8.287492149968216"><ele>283.0</ele><time>2026-04-10T11:39:45.001Z</time></trkpt><trkpt lat="45.044884266617345" lon="8.287593374541752"><ele>283.0</ele><time>2026-04-10T11:39:46.001Z</time></trkpt><trkpt lat="45.04491029484975" lon="8.28769823879294"><ele>284.0</ele><time>2026-04-10T11:39:47.001Z</time></trkpt><trkpt lat="45.04493604002942" lon="8.28780834129666"><ele>285.0</ele><time>2026-04-10T11:39:48.002Z</time></trkpt><trkpt lat="45.04494791172796" lon="8.287919267155283"><ele>286.0</ele><time>2026-04-10T11:39:49.002Z</time></trkpt><trkpt lat="45.044946388573116" lon="8.288033286185644"><ele>287.0</ele><time>2026-04-10T11:39:50.002Z</time></trkpt><trkpt lat="45.04494487029579" lon="8.288147804975145"><ele>288.0</ele><time>2026-04-10T11:39:51.002Z</time></trkpt><trkpt lat="45.0449437030718" lon="8.288266365033506"><ele>289.0</ele><time>2026-04-10T11:39:52.002Z</time></trkpt><trkpt lat="45.04493167467735" lon="8.288378192756866"><ele>286.8333333333333</ele><time>2026-04-10T11:39:53.002Z</time></trkpt><trkpt lat="45.04492005088607" lon="8.288493731552974"><ele>284.66666666666663</ele><time>2026-04-10T11:39:54.002Z</time></trkpt><trkpt lat="45.044908341849776" lon="8.28860808286182"><ele>282.5</ele><time>2026-04-10T11:39:55.002Z</time></trkpt><trkpt lat="45.04489717796362" lon="8.288721765832294"><ele>280.3333333333333</ele><time>2026-04-10T11:39:56.002Z</time></trkpt><trkpt lat="45.04487548851568" lon="8.288826785178118"><ele>278.1666666666667</ele><time>2026-04-10T11:39:57.002Z</time></trkpt><trkpt lat="45.04485742340478" lon="8.28892713539173"><ele>276.0</ele><time>2026-04-10T11:39:58.002Z</time></trkpt><trkpt lat="45.04484209763836" lon="8.289026165178267"><ele>274.0</ele><time>2026-04-10T11:39:59.002Z</time></trkpt><trkpt lat="45.04482788577686" lon="8.28912230486785"><ele>272.0</ele><time>2026-04-10T11:40:00.002Z</time></trkpt><trkpt lat="45.04480820125944" lon="8.28921495695126"><ele>270.0</ele><time>2026-04-10T11:40:01.002Z</time></trkpt><trkpt lat="45.04477082993929" lon="8.28938393414472"><ele>268.0</ele><time>2026-04-10T11:40:03.002Z</time></trkpt><trkpt lat="45.04474239347627" lon="8.289552570539929"><ele>266.0</ele><time>2026-04-10T11:40:05.002Z</time></trkpt><trkpt lat="45.044705839198315" lon="8.289718419159332"><ele>266.75</ele><time>2026-04-10T11:40:07.002Z</time></trkpt><trkpt lat="45.044677144431816" lon="8.289884777755635"><ele>267.5</ele><time>2026-04-10T11:40:09.002Z</time></trkpt><trkpt lat="45.0446460562835" lon="8.290051129330962"><ele>268.25</ele><time>2026-04-10T11:40:11.002Z</time></trkpt><trkpt lat="45.0446203325959" lon="8.29021454990605"><ele>269.0</ele><time>2026-04-10T11:40:13.002Z</time></trkpt><trkpt lat="45.0446019205383" lon="8.290361100812513"><ele>269.0</ele><time>2026-04-10T11:40:15.002Z</time></trkpt><trkpt lat="45.044581754675825" lon="8.290489223671669"><ele>269.0</ele><time>2026-04-10T11:40:17.002Z</time></trkpt><trkpt lat="45.04457394943608" lon="8.290613133308218"><ele>269.0</ele><time>2026-04-10T11:40:19.002Z</time></trkpt><trkpt lat="45.04459675052716" lon="8.290746402877781"><ele>269.0</ele><time>2026-04-10T11:40:21.003Z</time></trkpt><trkpt lat="45.04460020631459" lon="8.290884460137386"><ele>269.0</ele><time>2026-04-10T11:40:23.003Z</time></trkpt><trkpt lat="45.04460686350317" lon="8.291035317284816"><ele>269.75</ele><time>2026-04-10T11:40:25.003Z</time></trkpt><trkpt lat="45.044635110968464" lon="8.29119106310462"><ele>270.5</ele><time>2026-04-10T11:40:27.003Z</time></trkpt><trkpt lat="45.0446765408724" lon="8.291345820811324"><ele>271.25</ele><time>2026-04-10T11:40:29.003Z</time></trkpt><trkpt lat="45.044714834328495" lon="8.291507006404192"><ele>272.0</ele><time>2026-04-10T11:40:31.003Z</time></trkpt><trkpt lat="45.044764628092544" lon="8.291668025371042"><ele>272.0</ele><time>2026-04-10T11:40:33.003Z</time></trkpt><trkpt lat="45.04480725276194" lon="8.291828547737037"><ele>272.0</ele><time>2026-04-10T11:40:35.003Z</time></trkpt><trkpt lat="45.044853090039624" lon="8.291988884730978"><ele>272.0</ele><time>2026-04-10T11:40:37.003Z</time></trkpt><trkpt lat="45.04487725928593" lon="8.292071205198427"><ele>272.0</ele><time>2026-04-10T11:40:38.003Z</time></trkpt><trkpt lat="45.04490324109424" lon="8.29215482159329"><ele>272.0</ele><time>2026-04-10T11:40:39.003Z</time></trkpt><trkpt lat="45.04492681177761" lon="8.292238472920632"><ele>272.0</ele><time>2026-04-10T11:40:40.003Z</time></trkpt><trkpt lat="45.044946794406755" lon="8.292323378170932"><ele>271.25</ele><time>2026-04-10T11:40:41.003Z</time></trkpt><trkpt lat="45.044996614977535" lon="8.292487194663442"><ele>270.5</ele><time>2026-04-10T11:40:43.003Z</time></trkpt><trkpt lat="45.04504333944704" lon="8.292650980223884"><ele>269.75</ele><time>2026-04-10T11:40:45.003Z</time></trkpt><trkpt lat="45.04508872698337" lon="8.292804484748647"><ele>269.0</ele><time>2026-04-10T11:40:47.003Z</time></trkpt><trkpt lat="45.04513356658885" lon="8.292946707929143"><ele>268.2</ele><time>2026-04-10T11:40:48.998Z</time></trkpt><trkpt lat="45.04517948193108" lon="8.29309327480047"><ele>267.4</ele><time>2026-04-10T11:40:50.999Z</time></trkpt><trkpt lat="45.04522692481781" lon="8.293244637068465"><ele>266.6</ele><time>2026-04-10T11:40:52.999Z</time></trkpt><trkpt lat="45.04527014867949" lon="8.293395561356428"><ele>265.8</ele><time>2026-04-10T11:40:54.999Z</time></trkpt><trkpt lat="45.04530830457969" lon="8.293529174282359"><ele>265.0</ele><time>2026-04-10T11:40:56.999Z</time></trkpt><trkpt lat="45.04533889209988" lon="8.293660210841027"><ele>265.0</ele><time>2026-04-10T11:40:58.999Z</time></trkpt><trkpt lat="45.045372755288966" lon="8.293791553695034"><ele>265.0</ele><time>2026-04-10T11:41:00.999Z</time></trkpt><trkpt lat="45.045406188364545" lon="8.293914442453012"><ele>265.0</ele><time>2026-04-10T11:41:02.999Z</time></trkpt><trkpt lat="45.045434701540024" lon="8.294031097316832"><ele>265.0</ele><time>2026-04-10T11:41:04.999Z</time></trkpt><trkpt lat="45.04546968914574" lon="8.294151832456295"><ele>265.0</ele><time>2026-04-10T11:41:07Z</time></trkpt><trkpt lat="45.045499691510095" lon="8.294286528739226"><ele>264.8</ele><time>2026-04-10T11:41:09Z</time></trkpt><trkpt lat="45.04552885480136" lon="8.294410760657838"><ele>264.6</ele><time>2026-04-10T11:41:11Z</time></trkpt><trkpt lat="45.04555608620826" lon="8.294540180311792"><ele>264.4</ele><time>2026-04-10T11:41:13Z</time></trkpt><trkpt lat="45.04558473669595" lon="8.29467265868551"><ele>264.2</ele><time>2026-04-10T11:41:15Z</time></trkpt><trkpt lat="45.045616698218886" lon="8.294812307771931"><ele>264.0</ele><time>2026-04-10T11:41:17Z</time></trkpt><trkpt lat="45.0456402135109" lon="8.294952813798789"><ele>263.59999999999997</ele><time>2026-04-10T11:41:19Z</time></trkpt><trkpt lat="45.0456677950551" lon="8.295082461698659"><ele>263.2</ele><time>2026-04-10T11:41:21Z</time></trkpt><trkpt lat="45.04569733587972" lon="8.29519798529759"><ele>262.79999999999995</ele><time>2026-04-10T11:41:23Z</time></trkpt><trkpt lat="45.04573640867639" lon="8.295317674811514"><ele>262.4</ele><time>2026-04-10T11:41:25Z</time></trkpt><trkpt lat="45.04576889978132" lon="8.295446627144615"><ele>262.0</ele><time>2026-04-10T11:41:27.001Z</time></trkpt><trkpt lat="45.04579685771048" lon="8.29555866910563"><ele>263.66666666666663</ele><time>2026-04-10T11:41:29.001Z</time></trkpt><trkpt lat="45.04582753164199" lon="8.2956745957504"><ele>265.3333333333333</ele><time>2026-04-10T11:41:31.001Z</time></trkpt><trkpt lat="45.045854122447665" lon="8.295789907933237"><ele>267.0</ele><time>2026-04-10T11:41:33.001Z</time></trkpt><trkpt lat="45.04586588790473" lon="8.295910825002062"><ele>268.6666666666667</ele><time>2026-04-10T11:41:35.001Z</time></trkpt><trkpt lat="45.04590563665012" lon="8.296022188374675"><ele>270.33333333333337</ele><time>2026-04-10T11:41:37.001Z</time></trkpt><trkpt lat="45.04593340165518" lon="8.296144666533966"><ele>272.0</ele><time>2026-04-10T11:41:39.001Z</time></trkpt><trkpt lat="45.04596352107774" lon="8.296268003636657"><ele>272.0</ele><time>2026-04-10T11:41:41.001Z</time></trkpt><trkpt lat="45.045995734368816" lon="8.296401564847727"><ele>272.0</ele><time>2026-04-10T11:41:43.001Z</time></trkpt><trkpt lat="45.046015705771985" lon="8.296539912722514"><ele>272.0</ele><time>2026-04-10T11:41:45.001Z</time></trkpt><trkpt lat="45.04604782299416" lon="8.296681556116582"><ele>272.0</ele><time>2026-04-10T11:41:47.001Z</time></trkpt><trkpt lat="45.04608635741405" lon="8.296843803650907"><ele>272.0</ele><time>2026-04-10T11:41:49.001Z</time></trkpt><trkpt lat="45.04610364505425" lon="8.296933057302551"><ele>272.83333333333337</ele><time>2026-04-10T11:41:50.001Z</time></trkpt><trkpt lat="45.04612045506266" lon="8.297025793473175"><ele>273.6666666666667</ele><time>2026-04-10T11:41:51.001Z</time></trkpt><trkpt lat="45.046165959621966" lon="8.297194546778803"><ele>274.5</ele><time>2026-04-10T11:41:53.001Z</time></trkpt><trkpt lat="45.046188431399514" lon="8.297281204501061"><ele>275.3333333333333</ele><time>2026-04-10T11:41:54.002Z</time></trkpt><trkpt lat="45.046209521760176" lon="8.29736983181544"><ele>276.16666666666663</ele><time>2026-04-10T11:41:55.002Z</time></trkpt><trkpt lat="45.04622847722462" lon="8.297455895256148"><ele>277.0</ele><time>2026-04-10T11:41:56.002Z</time></trkpt><trkpt lat="45.04624750510198" lon="8.297544158381754"><ele>277.7142857142857</ele><time>2026-04-10T11:41:57.002Z</time></trkpt><trkpt lat="45.046269428002844" lon="8.297632814610079"><ele>278.4285714285714</ele><time>2026-04-10T11:41:58.002Z</time></trkpt><trkpt lat="45.04629329652131" lon="8.297720531972464"><ele>279.1428571428571</ele><time>2026-04-10T11:41:59.002Z</time></trkpt><trkpt lat="45.046317161930105" lon="8.297809204904205"><ele>279.85714285714283</ele><time>2026-04-10T11:42:00.002Z</time></trkpt><trkpt lat="45.046338557623926" lon="8.297897304936313"><ele>280.57142857142856</ele><time>2026-04-10T11:42:01.002Z</time></trkpt><trkpt lat="45.04635910741849" lon="8.297984651110923"><ele>281.2857142857143</ele><time>2026-04-10T11:42:02.002Z</time></trkpt><trkpt lat="45.04638784748247" lon="8.29807405782133"><ele>282.0</ele><time>2026-04-10T11:42:03.002Z</time></trkpt><trkpt lat="45.04641203925909" lon="8.298159925194774"><ele>282.14285714285717</ele><time>2026-04-10T11:42:04.002Z</time></trkpt><trkpt lat="45.04643957034228" lon="8.298242930341269"><ele>282.2857142857143</ele><time>2026-04-10T11:42:05.002Z</time></trkpt><trkpt lat="45.04647114760073" lon="8.298326548308179"><ele>282.42857142857144</ele><time>2026-04-10T11:42:06.002Z</time></trkpt><trkpt lat="45.04649200619469" lon="8.298419434586762"><ele>282.57142857142856</ele><time>2026-04-10T11:42:07.002Z</time></trkpt><trkpt lat="45.046525558468424" lon="8.298500636280407"><ele>282.7142857142857</ele><time>2026-04-10T11:42:08.002Z</time></trkpt><trkpt lat="45.0465720816698" lon="8.298569456649712"><ele>282.8571428571429</ele><time>2026-04-10T11:42:09.002Z</time></trkpt><trkpt lat="45.0465997399743" lon="8.298651929762679"><ele>283.0</ele><time>2026-04-10T11:42:10.002Z</time></trkpt><trkpt lat="45.04663587141173" lon="8.298733526383675"><ele>280.7142857142857</ele><time>2026-04-10T11:42:11.002Z</time></trkpt><trkpt lat="45.046672678567965" lon="8.29881011647927"><ele>278.42857142857144</ele><time>2026-04-10T11:42:12.002Z</time></trkpt><trkpt lat="45.04671448933849" lon="8.298883204264245"><ele>276.14285714285717</ele><time>2026-04-10T11:42:13.002Z</time></trkpt><trkpt lat="45.04675701245312" lon="8.298959246652212"><ele>273.8571428571429</ele><time>2026-04-10T11:42:14.002Z</time></trkpt><trkpt lat="45.04679252805047" lon="8.2990401405619"><ele>271.57142857142856</ele><time>2026-04-10T11:42:15.002Z</time></trkpt><trkpt lat="45.04683151573838" lon="8.299121112940282"><ele>269.28571428571433</ele><time>2026-04-10T11:42:16.002Z</time></trkpt><trkpt lat="45.046867013557076" lon="8.299204983832661"><ele>267.0</ele><time>2026-04-10T11:42:17.002Z</time></trkpt><trkpt lat="45.04691330108532" lon="8.29927712323813"><ele>267.00000000000006</ele><time>2026-04-10T11:42:18.002Z</time></trkpt><trkpt lat="45.046952724865264" lon="8.299363037441372"><ele>267.0</ele><time>2026-04-10T11:42:19.002Z</time></trkpt><trkpt lat="45.04699584673438" lon="8.299439185476535"><ele>267.0</ele><time>2026-04-10T11:42:20.002Z</time></trkpt><trkpt lat="45.04703739808368" lon="8.299520313023004"><ele>267.0</ele><time>2026-04-10T11:42:21.002Z</time></trkpt><trkpt lat="45.04707634532887" lon="8.299603326332624"><ele>267.0</ele><time>2026-04-10T11:42:22.002Z</time></trkpt><trkpt lat="45.0471192178968" lon="8.299683905488278"><ele>267.00000000000006</ele><time>2026-04-10T11:42:23.002Z</time></trkpt><trkpt lat="45.04716288401286" lon="8.299765732706138"><ele>267.0</ele><time>2026-04-10T11:42:24.002Z</time></trkpt><trkpt lat="45.047200511968434" lon="8.299851590686544"><ele>266.14285714285717</ele><time>2026-04-10T11:42:25.002Z</time></trkpt><trkpt lat="45.047237709728684" lon="8.29994231712635"><ele>265.2857142857143</ele><time>2026-04-10T11:42:26.002Z</time></trkpt><trkpt lat="45.04726873228671" lon="8.300037440448827"><ele>264.42857142857144</ele><time>2026-04-10T11:42:27.003Z</time></trkpt><trkpt lat="45.04729194049867" lon="8.300137782527832"><ele>263.57142857142856</ele><time>2026-04-10T11:42:28.003Z</time></trkpt><trkpt lat="45.04730879905515" lon="8.300241400635485"><ele>262.7142857142857</ele><time>2026-04-10T11:42:29.003Z</time></trkpt><trkpt lat="45.04731799382033" lon="8.300347543629211"><ele>261.8571428571429</ele><time>2026-04-10T11:42:30.003Z</time></trkpt><trkpt lat="45.04732692932061" lon="8.30045320701323"><ele>261.0</ele><time>2026-04-10T11:42:31.003Z</time></trkpt><trkpt lat="45.04733010906003" lon="8.300556446016465"><ele>260.5</ele><time>2026-04-10T11:42:32.003Z</time></trkpt><trkpt lat="45.047321389190245" lon="8.30065852618614"><ele>260.0</ele><time>2026-04-10T11:42:33.003Z</time></trkpt><trkpt lat="45.04731266844236" lon="8.300758338802746"><ele>259.5</ele><time>2026-04-10T11:42:34.003Z</time></trkpt><trkpt lat="45.047304650346085" lon="8.3008546107906"><ele>259.0</ele><time>2026-04-10T11:42:35.003Z</time></trkpt><trkpt lat="45.047287622079175" lon="8.300947839786788"><ele>258.5</ele><time>2026-04-10T11:42:36.003Z</time></trkpt><trkpt lat="45.04726876315158" lon="8.30103480711773"><ele>258.0</ele><time>2026-04-10T11:42:37.003Z</time></trkpt><trkpt lat="45.04723409864381" lon="8.301208431624087"><ele>258.0</ele><time>2026-04-10T11:42:39.003Z</time></trkpt><trkpt lat="45.04720648341741" lon="8.301380178356958"><ele>258.0</ele><time>2026-04-10T11:42:41.003Z</time></trkpt><trkpt lat="45.047195316591264" lon="8.301468807069144"><ele>258.0</ele><time>2026-04-10T11:42:42.003Z</time></trkpt><trkpt lat="45.04716732786251" lon="8.301638949937278"><ele>258.0</ele><time>2026-04-10T11:42:44.003Z</time></trkpt><trkpt lat="45.047136061798376" lon="8.301804779601982"><ele>258.0</ele><time>2026-04-10T11:42:46.003Z</time></trkpt><trkpt lat="45.04709994797653" lon="8.301963818131464"><ele>258.0</ele><time>2026-04-10T11:42:48.003Z</time></trkpt><trkpt lat="45.04708520436873" lon="8.3020508529321"><ele>258.0</ele><time>2026-04-10T11:42:49.003Z</time></trkpt><trkpt lat="45.04705601261579" lon="8.30221870122484"><ele>258.0</ele><time>2026-04-10T11:42:51.003Z</time></trkpt><trkpt lat="45.04703429955254" lon="8.302308392550454"><ele>258.0</ele><time>2026-04-10T11:42:52.003Z</time></trkpt><trkpt lat="45.04700061713548" lon="8.302477278967915"><ele>258.0</ele><time>2026-04-10T11:42:53.998Z</time></trkpt><trkpt lat="45.04697218095429" lon="8.302648163652197"><ele>258.0</ele><time>2026-04-10T11:42:55.999Z</time></trkpt><trkpt lat="45.04693156661045" lon="8.302818307979937"><ele>258.0</ele><time>2026-04-10T11:42:57.999Z</time></trkpt><trkpt lat="45.04689392282493" lon="8.30298505787719"><ele>258.0</ele><time>2026-04-10T11:42:59.999Z</time></trkpt><trkpt lat="45.046848876511895" lon="8.3031458463307"><ele>258.0</ele><time>2026-04-10T11:43:01.999Z</time></trkpt><trkpt lat="45.04679518317099" lon="8.303302225850752"><ele>258.75</ele><time>2026-04-10T11:43:03.999Z</time></trkpt><trkpt lat="45.04673270892052" lon="8.303453412978703"><ele>259.5</ele><time>2026-04-10T11:43:05.999Z</time></trkpt><trkpt lat="45.04667052287254" lon="8.303601273918764"><ele>260.25</ele><time>2026-04-10T11:43:07.999Z</time></trkpt><trkpt lat="45.04660983938699" lon="8.303750955824382"><ele>261.0</ele><time>2026-04-10T11:43:09.999Z</time></trkpt><trkpt lat="45.04654828626959" lon="8.303901436559546"><ele>262.5</ele><time>2026-04-10T11:43:12Z</time></trkpt><trkpt lat="45.046483223081275" lon="8.304041541637156"><ele>264.0</ele><time>2026-04-10T11:43:14Z</time></trkpt><trkpt lat="45.04641550540423" lon="8.304187011905892"><ele>265.5</ele><time>2026-04-10T11:43:16Z</time></trkpt><trkpt lat="45.04635350773328" lon="8.30434228584719"><ele>267.0</ele><time>2026-04-10T11:43:18Z</time></trkpt><trkpt lat="45.046290169920056" lon="8.304493159037513"><ele>267.0</ele><time>2026-04-10T11:43:20Z</time></trkpt><trkpt lat="45.0462291027083" lon="8.30463599098297"><ele>267.0</ele><time>2026-04-10T11:43:22Z</time></trkpt><trkpt lat="45.04616439033124" lon="8.304772472596154"><ele>267.0</ele><time>2026-04-10T11:43:24Z</time></trkpt><trkpt lat="45.04610758431325" lon="8.304906356966018"><ele>267.0</ele><time>2026-04-10T11:43:26Z</time></trkpt><trkpt lat="45.046059292558205" lon="8.305017800136751"><ele>267.0</ele><time>2026-04-10T11:43:28Z</time></trkpt><trkpt lat="45.04602231695465" lon="8.305115102436858"><ele>267.8571428571429</ele><time>2026-04-10T11:43:30.001Z</time></trkpt><trkpt lat="45.04598393839621" lon="8.305204439223536"><ele>268.7142857142857</ele><time>2026-04-10T11:43:32.001Z</time></trkpt><trkpt lat="45.04594740030613" lon="8.305295682681448"><ele>269.57142857142856</ele><time>2026-04-10T11:43:34.001Z</time></trkpt><trkpt lat="45.04589914711386" lon="8.30538145211727"><ele>270.42857142857144</ele><time>2026-04-10T11:43:36.001Z</time></trkpt><trkpt lat="45.045860116369404" lon="8.305468286743427"><ele>271.2857142857143</ele><time>2026-04-10T11:43:38.001Z</time></trkpt><trkpt lat="45.04583311913418" lon="8.305555444349645"><ele>272.14285714285717</ele><time>2026-04-10T11:43:40.001Z</time></trkpt><trkpt lat="45.045803181866184" lon="8.305647251294673"><ele>273.0</ele><time>2026-04-10T11:43:42.001Z</time></trkpt><trkpt lat="45.04578251663378" lon="8.305740135635956"><ele>274.6666666666667</ele><time>2026-04-10T11:43:44.001Z</time></trkpt><trkpt lat="45.04575001179008" lon="8.305854198478517"><ele>276.3333333333333</ele><time>2026-04-10T11:43:46.001Z</time></trkpt><trkpt lat="45.04570680857662" lon="8.305954131024265"><ele>278.0</ele><time>2026-04-10T11:43:48.001Z</time></trkpt><trkpt lat="45.045670254042896" lon="8.306044739971437"><ele>279.66666666666663</ele><time>2026-04-10T11:43:50.001Z</time></trkpt><trkpt lat="45.04564540874097" lon="8.306135955040519"><ele>281.3333333333333</ele><time>2026-04-10T11:43:52.001Z</time></trkpt><trkpt lat="45.04561221414306" lon="8.306236319872779"><ele>283.0</ele><time>2026-04-10T11:43:55.001Z</time></trkpt><trkpt lat="45.0456048279278" lon="8.306345467335197"><ele>283.4</ele><time>2026-04-10T11:43:57.001Z</time></trkpt><trkpt lat="45.04558978153864" lon="8.30646886454874"><ele>283.8</ele><time>2026-04-10T11:43:59.002Z</time></trkpt><trkpt lat="45.045572747667464" lon="8.306590914436939"><ele>284.2</ele><time>2026-04-10T11:44:01.002Z</time></trkpt><trkpt lat="45.04555064725718" lon="8.306722054588484"><ele>284.6</ele><time>2026-04-10T11:44:03.002Z</time></trkpt><trkpt lat="45.04552679035423" lon="8.306864067813382"><ele>285.0</ele><time>2026-04-10T11:44:05.002Z</time></trkpt><trkpt lat="45.04550938635823" lon="8.307015912416654"><ele>285.0</ele><time>2026-04-10T11:44:07.002Z</time></trkpt><trkpt lat="45.04548679272127" lon="8.307171896397385"><ele>285.0</ele><time>2026-04-10T11:44:09.002Z</time></trkpt><trkpt lat="45.04545068238571" lon="8.307329086061944"><ele>285.0</ele><time>2026-04-10T11:44:11.002Z</time></trkpt><trkpt lat="45.045425003745905" lon="8.307493352813825"><ele>285.0</ele><time>2026-04-10T11:44:13.002Z</time></trkpt><trkpt lat="45.04539921520139" lon="8.307665053560857"><ele>284.4</ele><time>2026-04-10T11:44:15.002Z</time></trkpt><trkpt lat="45.04537119872912" lon="8.307832191461566"><ele>283.8</ele><time>2026-04-10T11:44:17.002Z</time></trkpt><trkpt lat="45.045348104048266" lon="8.307999820309277"><ele>283.2</ele><time>2026-04-10T11:44:19.002Z</time></trkpt><trkpt lat="45.04531140900533" lon="8.308075026337198"><ele>282.6</ele><time>2026-04-10T11:44:20.002Z</time></trkpt><trkpt lat="45.04528773865131" lon="8.308235833218784"><ele>282.0</ele><time>2026-04-10T11:44:22.002Z</time></trkpt><trkpt lat="45.045263754426635" lon="8.308397437008097"><ele>281.0</ele><time>2026-04-10T11:44:24.002Z</time></trkpt><trkpt lat="45.0452632803447" lon="8.308488605092839"><ele>280.0</ele><time>2026-04-10T11:44:25.002Z</time></trkpt><trkpt lat="45.04523352813731" lon="8.308572523316403"><ele>279.0</ele><time>2026-04-10T11:44:26.002Z</time></trkpt><trkpt lat="45.04521032565637" lon="8.30873527321295"><ele>278.0</ele><time>2026-04-10T11:44:28.002Z</time></trkpt><trkpt lat="45.04515983691266" lon="8.308886031595806"><ele>277.0</ele><time>2026-04-10T11:44:30.003Z</time></trkpt><trkpt lat="45.04512258078933" lon="8.30896185201147"><ele>276.0</ele><time>2026-04-10T11:44:31.003Z</time></trkpt><trkpt lat="45.045055226264466" lon="8.309108139529792"><ele>274.8</ele><time>2026-04-10T11:44:33.003Z</time></trkpt><trkpt lat="45.045015997468006" lon="8.309180137364443"><ele>273.6</ele><time>2026-04-10T11:44:34.003Z</time></trkpt><trkpt lat="45.044949478251226" lon="8.309320113809555"><ele>272.4</ele><time>2026-04-10T11:44:36.003Z</time></trkpt><trkpt lat="45.04486596442049" lon="8.309446403518418"><ele>271.2</ele><time>2026-04-10T11:44:38.003Z</time></trkpt><trkpt lat="45.04477696959856" lon="8.30956544525738"><ele>270.0</ele><time>2026-04-10T11:44:40.003Z</time></trkpt><trkpt lat="45.04469557930567" lon="8.309684636563619"><ele>271.6</ele><time>2026-04-10T11:44:42.003Z</time></trkpt><trkpt lat="45.04462132875226" lon="8.309796812454945"><ele>273.2</ele><time>2026-04-10T11:44:44.003Z</time></trkpt><trkpt lat="45.04454977996369" lon="8.309898216002834"><ele>274.8</ele><time>2026-04-10T11:44:46.003Z</time></trkpt><trkpt lat="45.04448164383119" lon="8.309991443408542"><ele>276.4</ele><time>2026-04-10T11:44:48.003Z</time></trkpt><trkpt lat="45.04442916190228" lon="8.310080496642367"><ele>278.0</ele><time>2026-04-10T11:44:50.003Z</time></trkpt><trkpt lat="45.04437204713974" lon="8.310174122551132"><ele>278.0</ele><time>2026-04-10T11:44:52.003Z</time></trkpt><trkpt lat="45.044300527833485" lon="8.310270776196694"><ele>278.0</ele><time>2026-04-10T11:44:54.003Z</time></trkpt><trkpt lat="45.04423943105674" lon="8.310378462338832"><ele>278.0</ele><time>2026-04-10T11:44:56.003Z</time></trkpt><trkpt lat="45.04418485124862" lon="8.310500519812187"><ele>278.0</ele><time>2026-04-10T11:44:58.003Z</time></trkpt><trkpt lat="45.044130353311594" lon="8.310640329171743"><ele>278.0</ele><time>2026-04-10T11:44:59.998Z</time></trkpt><trkpt lat="45.04407859863989" lon="8.310783571332836"><ele>278.0</ele><time>2026-04-10T11:45:01.999Z</time></trkpt><trkpt lat="45.04404979849986" lon="8.310866379158243"><ele>278.0</ele><time>2026-04-10T11:45:02.999Z</time></trkpt><trkpt lat="45.04401686885155" lon="8.310948794693084"><ele>278.0</ele><time>2026-04-10T11:45:03.999Z</time></trkpt><trkpt lat="45.043966610735495" lon="8.311109844537523"><ele>278.0</ele><time>2026-04-10T11:45:05.999Z</time></trkpt><trkpt lat="45.04393321429159" lon="8.31119428231766"><ele>278.0</ele><time>2026-04-10T11:45:06.999Z</time></trkpt><trkpt lat="45.043881862446405" lon="8.311359947029763"><ele>277.0</ele><time>2026-04-10T11:45:08.999Z</time></trkpt><trkpt lat="45.043858088730666" lon="8.311443845874994"><ele>276.0</ele><time>2026-04-10T11:45:09.999Z</time></trkpt><trkpt lat="45.04382624440522" lon="8.311521140756918"><ele>275.0</ele><time>2026-04-10T11:45:10.999Z</time></trkpt><trkpt lat="45.04378802248699" lon="8.31159630700561"><ele>274.0</ele><time>2026-04-10T11:45:11.999Z</time></trkpt><trkpt lat="45.04375002166139" lon="8.311667804233661"><ele>273.0</ele><time>2026-04-10T11:45:12.999Z</time></trkpt><trkpt lat="45.04370909809565" lon="8.31174531457683"><ele>272.0</ele><time>2026-04-10T11:45:13.999Z</time></trkpt><trkpt lat="45.04366385000196" lon="8.311814229453349"><ele>271.0</ele><time>2026-04-10T11:45:14.999Z</time></trkpt><trkpt lat="45.04360966584398" lon="8.311869329217979"><ele>271.0</ele><time>2026-04-10T11:45:15.999Z</time></trkpt><trkpt lat="45.04355328528709" lon="8.311911629458812"><ele>271.0</ele><time>2026-04-10T11:45:16.999Z</time></trkpt><trkpt lat="45.0434930295827" lon="8.311939741887045"><ele>271.0</ele><time>2026-04-10T11:45:18Z</time></trkpt><trkpt lat="45.043430339979395" lon="8.311960428146534"><ele>271.0</ele><time>2026-04-10T11:45:19Z</time></trkpt><trkpt lat="45.04336749024386" lon="8.311973050735354"><ele>271.0</ele><time>2026-04-10T11:45:20Z</time></trkpt><trkpt lat="45.043257059391415" lon="8.311936074847194"><ele>271.0</ele><time>2026-04-10T11:45:22Z</time></trkpt><trkpt lat="45.04315851562224" lon="8.311862923957635"><ele>271.0</ele><time>2026-04-10T11:45:24Z</time></trkpt><trkpt lat="45.0431020124155" lon="8.311731318971887"><ele>271.0</ele><time>2026-04-10T11:45:26Z</time></trkpt><trkpt lat="45.043066148232775" lon="8.311603268855444"><ele>271.0</ele><time>2026-04-10T11:45:28Z</time></trkpt><trkpt lat="45.04303274751441" lon="8.311481469118945"><ele>271.0</ele><time>2026-04-10T11:45:30Z</time></trkpt><trkpt lat="45.04297465733892" lon="8.311330769318042"><ele>271.0</ele><time>2026-04-10T11:45:32Z</time></trkpt><trkpt lat="45.04289642721915" lon="8.311216380272766"><ele>271.0</ele><time>2026-04-10T11:45:34Z</time></trkpt><trkpt lat="45.042842577128084" lon="8.311156669267374"><ele>271.0</ele><time>2026-04-10T11:45:35Z</time></trkpt><trkpt lat="45.04278913107356" lon="8.31109580227638"><ele>271.0</ele><time>2026-04-10T11:45:36Z</time></trkpt><trkpt lat="45.04273673408255" lon="8.311044860412256"><ele>271.0</ele><time>2026-04-10T11:45:37Z</time></trkpt><trkpt lat="45.04268085613595" lon="8.310998204997253"><ele>271.0</ele><time>2026-04-10T11:45:38.001Z</time></trkpt><trkpt lat="45.042573313137176" lon="8.310913706929286"><ele>271.0</ele><time>2026-04-10T11:45:40.001Z</time></trkpt><trkpt lat="45.04248005061208" lon="8.310819731053426"><ele>270.8</ele><time>2026-04-10T11:45:42.001Z</time></trkpt><trkpt lat="45.04237817452764" lon="8.310735810471684"><ele>270.6</ele><time>2026-04-10T11:45:44.001Z</time></trkpt><trkpt lat="45.04228351748526" lon="8.310662688085666"><ele>270.4</ele><time>2026-04-10T11:45:46.001Z</time></trkpt><trkpt lat="45.04218470040188" lon="8.310614874451495"><ele>270.2</ele><time>2026-04-10T11:45:48.001Z</time></trkpt><trkpt lat="45.04209054124752" lon="8.310590935509648"><ele>270.0</ele><time>2026-04-10T11:45:50.001Z</time></trkpt><trkpt lat="45.04199495541349" lon="8.310603865691403"><ele>270.0</ele><time>2026-04-10T11:45:52.001Z</time></trkpt><trkpt lat="45.04190476649218" lon="8.31063418849132"><ele>270.0</ele><time>2026-04-10T11:45:54.001Z</time></trkpt><trkpt lat="45.04181901761012" lon="8.310676073209414"><ele>270.0</ele><time>2026-04-10T11:45:56.001Z</time></trkpt><trkpt lat="45.04173070476063" lon="8.310732193602304"><ele>270.0</ele><time>2026-04-10T11:45:58.001Z</time></trkpt><trkpt lat="45.04162395446061" lon="8.310786004922708"><ele>270.0</ele><time>2026-04-10T11:46:00.001Z</time></trkpt><trkpt lat="45.0415464231427" lon="8.310825413032244"><ele>270.0</ele><time>2026-04-10T11:46:02.001Z</time></trkpt><trkpt lat="45.041485057068904" lon="8.310768172225353"><ele>270.0</ele><time>2026-04-10T11:46:05.001Z</time></trkpt><trkpt lat="45.04154984412118" lon="8.310755199996393"><ele>270.0</ele><time>2026-04-10T11:46:11.002Z</time></trkpt><trkpt lat="45.041739597920795" lon="8.31108145333072"><ele>270.0</ele><time>2026-04-10T11:49:52.001Z</time></trkpt></trkseg><trkseg><trkpt lat="45.04168873295093" lon="8.311020274675062"><ele>270.0</ele><time>2026-04-10T13:09:00Z</time></trkpt><trkpt lat="45.04163977695492" lon="8.310962509417438"><ele>270.0</ele><time>2026-04-10T13:09:12Z</time></trkpt><trkpt lat="45.04157473342701" lon="8.310946694875112"><ele>270.0</ele><time>2026-04-10T13:09:18.998Z</time></trkpt><trkpt lat="45.041536570304764" lon="8.310874064142658"><ele>270.0</ele><time>2026-04-10T13:09:38.999Z</time></trkpt><trkpt lat="45.04146368135269" lon="8.310956675358346"><ele>270.0</ele><time>2026-04-10T13:09:44.999Z</time></trkpt><trkpt lat="45.04139313113394" lon="8.310957886705266"><ele>270.0</ele><time>2026-04-10T13:09:47.999Z</time></trkpt><trkpt lat="45.041317130588205" lon="8.310978391736183"><ele>270.0</ele><time>2026-04-10T13:09:50.999Z</time></trkpt><trkpt lat="45.04124382613049" lon="8.311003234178044"><ele>270.0</ele><time>2026-04-10T13:09:54.999Z</time></trkpt><trkpt lat="45.04117186468183" lon="8.311021158388026"><ele>270.0</ele><time>2026-04-10T13:09:56.999Z</time></trkpt><trkpt lat="45.04110701741151" lon="8.311008804721506"><ele>270.0</ele><time>2026-04-10T13:10:05Z</time></trkpt><trkpt lat="45.041040425971126" lon="8.310911516976947"><ele>270.0</ele><time>2026-04-10T13:10:16Z</time></trkpt><trkpt lat="45.040976342319105" lon="8.310932649451585"><ele>270.0</ele><time>2026-04-10T13:10:18Z</time></trkpt><trkpt lat="45.04091120975257" lon="8.310944395541334"><ele>270.0</ele><time>2026-04-10T13:10:20Z</time></trkpt><trkpt lat="45.040875994675154" lon="8.311056909800774"><ele>270.0</ele><time>2026-04-10T13:10:22Z</time></trkpt><trkpt lat="45.04084862690705" lon="8.311173052355322"><ele>270.0</ele><time>2026-04-10T13:10:24Z</time></trkpt><trkpt lat="45.04079192222946" lon="8.311312064861756"><ele>270.0</ele><time>2026-04-10T13:10:26Z</time></trkpt><trkpt lat="45.040749188738225" lon="8.311434474958034"><ele>270.0</ele><time>2026-04-10T13:10:28Z</time></trkpt><trkpt lat="45.040702837709176" lon="8.311552930553402"><ele>270.0</ele><time>2026-04-10T13:10:30Z</time></trkpt><trkpt lat="45.04064861381628" lon="8.311675292439661"><ele>270.0</ele><time>2026-04-10T13:10:32Z</time></trkpt><trkpt lat="45.04058964592118" lon="8.311798325982643"><ele>270.0</ele><time>2026-04-10T13:10:34Z</time></trkpt><trkpt lat="45.04054511508789" lon="8.311912022793912"><ele>270.0</ele><time>2026-04-10T13:10:36Z</time></trkpt><trkpt lat="45.04049103758529" lon="8.312015924728355"><ele>270.0</ele><time>2026-04-10T13:10:38Z</time></trkpt><trkpt lat="45.04044366526537" lon="8.312132356389798"><ele>270.0</ele><time>2026-04-10T13:10:40Z</time></trkpt><trkpt lat="45.040381781794636" lon="8.312242860973926"><ele>270.0</ele><time>2026-04-10T13:10:42Z</time></trkpt><trkpt lat="45.04031897415679" lon="8.312348661968375"><ele>270.0</ele><time>2026-04-10T13:10:44Z</time></trkpt><trkpt lat="45.0402512128011" lon="8.312470608414563"><ele>270.0</ele><time>2026-04-10T13:10:46Z</time></trkpt><trkpt lat="45.04017195811125" lon="8.312567961753276"><ele>270.0</ele><time>2026-04-10T13:10:48Z</time></trkpt><trkpt lat="45.04009457304111" lon="8.3126526922917"><ele>270.0</ele><time>2026-04-10T13:10:50Z</time></trkpt><trkpt lat="45.040037833517594" lon="8.312714559837401"><ele>270.0</ele><time>2026-04-10T13:10:52Z</time></trkpt><trkpt lat="45.04000752916953" lon="8.312825946507731"><ele>270.0</ele><time>2026-04-10T13:10:55Z</time></trkpt><trkpt lat="45.04006695192035" lon="8.31289094316589"><ele>270.0</ele><time>2026-04-10T13:10:59Z</time></trkpt><trkpt lat="45.0401491406119" lon="8.3129070700704"><ele>270.0</ele><time>2026-04-10T13:11:03Z</time></trkpt><trkpt lat="45.040212025478326" lon="8.31293938818006"><ele>270.0</ele><time>2026-04-10T13:11:05Z</time></trkpt><trkpt lat="45.04028039106144" lon="8.312979867495317"><ele>270.0</ele><time>2026-04-10T13:11:07Z</time></trkpt><trkpt lat="45.04035434990553" lon="8.313031284861461"><ele>270.0</ele><time>2026-04-10T13:11:10Z</time></trkpt><trkpt lat="45.04041413914977" lon="8.313103322203425"><ele>270.0</ele><time>2026-04-10T13:11:13Z</time></trkpt><trkpt lat="45.0404534794881" lon="8.313017447776932"><ele>270.0</ele><time>2026-04-10T13:11:17Z</time></trkpt><trkpt lat="45.04046696755999" lon="8.312906795345564"><ele>270.0</ele><time>2026-04-10T13:11:20Z</time></trkpt><trkpt lat="45.04048520974526" lon="8.31282145127297"><ele>270.0</ele><time>2026-04-10T13:11:21.997Z</time></trkpt><trkpt lat="45.04052289168896" lon="8.312709253277474"><ele>270.0</ele><time>2026-04-10T13:11:23.997Z</time></trkpt><trkpt lat="45.0405165934884" lon="8.312585199925953"><ele>270.0</ele><time>2026-04-10T13:11:26.998Z</time></trkpt><trkpt lat="45.04054721864841" lon="8.312486885043946"><ele>270.0</ele><time>2026-04-10T13:11:29.998Z</time></trkpt><trkpt lat="45.04060675902909" lon="8.312536238899137"><ele>270.0</ele><time>2026-04-10T13:11:34.998Z</time></trkpt><trkpt lat="45.04059579106325" lon="8.312647854978046"><ele>270.0</ele><time>2026-04-10T13:11:37.998Z</time></trkpt><trkpt lat="45.04061778272302" lon="8.312753941231113"><ele>270.0</ele><time>2026-04-10T13:11:40.999Z</time></trkpt><trkpt lat="45.040628818431536" lon="8.312875212857614"><ele>270.0</ele><time>2026-04-10T13:11:42.999Z</time></trkpt><trkpt lat="45.04065864889542" lon="8.312981167832321"><ele>270.0</ele><time>2026-04-10T13:11:47.999Z</time></trkpt><trkpt lat="45.040658965712424" lon="8.312890577128409"><ele>270.0</ele><time>2026-04-10T13:11:55.999Z</time></trkpt><trkpt lat="45.040604392078045" lon="8.312817358589175"><ele>270.0</ele><time>2026-04-10T13:11:59.999Z</time></trkpt><trkpt lat="45.040586938533934" lon="8.312700792853454"><ele>270.0</ele><time>2026-04-10T13:12:03.999Z</time></trkpt><trkpt lat="45.04057501059419" lon="8.312606337941835"><ele>270.0</ele><time>2026-04-10T13:12:05.999Z</time></trkpt><trkpt lat="45.04061551528213" lon="8.312534585828049"><ele>270.0</ele><time>2026-04-10T13:12:11Z</time></trkpt><trkpt lat="45.04068669614034" lon="8.312569351806777"><ele>270.0</ele><time>2026-04-10T13:12:15Z</time></trkpt><trkpt lat="45.04075516742701" lon="8.31258108683547"><ele>269.7142857142857</ele><time>2026-04-10T13:12:20Z</time></trkpt><trkpt lat="45.04082478384215" lon="8.312548698362793"><ele>269.4285714285714</ele><time>2026-04-10T13:12:25Z</time></trkpt><trkpt lat="45.04088525603872" lon="8.31252161569484"><ele>269.1428571428571</ele><time>2026-04-10T13:12:30Z</time></trkpt><trkpt lat="45.04092082817894" lon="8.312440807614328"><ele>268.85714285714283</ele><time>2026-04-10T13:12:34Z</time></trkpt><trkpt lat="45.04097067718262" lon="8.312383004695086"><ele>268.57142857142856</ele><time>2026-04-10T13:12:37Z</time></trkpt><trkpt lat="45.041029380864224" lon="8.312276067972565"><ele>268.2857142857143</ele><time>2026-04-10T13:12:40Z</time></trkpt><trkpt lat="45.041076888153874" lon="8.312194702364442"><ele>268.0</ele><time>2026-04-10T13:12:42Z</time></trkpt><trkpt lat="45.041161477506854" lon="8.31215528181164"><ele>268.0</ele><time>2026-04-10T13:12:44Z</time></trkpt><trkpt lat="45.04117949603111" lon="8.312069911471202"><ele>268.0</ele><time>2026-04-10T13:12:45Z</time></trkpt><trkpt lat="45.041267980685284" lon="8.312000214057711"><ele>268.0</ele><time>2026-04-10T13:12:47Z</time></trkpt><trkpt lat="45.04134720492998" lon="8.311936697737949"><ele>268.0</ele><time>2026-04-10T13:12:49Z</time></trkpt><trkpt lat="45.04142573807523" lon="8.311865126205825"><ele>268.0</ele><time>2026-04-10T13:12:51Z</time></trkpt><trkpt lat="45.04150907896297" lon="8.311828725249397"><ele>268.0</ele><time>2026-04-10T13:12:53Z</time></trkpt><trkpt lat="45.0416042527243" lon="8.31179488481493"><ele>267.0</ele><time>2026-04-10T13:12:55Z</time></trkpt><trkpt lat="45.041672160752434" lon="8.3118027574449"><ele>266.0</ele><time>2026-04-10T13:12:57Z</time></trkpt><trkpt lat="45.04174859256708" lon="8.311826522616428"><ele>265.0</ele><time>2026-04-10T13:12:59Z</time></trkpt><trkpt lat="45.04184584164758" lon="8.311884947663579"><ele>264.0</ele><time>2026-04-10T13:13:01Z</time></trkpt><trkpt lat="45.04191799593922" lon="8.311927850394682"><ele>263.0</ele><time>2026-04-10T13:13:03Z</time></trkpt><trkpt lat="45.041987543375704" lon="8.312000972724103"><ele>262.0</ele><time>2026-04-10T13:13:06Z</time></trkpt><trkpt lat="45.04204052300682" lon="8.312065334848583"><ele>262.0</ele><time>2026-04-10T13:13:08Z</time></trkpt><trkpt lat="45.04208816418749" lon="8.312161234117353"><ele>262.0</ele><time>2026-04-10T13:13:10Z</time></trkpt><trkpt lat="45.04213621277088" lon="8.312274929970512"><ele>262.0</ele><time>2026-04-10T13:13:12Z</time></trkpt><trkpt lat="45.04218713367469" lon="8.312407660054625"><ele>262.0</ele><time>2026-04-10T13:13:14.001Z</time></trkpt><trkpt lat="45.04225046750767" lon="8.312560493397005"><ele>262.0</ele><time>2026-04-10T13:13:16.001Z</time></trkpt><trkpt lat="45.042303787624775" lon="8.312714369629074"><ele>260.8571428571429</ele><time>2026-04-10T13:13:18.001Z</time></trkpt><trkpt lat="45.04233126016278" lon="8.31279850338773"><ele>259.7142857142857</ele><time>2026-04-10T13:13:19.001Z</time></trkpt><trkpt lat="45.04236599960773" lon="8.312883461116348"><ele>258.57142857142856</ele><time>2026-04-10T13:13:20.001Z</time></trkpt><trkpt lat="45.042395782167674" lon="8.312974301183974"><ele>257.42857142857144</ele><time>2026-04-10T13:13:21.001Z</time></trkpt><trkpt lat="45.042430715457016" lon="8.31306751855057"><ele>256.2857142857143</ele><time>2026-04-10T13:13:22.001Z</time></trkpt><trkpt lat="45.04246926784578" lon="8.31315860526792"><ele>255.14285714285717</ele><time>2026-04-10T13:13:23.001Z</time></trkpt><trkpt lat="45.04250358803855" lon="8.313258416810756"><ele>254.0</ele><time>2026-04-10T13:13:24.001Z</time></trkpt><trkpt lat="45.04253776313736" lon="8.313356711227073"><ele>252.50000000000003</ele><time>2026-04-10T13:13:25.001Z</time></trkpt><trkpt lat="45.04256803537305" lon="8.313459737680136"><ele>251.0</ele><time>2026-04-10T13:13:26.001Z</time></trkpt><trkpt lat="45.0426038835296" lon="8.313562971319728"><ele>249.5</ele><time>2026-04-10T13:13:27.001Z</time></trkpt><trkpt lat="45.04263087454632" lon="8.313670899922192"><ele>248.0</ele><time>2026-04-10T13:13:27.997Z</time></trkpt><trkpt lat="45.04266397971346" lon="8.313763372073886"><ele>246.50000000000003</ele><time>2026-04-10T13:13:28.997Z</time></trkpt><trkpt lat="45.042719914592325" lon="8.313875823631662"><ele>245.0</ele><time>2026-04-10T13:13:30.997Z</time></trkpt><trkpt lat="45.042770277694046" lon="8.314010961650501"><ele>243.50000000000003</ele><time>2026-04-10T13:13:32.998Z</time></trkpt><trkpt lat="45.042848846091246" lon="8.31414223765088"><ele>242.0</ele><time>2026-04-10T13:13:34.998Z</time></trkpt><trkpt lat="45.04290908493146" lon="8.314187728089623"><ele>240.5</ele><time>2026-04-10T13:13:35.998Z</time></trkpt><trkpt lat="45.042978587962935" lon="8.314211490018842"><ele>239.0</ele><time>2026-04-10T13:13:36.998Z</time></trkpt><trkpt lat="45.043057277157" lon="8.314202952684225"><ele>237.50000000000003</ele><time>2026-04-10T13:13:37.998Z</time></trkpt><trkpt lat="45.043132025268186" lon="8.314176953004125"><ele>236.0</ele><time>2026-04-10T13:13:38.998Z</time></trkpt><trkpt lat="45.04321106547975" lon="8.314141288270807"><ele>236.00000000000003</ele><time>2026-04-10T13:13:39.998Z</time></trkpt><trkpt lat="45.04328743133733" lon="8.31409403187172"><ele>236.0</ele><time>2026-04-10T13:13:40.998Z</time></trkpt><trkpt lat="45.04336294565529" lon="8.314046366610773"><ele>236.0</ele><time>2026-04-10T13:13:41.998Z</time></trkpt><trkpt lat="45.04343661259708" lon="8.313998608730763"><ele>236.0</ele><time>2026-04-10T13:13:42.998Z</time></trkpt><trkpt lat="45.04351427875471" lon="8.313950026739114"><ele>236.00000000000003</ele><time>2026-04-10T13:13:43.998Z</time></trkpt><trkpt lat="45.04359273511309" lon="8.31390285364264"><ele>236.0</ele><time>2026-04-10T13:13:44.998Z</time></trkpt><trkpt lat="45.04367296503486" lon="8.313855489323746"><ele>238.8</ele><time>2026-04-10T13:13:45.998Z</time></trkpt><trkpt lat="45.043755610550114" lon="8.31380669894007"><ele>241.60000000000002</ele><time>2026-04-10T13:13:46.998Z</time></trkpt><trkpt lat="45.04384015435972" lon="8.313756787737827"><ele>244.4</ele><time>2026-04-10T13:13:47.999Z</time></trkpt><trkpt lat="45.043926902661916" lon="8.313705193779928"><ele>247.2</ele><time>2026-04-10T13:13:48.999Z</time></trkpt><trkpt lat="45.044013285768145" lon="8.313653327188238"><ele>250.0</ele><time>2026-04-10T13:13:49.999Z</time></trkpt><trkpt lat="45.04410024419116" lon="8.31360208354355"><ele>248.0</ele><time>2026-04-10T13:13:50.999Z</time></trkpt><trkpt lat="45.04418429326472" lon="8.313549118263449"><ele>246.0</ele><time>2026-04-10T13:13:51.999Z</time></trkpt><trkpt lat="45.04426851351269" lon="8.313496890480364"><ele>244.0</ele><time>2026-04-10T13:13:52.999Z</time></trkpt><trkpt lat="45.04435270743487" lon="8.313444679189278"><ele>242.0</ele><time>2026-04-10T13:13:53.999Z</time></trkpt><trkpt lat="45.0444377360465" lon="8.31340033105851"><ele>240.0</ele><time>2026-04-10T13:13:54.999Z</time></trkpt><trkpt lat="45.04452918384541" lon="8.31335789964426"><ele>240.0</ele><time>2026-04-10T13:13:55.999Z</time></trkpt><trkpt lat="45.04461108413108" lon="8.313343736126146"><ele>240.0</ele><time>2026-04-10T13:13:56.999Z</time></trkpt><trkpt lat="45.04470817909614" lon="8.31335216196564"><ele>240.0</ele><time>2026-04-10T13:13:57.999Z</time></trkpt><trkpt lat="45.04480552847423" lon="8.313384838100802"><ele>240.0</ele><time>2026-04-10T13:13:58.999Z</time></trkpt><trkpt lat="45.044872036942195" lon="8.313492815009406"><ele>240.0</ele><time>2026-04-10T13:13:59.999Z</time></trkpt><trkpt lat="45.04492978596819" lon="8.313605589954202"><ele>238.4</ele><time>2026-04-10T13:14:00.999Z</time></trkpt><trkpt lat="45.044993613493745" lon="8.313718502029326"><ele>236.8</ele><time>2026-04-10T13:14:01.999Z</time></trkpt><trkpt lat="45.045022279070075" lon="8.313848895341586"><ele>235.2</ele><time>2026-04-10T13:14:02.999Z</time></trkpt><trkpt lat="45.04507582840834" lon="8.313956561527407"><ele>233.6</ele><time>2026-04-10T13:14:03.999Z</time></trkpt><trkpt lat="45.04511224485234" lon="8.31407522778733"><ele>232.0</ele><time>2026-04-10T13:14:04.999Z</time></trkpt><trkpt lat="45.045146630734365" lon="8.314186498749017"><ele>231.99999999999997</ele><time>2026-04-10T13:14:05.999Z</time></trkpt><trkpt lat="45.04517707966257" lon="8.314298547709281"><ele>232.0</ele><time>2026-04-10T13:14:06.999Z</time></trkpt><trkpt lat="45.045205699751996" lon="8.314407422696414"><ele>232.0</ele><time>2026-04-10T13:14:07.999Z</time></trkpt><trkpt lat="45.04521988862119" lon="8.314517861646442"><ele>232.0</ele><time>2026-04-10T13:14:09Z</time></trkpt><trkpt lat="45.04523007487069" lon="8.31462346745061"><ele>231.99999999999997</ele><time>2026-04-10T13:14:10Z</time></trkpt><trkpt lat="45.04522767243572" lon="8.314721874531122"><ele>232.0</ele><time>2026-04-10T13:14:11Z</time></trkpt><trkpt lat="45.045220700587286" lon="8.314816179724358"><ele>232.0</ele><time>2026-04-10T13:14:12Z</time></trkpt><trkpt lat="45.04519841265414" lon="8.314983361816056"><ele>232.0</ele><time>2026-04-10T13:14:14Z</time></trkpt><trkpt lat="45.04515948035094" lon="8.315146747683242"><ele>232.0</ele><time>2026-04-10T13:14:16Z</time></trkpt><trkpt lat="45.045132954648324" lon="8.31531095017414"><ele>232.0</ele><time>2026-04-10T13:14:18Z</time></trkpt><trkpt lat="45.0450921102075" lon="8.315465292029012"><ele>232.5</ele><time>2026-04-10T13:14:20Z</time></trkpt><trkpt lat="45.04505758422937" lon="8.3156274587488"><ele>233.0</ele><time>2026-04-10T13:14:22Z</time></trkpt><trkpt lat="45.04501330510307" lon="8.315803366517715"><ele>233.5</ele><time>2026-04-10T13:14:24Z</time></trkpt><trkpt lat="45.044981861094435" lon="8.315953989267742"><ele>234.0</ele><time>2026-04-10T13:14:26Z</time></trkpt><trkpt lat="45.044947097890116" lon="8.316111522422478"><ele>233.25</ele><time>2026-04-10T13:14:28Z</time></trkpt><trkpt lat="45.04490732214004" lon="8.316266488868198"><ele>232.5</ele><time>2026-04-10T13:14:30Z</time></trkpt><trkpt lat="45.04487026490387" lon="8.316420818195121"><ele>231.75</ele><time>2026-04-10T13:14:32Z</time></trkpt><trkpt lat="45.04483625261788" lon="8.316576362005879"><ele>231.0</ele><time>2026-04-10T13:14:34Z</time></trkpt><trkpt lat="45.04479746926979" lon="8.316727172148788"><ele>231.0</ele><time>2026-04-10T13:14:36Z</time></trkpt><trkpt lat="45.0447518506347" lon="8.316873136624348"><ele>231.0</ele><time>2026-04-10T13:14:38Z</time></trkpt><trkpt lat="45.04472459457127" lon="8.317028652049077"><ele>231.0</ele><time>2026-04-10T13:14:40Z</time></trkpt><trkpt lat="45.044685251887266" lon="8.317181899832022"><ele>231.0</ele><time>2026-04-10T13:14:42Z</time></trkpt><trkpt lat="45.04464712249675" lon="8.317333414546635"><ele>232.0</ele><time>2026-04-10T13:14:44Z</time></trkpt><trkpt lat="45.04462222786666" lon="8.31747969669129"><ele>233.00000000000003</ele><time>2026-04-10T13:14:46Z</time></trkpt><trkpt lat="45.0445882408794" lon="8.317630255513665"><ele>234.00000000000003</ele><time>2026-04-10T13:14:48Z</time></trkpt><trkpt lat="45.044556177254826" lon="8.317783594136458"><ele>235.0</ele><time>2026-04-10T13:14:50.001Z</time></trkpt><trkpt lat="45.04451477884855" lon="8.317938942138165"><ele>236.0</ele><time>2026-04-10T13:14:52.001Z</time></trkpt><trkpt lat="45.04447454073227" lon="8.318101739689409"><ele>237.25</ele><time>2026-04-10T13:14:54.001Z</time></trkpt><trkpt lat="45.04444287192318" lon="8.318268382812192"><ele>238.5</ele><time>2026-04-10T13:14:56.001Z</time></trkpt><trkpt lat="45.04440678698866" lon="8.318431352065964"><ele>239.75</ele><time>2026-04-10T13:14:58.001Z</time></trkpt><trkpt lat="45.044372604715036" lon="8.318589550744488"><ele>241.0</ele><time>2026-04-10T13:15:00.001Z</time></trkpt><trkpt lat="45.04434089775246" lon="8.318751787989298"><ele>242.25</ele><time>2026-04-10T13:15:02.001Z</time></trkpt><trkpt lat="45.04430477791641" lon="8.318912960755794"><ele>243.5</ele><time>2026-04-10T13:15:04.001Z</time></trkpt><trkpt lat="45.0442692743927" lon="8.319067982802409"><ele>244.75</ele><time>2026-04-10T13:15:06.001Z</time></trkpt><trkpt lat="45.044239553394924" lon="8.319219038055994"><ele>246.0</ele><time>2026-04-10T13:15:08.001Z</time></trkpt><trkpt lat="45.04422530467649" lon="8.319366434505723"><ele>246.0</ele><time>2026-04-10T13:15:10.001Z</time></trkpt><trkpt lat="45.044211855060496" lon="8.31948065806322"><ele>246.0</ele><time>2026-04-10T13:15:12.001Z</time></trkpt><trkpt lat="45.044220497144934" lon="8.319569908976385"><ele>246.0</ele><time>2026-04-10T13:15:14.001Z</time></trkpt><trkpt lat="45.04422178692933" lon="8.319677381808638"><ele>246.0</ele><time>2026-04-10T13:15:17.001Z</time></trkpt><trkpt lat="45.04424893187822" lon="8.319784364055506"><ele>246.0</ele><time>2026-04-10T13:15:20.001Z</time></trkpt><trkpt lat="45.04429511960448" lon="8.31989288578888"><ele>246.0</ele><time>2026-04-10T13:15:23.001Z</time></trkpt><trkpt lat="45.04434226839692" lon="8.319967472115902"><ele>246.20000000000002</ele><time>2026-04-10T13:15:25.001Z</time></trkpt><trkpt lat="45.04440430406594" lon="8.32003855399367"><ele>246.40000000000003</ele><time>2026-04-10T13:15:27.001Z</time></trkpt><trkpt lat="45.044479792622894" lon="8.320100981507066"><ele>246.6</ele><time>2026-04-10T13:15:29.001Z</time></trkpt><trkpt lat="45.044565917581096" lon="8.320163369320905"><ele>246.8</ele><time>2026-04-10T13:15:31.001Z</time></trkpt><trkpt lat="45.04465340698808" lon="8.320236967205165"><ele>247.0</ele><time>2026-04-10T13:15:33.001Z</time></trkpt><trkpt lat="45.044754166766765" lon="8.320287184383663"><ele>246.99999999999997</ele><time>2026-04-10T13:15:34.998Z</time></trkpt><trkpt lat="45.04484091881954" lon="8.320332556112257"><ele>247.0</ele><time>2026-04-10T13:15:36.998Z</time></trkpt><trkpt lat="45.04490684411523" lon="8.320349848414532"><ele>247.0</ele><time>2026-04-10T13:15:38.998Z</time></trkpt><trkpt lat="45.04497074775289" lon="8.320361282997311"><ele>247.0</ele><time>2026-04-10T13:15:40.998Z</time></trkpt><trkpt lat="45.04504643528161" lon="8.32036903630572"><ele>246.99999999999997</ele><time>2026-04-10T13:15:42.998Z</time></trkpt><trkpt lat="45.04512314362702" lon="8.320366806574935"><ele>247.0</ele><time>2026-04-10T13:15:44.998Z</time></trkpt><trkpt lat="45.04519744200441" lon="8.320359259371717"><ele>246.99999999999997</ele><time>2026-04-10T13:15:46.998Z</time></trkpt><trkpt lat="45.045270124353884" lon="8.320351876328935"><ele>247.0</ele><time>2026-04-10T13:15:48.998Z</time></trkpt><trkpt lat="45.045351664608425" lon="8.320342971999741"><ele>247.0</ele><time>2026-04-10T13:15:50.998Z</time></trkpt><trkpt lat="45.045438379541935" lon="8.320333127385272"><ele>247.0</ele><time>2026-04-10T13:15:52.999Z</time></trkpt><trkpt lat="45.04552989597948" lon="8.320321738733023"><ele>246.99999999999997</ele><time>2026-04-10T13:15:54.999Z</time></trkpt><trkpt lat="45.045628247560174" lon="8.320308714104762"><ele>247.0</ele><time>2026-04-10T13:15:56.999Z</time></trkpt><trkpt lat="45.04573792566327" lon="8.320290692988097"><ele>246.75</ele><time>2026-04-10T13:15:58.999Z</time></trkpt><trkpt lat="45.045847304257165" lon="8.320249231365212"><ele>246.5</ele><time>2026-04-10T13:16:00.999Z</time></trkpt><trkpt lat="45.045957528634226" lon="8.320209460139328"><ele>246.25</ele><time>2026-04-10T13:16:02.999Z</time></trkpt><trkpt lat="45.04606058585924" lon="8.320148696828854"><ele>246.0</ele><time>2026-04-10T13:16:04.999Z</time></trkpt><trkpt lat="45.046165314192784" lon="8.320067060711732"><ele>246.0</ele><time>2026-04-10T13:16:06.999Z</time></trkpt><trkpt lat="45.04628287884295" lon="8.320032712480032"><ele>246.00000000000003</ele><time>2026-04-10T13:16:08.999Z</time></trkpt><trkpt lat="45.04639576471778" lon="8.320093256966631"><ele>246.00000000000003</ele><time>2026-04-10T13:16:11Z</time></trkpt><trkpt lat="45.0464753709591" lon="8.320177463427836"><ele>246.0</ele><time>2026-04-10T13:16:13Z</time></trkpt><trkpt lat="45.046521614589736" lon="8.320305761928433"><ele>246.0</ele><time>2026-04-10T13:16:15Z</time></trkpt><trkpt lat="45.04653470908979" lon="8.320442937905879"><ele>243.8</ele><time>2026-04-10T13:16:17Z</time></trkpt><trkpt lat="45.04652676356342" lon="8.320584947460828"><ele>241.60000000000002</ele><time>2026-04-10T13:16:19Z</time></trkpt><trkpt lat="45.04651440357786" lon="8.320726155430343"><ele>239.4</ele><time>2026-04-10T13:16:21Z</time></trkpt><trkpt lat="45.046513289514664" lon="8.320872102143767"><ele>237.2</ele><time>2026-04-10T13:16:23Z</time></trkpt><trkpt lat="45.046507052274784" lon="8.321023319583155"><ele>235.0</ele><time>2026-04-10T13:16:25Z</time></trkpt><trkpt lat="45.046497067508454" lon="8.321178541429054"><ele>235.0</ele><time>2026-04-10T13:16:27Z</time></trkpt><trkpt lat="45.04646515953853" lon="8.3213342717644"><ele>235.0</ele><time>2026-04-10T13:16:29Z</time></trkpt><trkpt lat="45.046457433196075" lon="8.321496345247235"><ele>235.0</ele><time>2026-04-10T13:16:31Z</time></trkpt><trkpt lat="45.04641427924958" lon="8.321642135744202"><ele>235.0</ele><time>2026-04-10T13:16:33Z</time></trkpt><trkpt lat="45.04636029303266" lon="8.321782093992333"><ele>235.75</ele><time>2026-04-10T13:16:35Z</time></trkpt><trkpt lat="45.046308559391214" lon="8.32192834509563"><ele>236.5</ele><time>2026-04-10T13:16:37Z</time></trkpt><trkpt lat="45.04624866824621" lon="8.322059832214167"><ele>237.25</ele><time>2026-04-10T13:16:39Z</time></trkpt><trkpt lat="45.046191096667535" lon="8.322204329495678"><ele>238.0</ele><time>2026-04-10T13:16:41.001Z</time></trkpt><trkpt lat="45.04613581788868" lon="8.322350674153176"><ele>239.2</ele><time>2026-04-10T13:16:43.001Z</time></trkpt><trkpt lat="45.04608415511535" lon="8.32249502114756"><ele>240.4</ele><time>2026-04-10T13:16:45.001Z</time></trkpt><trkpt lat="45.04603686343017" lon="8.322633291187419"><ele>241.59999999999997</ele><time>2026-04-10T13:16:47.001Z</time></trkpt><trkpt lat="45.04598906262159" lon="8.322770956545039"><ele>242.79999999999998</ele><time>2026-04-10T13:16:49.001Z</time></trkpt><trkpt lat="45.04594698880795" lon="8.322913117564514"><ele>244.0</ele><time>2026-04-10T13:16:51.001Z</time></trkpt><trkpt lat="45.045916244605166" lon="8.323061697427296"><ele>244.6</ele><time>2026-04-10T13:16:53.001Z</time></trkpt><trkpt lat="45.04590682882711" lon="8.323213399268095"><ele>245.2</ele><time>2026-04-10T13:16:55.001Z</time></trkpt><trkpt lat="45.04591810511921" lon="8.323363765059696"><ele>245.79999999999998</ele><time>2026-04-10T13:16:57.001Z</time></trkpt><trkpt lat="45.045944511504175" lon="8.323499250289837"><ele>246.39999999999998</ele><time>2026-04-10T13:16:59.001Z</time></trkpt><trkpt lat="45.04596755505942" lon="8.323641390881951"><ele>247.0</ele><time>2026-04-10T13:17:01.001Z</time></trkpt><trkpt lat="45.046003498122154" lon="8.323770022757856"><ele>246.99999999999997</ele><time>2026-04-10T13:17:03.001Z</time></trkpt><trkpt lat="45.0460297685413" lon="8.323881554692973"><ele>247.0</ele><time>2026-04-10T13:17:05.001Z</time></trkpt><trkpt lat="45.0460468999832" lon="8.323992260497192"><ele>247.0</ele><time>2026-04-10T13:17:07.001Z</time></trkpt><trkpt lat="45.04607631416381" lon="8.324113827462261"><ele>247.0</ele><time>2026-04-10T13:17:09.001Z</time></trkpt><trkpt lat="45.046100904766405" lon="8.324239984433115"><ele>246.99999999999997</ele><time>2026-04-10T13:17:11.001Z</time></trkpt><trkpt lat="45.0461341840019" lon="8.32435770407289"><ele>247.0</ele><time>2026-04-10T13:17:13.001Z</time></trkpt><trkpt lat="45.04616567328622" lon="8.324481690967888"><ele>247.39999999999998</ele><time>2026-04-10T13:17:15.001Z</time></trkpt><trkpt lat="45.04619699567981" lon="8.324611168122352"><ele>247.79999999999998</ele><time>2026-04-10T13:17:17.002Z</time></trkpt><trkpt lat="45.04622299939246" lon="8.324756051651288"><ele>248.2</ele><time>2026-04-10T13:17:19.002Z</time></trkpt><trkpt lat="45.04624458968502" lon="8.324900745282648"><ele>248.6</ele><time>2026-04-10T13:17:21.002Z</time></trkpt><trkpt lat="45.04623778075459" lon="8.3250430230813"><ele>249.0</ele><time>2026-04-10T13:17:23.002Z</time></trkpt><trkpt lat="45.046203192603016" lon="8.325174899923727"><ele>250.0</ele><time>2026-04-10T13:17:25.002Z</time></trkpt><trkpt lat="45.046125681123236" lon="8.325286377039768"><ele>250.99999999999997</ele><time>2026-04-10T13:17:27.002Z</time></trkpt><trkpt lat="45.046047717618606" lon="8.325398479796897"><ele>251.99999999999997</ele><time>2026-04-10T13:17:29.002Z</time></trkpt><trkpt lat="45.04596499618746" lon="8.325499279061258"><ele>253.0</ele><time>2026-04-10T13:17:31.002Z</time></trkpt><trkpt lat="45.04588860564026" lon="8.325611306112263"><ele>254.0</ele><time>2026-04-10T13:17:33.002Z</time></trkpt><trkpt lat="45.04582515163899" lon="8.32573483456913"><ele>254.0</ele><time>2026-04-10T13:17:35.002Z</time></trkpt><trkpt lat="45.045779125447375" lon="8.325863394526465"><ele>253.99999999999997</ele><time>2026-04-10T13:17:37.002Z</time></trkpt><trkpt lat="45.04574876215144" lon="8.326001238852967"><ele>253.99999999999997</ele><time>2026-04-10T13:17:39.002Z</time></trkpt><trkpt lat="45.04572701039711" lon="8.326131540461944"><ele>254.0</ele><time>2026-04-10T13:17:40.998Z</time></trkpt><trkpt lat="45.045734641561445" lon="8.32626391796127"><ele>254.0</ele><time>2026-04-10T13:17:42.998Z</time></trkpt><trkpt lat="45.045757439331595" lon="8.326394159182659"><ele>255.2</ele><time>2026-04-10T13:17:44.998Z</time></trkpt><trkpt lat="45.045785818644376" lon="8.326522631478852"><ele>256.4</ele><time>2026-04-10T13:17:46.998Z</time></trkpt><trkpt lat="45.045843021897255" lon="8.326643676911027"><ele>257.6</ele><time>2026-04-10T13:17:48.998Z</time></trkpt><trkpt lat="45.04590614558196" lon="8.326761856922625"><ele>258.8</ele><time>2026-04-10T13:17:50.998Z</time></trkpt><trkpt lat="45.04596748547205" lon="8.326872220378265"><ele>260.0</ele><time>2026-04-10T13:17:52.998Z</time></trkpt><trkpt lat="45.04603063057117" lon="8.326984079149412"><ele>260.8</ele><time>2026-04-10T13:17:54.999Z</time></trkpt><trkpt lat="45.04609219021652" lon="8.327089001059342"><ele>261.6</ele><time>2026-04-10T13:17:56.999Z</time></trkpt><trkpt lat="45.046154060491794" lon="8.327194484750112"><ele>262.4</ele><time>2026-04-10T13:17:58.999Z</time></trkpt><trkpt lat="45.046224377942615" lon="8.327288347177934"><ele>263.2</ele><time>2026-04-10T13:18:00.999Z</time></trkpt><trkpt lat="45.04628990476249" lon="8.32741189271069"><ele>264.0</ele><time>2026-04-10T13:18:02.999Z</time></trkpt><trkpt lat="45.04632234155459" lon="8.327529676686412"><ele>264.0</ele><time>2026-04-10T13:18:04.999Z</time></trkpt><trkpt lat="45.04639875303864" lon="8.327609197734036"><ele>264.0</ele><time>2026-04-10T13:18:06.999Z</time></trkpt><trkpt lat="45.046457059961945" lon="8.327705293806126"><ele>264.0</ele><time>2026-04-10T13:18:08.999Z</time></trkpt><trkpt lat="45.046514819202116" lon="8.327803903275095"><ele>264.0</ele><time>2026-04-10T13:18:11Z</time></trkpt><trkpt lat="45.04656983649641" lon="8.327895127138262"><ele>264.0</ele><time>2026-04-10T13:18:13Z</time></trkpt><trkpt lat="45.04663049248402" lon="8.3279821553371"><ele>264.0</ele><time>2026-04-10T13:18:15Z</time></trkpt><trkpt lat="45.04668124916644" lon="8.32807338315684"><ele>263.1666666666667</ele><time>2026-04-10T13:18:17Z</time></trkpt><trkpt lat="45.046735334882975" lon="8.328165129925877"><ele>262.3333333333333</ele><time>2026-04-10T13:18:19Z</time></trkpt><trkpt lat="45.046787022172666" lon="8.328255147132019"><ele>261.5</ele><time>2026-04-10T13:18:21Z</time></trkpt><trkpt lat="45.04683392043227" lon="8.328334229960424"><ele>260.66666666666663</ele><time>2026-04-10T13:18:23Z</time></trkpt><trkpt lat="45.04688064446954" lon="8.32842327811317"><ele>259.8333333333333</ele><time>2026-04-10T13:18:25Z</time></trkpt><trkpt lat="45.04693249581987" lon="8.328516705608333"><ele>259.0</ele><time>2026-04-10T13:18:27Z</time></trkpt><trkpt lat="45.04698626538163" lon="8.328609698510405"><ele>259.0</ele><time>2026-04-10T13:18:29Z</time></trkpt><trkpt lat="45.04704697829899" lon="8.328721557138504"><ele>259.0</ele><time>2026-04-10T13:18:31Z</time></trkpt><trkpt lat="45.04711701133216" lon="8.328819101450355"><ele>259.0</ele><time>2026-04-10T13:18:33Z</time></trkpt><trkpt lat="45.04718304925804" lon="8.328939164332096"><ele>259.0</ele><time>2026-04-10T13:18:35Z</time></trkpt><trkpt lat="45.04724810941767" lon="8.329057267179408"><ele>259.0</ele><time>2026-04-10T13:18:37.001Z</time></trkpt><trkpt lat="45.04732331206625" lon="8.329178506685588"><ele>259.0</ele><time>2026-04-10T13:18:39.001Z</time></trkpt><trkpt lat="45.04738060473784" lon="8.329306432104111"><ele>259.0</ele><time>2026-04-10T13:18:41.001Z</time></trkpt><trkpt lat="45.0474240855156" lon="8.32945972851842"><ele>259.0</ele><time>2026-04-10T13:18:43.001Z</time></trkpt><trkpt lat="45.047486721653534" lon="8.32957779667907"><ele>259.0</ele><time>2026-04-10T13:18:45.001Z</time></trkpt><trkpt lat="45.04754587433779" lon="8.329699298071588"><ele>259.0</ele><time>2026-04-10T13:18:47.001Z</time></trkpt><trkpt lat="45.04759388040845" lon="8.329814093583272"><ele>259.0</ele><time>2026-04-10T13:18:49.001Z</time></trkpt><trkpt lat="45.0476322103147" lon="8.329924404517591"><ele>259.0</ele><time>2026-04-10T13:18:51.001Z</time></trkpt><trkpt lat="45.047660778480505" lon="8.330037811317618"><ele>259.0</ele><time>2026-04-10T13:18:53.001Z</time></trkpt><trkpt lat="45.04769256291873" lon="8.3301981019514"><ele>259.0</ele><time>2026-04-10T13:18:55.001Z</time></trkpt><trkpt lat="45.04773641860305" lon="8.330272558490188"><ele>259.0</ele><time>2026-04-10T13:18:56.001Z</time></trkpt><trkpt lat="45.047751228793615" lon="8.330429595754607"><ele>258.2</ele><time>2026-04-10T13:18:58.001Z</time></trkpt><trkpt lat="45.047762248959465" lon="8.330582241658497"><ele>257.4</ele><time>2026-04-10T13:19:00.001Z</time></trkpt><trkpt lat="45.04777690491973" lon="8.330724913831325"><ele>256.6</ele><time>2026-04-10T13:19:02.001Z</time></trkpt><trkpt lat="45.04778335552381" lon="8.330862833610881"><ele>255.8</ele><time>2026-04-10T13:19:04.001Z</time></trkpt><trkpt lat="45.0478032206189" lon="8.331021052274172"><ele>255.0</ele><time>2026-04-10T13:19:06.001Z</time></trkpt><trkpt lat="45.04781614177915" lon="8.331183714582076"><ele>255.0</ele><time>2026-04-10T13:19:08.001Z</time></trkpt><trkpt lat="45.0478277381614" lon="8.331333658852714"><ele>255.0</ele><time>2026-04-10T13:19:10.002Z</time></trkpt><trkpt lat="45.047844141694824" lon="8.33147180294336"><ele>255.0</ele><time>2026-04-10T13:19:12.002Z</time></trkpt><trkpt lat="45.04784925396534" lon="8.33160407720446"><ele>255.0</ele><time>2026-04-10T13:19:14.002Z</time></trkpt><trkpt lat="45.047862901184835" lon="8.331737680998593"><ele>255.0</ele><time>2026-04-10T13:19:16.002Z</time></trkpt><trkpt lat="45.04787221743663" lon="8.331877269473214"><ele>255.0</ele><time>2026-04-10T13:19:18.002Z</time></trkpt><trkpt lat="45.0478914752837" lon="8.332023818639277"><ele>255.0</ele><time>2026-04-10T13:19:20.002Z</time></trkpt><trkpt lat="45.047906026072084" lon="8.33218537206028"><ele>255.0</ele><time>2026-04-10T13:19:22.002Z</time></trkpt><trkpt lat="45.04791250320513" lon="8.332349878324035"><ele>255.0</ele><time>2026-04-10T13:19:24.002Z</time></trkpt><trkpt lat="45.0478894283828" lon="8.332503533675316"><ele>255.0</ele><time>2026-04-10T13:19:26.002Z</time></trkpt><trkpt lat="45.04790108605052" lon="8.332644271889551"><ele>255.0</ele><time>2026-04-10T13:19:28.002Z</time></trkpt><trkpt lat="45.04791346990111" lon="8.332793772606994"><ele>255.0</ele><time>2026-04-10T13:19:30.002Z</time></trkpt><trkpt lat="45.04794130484484" lon="8.332939353788053"><ele>255.0</ele><time>2026-04-10T13:19:32.002Z</time></trkpt><trkpt lat="45.047944117155915" lon="8.333048952112414"><ele>255.0</ele><time>2026-04-10T13:19:34.002Z</time></trkpt><trkpt lat="45.0479353954186" lon="8.333157506992897"><ele>255.0</ele><time>2026-04-10T13:19:37.002Z</time></trkpt><trkpt lat="45.04794387545609" lon="8.333280209484718"><ele>255.2857142857143</ele><time>2026-04-10T13:19:40.002Z</time></trkpt><trkpt lat="45.047950628372924" lon="8.333371695608369"><ele>255.5714285714286</ele><time>2026-04-10T13:19:42.003Z</time></trkpt><trkpt lat="45.047958632735636" lon="8.333477032727352"><ele>255.85714285714286</ele><time>2026-04-10T13:19:44.003Z</time></trkpt><trkpt lat="45.04796635844295" lon="8.333576692729345"><ele>256.14285714285717</ele><time>2026-04-10T13:19:45.998Z</time></trkpt><trkpt lat="45.047976358601495" lon="8.333683439150983"><ele>256.42857142857144</ele><time>2026-04-10T13:19:48.998Z</time></trkpt><trkpt lat="45.04801198105814" lon="8.333760472888022"><ele>256.7142857142857</ele><time>2026-04-10T13:19:52.999Z</time></trkpt><trkpt lat="45.04803204475929" lon="8.333852875007596"><ele>257.0</ele><time>2026-04-10T13:19:56.999Z</time></trkpt><trkpt lat="45.04849073184911" lon="8.333889636619523"><ele>255.0</ele><time>2026-04-10T13:20:00.999Z</time></trkpt><trkpt lat="45.048554854381116" lon="8.333985948551621"><ele>253.0</ele><time>2026-04-10T13:20:03.999Z</time></trkpt><trkpt lat="45.04859457139071" lon="8.334063343740723"><ele>251.0</ele><time>2026-04-10T13:20:07Z</time></trkpt><trkpt lat="45.04861267060501" lon="8.33415065419395"><ele>249.0</ele><time>2026-04-10T13:20:09Z</time></trkpt><trkpt lat="45.04862130322253" lon="8.334249779076814"><ele>247.0</ele><time>2026-04-10T13:20:11Z</time></trkpt><trkpt lat="45.04862739454245" lon="8.334361030309228"><ele>245.0</ele><time>2026-04-10T13:20:14Z</time></trkpt><trkpt lat="45.0486671381701" lon="8.334432986350471"><ele>243.0</ele><time>2026-04-10T13:20:17Z</time></trkpt><trkpt lat="45.04874300855743" lon="8.334445038845733"><ele>243.0</ele><time>2026-04-10T13:20:20Z</time></trkpt><trkpt lat="45.04882201948158" lon="8.334382686611974"><ele>243.0</ele><time>2026-04-10T13:20:22Z</time></trkpt><trkpt lat="45.04891584336685" lon="8.33434077963638"><ele>243.0</ele><time>2026-04-10T13:20:24.001Z</time></trkpt><trkpt lat="45.0489931340446" lon="8.334294235910686"><ele>243.0</ele><time>2026-04-10T13:20:26.001Z</time></trkpt><trkpt lat="45.049061231973866" lon="8.334256212678834"><ele>243.0</ele><time>2026-04-10T13:20:28.001Z</time></trkpt><trkpt lat="45.04913864503572" lon="8.33428427826757"><ele>243.0</ele><time>2026-04-10T13:20:30.001Z</time></trkpt><trkpt lat="45.04918737771538" lon="8.334388007852247"><ele>239.8</ele><time>2026-04-10T13:20:32.001Z</time></trkpt><trkpt lat="45.04921258587592" lon="8.334511867574959"><ele>236.60000000000002</ele><time>2026-04-10T13:20:34.001Z</time></trkpt><trkpt lat="45.04923871653553" lon="8.334627753822794"><ele>233.39999999999998</ele><time>2026-04-10T13:20:36.001Z</time></trkpt><trkpt lat="45.049268214778415" lon="8.3347522171955"><ele>230.2</ele><time>2026-04-10T13:20:38.001Z</time></trkpt><trkpt lat="45.049304281286126" lon="8.334877575788662"><ele>227.0</ele><time>2026-04-10T13:20:40.001Z</time></trkpt><trkpt lat="45.04934852858009" lon="8.334982898612592"><ele>225.6</ele><time>2026-04-10T13:20:42.001Z</time></trkpt><trkpt lat="45.04937674614011" lon="8.335098924109365"><ele>224.2</ele><time>2026-04-10T13:20:44.001Z</time></trkpt><trkpt lat="45.049412474299565" lon="8.335203344172225"><ele>222.8</ele><time>2026-04-10T13:20:46.001Z</time></trkpt><trkpt lat="45.04947654031214" lon="8.335281376568291"><ele>221.4</ele><time>2026-04-10T13:20:48.001Z</time></trkpt><trkpt lat="45.049585825555695" lon="8.33525726236414"><ele>220.0</ele><time>2026-04-10T13:20:50.001Z</time></trkpt><trkpt lat="45.04971533979502" lon="8.335289219013916"><ele>219.99999999999997</ele><time>2026-04-10T13:20:52.001Z</time></trkpt><trkpt lat="45.04978519459068" lon="8.335327121524502"><ele>220.0</ele><time>2026-04-10T13:20:53.002Z</time></trkpt><trkpt lat="45.04984834752406" lon="8.335386559150072"><ele>220.0</ele><time>2026-04-10T13:20:54.002Z</time></trkpt><trkpt lat="45.04991130461743" lon="8.335447032525177"><ele>220.0</ele><time>2026-04-10T13:20:55.002Z</time></trkpt><trkpt lat="45.04997102579695" lon="8.335514964309818"><ele>219.99999999999997</ele><time>2026-04-10T13:20:56.002Z</time></trkpt><trkpt lat="45.050038531676954" lon="8.335575883567612"><ele>220.0</ele><time>2026-04-10T13:20:57.002Z</time></trkpt><trkpt lat="45.050103605097846" lon="8.335646991393746"><ele>217.66666666666666</ele><time>2026-04-10T13:20:58.002Z</time></trkpt><trkpt lat="45.05016936191889" lon="8.335711429635587"><ele>215.33333333333331</ele><time>2026-04-10T13:20:59.002Z</time></trkpt><trkpt lat="45.050230588348" lon="8.335789955169457"><ele>213.0</ele><time>2026-04-10T13:21:00.002Z</time></trkpt><trkpt lat="45.0503090372083" lon="8.335847877296096"><ele>210.66666666666669</ele><time>2026-04-10T13:21:01.002Z</time></trkpt><trkpt lat="45.050378274948194" lon="8.33590471132625"><ele>208.33333333333334</ele><time>2026-04-10T13:21:02.002Z</time></trkpt><trkpt lat="45.050445486449554" lon="8.335969399462744"><ele>206.0</ele><time>2026-04-10T13:21:03.002Z</time></trkpt><trkpt lat="45.05051148372352" lon="8.336043592534242"><ele>206.00000000000003</ele><time>2026-04-10T13:21:04.002Z</time></trkpt><trkpt lat="45.05057403376445" lon="8.336116061733067"><ele>206.0</ele><time>2026-04-10T13:21:05.002Z</time></trkpt><trkpt lat="45.05063666319624" lon="8.336175996951127"><ele>206.0</ele><time>2026-04-10T13:21:06.002Z</time></trkpt><trkpt lat="45.050691974895976" lon="8.336228408096597"><ele>206.0</ele><time>2026-04-10T13:21:07.002Z</time></trkpt><trkpt lat="45.05074621259178" lon="8.336282293252212"><ele>206.00000000000003</ele><time>2026-04-10T13:21:08.002Z</time></trkpt><trkpt lat="45.05084886983499" lon="8.336384231089076"><ele>206.0</ele><time>2026-04-10T13:21:10.002Z</time></trkpt><trkpt lat="45.05093917850998" lon="8.33649071681728"><ele>205.8</ele><time>2026-04-10T13:21:12.002Z</time></trkpt><trkpt lat="45.05100028812307" lon="8.336618202212856"><ele>205.60000000000002</ele><time>2026-04-10T13:21:14.002Z</time></trkpt><trkpt lat="45.0510728055008" lon="8.33669555077536"><ele>205.4</ele><time>2026-04-10T13:21:16.002Z</time></trkpt><trkpt lat="45.05115283890724" lon="8.336781630800573"><ele>205.2</ele><time>2026-04-10T13:21:18.002Z</time></trkpt><trkpt lat="45.05125420717715" lon="8.336863783819428"><ele>205.0</ele><time>2026-04-10T13:21:20.002Z</time></trkpt><trkpt lat="45.05129694604846" lon="8.336936423789705"><ele>205.0</ele><time>2026-04-10T13:21:21.002Z</time></trkpt><trkpt lat="45.051400415003734" lon="8.33703198572899"><ele>205.0</ele><time>2026-04-10T13:21:23.002Z</time></trkpt><trkpt lat="45.05144716539574" lon="8.337091678380398"><ele>205.0</ele><time>2026-04-10T13:21:24.002Z</time></trkpt><trkpt lat="45.051501694886426" lon="8.337138478926084"><ele>205.0</ele><time>2026-04-10T13:21:25.003Z</time></trkpt><trkpt lat="45.05160924059186" lon="8.337222276561484"><ele>205.0</ele><time>2026-04-10T13:21:27.003Z</time></trkpt><trkpt lat="45.05172808180679" lon="8.337274463956712"><ele>205.4</ele><time>2026-04-10T13:21:29.003Z</time></trkpt><trkpt lat="45.05178976001912" lon="8.337292839954564"><ele>205.8</ele><time>2026-04-10T13:21:30.003Z</time></trkpt><trkpt lat="45.05190725504242" lon="8.337323509062891"><ele>206.2</ele><time>2026-04-10T13:21:32.003Z</time></trkpt><trkpt lat="45.052023418578244" lon="8.337341663868061"><ele>206.6</ele><time>2026-04-10T13:21:34.003Z</time></trkpt><trkpt lat="45.05208390384851" lon="8.337478677655632"><ele>207.0</ele><time>2026-04-10T13:21:36.003Z</time></trkpt><trkpt lat="45.05211963339223" lon="8.337616297313566"><ele>207.0</ele><time>2026-04-10T13:21:38.003Z</time></trkpt><trkpt lat="45.052149774740556" lon="8.33772630123534"><ele>207.0</ele><time>2026-04-10T13:21:40.003Z</time></trkpt><trkpt lat="45.05221121707286" lon="8.337831545057822"><ele>207.0</ele><time>2026-04-10T13:21:42.003Z</time></trkpt><trkpt lat="45.0522468351165" lon="8.337953328956436"><ele>207.0</ele><time>2026-04-10T13:21:44.003Z</time></trkpt><trkpt lat="45.05228948867493" lon="8.338026117297998"><ele>207.0</ele><time>2026-04-10T13:21:46.003Z</time></trkpt><trkpt lat="45.05229543053273" lon="8.338123099344326"><ele>207.0</ele><time>2026-04-10T13:21:50.003Z</time></trkpt><trkpt lat="45.052371099786626" lon="8.338185298491046"><ele>206.83333333333334</ele><time>2026-04-10T13:21:52.998Z</time></trkpt><trkpt lat="45.05243261089373" lon="8.33823778968888"><ele>206.66666666666669</ele><time>2026-04-10T13:21:54.999Z</time></trkpt><trkpt lat="45.05249413913838" lon="8.33828685169352"><ele>206.5</ele><time>2026-04-10T13:21:56.999Z</time></trkpt><trkpt lat="45.05255924648158" lon="8.338340667405134"><ele>206.33333333333334</ele><time>2026-04-10T13:21:58.999Z</time></trkpt><trkpt lat="45.05263136650023" lon="8.33841009244571"><ele>206.16666666666669</ele><time>2026-04-10T13:22:00.999Z</time></trkpt><trkpt lat="45.05270776534988" lon="8.338497131175952"><ele>206.0</ele><time>2026-04-10T13:22:02.999Z</time></trkpt><trkpt lat="45.05277295379743" lon="8.33858505549699"><ele>206.50000000000003</ele><time>2026-04-10T13:22:04.999Z</time></trkpt><trkpt lat="45.05282663822232" lon="8.338671457355881"><ele>207.0</ele><time>2026-04-10T13:22:06.999Z</time></trkpt><trkpt lat="45.05287222030887" lon="8.338747981260001"><ele>207.5</ele><time>2026-04-10T13:22:08.999Z</time></trkpt><trkpt lat="45.05292191419587" lon="8.338837764030883"><ele>208.0</ele><time>2026-04-10T13:22:12Z</time></trkpt><trkpt lat="45.052871656391254" lon="8.338749103161927"><ele>208.50000000000003</ele><time>2026-04-10T13:22:22Z</time></trkpt><trkpt lat="45.052827102898" lon="8.33867223757827"><ele>209.0</ele><time>2026-04-10T13:22:27Z</time></trkpt><trkpt lat="45.052973292680235" lon="8.338460056840601"><ele>209.00000000000003</ele><time>2026-04-10T13:22:29Z</time></trkpt><trkpt lat="45.05302769695538" lon="8.33839262033256"><ele>209.0</ele><time>2026-04-10T13:22:31.001Z</time></trkpt><trkpt lat="45.05307971204824" lon="8.338313540955351"><ele>209.0</ele><time>2026-04-10T13:22:33.001Z</time></trkpt><trkpt lat="45.05314717315769" lon="8.338239681627497"><ele>209.0</ele><time>2026-04-10T13:22:35.001Z</time></trkpt><trkpt lat="45.05319678669811" lon="8.33815117108565"><ele>209.00000000000003</ele><time>2026-04-10T13:22:37.001Z</time></trkpt><trkpt lat="45.053244498964226" lon="8.338063459591124"><ele>209.0</ele><time>2026-04-10T13:22:39.001Z</time></trkpt><trkpt lat="45.053305975018326" lon="8.337982322244011"><ele>210.50000000000003</ele><time>2026-04-10T13:22:41.001Z</time></trkpt><trkpt lat="45.053358456375804" lon="8.3378755715107"><ele>212.0</ele><time>2026-04-10T13:22:43.001Z</time></trkpt><trkpt lat="45.05341208690874" lon="8.337771746009096"><ele>213.5</ele><time>2026-04-10T13:22:45.001Z</time></trkpt><trkpt lat="45.0534636800859" lon="8.33767999365028"><ele>215.0</ele><time>2026-04-10T13:22:47.001Z</time></trkpt><trkpt lat="45.05351487447597" lon="8.337612874598394"><ele>216.50000000000003</ele><time>2026-04-10T13:22:49.001Z</time></trkpt><trkpt lat="45.05357209744917" lon="8.337565238958394"><ele>218.0</ele><time>2026-04-10T13:22:51.001Z</time></trkpt><trkpt lat="45.0536375787859" lon="8.337515184527309"><ele>218.0</ele><time>2026-04-10T13:22:53.001Z</time></trkpt><trkpt lat="45.05370297104818" lon="8.33746934257515"><ele>218.0</ele><time>2026-04-10T13:22:55.001Z</time></trkpt><trkpt lat="45.053761748203804" lon="8.33743052936231"><ele>218.0</ele><time>2026-04-10T13:22:57.001Z</time></trkpt><trkpt lat="45.05382327621116" lon="8.33739116037088"><ele>218.0</ele><time>2026-04-10T13:22:59.002Z</time></trkpt><trkpt lat="45.05388615822749" lon="8.337353560287143"><ele>218.0</ele><time>2026-04-10T13:23:01.002Z</time></trkpt><trkpt lat="45.053952006592375" lon="8.337315331702538"><ele>218.0</ele><time>2026-04-10T13:23:03.002Z</time></trkpt><trkpt lat="45.054018511223454" lon="8.33727838425835"><ele>218.0</ele><time>2026-04-10T13:23:05.002Z</time></trkpt><trkpt lat="45.054102062311514" lon="8.337231966263346"><ele>218.16666666666669</ele><time>2026-04-10T13:23:07.002Z</time></trkpt><trkpt lat="45.054173536773355" lon="8.337193908045272"><ele>218.33333333333334</ele><time>2026-04-10T13:23:09.002Z</time></trkpt><trkpt lat="45.054244926083136" lon="8.337162995045654"><ele>218.5</ele><time>2026-04-10T13:23:11.002Z</time></trkpt><trkpt lat="45.054317046348615" lon="8.337136878711817"><ele>218.66666666666669</ele><time>2026-04-10T13:23:13.002Z</time></trkpt><trkpt lat="45.05438921245168" lon="8.337116772131262"><ele>218.83333333333334</ele><time>2026-04-10T13:23:15.002Z</time></trkpt><trkpt lat="45.0544640562525" lon="8.337096215681838"><ele>219.0</ele><time>2026-04-10T13:23:17.002Z</time></trkpt><trkpt lat="45.05453900933678" lon="8.337074200070573"><ele>219.0</ele><time>2026-04-10T13:23:19.002Z</time></trkpt><trkpt lat="45.054609659582724" lon="8.337049436333503"><ele>219.0</ele><time>2026-04-10T13:23:21.002Z</time></trkpt><trkpt lat="45.054683174400665" lon="8.337020935124963"><ele>219.0</ele><time>2026-04-10T13:23:23.002Z</time></trkpt><trkpt lat="45.054758350152575" lon="8.336991077278455"><ele>219.0</ele><time>2026-04-10T13:23:25.002Z</time></trkpt><trkpt lat="45.05482983635698" lon="8.336968455925433"><ele>219.0</ele><time>2026-04-10T13:23:27.002Z</time></trkpt><trkpt lat="45.05489582201019" lon="8.336951358111863"><ele>219.0</ele><time>2026-04-10T13:23:29.002Z</time></trkpt><trkpt lat="45.05496946991965" lon="8.33694409353471"><ele>219.0</ele><time>2026-04-10T13:23:31.003Z</time></trkpt><trkpt lat="45.05504277528852" lon="8.336954922927456"><ele>220.66666666666666</ele><time>2026-04-10T13:23:33.003Z</time></trkpt><trkpt lat="45.055128597290405" lon="8.336977194225797"><ele>222.33333333333331</ele><time>2026-04-10T13:23:35.003Z</time></trkpt><trkpt lat="45.055209051981606" lon="8.33700620568374"><ele>224.0</ele><time>2026-04-10T13:23:37.003Z</time></trkpt><trkpt lat="45.05527720349777" lon="8.337039147979166"><ele>225.66666666666666</ele><time>2026-04-10T13:23:39.003Z</time></trkpt><trkpt lat="45.05534190957237" lon="8.337077356686889"><ele>227.33333333333331</ele><time>2026-04-10T13:23:42.003Z</time></trkpt><trkpt lat="45.05541040549442" lon="8.337120170391522"><ele>229.0</ele><time>2026-04-10T13:23:45.003Z</time></trkpt><trkpt lat="45.05547686898734" lon="8.337180015381136"><ele>229.0</ele><time>2026-04-10T13:23:48.003Z</time></trkpt><trkpt lat="45.055551332251206" lon="8.337229843693498"><ele>229.0</ele><time>2026-04-10T13:23:50.003Z</time></trkpt><trkpt lat="45.055615122879125" lon="8.33723226596719"><ele>229.0</ele><time>2026-04-10T13:23:51.003Z</time></trkpt><trkpt lat="45.055680385044894" lon="8.337213793208692"><ele>229.0</ele><time>2026-04-10T13:23:52.003Z</time></trkpt><trkpt lat="45.05574386587855" lon="8.337187493785443"><ele>229.0</ele><time>2026-04-10T13:23:53.003Z</time></trkpt><trkpt lat="45.055795839522744" lon="8.337113444038657"><ele>229.0</ele><time>2026-04-10T13:23:54.003Z</time></trkpt><trkpt lat="45.05585203878773" lon="8.33705542180484"><ele>229.0</ele><time>2026-04-10T13:23:55.003Z</time></trkpt><trkpt lat="45.055918945399014" lon="8.337003372751951"><ele>228.83333333333331</ele><time>2026-04-10T13:23:56.003Z</time></trkpt><trkpt lat="45.05597228320861" lon="8.336934420821544"><ele>228.66666666666666</ele><time>2026-04-10T13:23:57.003Z</time></trkpt><trkpt lat="45.056026877019754" lon="8.336863668968718"><ele>228.5</ele><time>2026-04-10T13:23:57.998Z</time></trkpt><trkpt lat="45.056079181380234" lon="8.336783618026558"><ele>228.33333333333331</ele><time>2026-04-10T13:23:58.998Z</time></trkpt><trkpt lat="45.05613574988611" lon="8.336711636575506"><ele>228.16666666666666</ele><time>2026-04-10T13:23:59.998Z</time></trkpt><trkpt lat="45.05620043257271" lon="8.336653083948812"><ele>228.0</ele><time>2026-04-10T13:24:00.999Z</time></trkpt><trkpt lat="45.0562785745582" lon="8.336622156255364"><ele>228.0</ele><time>2026-04-10T13:24:01.999Z</time></trkpt><trkpt lat="45.05635686243025" lon="8.33657684925271"><ele>228.0</ele><time>2026-04-10T13:24:02.999Z</time></trkpt><trkpt lat="45.05644143926013" lon="8.33655357600939"><ele>228.0</ele><time>2026-04-10T13:24:03.999Z</time></trkpt><trkpt lat="45.05653103449227" lon="8.336536107971902"><ele>228.0</ele><time>2026-04-10T13:24:04.999Z</time></trkpt><trkpt lat="45.05662493660714" lon="8.33652601208294"><ele>228.0</ele><time>2026-04-10T13:24:05.999Z</time></trkpt><trkpt lat="45.056719092411306" lon="8.336510560211916"><ele>228.0</ele><time>2026-04-10T13:24:06.999Z</time></trkpt><trkpt lat="45.0568128068848" lon="8.336488586530432"><ele>228.0</ele><time>2026-04-10T13:24:07.999Z</time></trkpt><trkpt lat="45.056909411680124" lon="8.336450230404308"><ele>228.0</ele><time>2026-04-10T13:24:08.999Z</time></trkpt><trkpt lat="45.0569999642301" lon="8.336395046104382"><ele>228.0</ele><time>2026-04-10T13:24:09.999Z</time></trkpt><trkpt lat="45.05707883158349" lon="8.336315597634197"><ele>228.0</ele><time>2026-04-10T13:24:10.999Z</time></trkpt><trkpt lat="45.0571693835074" lon="8.336279996844771"><ele>227.0</ele><time>2026-04-10T13:24:11.999Z</time></trkpt><trkpt lat="45.05725144763772" lon="8.336223901879785"><ele>226.0</ele><time>2026-04-10T13:24:12.999Z</time></trkpt><trkpt lat="45.05733079437247" lon="8.336169108900545"><ele>225.0</ele><time>2026-04-10T13:24:13.999Z</time></trkpt><trkpt lat="45.05741004746578" lon="8.336112293059786"><ele>224.0</ele><time>2026-04-10T13:24:14.999Z</time></trkpt><trkpt lat="45.05747883666918" lon="8.3360390356499"><ele>223.0</ele><time>2026-04-10T13:24:15.999Z</time></trkpt><trkpt lat="45.057552005992584" lon="8.335986416249616"><ele>222.0</ele><time>2026-04-10T13:24:17Z</time></trkpt><trkpt lat="45.05762628450677" lon="8.335935974246071"><ele>222.0</ele><time>2026-04-10T13:24:18Z</time></trkpt><trkpt lat="45.05769031451146" lon="8.335872970959496"><ele>222.0</ele><time>2026-04-10T13:24:19Z</time></trkpt><trkpt lat="45.05774772607205" lon="8.335807375462148"><ele>222.0</ele><time>2026-04-10T13:24:20Z</time></trkpt><trkpt lat="45.05780182313147" lon="8.33573161059339"><ele>222.0</ele><time>2026-04-10T13:24:21Z</time></trkpt><trkpt lat="45.057848320536586" lon="8.335658291115834"><ele>222.0</ele><time>2026-04-10T13:24:22Z</time></trkpt><trkpt lat="45.05788699352366" lon="8.335582014321032"><ele>222.0</ele><time>2026-04-10T13:24:23Z</time></trkpt><trkpt lat="45.057919650873295" lon="8.335501740474177"><ele>222.0</ele><time>2026-04-10T13:24:24Z</time></trkpt><trkpt lat="45.05799536158368" lon="8.3353760336587"><ele>222.39999999999998</ele><time>2026-04-10T13:24:26Z</time></trkpt><trkpt lat="45.0580770112244" lon="8.335275692303686"><ele>222.79999999999998</ele><time>2026-04-10T13:24:28Z</time></trkpt><trkpt lat="45.05816899226886" lon="8.335191328694272"><ele>223.2</ele><time>2026-04-10T13:24:30Z</time></trkpt><trkpt lat="45.05828625345904" lon="8.335170115877785"><ele>223.6</ele><time>2026-04-10T13:24:32Z</time></trkpt><trkpt lat="45.05839094405895" lon="8.335156041159392"><ele>224.0</ele><time>2026-04-10T13:24:34Z</time></trkpt><trkpt lat="45.05850128337136" lon="8.335133045311677"><ele>224.2</ele><time>2026-04-10T13:24:36Z</time></trkpt><trkpt lat="45.05860889357814" lon="8.33509572562869"><ele>224.39999999999998</ele><time>2026-04-10T13:24:38.001Z</time></trkpt><trkpt lat="45.05871028490422" lon="8.335065975205671"><ele>224.6</ele><time>2026-04-10T13:24:40.001Z</time></trkpt><trkpt lat="45.05880086868226" lon="8.33504303710895"><ele>224.8</ele><time>2026-04-10T13:24:42.001Z</time></trkpt><trkpt lat="45.05888292695779" lon="8.335025020697243"><ele>225.0</ele><time>2026-04-10T13:24:44.001Z</time></trkpt><trkpt lat="45.058963900230914" lon="8.335011691316124"><ele>225.00000000000003</ele><time>2026-04-10T13:24:46.001Z</time></trkpt><trkpt lat="45.05903668126532" lon="8.335002715611054"><ele>225.0</ele><time>2026-04-10T13:24:48.001Z</time></trkpt><trkpt lat="45.05911191997375" lon="8.334998530049127"><ele>225.00000000000003</ele><time>2026-04-10T13:24:50.001Z</time></trkpt><trkpt lat="45.059183618492675" lon="8.335002742899084"><ele>225.00000000000003</ele><time>2026-04-10T13:24:52.001Z</time></trkpt><trkpt lat="45.059256056701564" lon="8.335007744482683"><ele>225.0</ele><time>2026-04-10T13:24:54.001Z</time></trkpt><trkpt lat="45.05932839265057" lon="8.335026310069335"><ele>225.00000000000003</ele><time>2026-04-10T13:24:56.001Z</time></trkpt><trkpt lat="45.05940526879018" lon="8.334997874244976"><ele>225.00000000000003</ele><time>2026-04-10T13:24:58.001Z</time></trkpt><trkpt lat="45.05947804716531" lon="8.33501433617574"><ele>226.83333333333334</ele><time>2026-04-10T13:25:00.001Z</time></trkpt><trkpt lat="45.0595482792043" lon="8.335025519187077"><ele>228.66666666666669</ele><time>2026-04-10T13:25:02.001Z</time></trkpt><trkpt lat="45.05962558214195" lon="8.335076828786121"><ele>230.5</ele><time>2026-04-10T13:25:04.001Z</time></trkpt><trkpt lat="45.05970669337427" lon="8.33508975998247"><ele>232.33333333333334</ele><time>2026-04-10T13:25:06.002Z</time></trkpt><trkpt lat="45.0597879989552" lon="8.335098156592997"><ele>234.16666666666669</ele><time>2026-04-10T13:25:08.002Z</time></trkpt><trkpt lat="45.05987552507263" lon="8.335101559925405"><ele>236.0</ele><time>2026-04-10T13:25:10.002Z</time></trkpt><trkpt lat="45.05996485853054" lon="8.335099464454293"><ele>236.50000000000003</ele><time>2026-04-10T13:25:12.002Z</time></trkpt><trkpt lat="45.06005052169813" lon="8.335093923775677"><ele>237.0</ele><time>2026-04-10T13:25:14.002Z</time></trkpt><trkpt lat="45.06013344770557" lon="8.335085793685641"><ele>237.5</ele><time>2026-04-10T13:25:16.002Z</time></trkpt><trkpt lat="45.06021663808" lon="8.335076675774285"><ele>238.0</ele><time>2026-04-10T13:25:18.002Z</time></trkpt><trkpt lat="45.06029492011782" lon="8.335070039640705"><ele>238.50000000000003</ele><time>2026-04-10T13:25:20.002Z</time></trkpt><trkpt lat="45.06037118111347" lon="8.33506494481043"><ele>239.0</ele><time>2026-04-10T13:25:22.002Z</time></trkpt><trkpt lat="45.06044440277893" lon="8.335061453680902"><ele>239.00000000000003</ele><time>2026-04-10T13:25:24.002Z</time></trkpt><trkpt lat="45.060516000008526" lon="8.335058039999582"><ele>239.0</ele><time>2026-04-10T13:25:26.002Z</time></trkpt><trkpt lat="45.060589099723614" lon="8.33505455468196"><ele>239.00000000000003</ele><time>2026-04-10T13:25:28.002Z</time></trkpt><trkpt lat="45.06065916654311" lon="8.335051213977748"><ele>239.00000000000003</ele><time>2026-04-10T13:25:30.002Z</time></trkpt><trkpt lat="45.060732107443386" lon="8.335047865720465"><ele>239.0</ele><time>2026-04-10T13:25:32.002Z</time></trkpt><trkpt lat="45.06080151900338" lon="8.335047053691481"><ele>239.00000000000003</ele><time>2026-04-10T13:25:34.002Z</time></trkpt><trkpt lat="45.060874508273926" lon="8.335048515925765"><ele>239.00000000000003</ele><time>2026-04-10T13:25:36.002Z</time></trkpt><trkpt lat="45.060940480662985" lon="8.335056207820257"><ele>240.28571428571433</ele><time>2026-04-10T13:25:38.002Z</time></trkpt><trkpt lat="45.06101111440418" lon="8.33507036608515"><ele>241.57142857142858</ele><time>2026-04-10T13:25:40.003Z</time></trkpt><trkpt lat="45.0610758417069" lon="8.33509098798488"><ele>242.8571428571429</ele><time>2026-04-10T13:25:42.003Z</time></trkpt><trkpt lat="45.061148391109526" lon="8.335117251393767"><ele>244.14285714285717</ele><time>2026-04-10T13:25:44.003Z</time></trkpt><trkpt lat="45.06121858828159" lon="8.335145056286825"><ele>245.42857142857144</ele><time>2026-04-10T13:25:46.003Z</time></trkpt><trkpt lat="45.06128956990088" lon="8.335175094299915"><ele>246.71428571428572</ele><time>2026-04-10T13:25:48.003Z</time></trkpt><trkpt lat="45.061358603013346" lon="8.3352042301169"><ele>248.0</ele><time>2026-04-10T13:25:50.003Z</time></trkpt><trkpt lat="45.06143073770252" lon="8.335233408528032"><ele>248.00000000000003</ele><time>2026-04-10T13:25:52.003Z</time></trkpt><trkpt lat="45.06151026785737" lon="8.335259330597825"><ele>248.0</ele><time>2026-04-10T13:25:54.003Z</time></trkpt><trkpt lat="45.06158713409572" lon="8.335281192734538"><ele>248.0</ele><time>2026-04-10T13:25:56.003Z</time></trkpt><trkpt lat="45.06166162123689" lon="8.335299022726003"><ele>248.0</ele><time>2026-04-10T13:25:58.003Z</time></trkpt><trkpt lat="45.061742705469065" lon="8.335311145360846"><ele>248.00000000000003</ele><time>2026-04-10T13:26:00.003Z</time></trkpt><trkpt lat="45.06182039764818" lon="8.335318374198607"><ele>248.0</ele><time>2026-04-10T13:26:02.003Z</time></trkpt><trkpt lat="45.06189374245519" lon="8.33532531687163"><ele>249.66666666666669</ele><time>2026-04-10T13:26:03.998Z</time></trkpt><trkpt lat="45.06196606739631" lon="8.335332162970273"><ele>251.33333333333334</ele><time>2026-04-10T13:26:05.998Z</time></trkpt><trkpt lat="45.06203212250661" lon="8.335316097157715"><ele>253.0</ele><time>2026-04-10T13:26:07.999Z</time></trkpt><trkpt lat="45.06210076276794" lon="8.335312577201545"><ele>254.66666666666669</ele><time>2026-04-10T13:26:09.999Z</time></trkpt><trkpt lat="45.06217544207807" lon="8.335332482396748"><ele>256.3333333333333</ele><time>2026-04-10T13:26:11.999Z</time></trkpt><trkpt lat="45.06225253206896" lon="8.335353995952294"><ele>258.0</ele><time>2026-04-10T13:26:13.999Z</time></trkpt><trkpt lat="45.062356632515986" lon="8.335389893371566"><ele>257.99999999999994</ele><time>2026-04-10T13:26:16.999Z</time></trkpt><trkpt lat="45.062428090016766" lon="8.335408419928488"><ele>258.0</ele><time>2026-04-10T13:26:18.999Z</time></trkpt><trkpt lat="45.06249705512941" lon="8.335438024928465"><ele>258.0</ele><time>2026-04-10T13:26:20.999Z</time></trkpt><trkpt lat="45.062564182812515" lon="8.335449619573604"><ele>258.0</ele><time>2026-04-10T13:26:23Z</time></trkpt><trkpt lat="45.06264152455938" lon="8.335474977986946"><ele>258.0</ele><time>2026-04-10T13:26:26Z</time></trkpt><trkpt lat="45.062727948131815" lon="8.335484054391376"><ele>257.99999999999994</ele><time>2026-04-10T13:26:29Z</time></trkpt><trkpt lat="45.06279121443183" lon="8.33549833021662"><ele>258.0</ele><time>2026-04-10T13:26:31Z</time></trkpt><trkpt lat="45.062882191850925" lon="8.335506262994391"><ele>259.6666666666667</ele><time>2026-04-10T13:26:34Z</time></trkpt><trkpt lat="45.062945780185636" lon="8.335504703845253"><ele>261.3333333333333</ele><time>2026-04-10T13:26:36Z</time></trkpt><trkpt lat="45.06303338374913" lon="8.335490807961104"><ele>263.0</ele><time>2026-04-10T13:26:39Z</time></trkpt><trkpt lat="45.06309958480291" lon="8.335487546508505"><ele>264.66666666666663</ele><time>2026-04-10T13:26:41.001Z</time></trkpt><trkpt lat="45.06318493421955" lon="8.335478225605938"><ele>266.3333333333333</ele><time>2026-04-10T13:26:44.001Z</time></trkpt><trkpt lat="45.0632492044564" lon="8.335462779879968"><ele>268.0</ele><time>2026-04-10T13:26:46.001Z</time></trkpt><trkpt lat="45.063335461243234" lon="8.335433584173709"><ele>270.0</ele><time>2026-04-10T13:26:49.001Z</time></trkpt><trkpt lat="45.063409261204434" lon="8.33539169025516"><ele>272.0</ele><time>2026-04-10T13:26:52.001Z</time></trkpt><trkpt lat="45.06348193561372" lon="8.3353285306162"><ele>274.0</ele><time>2026-04-10T13:26:55.001Z</time></trkpt><trkpt lat="45.06356777468477" lon="8.335294206481633"><ele>276.0</ele><time>2026-04-10T13:26:58.001Z</time></trkpt><trkpt lat="45.063646703792834" lon="8.335246880277158"><ele>278.0</ele><time>2026-04-10T13:27:01.001Z</time></trkpt><trkpt lat="45.063728262516584" lon="8.33519492104031"><ele>280.0</ele><time>2026-04-10T13:27:04.001Z</time></trkpt><trkpt lat="45.063809021414464" lon="8.335138202458959"><ele>280.0</ele><time>2026-04-10T13:27:07.001Z</time></trkpt><trkpt lat="45.063869269762" lon="8.335110687090541"><ele>280.0</ele><time>2026-04-10T13:27:09.002Z</time></trkpt><trkpt lat="45.0639227525104" lon="8.335063110979496"><ele>280.0</ele><time>2026-04-10T13:27:11.002Z</time></trkpt><trkpt lat="45.06399650512123" lon="8.335012495607497"><ele>280.0</ele><time>2026-04-10T13:27:14.002Z</time></trkpt><trkpt lat="45.06407368207534" lon="8.334966679537562"><ele>280.0</ele><time>2026-04-10T13:27:17.002Z</time></trkpt><trkpt lat="45.064151608335685" lon="8.334906164003858"><ele>280.0</ele><time>2026-04-10T13:27:20.002Z</time></trkpt><trkpt lat="45.064239323343664" lon="8.334898047494109"><ele>281.0</ele><time>2026-04-10T13:27:23.002Z</time></trkpt><trkpt lat="45.064325774856435" lon="8.334859796407565"><ele>282.0</ele><time>2026-04-10T13:27:26.002Z</time></trkpt><trkpt lat="45.06439814403782" lon="8.334824040502278"><ele>283.0</ele><time>2026-04-10T13:27:28.002Z</time></trkpt><trkpt lat="45.06447691643834" lon="8.334777906563687"><ele>284.0</ele><time>2026-04-10T13:27:30.002Z</time></trkpt><trkpt lat="45.064563562360945" lon="8.334741788644664"><ele>285.0</ele><time>2026-04-10T13:27:32.002Z</time></trkpt><trkpt lat="45.06465980990366" lon="8.334720706014464"><ele>286.0</ele><time>2026-04-10T13:27:34.002Z</time></trkpt><trkpt lat="45.064748333261804" lon="8.334719263368882"><ele>286.0</ele><time>2026-04-10T13:27:36.002Z</time></trkpt><trkpt lat="45.0648363678696" lon="8.334713547771921"><ele>286.0</ele><time>2026-04-10T13:27:38.002Z</time></trkpt><trkpt lat="45.06491560135836" lon="8.33469349485817"><ele>286.0</ele><time>2026-04-10T13:27:40.002Z</time></trkpt><trkpt lat="45.06500476292724" lon="8.334655265094003"><ele>286.0</ele><time>2026-04-10T13:27:42.003Z</time></trkpt><trkpt lat="45.06508339930241" lon="8.334595701756948"><ele>286.0</ele><time>2026-04-10T13:27:44.003Z</time></trkpt><trkpt lat="45.06517385338234" lon="8.334543819782775"><ele>286.0</ele><time>2026-04-10T13:27:46.003Z</time></trkpt><trkpt lat="45.065249873124834" lon="8.334457772590582"><ele>286.0</ele><time>2026-04-10T13:27:48.003Z</time></trkpt><trkpt lat="45.065315281896176" lon="8.334359146378732"><ele>286.0</ele><time>2026-04-10T13:27:50.003Z</time></trkpt><trkpt lat="45.065381333497065" lon="8.334266226345393"><ele>286.0</ele><time>2026-04-10T13:27:52.003Z</time></trkpt><trkpt lat="45.06545116016962" lon="8.33417985825651"><ele>286.0</ele><time>2026-04-10T13:27:54.003Z</time></trkpt><trkpt lat="45.06554584096015" lon="8.334089348160049"><ele>286.0</ele><time>2026-04-10T13:27:56.003Z</time></trkpt><trkpt lat="45.065646282488714" lon="8.334019547813817"><ele>286.0</ele><time>2026-04-10T13:27:58.003Z</time></trkpt><trkpt lat="45.065735701875184" lon="8.333995004175257"><ele>286.0</ele><time>2026-04-10T13:28:00.003Z</time></trkpt><trkpt lat="45.06581216637896" lon="8.333946231440096"><ele>286.0</ele><time>2026-04-10T13:28:02.003Z</time></trkpt><trkpt lat="45.065895696776806" lon="8.333894596482779"><ele>286.0</ele><time>2026-04-10T13:28:04.003Z</time></trkpt><trkpt lat="45.06598503678087" lon="8.333838174450381"><ele>286.0</ele><time>2026-04-10T13:28:06.003Z</time></trkpt><trkpt lat="45.06605982606087" lon="8.333742098723517"><ele>286.0</ele><time>2026-04-10T13:28:08.003Z</time></trkpt><trkpt lat="45.06611796306897" lon="8.333640459904599"><ele>286.0</ele><time>2026-04-10T13:28:09.998Z</time></trkpt><trkpt lat="45.06616519404514" lon="8.333523325260458"><ele>286.0</ele><time>2026-04-10T13:28:11.999Z</time></trkpt><trkpt lat="45.066210141203555" lon="8.333398354139279"><ele>286.0</ele><time>2026-04-10T13:28:13.999Z</time></trkpt><trkpt lat="45.06625951819288" lon="8.33325467953645"><ele>286.0</ele><time>2026-04-10T13:28:15.999Z</time></trkpt><trkpt lat="45.06631515239134" lon="8.333093441479772"><ele>284.1428571428571</ele><time>2026-04-10T13:28:17.999Z</time></trkpt><trkpt lat="45.066345642299275" lon="8.33300650772849"><ele>282.2857142857143</ele><time>2026-04-10T13:28:18.999Z</time></trkpt><trkpt lat="45.066376904517256" lon="8.33291737194534"><ele>280.42857142857144</ele><time>2026-04-10T13:28:19.999Z</time></trkpt><trkpt lat="45.06639428350964" lon="8.332816422756729"><ele>278.57142857142856</ele><time>2026-04-10T13:28:20.999Z</time></trkpt><trkpt lat="45.06642848782238" lon="8.332723460345358"><ele>276.7142857142857</ele><time>2026-04-10T13:28:21.999Z</time></trkpt><trkpt lat="45.06646317597578" lon="8.332625808936019"><ele>274.85714285714283</ele><time>2026-04-10T13:28:22.999Z</time></trkpt><trkpt lat="45.066501681923235" lon="8.332523774662786"><ele>273.0</ele><time>2026-04-10T13:28:23.999Z</time></trkpt><trkpt lat="45.066539267960934" lon="8.332416299279487"><ele>273.0</ele><time>2026-04-10T13:28:24.999Z</time></trkpt><trkpt lat="45.06657660862162" lon="8.332305008223843"><ele>273.0</ele><time>2026-04-10T13:28:25.999Z</time></trkpt><trkpt lat="45.066614535236944" lon="8.332189854467275"><ele>273.0</ele><time>2026-04-10T13:28:26.999Z</time></trkpt><trkpt lat="45.0666515178649" lon="8.332076478477736"><ele>273.0</ele><time>2026-04-10T13:28:28Z</time></trkpt><trkpt lat="45.06670284881212" lon="8.331962804228372"><ele>273.0</ele><time>2026-04-10T13:28:29Z</time></trkpt><trkpt lat="45.06674390726787" lon="8.331850260394718"><ele>273.4</ele><time>2026-04-10T13:28:30Z</time></trkpt><trkpt lat="45.06681300217328" lon="8.33176122480651"><ele>273.8</ele><time>2026-04-10T13:28:31Z</time></trkpt><trkpt lat="45.06688743313756" lon="8.33168984521913"><ele>274.2</ele><time>2026-04-10T13:28:32Z</time></trkpt><trkpt lat="45.066963953886514" lon="8.331621610042477"><ele>274.6</ele><time>2026-04-10T13:28:33Z</time></trkpt><trkpt lat="45.06703309100707" lon="8.331542834737075"><ele>275.0</ele><time>2026-04-10T13:28:34Z</time></trkpt><trkpt lat="45.06709859738093" lon="8.331460849863397"><ele>272.4</ele><time>2026-04-10T13:28:35Z</time></trkpt><trkpt lat="45.06715944184436" lon="8.331364671416639"><ele>269.8</ele><time>2026-04-10T13:28:36Z</time></trkpt><trkpt lat="45.06721004359165" lon="8.331262669560745"><ele>267.2</ele><time>2026-04-10T13:28:37Z</time></trkpt><trkpt lat="45.067250464570094" lon="8.331152539010292"><ele>264.6</ele><time>2026-04-10T13:28:38Z</time></trkpt><trkpt lat="45.06728722729968" lon="8.33103261537404"><ele>262.0</ele><time>2026-04-10T13:28:39Z</time></trkpt><trkpt lat="45.067307686771024" lon="8.33090076018233"><ele>262.0</ele><time>2026-04-10T13:28:40Z</time></trkpt><trkpt lat="45.067315643676025" lon="8.330771949732979"><ele>262.0</ele><time>2026-04-10T13:28:41Z</time></trkpt><trkpt lat="45.06730584910795" lon="8.330650670956581"><ele>262.0</ele><time>2026-04-10T13:28:42Z</time></trkpt><trkpt lat="45.06729484850511" lon="8.330534821463212"><ele>262.0</ele><time>2026-04-10T13:28:43Z</time></trkpt><trkpt lat="45.067283250759495" lon="8.330438753469506"><ele>262.0</ele><time>2026-04-10T13:28:44Z</time></trkpt><trkpt lat="45.06726066651079" lon="8.33027501393438"><ele>262.0</ele><time>2026-04-10T13:28:46.001Z</time></trkpt><trkpt lat="45.06726509042237" lon="8.330121036068501"><ele>262.5</ele><time>2026-04-10T13:28:48.001Z</time></trkpt><trkpt lat="45.06738038572781" lon="8.33006282599962"><ele>263.0</ele><time>2026-04-10T13:28:50.001Z</time></trkpt><trkpt lat="45.06743675978054" lon="8.330141802075826"><ele>263.5</ele><time>2026-04-10T13:28:51.001Z</time></trkpt><trkpt lat="45.0674928280871" lon="8.330185613754757"><ele>264.0</ele><time>2026-04-10T13:28:52.001Z</time></trkpt><trkpt lat="45.06755105493758" lon="8.330234939245345"><ele>264.5</ele><time>2026-04-10T13:28:53.001Z</time></trkpt><trkpt lat="45.0676142121076" lon="8.330263770292701"><ele>265.0</ele><time>2026-04-10T13:28:54.001Z</time></trkpt><trkpt lat="45.067667836047846" lon="8.330312496120387"><ele>265.0</ele><time>2026-04-10T13:28:55.001Z</time></trkpt><trkpt lat="45.06775111188199" lon="8.330441463925974"><ele>265.0</ele><time>2026-04-10T13:28:57.001Z</time></trkpt><trkpt lat="45.067787858277384" lon="8.330585135079003"><ele>265.0</ele><time>2026-04-10T13:28:59.001Z</time></trkpt><trkpt lat="45.067811153286414" lon="8.330743151302514"><ele>265.0</ele><time>2026-04-10T13:29:01.001Z</time></trkpt><trkpt lat="45.06782854840867" lon="8.330831510269537"><ele>265.0</ele><time>2026-04-10T13:29:02.001Z</time></trkpt><trkpt lat="45.067860573450396" lon="8.330918776844843"><ele>266.0</ele><time>2026-04-10T13:29:03.001Z</time></trkpt><trkpt lat="45.067922962074995" lon="8.33098909775301"><ele>267.0</ele><time>2026-04-10T13:29:04.001Z</time></trkpt><trkpt lat="45.06798692228442" lon="8.331045195736312"><ele>268.0</ele><time>2026-04-10T13:29:05.001Z</time></trkpt><trkpt lat="45.0680636713611" lon="8.331071574953308"><ele>269.0</ele><time>2026-04-10T13:29:06.001Z</time></trkpt><trkpt lat="45.06813230017974" lon="8.331133216891345"><ele>270.0</ele><time>2026-04-10T13:29:07.001Z</time></trkpt><trkpt lat="45.06820911962937" lon="8.331169657923816"><ele>271.0</ele><time>2026-04-10T13:29:08.001Z</time></trkpt><trkpt lat="45.06828166408351" lon="8.331194789471406"><ele>269.0</ele><time>2026-04-10T13:29:09.001Z</time></trkpt><trkpt lat="45.068353877761886" lon="8.331191294511047"><ele>267.0</ele><time>2026-04-10T13:29:10.001Z</time></trkpt><trkpt lat="45.068427453544096" lon="8.33120334994166"><ele>265.0</ele><time>2026-04-10T13:29:11.001Z</time></trkpt><trkpt lat="45.06849817671609" lon="8.331128967409759"><ele>263.0</ele><time>2026-04-10T13:29:12.001Z</time></trkpt><trkpt lat="45.068571961805155" lon="8.331067905564968"><ele>261.0</ele><time>2026-04-10T13:29:13.001Z</time></trkpt><trkpt lat="45.06863152551473" lon="8.330996306732994"><ele>259.0</ele><time>2026-04-10T13:29:14.001Z</time></trkpt><trkpt lat="45.06869330116811" lon="8.33092530598028"><ele>259.0</ele><time>2026-04-10T13:29:15.002Z</time></trkpt><trkpt lat="45.068748925892976" lon="8.330843294445653"><ele>259.0</ele><time>2026-04-10T13:29:16.002Z</time></trkpt><trkpt lat="45.06881845595068" lon="8.330785158081964"><ele>259.0</ele><time>2026-04-10T13:29:17.002Z</time></trkpt><trkpt lat="45.068860551558075" lon="8.330714758441438"><ele>259.0</ele><time>2026-04-10T13:29:18.002Z</time></trkpt><trkpt lat="45.06892311868464" lon="8.330660930545434"><ele>259.0</ele><time>2026-04-10T13:29:19.002Z</time></trkpt><trkpt lat="45.068997212898545" lon="8.33064870949931"><ele>259.0</ele><time>2026-04-10T13:29:20.002Z</time></trkpt><trkpt lat="45.06906914566702" lon="8.330616302342577"><ele>259.0</ele><time>2026-04-10T13:29:21.002Z</time></trkpt><trkpt lat="45.069145084178544" lon="8.330587188658267"><ele>257.0</ele><time>2026-04-10T13:29:22.002Z</time></trkpt><trkpt lat="45.06921842251753" lon="8.33054699036541"><ele>255.0</ele><time>2026-04-10T13:29:23.002Z</time></trkpt><trkpt lat="45.069283029006016" lon="8.330481813574213"><ele>253.0</ele><time>2026-04-10T13:29:24.002Z</time></trkpt><trkpt lat="45.06936061167033" lon="8.330438793232991"><ele>251.0</ele><time>2026-04-10T13:29:25.002Z</time></trkpt><trkpt lat="45.06943788126977" lon="8.330385405366084"><ele>248.99999999999997</ele><time>2026-04-10T13:29:26.002Z</time></trkpt><trkpt lat="45.069516087650676" lon="8.330331097970252"><ele>247.0</ele><time>2026-04-10T13:29:27.002Z</time></trkpt><trkpt lat="45.069596103482205" lon="8.330277458426776"><ele>247.0</ele><time>2026-04-10T13:29:28.002Z</time></trkpt><trkpt lat="45.069677889471365" lon="8.330224484897434"><ele>247.0</ele><time>2026-04-10T13:29:29.002Z</time></trkpt><trkpt lat="45.06975716942475" lon="8.330159801636377"><ele>247.0</ele><time>2026-04-10T13:29:30.002Z</time></trkpt><trkpt lat="45.0698483706181" lon="8.330129945699817"><ele>247.0</ele><time>2026-04-10T13:29:31.002Z</time></trkpt><trkpt lat="45.06992699837568" lon="8.330062048589609"><ele>247.0</ele><time>2026-04-10T13:29:32.002Z</time></trkpt><trkpt lat="45.07001301359507" lon="8.330009533662528"><ele>246.39999999999998</ele><time>2026-04-10T13:29:33.002Z</time></trkpt><trkpt lat="45.070101875740825" lon="8.32996385878341"><ele>245.79999999999998</ele><time>2026-04-10T13:29:34.002Z</time></trkpt><trkpt lat="45.0701911877181" lon="8.329915256273276"><ele>245.2</ele><time>2026-04-10T13:29:35.002Z</time></trkpt><trkpt lat="45.07027899616519" lon="8.329856772410517"><ele>244.6</ele><time>2026-04-10T13:29:36.002Z</time></trkpt><trkpt lat="45.0703704986106" lon="8.329803845814842"><ele>244.0</ele><time>2026-04-10T13:29:37.002Z</time></trkpt><trkpt lat="45.07046120908866" lon="8.32974884307588"><ele>242.6</ele><time>2026-04-10T13:29:38.002Z</time></trkpt><trkpt lat="45.07055164855689" lon="8.329694057279328"><ele>241.2</ele><time>2026-04-10T13:29:39.002Z</time></trkpt><trkpt lat="45.07064205484918" lon="8.329631039049787"><ele>239.79999999999998</ele><time>2026-04-10T13:29:40.002Z</time></trkpt><trkpt lat="45.07073452728029" lon="8.329571600152727"><ele>238.39999999999998</ele><time>2026-04-10T13:29:41.002Z</time></trkpt><trkpt lat="45.070824857413676" lon="8.329515314774135"><ele>237.0</ele><time>2026-04-10T13:29:42.002Z</time></trkpt><trkpt lat="45.07091880606872" lon="8.329452840976082"><ele>237.0</ele><time>2026-04-10T13:29:43.002Z</time></trkpt><trkpt lat="45.07101522194237" lon="8.329390616559337"><ele>237.0</ele><time>2026-04-10T13:29:44.002Z</time></trkpt><trkpt lat="45.07111187944484" lon="8.329333585032838"><ele>237.0</ele><time>2026-04-10T13:29:45.002Z</time></trkpt><trkpt lat="45.07121137360328" lon="8.3292724077022"><ele>237.0</ele><time>2026-04-10T13:29:46.002Z</time></trkpt><trkpt lat="45.071306835876605" lon="8.329216712957953"><ele>237.0</ele><time>2026-04-10T13:29:47.003Z</time></trkpt><trkpt lat="45.07140662026475" lon="8.329161119728557"><ele>237.0</ele><time>2026-04-10T13:29:48.003Z</time></trkpt><trkpt lat="45.07150525272721" lon="8.32909598105845"><ele>237.0</ele><time>2026-04-10T13:29:49.003Z</time></trkpt><trkpt lat="45.071606078328166" lon="8.329036199721367"><ele>237.0</ele><time>2026-04-10T13:29:50.003Z</time></trkpt><trkpt lat="45.07170643182098" lon="8.328976149239768"><ele>237.0</ele><time>2026-04-10T13:29:51.003Z</time></trkpt><trkpt lat="45.071804789307265" lon="8.328912099775136"><ele>237.0</ele><time>2026-04-10T13:29:52.003Z</time></trkpt><trkpt lat="45.07189910741055" lon="8.328845962084767"><ele>235.2</ele><time>2026-04-10T13:29:53.003Z</time></trkpt><trkpt lat="45.07199782619112" lon="8.328783332936611"><ele>233.39999999999998</ele><time>2026-04-10T13:29:54.003Z</time></trkpt><trkpt lat="45.0720953867942" lon="8.328723059752233"><ele>231.60000000000002</ele><time>2026-04-10T13:29:55.003Z</time></trkpt><trkpt lat="45.07219297755373" lon="8.32866498497"><ele>229.8</ele><time>2026-04-10T13:29:56.003Z</time></trkpt><trkpt lat="45.07229061056057" lon="8.328616533502261"><ele>228.0</ele><time>2026-04-10T13:29:57.003Z</time></trkpt><trkpt lat="45.07238710647978" lon="8.328577875194073"><ele>228.0</ele><time>2026-04-10T13:29:58.003Z</time></trkpt><trkpt lat="45.07247921781797" lon="8.328532776846462"><ele>228.0</ele><time>2026-04-10T13:29:59.003Z</time></trkpt><trkpt lat="45.07256870132312" lon="8.3284927140739"><ele>228.0</ele><time>2026-04-10T13:30:00.003Z</time></trkpt><trkpt lat="45.07265763860601" lon="8.328462223916986"><ele>228.0</ele><time>2026-04-10T13:30:01.003Z</time></trkpt><trkpt lat="45.0727429294715" lon="8.328432530857569"><ele>228.0</ele><time>2026-04-10T13:30:02.003Z</time></trkpt><trkpt lat="45.07282345111991" lon="8.328398578306219"><ele>228.0</ele><time>2026-04-10T13:30:03.003Z</time></trkpt><trkpt lat="45.07290658870191" lon="8.32838701046029"><ele>227.99999999999997</ele><time>2026-04-10T13:30:04.003Z</time></trkpt><trkpt lat="45.07297920871458" lon="8.328347679523427"><ele>228.0</ele><time>2026-04-10T13:30:05.003Z</time></trkpt><trkpt lat="45.07305035336759" lon="8.328319528371434"><ele>228.0</ele><time>2026-04-10T13:30:06.003Z</time></trkpt><trkpt lat="45.07312071521087" lon="8.328298705716243"><ele>227.99999999999997</ele><time>2026-04-10T13:30:07.003Z</time></trkpt><trkpt lat="45.073183269849686" lon="8.328270523297812"><ele>228.0</ele><time>2026-04-10T13:30:08.003Z</time></trkpt><trkpt lat="45.07324835613666" lon="8.328256849137778"><ele>228.0</ele><time>2026-04-10T13:30:09.003Z</time></trkpt><trkpt lat="45.073364394116396" lon="8.328218078920711"><ele>228.4</ele><time>2026-04-10T13:30:11.003Z</time></trkpt><trkpt lat="45.07347787591338" lon="8.328186044506106"><ele>228.8</ele><time>2026-04-10T13:30:13.003Z</time></trkpt><trkpt lat="45.07358704530122" lon="8.328166979772536"><ele>229.2</ele><time>2026-04-10T13:30:15.003Z</time></trkpt><trkpt lat="45.073688957658455" lon="8.328152448534132"><ele>229.6</ele><time>2026-04-10T13:30:16.998Z</time></trkpt><trkpt lat="45.07378452212097" lon="8.328147484876139"><ele>230.0</ele><time>2026-04-10T13:30:18.998Z</time></trkpt><trkpt lat="45.07387640061659" lon="8.328148400787153"><ele>230.00000000000003</ele><time>2026-04-10T13:30:20.999Z</time></trkpt><trkpt lat="45.07395774833911" lon="8.328151768251995"><ele>230.0</ele><time>2026-04-10T13:30:22.999Z</time></trkpt><trkpt lat="45.074038652884475" lon="8.328156461019388"><ele>230.0</ele><time>2026-04-10T13:30:24.999Z</time></trkpt><trkpt lat="45.0741251231031" lon="8.328159289693023"><ele>230.0</ele><time>2026-04-10T13:30:26.999Z</time></trkpt><trkpt lat="45.07421600408546" lon="8.328144760354164"><ele>230.00000000000003</ele><time>2026-04-10T13:30:28.999Z</time></trkpt><trkpt lat="45.07431177261933" lon="8.328140198129805"><ele>230.0</ele><time>2026-04-10T13:30:30.999Z</time></trkpt><trkpt lat="45.07440106722254" lon="8.328146307498102"><ele>230.00000000000003</ele><time>2026-04-10T13:30:32.999Z</time></trkpt><trkpt lat="45.07449412829447" lon="8.328126196127467"><ele>230.0</ele><time>2026-04-10T13:30:35Z</time></trkpt><trkpt lat="45.07457542115031" lon="8.328085598063701"><ele>230.0</ele><time>2026-04-10T13:30:37Z</time></trkpt><trkpt lat="45.074648354265754" lon="8.32802721176863"><ele>230.0</ele><time>2026-04-10T13:30:39Z</time></trkpt><trkpt lat="45.07471303796923" lon="8.327941212186994"><ele>230.00000000000003</ele><time>2026-04-10T13:30:41Z</time></trkpt><trkpt lat="45.07480249081045" lon="8.327892182512858"><ele>230.0</ele><time>2026-04-10T13:30:43Z</time></trkpt><trkpt lat="45.07487839985803" lon="8.327809770039238"><ele>229.8</ele><time>2026-04-10T13:30:45Z</time></trkpt><trkpt lat="45.07496735818262" lon="8.327749412157392"><ele>229.6</ele><time>2026-04-10T13:30:47Z</time></trkpt><trkpt lat="45.07504757194713" lon="8.32765333842007"><ele>229.39999999999998</ele><time>2026-04-10T13:30:49Z</time></trkpt><trkpt lat="45.07513849055661" lon="8.327580676968523"><ele>229.2</ele><time>2026-04-10T13:30:51Z</time></trkpt><trkpt lat="45.07522814061597" lon="8.327502506490461"><ele>229.0</ele><time>2026-04-10T13:30:53Z</time></trkpt><trkpt lat="45.07532376619638" lon="8.327427339319758"><ele>229.0</ele><time>2026-04-10T13:30:55.001Z</time></trkpt><trkpt lat="45.07540882045512" lon="8.327329465907683"><ele>229.0</ele><time>2026-04-10T13:30:57.001Z</time></trkpt><trkpt lat="45.07548189334714" lon="8.327207302436232"><ele>229.0</ele><time>2026-04-10T13:30:59.001Z</time></trkpt><trkpt lat="45.07555372663707" lon="8.32708414822885"><ele>229.0</ele><time>2026-04-10T13:31:01.001Z</time></trkpt><trkpt lat="45.07561276506075" lon="8.326943702132303"><ele>228.79999999999998</ele><time>2026-04-10T13:31:03.001Z</time></trkpt><trkpt lat="45.07566659434696" lon="8.326796067936218"><ele>228.59999999999997</ele><time>2026-04-10T13:31:05.001Z</time></trkpt><trkpt lat="45.075722334607185" lon="8.326646920255385"><ele>228.4</ele><time>2026-04-10T13:31:07.001Z</time></trkpt><trkpt lat="45.07576811999419" lon="8.326481536333892"><ele>228.2</ele><time>2026-04-10T13:31:09.001Z</time></trkpt><trkpt lat="45.07579135576676" lon="8.326394801748656"><ele>228.0</ele><time>2026-04-10T13:31:10.001Z</time></trkpt><trkpt lat="45.075844084560615" lon="8.326231094252558"><ele>228.0</ele><time>2026-04-10T13:31:12.001Z</time></trkpt><trkpt lat="45.07586593175444" lon="8.326144153258015"><ele>227.99999999999997</ele><time>2026-04-10T13:31:13.001Z</time></trkpt><trkpt lat="45.075892803549074" lon="8.326058685128725"><ele>228.0</ele><time>2026-04-10T13:31:14.001Z</time></trkpt><trkpt lat="45.075916052114366" lon="8.32597025957293"><ele>228.0</ele><time>2026-04-10T13:31:15.001Z</time></trkpt><trkpt lat="45.07593617730472" lon="8.325882811398902"><ele>227.99999999999997</ele><time>2026-04-10T13:31:16.001Z</time></trkpt><trkpt lat="45.075968160504736" lon="8.325804851131085"><ele>228.0</ele><time>2026-04-10T13:31:17.001Z</time></trkpt><trkpt lat="45.075982202998155" lon="8.325711792385965"><ele>228.0</ele><time>2026-04-10T13:31:18.001Z</time></trkpt><trkpt lat="45.0760112266823" lon="8.325627899103733"><ele>227.28571428571428</ele><time>2026-04-10T13:31:19.001Z</time></trkpt><trkpt lat="45.07603654920594" lon="8.325539950054592"><ele>226.57142857142856</ele><time>2026-04-10T13:31:20.001Z</time></trkpt><trkpt lat="45.07606144145342" lon="8.325453526480114"><ele>225.85714285714283</ele><time>2026-04-10T13:31:21.001Z</time></trkpt><trkpt lat="45.07609328455626" lon="8.325372833832867"><ele>225.14285714285714</ele><time>2026-04-10T13:31:22.001Z</time></trkpt><trkpt lat="45.07612320196702" lon="8.32528664258381"><ele>224.42857142857142</ele><time>2026-04-10T13:31:23.001Z</time></trkpt><trkpt lat="45.076155940989125" lon="8.32520216267888"><ele>223.71428571428572</ele><time>2026-04-10T13:31:24.002Z</time></trkpt><trkpt lat="45.07618601689198" lon="8.32511562013919"><ele>223.0</ele><time>2026-04-10T13:31:25.002Z</time></trkpt><trkpt lat="45.07621889572078" lon="8.325033131428716"><ele>223.0</ele><time>2026-04-10T13:31:26.002Z</time></trkpt><trkpt lat="45.076259568305716" lon="8.324951221695303"><ele>223.0</ele><time>2026-04-10T13:31:27.002Z</time></trkpt><trkpt lat="45.0763021820627" lon="8.324872319780635"><ele>223.0</ele><time>2026-04-10T13:31:28.002Z</time></trkpt><trkpt lat="45.07634402676001" lon="8.32478918821891"><ele>223.0</ele><time>2026-04-10T13:31:29.002Z</time></trkpt><trkpt lat="45.076391268024466" lon="8.324716553115222"><ele>223.0</ele><time>2026-04-10T13:31:30.002Z</time></trkpt><trkpt lat="45.076442648596284" lon="8.324652340885272"><ele>223.0</ele><time>2026-04-10T13:31:31.002Z</time></trkpt><trkpt lat="45.07648837834037" lon="8.324579223395853"><ele>223.0</ele><time>2026-04-10T13:31:32.002Z</time></trkpt><trkpt lat="45.076537453970126" lon="8.324510058797905"><ele>222.99999999999997</ele><time>2026-04-10T13:31:33.002Z</time></trkpt><trkpt lat="45.07658319027862" lon="8.324442670644064"><ele>223.0</ele><time>2026-04-10T13:31:34.002Z</time></trkpt><trkpt lat="45.076629534797846" lon="8.324375326098174"><ele>223.0</ele><time>2026-04-10T13:31:35.002Z</time></trkpt><trkpt lat="45.076674951298855" lon="8.324312754464174"><ele>223.0</ele><time>2026-04-10T13:31:36.002Z</time></trkpt><trkpt lat="45.076759448002456" lon="8.324184200865911"><ele>222.99999999999997</ele><time>2026-04-10T13:31:38.002Z</time></trkpt><trkpt lat="45.07684013491277" lon="8.324055551092753"><ele>223.0</ele><time>2026-04-10T13:31:40.002Z</time></trkpt><trkpt lat="45.0769295743656" lon="8.323932594636174"><ele>222.4</ele><time>2026-04-10T13:31:42.002Z</time></trkpt><trkpt lat="45.07701358403878" lon="8.32380613466786"><ele>221.8</ele><time>2026-04-10T13:31:44.002Z</time></trkpt><trkpt lat="45.07709360563129" lon="8.323673237321396"><ele>221.2</ele><time>2026-04-10T13:31:46.002Z</time></trkpt><trkpt lat="45.07717270067876" lon="8.323537171072896"><ele>220.6</ele><time>2026-04-10T13:31:48.002Z</time></trkpt><trkpt lat="45.07720819054494" lon="8.323463486764025"><ele>220.0</ele><time>2026-04-10T13:31:49.002Z</time></trkpt><trkpt lat="45.07727466020559" lon="8.323311232696957"><ele>220.0</ele><time>2026-04-10T13:31:51.002Z</time></trkpt><trkpt lat="45.07733373044941" lon="8.323156134640959"><ele>220.0</ele><time>2026-04-10T13:31:53.002Z</time></trkpt><trkpt lat="45.077390622329325" lon="8.32300251776056"><ele>220.0</ele><time>2026-04-10T13:31:55.002Z</time></trkpt><trkpt lat="45.07742098932167" lon="8.322924391804033"><ele>220.0</ele><time>2026-04-10T13:31:56.002Z</time></trkpt><trkpt lat="45.07747618444233" lon="8.322769867471504"><ele>220.0</ele><time>2026-04-10T13:31:58.003Z</time></trkpt><trkpt lat="45.07754472495187" lon="8.322624309341995"><ele>220.75</ele><time>2026-04-10T13:32:00.003Z</time></trkpt><trkpt lat="45.07761725898001" lon="8.32248887778628"><ele>221.5</ele><time>2026-04-10T13:32:02.003Z</time></trkpt><trkpt lat="45.07769946825574" lon="8.322357238628095"><ele>222.25</ele><time>2026-04-10T13:32:04.003Z</time></trkpt><trkpt lat="45.077789450005895" lon="8.3222391615219"><ele>223.0</ele><time>2026-04-10T13:32:06.003Z</time></trkpt><trkpt lat="45.07788501050069" lon="8.322123119284802"><ele>223.0</ele><time>2026-04-10T13:32:08.003Z</time></trkpt><trkpt lat="45.077931076384004" lon="8.322058091293556"><ele>223.0</ele><time>2026-04-10T13:32:09.003Z</time></trkpt><trkpt lat="45.0779730451031" lon="8.321991637379657"><ele>223.0</ele><time>2026-04-10T13:32:10.003Z</time></trkpt><trkpt lat="45.07805097323027" lon="8.321859149237936"><ele>223.0</ele><time>2026-04-10T13:32:12.003Z</time></trkpt><trkpt lat="45.07811012405438" lon="8.321703165276762"><ele>223.0</ele><time>2026-04-10T13:32:14.003Z</time></trkpt><trkpt lat="45.078147966727926" lon="8.321539378894494"><ele>223.0</ele><time>2026-04-10T13:32:16.003Z</time></trkpt><trkpt lat="45.07816912201788" lon="8.321378204349879"><ele>223.0</ele><time>2026-04-10T13:32:18.003Z</time></trkpt><trkpt lat="45.078168264664654" lon="8.321224527117293"><ele>223.0</ele><time>2026-04-10T13:32:20.003Z</time></trkpt><trkpt lat="45.07816652185258" lon="8.321097301703857"><ele>223.0</ele><time>2026-04-10T13:32:21.998Z</time></trkpt><trkpt lat="45.07816060866864" lon="8.320965343615882"><ele>223.0</ele><time>2026-04-10T13:32:23.998Z</time></trkpt><trkpt lat="45.07815295072267" lon="8.320827462807188"><ele>223.0</ele><time>2026-04-10T13:32:25.999Z</time></trkpt><trkpt lat="45.078154832727535" lon="8.320680575961248"><ele>223.0</ele><time>2026-04-10T13:32:27.999Z</time></trkpt><trkpt lat="45.07817324266158" lon="8.320536874792067"><ele>223.0</ele><time>2026-04-10T13:32:29.999Z</time></trkpt><trkpt lat="45.07821628499572" lon="8.320391124570166"><ele>223.0</ele><time>2026-04-10T13:32:31.999Z</time></trkpt><trkpt lat="45.07829407681352" lon="8.3202773383578"><ele>223.0</ele><time>2026-04-10T13:32:33.999Z</time></trkpt><trkpt lat="45.078376571896285" lon="8.320173161819291"><ele>224.8</ele><time>2026-04-10T13:32:35.999Z</time></trkpt><trkpt lat="45.07844659216001" lon="8.320055102278642"><ele>226.60000000000002</ele><time>2026-04-10T13:32:37.999Z</time></trkpt><trkpt lat="45.07852063711433" lon="8.31995043752252"><ele>228.39999999999998</ele><time>2026-04-10T13:32:39.999Z</time></trkpt><trkpt lat="45.07860335347699" lon="8.319855354714223"><ele>230.2</ele><time>2026-04-10T13:32:42Z</time></trkpt><trkpt lat="45.078684132968945" lon="8.3197593697796"><ele>232.0</ele><time>2026-04-10T13:32:44Z</time></trkpt><trkpt lat="45.078768824081415" lon="8.319685577971484"><ele>232.0</ele><time>2026-04-10T13:32:46Z</time></trkpt><trkpt lat="45.07885068907235" lon="8.319605810991192"><ele>232.0</ele><time>2026-04-10T13:32:48Z</time></trkpt><trkpt lat="45.078952989680786" lon="8.3195427517161"><ele>232.0</ele><time>2026-04-10T13:32:50Z</time></trkpt><trkpt lat="45.07905861674837" lon="8.319463543682811"><ele>232.0</ele><time>2026-04-10T13:32:52Z</time></trkpt><trkpt lat="45.07911863998792" lon="8.319420005522524"><ele>232.0</ele><time>2026-04-10T13:32:53Z</time></trkpt><trkpt lat="45.07917584988194" lon="8.319378508220508"><ele>233.16666666666666</ele><time>2026-04-10T13:32:54Z</time></trkpt><trkpt lat="45.079289591609786" lon="8.319298637680937"><ele>234.33333333333331</ele><time>2026-04-10T13:32:56Z</time></trkpt><trkpt lat="45.07934901597316" lon="8.319256723067662"><ele>235.5</ele><time>2026-04-10T13:32:57Z</time></trkpt><trkpt lat="45.079406956332186" lon="8.319215855177717"><ele>236.66666666666669</ele><time>2026-04-10T13:32:58Z</time></trkpt><trkpt lat="45.0794646014672" lon="8.319175195517545"><ele>237.83333333333334</ele><time>2026-04-10T13:32:59.001Z</time></trkpt><trkpt lat="45.07952298540518" lon="8.319134014749444"><ele>239.0</ele><time>2026-04-10T13:33:00.001Z</time></trkpt><trkpt lat="45.07958203260156" lon="8.319092366162646"><ele>239.0</ele><time>2026-04-10T13:33:01.001Z</time></trkpt><trkpt lat="45.07964063052043" lon="8.319051036212752"><ele>238.99999999999997</ele><time>2026-04-10T13:33:02.001Z</time></trkpt><trkpt lat="45.079750934779895" lon="8.318972111530705"><ele>238.99999999999997</ele><time>2026-04-10T13:33:04.001Z</time></trkpt><trkpt lat="45.07984973472028" lon="8.318878007128129"><ele>239.0</ele><time>2026-04-10T13:33:06.001Z</time></trkpt><trkpt lat="45.07996117137226" lon="8.318802095040233"><ele>239.0</ele><time>2026-04-10T13:33:08.001Z</time></trkpt><trkpt lat="45.080018865052374" lon="8.318764497375339"><ele>238.39999999999998</ele><time>2026-04-10T13:33:09.001Z</time></trkpt><trkpt lat="45.08012160940562" lon="8.31869039160918"><ele>237.79999999999998</ele><time>2026-04-10T13:33:11.001Z</time></trkpt><trkpt lat="45.080216532351486" lon="8.318620088854782"><ele>237.20000000000002</ele><time>2026-04-10T13:33:13.001Z</time></trkpt><trkpt lat="45.08031268043413" lon="8.318549386097446"><ele>236.60000000000002</ele><time>2026-04-10T13:33:15.001Z</time></trkpt><trkpt lat="45.0804086693312" lon="8.318487137308347"><ele>236.0</ele><time>2026-04-10T13:33:17.001Z</time></trkpt><trkpt lat="45.080502149629666" lon="8.318418271568106"><ele>236.0</ele><time>2026-04-10T13:33:19.001Z</time></trkpt><trkpt lat="45.080591432344725" lon="8.318354394585057"><ele>236.00000000000003</ele><time>2026-04-10T13:33:21.001Z</time></trkpt><trkpt lat="45.080690783052596" lon="8.31828319588358"><ele>236.00000000000003</ele><time>2026-04-10T13:33:23.001Z</time></trkpt><trkpt lat="45.08078079227217" lon="8.318237031932075"><ele>236.0</ele><time>2026-04-10T13:33:25.001Z</time></trkpt><trkpt lat="45.080856962805974" lon="8.318189660392024"><ele>236.0</ele><time>2026-04-10T13:33:27.001Z</time></trkpt><trkpt lat="45.08092519229842" lon="8.318145114298849"><ele>235.8</ele><time>2026-04-10T13:33:29.002Z</time></trkpt><trkpt lat="45.08100006183598" lon="8.318081052669168"><ele>235.60000000000002</ele><time>2026-04-10T13:33:31.002Z</time></trkpt><trkpt lat="45.08108485672033" lon="8.318026276449244"><ele>235.4</ele><time>2026-04-10T13:33:33.002Z</time></trkpt><trkpt lat="45.08116086245906" lon="8.317942298619212"><ele>235.2</ele><time>2026-04-10T13:33:35.002Z</time></trkpt><trkpt lat="45.08125394184629" lon="8.317842207607487"><ele>235.0</ele><time>2026-04-10T13:33:37.002Z</time></trkpt><trkpt lat="45.08133565366745" lon="8.317713135138094"><ele>235.0</ele><time>2026-04-10T13:33:39.002Z</time></trkpt><trkpt lat="45.08137516784585" lon="8.317638901305335"><ele>234.99999999999997</ele><time>2026-04-10T13:33:40.002Z</time></trkpt><trkpt lat="45.081410267166625" lon="8.317561587096233"><ele>235.0</ele><time>2026-04-10T13:33:41.002Z</time></trkpt><trkpt lat="45.08143944970925" lon="8.317478045701758"><ele>235.0</ele><time>2026-04-10T13:33:42.002Z</time></trkpt><trkpt lat="45.08146392998151" lon="8.317395473820767"><ele>234.99999999999997</ele><time>2026-04-10T13:33:43.002Z</time></trkpt><trkpt lat="45.08148642681268" lon="8.317306595376476"><ele>235.0</ele><time>2026-04-10T13:33:44.002Z</time></trkpt><trkpt lat="45.081504994037836" lon="8.317217874904607"><ele>235.0</ele><time>2026-04-10T13:33:45.002Z</time></trkpt><trkpt lat="45.08152902481914" lon="8.317134815663138"><ele>233.49999999999997</ele><time>2026-04-10T13:33:46.002Z</time></trkpt><trkpt lat="45.08155000351346" lon="8.317048577947622"><ele>232.0</ele><time>2026-04-10T13:33:47.002Z</time></trkpt><trkpt lat="45.0815721160112" lon="8.316960839929079"><ele>230.5</ele><time>2026-04-10T13:33:48.002Z</time></trkpt><trkpt lat="45.0815900799001" lon="8.316875235295269"><ele>229.0</ele><time>2026-04-10T13:33:49.002Z</time></trkpt><trkpt lat="45.081609501724586" lon="8.316789965228663"><ele>227.49999999999997</ele><time>2026-04-10T13:33:50.002Z</time></trkpt><trkpt lat="45.0816477092384" lon="8.316627225125554"><ele>226.0</ele><time>2026-04-10T13:33:52.002Z</time></trkpt><trkpt lat="45.081693513411736" lon="8.316469363645409"><ele>229.20000000000002</ele><time>2026-04-10T13:33:54.002Z</time></trkpt><trkpt lat="45.08173015922136" lon="8.31630331616823"><ele>232.40000000000003</ele><time>2026-04-10T13:33:56.002Z</time></trkpt><trkpt lat="45.08175583347866" lon="8.316217106119629"><ele>235.6</ele><time>2026-04-10T13:33:57.002Z</time></trkpt><trkpt lat="45.08181301819412" lon="8.316060761297798"><ele>238.8</ele><time>2026-04-10T13:33:59.002Z</time></trkpt><trkpt lat="45.081849468364446" lon="8.315976698018908"><ele>242.0</ele><time>2026-04-10T13:34:00.002Z</time></trkpt><trkpt lat="45.08189687959783" lon="8.315904270671014"><ele>242.00000000000003</ele><time>2026-04-10T13:34:01.003Z</time></trkpt><trkpt lat="45.081946256127466" lon="8.3158298532288"><ele>242.0</ele><time>2026-04-10T13:34:02.003Z</time></trkpt><trkpt lat="45.081999663925934" lon="8.31575267663617"><ele>242.0</ele><time>2026-04-10T13:34:03.003Z</time></trkpt><trkpt lat="45.08204962168075" lon="8.315666688293982"><ele>242.0</ele><time>2026-04-10T13:34:04.003Z</time></trkpt><trkpt lat="45.082118842202554" lon="8.31560896635838"><ele>242.00000000000003</ele><time>2026-04-10T13:34:05.003Z</time></trkpt><trkpt lat="45.08217796462426" lon="8.315529796825981"><ele>242.0</ele><time>2026-04-10T13:34:06.003Z</time></trkpt><trkpt lat="45.08225784142128" lon="8.315501894513243"><ele>242.50000000000003</ele><time>2026-04-10T13:34:07.003Z</time></trkpt><trkpt lat="45.082334070104196" lon="8.315488649642822"><ele>243.0</ele><time>2026-04-10T13:34:08.003Z</time></trkpt><trkpt lat="45.08241315755524" lon="8.315519706254458"><ele>243.5</ele><time>2026-04-10T13:34:09.003Z</time></trkpt><trkpt lat="45.08248955984079" lon="8.315561112002685"><ele>244.0</ele><time>2026-04-10T13:34:10.003Z</time></trkpt><trkpt lat="45.08256337308377" lon="8.315617227874919"><ele>244.50000000000003</ele><time>2026-04-10T13:34:11.003Z</time></trkpt><trkpt lat="45.08264005743641" lon="8.315677322260212"><ele>245.0</ele><time>2026-04-10T13:34:12.003Z</time></trkpt><trkpt lat="45.0827125530074" lon="8.315742682764148"><ele>245.00000000000003</ele><time>2026-04-10T13:34:13.003Z</time></trkpt><trkpt lat="45.0827839365811" lon="8.31580249066818"><ele>245.0</ele><time>2026-04-10T13:34:14.003Z</time></trkpt><trkpt lat="45.082852635147695" lon="8.31586591761158"><ele>245.0</ele><time>2026-04-10T13:34:15.003Z</time></trkpt><trkpt lat="45.08292037204648" lon="8.315925609980404"><ele>245.0</ele><time>2026-04-10T13:34:16.003Z</time></trkpt><trkpt lat="45.082989511905126" lon="8.31598733624528"><ele>245.00000000000003</ele><time>2026-04-10T13:34:17.003Z</time></trkpt><trkpt lat="45.08306102670075" lon="8.316041837886898"><ele>245.0</ele><time>2026-04-10T13:34:18.003Z</time></trkpt><trkpt lat="45.08313224517249" lon="8.316102704824111"><ele>245.00000000000003</ele><time>2026-04-10T13:34:19.003Z</time></trkpt><trkpt lat="45.0832069416063" lon="8.316160545905513"><ele>245.0</ele><time>2026-04-10T13:34:20.003Z</time></trkpt><trkpt lat="45.083280628954554" lon="8.316216015886106"><ele>245.0</ele><time>2026-04-10T13:34:21.003Z</time></trkpt><trkpt lat="45.08335279511635" lon="8.31627260629703"><ele>245.0</ele><time>2026-04-10T13:34:22.003Z</time></trkpt><trkpt lat="45.083414082549595" lon="8.316328213192724"><ele>245.00000000000003</ele><time>2026-04-10T13:34:23.003Z</time></trkpt><trkpt lat="45.083471777709335" lon="8.316376568701811"><ele>245.0</ele><time>2026-04-10T13:34:24.003Z</time></trkpt><trkpt lat="45.08353253004048" lon="8.316417095671987"><ele>244.0</ele><time>2026-04-10T13:34:25.003Z</time></trkpt><trkpt lat="45.08364282686153" lon="8.316485129678881"><ele>243.0</ele><time>2026-04-10T13:34:27.003Z</time></trkpt><trkpt lat="45.08374353613619" lon="8.316539273345851"><ele>242.0</ele><time>2026-04-10T13:34:28.998Z</time></trkpt><trkpt lat="45.0838282356715" lon="8.31658133304186"><ele>241.0</ele><time>2026-04-10T13:34:30.998Z</time></trkpt><trkpt lat="45.08390094053615" lon="8.316615010775271"><ele>240.0</ele><time>2026-04-10T13:34:32.998Z</time></trkpt><trkpt lat="45.08396284203189" lon="8.316639281677118"><ele>240.0</ele><time>2026-04-10T13:34:34.999Z</time></trkpt><trkpt lat="45.084036758825114" lon="8.316651096670805"><ele>240.0</ele><time>2026-04-10T13:34:36.999Z</time></trkpt><trkpt lat="45.084116440647634" lon="8.3166555767832"><ele>240.0</ele><time>2026-04-10T13:34:38.999Z</time></trkpt><trkpt lat="45.08419434705382" lon="8.316681111727714"><ele>240.0</ele><time>2026-04-10T13:34:40.999Z</time></trkpt><trkpt lat="45.084250297060606" lon="8.316793486305992"><ele>240.0</ele><time>2026-04-10T13:34:42.999Z</time></trkpt><trkpt lat="45.08432221306956" lon="8.316891140767577"><ele>240.0</ele><time>2026-04-10T13:34:44.999Z</time></trkpt><trkpt lat="45.084399880390535" lon="8.3169943396215"><ele>239.6</ele><time>2026-04-10T13:34:46.999Z</time></trkpt><trkpt lat="45.08448445591126" lon="8.31710580727929"><ele>239.2</ele><time>2026-04-10T13:34:49Z</time></trkpt><trkpt lat="45.08458467020546" lon="8.31721479834558"><ele>238.8</ele><time>2026-04-10T13:34:51Z</time></trkpt><trkpt lat="45.08463710105071" lon="8.317276709802263"><ele>238.4</ele><time>2026-04-10T13:34:52Z</time></trkpt><trkpt lat="45.08467610455275" lon="8.317363203525124"><ele>238.0</ele><time>2026-04-10T13:34:53Z</time></trkpt><trkpt lat="45.08473848817288" lon="8.31741739501151"><ele>237.99999999999997</ele><time>2026-04-10T13:34:54Z</time></trkpt><trkpt lat="45.084772072240234" lon="8.31749805744852"><ele>238.0</ele><time>2026-04-10T13:34:55Z</time></trkpt><trkpt lat="45.084817815743754" lon="8.317564788229815"><ele>238.0</ele><time>2026-04-10T13:34:56Z</time></trkpt><trkpt lat="45.08490511398998" lon="8.317662887433988"><ele>238.0</ele><time>2026-04-10T13:34:58Z</time></trkpt><trkpt lat="45.08497180314817" lon="8.317772373950808"><ele>237.99999999999997</ele><time>2026-04-10T13:35:00Z</time></trkpt><trkpt lat="45.0850306402143" lon="8.3178312199734"><ele>238.0</ele><time>2026-04-10T13:35:02Z</time></trkpt><trkpt lat="45.08510323525351" lon="8.317832864930756"><ele>236.16666666666666</ele><time>2026-04-10T13:35:04Z</time></trkpt><trkpt lat="45.08518416883721" lon="8.317790970560193"><ele>234.33333333333331</ele><time>2026-04-10T13:35:06Z</time></trkpt><trkpt lat="45.085274388666015" lon="8.317782226726402"><ele>232.5</ele><time>2026-04-10T13:35:08.001Z</time></trkpt><trkpt lat="45.085365301866865" lon="8.317819396191137"><ele>230.66666666666669</ele><time>2026-04-10T13:35:10.001Z</time></trkpt><trkpt lat="45.08545676696343" lon="8.317882391381344"><ele>228.83333333333334</ele><time>2026-04-10T13:35:12.001Z</time></trkpt><trkpt lat="45.085499031357166" lon="8.31794947536585"><ele>227.0</ele><time>2026-04-10T13:35:13.001Z</time></trkpt><trkpt lat="45.085594257834494" lon="8.318049852437941"><ele>226.83333333333334</ele><time>2026-04-10T13:35:15.001Z</time></trkpt><trkpt lat="45.085648276870835" lon="8.318135656894452"><ele>226.66666666666669</ele><time>2026-04-10T13:35:17.001Z</time></trkpt><trkpt lat="45.08571032018137" lon="8.318192170077637"><ele>226.5</ele><time>2026-04-10T13:35:20.001Z</time></trkpt><trkpt lat="45.08576430829376" lon="8.318279504416097"><ele>226.33333333333331</ele><time>2026-04-10T13:35:23.001Z</time></trkpt><trkpt lat="45.08582531276105" lon="8.318355133334249"><ele>226.16666666666666</ele><time>2026-04-10T13:37:32.001Z</time></trkpt><trkpt lat="45.08588823038698" lon="8.31840534497178"><ele>226.0</ele><time>2026-04-10T13:37:34.001Z</time></trkpt><trkpt lat="45.08596908533578" lon="8.318504880563328"><ele>225.20000000000002</ele><time>2026-04-10T13:37:36.001Z</time></trkpt><trkpt lat="45.086048400399406" lon="8.318627451363051"><ele>224.40000000000003</ele><time>2026-04-10T13:37:38.001Z</time></trkpt><trkpt lat="45.08614705098314" lon="8.318742936856701"><ele>223.6</ele><time>2026-04-10T13:37:40.001Z</time></trkpt><trkpt lat="45.08620504039014" lon="8.318792930217908"><ele>222.8</ele><time>2026-04-10T13:37:41.001Z</time></trkpt><trkpt lat="45.0862625084469" lon="8.318851857861512"><ele>222.0</ele><time>2026-04-10T13:37:42.002Z</time></trkpt><trkpt lat="45.086303054767576" lon="8.318937628266243"><ele>221.57142857142856</ele><time>2026-04-10T13:37:43.002Z</time></trkpt><trkpt lat="45.086361276926226" lon="8.318994440160864"><ele>221.14285714285717</ele><time>2026-04-10T13:37:44.002Z</time></trkpt><trkpt lat="45.086398256011925" lon="8.319081521312182"><ele>220.71428571428572</ele><time>2026-04-10T13:37:45.002Z</time></trkpt><trkpt lat="45.08644240918082" lon="8.319160037455102"><ele>220.28571428571428</ele><time>2026-04-10T13:37:46.002Z</time></trkpt><trkpt lat="45.086483253235656" lon="8.319241485940333"><ele>219.85714285714283</ele><time>2026-04-10T13:37:47.002Z</time></trkpt><trkpt lat="45.086520025098665" lon="8.319327694039902"><ele>219.42857142857144</ele><time>2026-04-10T13:37:48.002Z</time></trkpt><trkpt lat="45.0865462182999" lon="8.319421673619654"><ele>219.0</ele><time>2026-04-10T13:37:49.002Z</time></trkpt><trkpt lat="45.08657488180553" lon="8.319511357299186"><ele>218.5</ele><time>2026-04-10T13:37:50.002Z</time></trkpt><trkpt lat="45.086605526554266" lon="8.31960612928706"><ele>218.0</ele><time>2026-04-10T13:37:51.002Z</time></trkpt><trkpt lat="45.086635660011126" lon="8.319699319932518"><ele>217.5</ele><time>2026-04-10T13:37:52.002Z</time></trkpt><trkpt lat="45.08666713506076" lon="8.31979679635495"><ele>217.0</ele><time>2026-04-10T13:37:53.002Z</time></trkpt><trkpt lat="45.08670839826385" lon="8.31988814976459"><ele>216.5</ele><time>2026-04-10T13:37:54.002Z</time></trkpt><trkpt lat="45.08674003413744" lon="8.319991531838548"><ele>216.0</ele><time>2026-04-10T13:37:55.002Z</time></trkpt><trkpt lat="45.086771224617316" lon="8.320096411756202"><ele>214.66666666666666</ele><time>2026-04-10T13:37:56.002Z</time></trkpt><trkpt lat="45.08680628116205" lon="8.320198680459155"><ele>213.33333333333331</ele><time>2026-04-10T13:37:57.002Z</time></trkpt><trkpt lat="45.086838382459185" lon="8.320298409632425"><ele>212.0</ele><time>2026-04-10T13:37:58.002Z</time></trkpt><trkpt lat="45.08686686661423" lon="8.320394201542443"><ele>210.66666666666666</ele><time>2026-04-10T13:37:59.002Z</time></trkpt><trkpt lat="45.086896576553706" lon="8.320489461426545"><ele>209.33333333333331</ele><time>2026-04-10T13:38:00.002Z</time></trkpt><trkpt lat="45.086927352280924" lon="8.320585415350465"><ele>208.0</ele><time>2026-04-10T13:38:01.002Z</time></trkpt><trkpt lat="45.086978475609655" lon="8.320775468187716"><ele>207.28571428571428</ele><time>2026-04-10T13:38:03.002Z</time></trkpt><trkpt lat="45.087006231870745" lon="8.320870353295193"><ele>206.57142857142858</ele><time>2026-04-10T13:38:04.002Z</time></trkpt><trkpt lat="45.08704106693296" lon="8.320962757058405"><ele>205.85714285714286</ele><time>2026-04-10T13:38:05.002Z</time></trkpt><trkpt lat="45.087072704298265" lon="8.321051594895032"><ele>205.14285714285714</ele><time>2026-04-10T13:38:06.002Z</time></trkpt><trkpt lat="45.087103702557" lon="8.321143452033192"><ele>204.42857142857144</ele><time>2026-04-10T13:38:07.002Z</time></trkpt><trkpt lat="45.08714246546906" lon="8.32123420027787"><ele>203.71428571428572</ele><time>2026-04-10T13:38:08.002Z</time></trkpt><trkpt lat="45.0871865009679" lon="8.321320379365908"><ele>203.0</ele><time>2026-04-10T13:38:09.002Z</time></trkpt><trkpt lat="45.087245290011666" lon="8.321398918016046"><ele>202.50000000000003</ele><time>2026-04-10T13:38:10.002Z</time></trkpt><trkpt lat="45.087305459980186" lon="8.321477152471326"><ele>202.0</ele><time>2026-04-10T13:38:11.002Z</time></trkpt><trkpt lat="45.08736803461531" lon="8.321563624753503"><ele>201.5</ele><time>2026-04-10T13:38:12.002Z</time></trkpt><trkpt lat="45.08743284310538" lon="8.321646776744405"><ele>201.0</ele><time>2026-04-10T13:38:13.002Z</time></trkpt><trkpt lat="45.08749396825071" lon="8.32172418763821"><ele>200.50000000000003</ele><time>2026-04-10T13:38:14.003Z</time></trkpt><trkpt lat="45.087555100641005" lon="8.321805773437905"><ele>200.0</ele><time>2026-04-10T13:38:15.003Z</time></trkpt><trkpt lat="45.08761649694784" lon="8.321884209570445"><ele>199.83333333333334</ele><time>2026-04-10T13:38:16.003Z</time></trkpt><trkpt lat="45.087676426256984" lon="8.32196535628562"><ele>199.66666666666669</ele><time>2026-04-10T13:38:17.003Z</time></trkpt><trkpt lat="45.08773253976595" lon="8.322043561166439"><ele>199.5</ele><time>2026-04-10T13:38:18.003Z</time></trkpt><trkpt lat="45.08778943498416" lon="8.32211260152928"><ele>199.33333333333331</ele><time>2026-04-10T13:38:19.003Z</time></trkpt><trkpt lat="45.0878427858834" lon="8.32218650194544"><ele>199.16666666666666</ele><time>2026-04-10T13:38:20.003Z</time></trkpt><trkpt lat="45.087899887136516" lon="8.322261579817658"><ele>199.0</ele><time>2026-04-10T13:38:21.003Z</time></trkpt><trkpt lat="45.087958677311086" lon="8.322339013564246"><ele>198.49999999999997</ele><time>2026-04-10T13:38:22.003Z</time></trkpt><trkpt lat="45.0880206095384" lon="8.322413812703386"><ele>198.0</ele><time>2026-04-10T13:38:23.003Z</time></trkpt><trkpt lat="45.088080253264955" lon="8.32249459396117"><ele>197.5</ele><time>2026-04-10T13:38:24.003Z</time></trkpt><trkpt lat="45.08813993207439" lon="8.322574644217713"><ele>197.0</ele><time>2026-04-10T13:38:25.003Z</time></trkpt><trkpt lat="45.08820120163036" lon="8.322656730761757"><ele>196.49999999999997</ele><time>2026-04-10T13:38:26.003Z</time></trkpt><trkpt lat="45.08826349006584" lon="8.322735069110596"><ele>196.0</ele><time>2026-04-10T13:38:27.003Z</time></trkpt><trkpt lat="45.08832689392948" lon="8.322817705284404"><ele>195.83333333333331</ele><time>2026-04-10T13:38:28.003Z</time></trkpt><trkpt lat="45.08838967955864" lon="8.322900389084612"><ele>195.66666666666666</ele><time>2026-04-10T13:38:29.003Z</time></trkpt><trkpt lat="45.088450071997926" lon="8.322986602125985"><ele>195.5</ele><time>2026-04-10T13:38:30.003Z</time></trkpt><trkpt lat="45.08851712607869" lon="8.32306739185106"><ele>195.33333333333331</ele><time>2026-04-10T13:38:31.003Z</time></trkpt><trkpt lat="45.08858146824514" lon="8.32315241127732"><ele>195.16666666666666</ele><time>2026-04-10T13:38:32.003Z</time></trkpt><trkpt lat="45.08864811469188" lon="8.323235868433832"><ele>195.0</ele><time>2026-04-10T13:38:33.003Z</time></trkpt><trkpt lat="45.088713966425225" lon="8.323321834052079"><ele>194.33333333333334</ele><time>2026-04-10T13:38:34.003Z</time></trkpt><trkpt lat="45.08878043243849" lon="8.323405171241"><ele>193.66666666666666</ele><time>2026-04-10T13:38:35.003Z</time></trkpt><trkpt lat="45.0888411393933" lon="8.323495581319268"><ele>193.0</ele><time>2026-04-10T13:38:36.003Z</time></trkpt><trkpt lat="45.08890887532898" lon="8.323580650850543"><ele>192.33333333333331</ele><time>2026-04-10T13:38:37.003Z</time></trkpt><trkpt lat="45.088979814782434" lon="8.323658369985584"><ele>191.66666666666666</ele><time>2026-04-10T13:38:38.003Z</time></trkpt><trkpt lat="45.08905097908318" lon="8.323737925054271"><ele>191.0</ele><time>2026-04-10T13:38:39.003Z</time></trkpt><trkpt lat="45.08912521191713" lon="8.323810743100161"><ele>191.0</ele><time>2026-04-10T13:38:39.998Z</time></trkpt><trkpt lat="45.089205788320626" lon="8.323873595631953"><ele>191.0</ele><time>2026-04-10T13:38:40.998Z</time></trkpt><trkpt lat="45.08928549335306" lon="8.323934139497181"><ele>191.0</ele><time>2026-04-10T13:38:41.999Z</time></trkpt><trkpt lat="45.08936763104106" lon="8.323987486172918"><ele>191.0</ele><time>2026-04-10T13:38:42.999Z</time></trkpt><trkpt lat="45.0894531867408" lon="8.324038582056064"><ele>191.0</ele><time>2026-04-10T13:38:43.999Z</time></trkpt><trkpt lat="45.08953539767409" lon="8.32409183768052"><ele>189.20000000000002</ele><time>2026-04-10T13:38:44.999Z</time></trkpt><trkpt lat="45.08962085023033" lon="8.324140843453804"><ele>187.4</ele><time>2026-04-10T13:38:45.999Z</time></trkpt><trkpt lat="45.08970555294275" lon="8.324192460364383"><ele>185.6</ele><time>2026-04-10T13:38:46.999Z</time></trkpt><trkpt lat="45.08978991962357" lon="8.324244343237481"><ele>183.8</ele><time>2026-04-10T13:38:47.999Z</time></trkpt><trkpt lat="45.089875557011446" lon="8.324296856638986"><ele>182.0</ele><time>2026-04-10T13:38:48.999Z</time></trkpt><trkpt lat="45.08996241627342" lon="8.32434809980962"><ele>181.8</ele><time>2026-04-10T13:38:49.999Z</time></trkpt><trkpt lat="45.09004320468035" lon="8.324410762828952"><ele>181.6</ele><time>2026-04-10T13:38:50.999Z</time></trkpt><trkpt lat="45.090130581130595" lon="8.32446378955476"><ele>181.4</ele><time>2026-04-10T13:38:51.999Z</time></trkpt><trkpt lat="45.09021677555341" lon="8.324519194662603"><ele>181.20000000000002</ele><time>2026-04-10T13:38:52.999Z</time></trkpt><trkpt lat="45.090301975415485" lon="8.324575915678759"><ele>181.0</ele><time>2026-04-10T13:38:53.999Z</time></trkpt><trkpt lat="45.090389243406534" lon="8.324628100751198"><ele>181.0</ele><time>2026-04-10T13:38:54.999Z</time></trkpt><trkpt lat="45.09047775148607" lon="8.3246783504885"><ele>181.0</ele><time>2026-04-10T13:38:55.999Z</time></trkpt><trkpt lat="45.09056586189884" lon="8.324727781304164"><ele>181.0</ele><time>2026-04-10T13:38:56.999Z</time></trkpt><trkpt lat="45.090656609711914" lon="8.324775459554859"><ele>181.0</ele><time>2026-04-10T13:38:57.999Z</time></trkpt><trkpt lat="45.090742373469304" lon="8.324828678744971"><ele>181.0</ele><time>2026-04-10T13:38:59Z</time></trkpt><trkpt lat="45.090830108439675" lon="8.32487961609157"><ele>178.8</ele><time>2026-04-10T13:39:00Z</time></trkpt><trkpt lat="45.090918462014784" lon="8.324932414571704"><ele>176.60000000000002</ele><time>2026-04-10T13:39:01Z</time></trkpt><trkpt lat="45.0910048913147" lon="8.32498665360508"><ele>174.4</ele><time>2026-04-10T13:39:02Z</time></trkpt><trkpt lat="45.09109078166652" lon="8.325043529574103"><ele>172.2</ele><time>2026-04-10T13:39:03Z</time></trkpt><trkpt lat="45.09117925132841" lon="8.325094632936327"><ele>170.0</ele><time>2026-04-10T13:39:04Z</time></trkpt><trkpt lat="45.09126556343885" lon="8.32514338814303"><ele>170.0</ele><time>2026-04-10T13:39:05Z</time></trkpt><trkpt lat="45.09135375468393" lon="8.325194777735046"><ele>170.0</ele><time>2026-04-10T13:39:06Z</time></trkpt><trkpt lat="45.09143998436683" lon="8.325246174900121"><ele>170.0</ele><time>2026-04-10T13:39:07Z</time></trkpt><trkpt lat="45.09152561644074" lon="8.3252956486399"><ele>170.0</ele><time>2026-04-10T13:39:08Z</time></trkpt><trkpt lat="45.09161238688805" lon="8.325345728587338"><ele>170.0</ele><time>2026-04-10T13:39:09Z</time></trkpt><trkpt lat="45.0916996923917" lon="8.325394854617404"><ele>170.2</ele><time>2026-04-10T13:39:10Z</time></trkpt><trkpt lat="45.09178605918392" lon="8.325444642350684"><ele>170.4</ele><time>2026-04-10T13:39:11Z</time></trkpt><trkpt lat="45.091871214158175" lon="8.325494972976944"><ele>170.60000000000002</ele><time>2026-04-10T13:39:12Z</time></trkpt><trkpt lat="45.09195395053336" lon="8.325552333595573"><ele>170.8</ele><time>2026-04-10T13:39:13Z</time></trkpt><trkpt lat="45.09203706059444" lon="8.32560352980937"><ele>171.0</ele><time>2026-04-10T13:39:14Z</time></trkpt><trkpt lat="45.09212063229656" lon="8.325648769777102"><ele>171.0</ele><time>2026-04-10T13:39:15Z</time></trkpt><trkpt lat="45.09220335269048" lon="8.325691121997165"><ele>171.0</ele><time>2026-04-10T13:39:16Z</time></trkpt><trkpt lat="45.092284130847624" lon="8.325737453029568"><ele>171.0</ele><time>2026-04-10T13:39:17Z</time></trkpt><trkpt lat="45.09236313864053" lon="8.325781278436702"><ele>171.0</ele><time>2026-04-10T13:39:18.001Z</time></trkpt><trkpt lat="45.092438759276774" lon="8.325829154987655"><ele>171.0</ele><time>2026-04-10T13:39:19.001Z</time></trkpt><trkpt lat="45.092513249905885" lon="8.325874281226001"><ele>171.0</ele><time>2026-04-10T13:39:20.001Z</time></trkpt><trkpt lat="45.09258957341584" lon="8.325917105534227"><ele>170.83333333333334</ele><time>2026-04-10T13:39:21.001Z</time></trkpt><trkpt lat="45.0926647111395" lon="8.325961713255548"><ele>170.66666666666666</ele><time>2026-04-10T13:39:22.001Z</time></trkpt><trkpt lat="45.09273975319371" lon="8.326005138344318"><ele>170.5</ele><time>2026-04-10T13:39:23.001Z</time></trkpt><trkpt lat="45.09281751241759" lon="8.326050362583905"><ele>170.33333333333331</ele><time>2026-04-10T13:39:24.001Z</time></trkpt><trkpt lat="45.092893956912235" lon="8.326096012619233"><ele>170.16666666666666</ele><time>2026-04-10T13:39:25.001Z</time></trkpt><trkpt lat="45.09297224062659" lon="8.32613926820447"><ele>170.0</ele><time>2026-04-10T13:39:26.001Z</time></trkpt><trkpt lat="45.09304776122232" lon="8.326181758503495"><ele>170.0</ele><time>2026-04-10T13:39:27.001Z</time></trkpt><trkpt lat="45.093124448982536" lon="8.326226426310074"><ele>170.0</ele><time>2026-04-10T13:39:28.001Z</time></trkpt><trkpt lat="45.09320003204233" lon="8.326271944942413"><ele>170.0</ele><time>2026-04-10T13:39:29.001Z</time></trkpt><trkpt lat="45.09327462650472" lon="8.326316130776561"><ele>170.0</ele><time>2026-04-10T13:39:30.001Z</time></trkpt><trkpt lat="45.09334833682717" lon="8.32636063634269"><ele>170.0</ele><time>2026-04-10T13:39:31.001Z</time></trkpt><trkpt lat="45.09342243095967" lon="8.326402876068105"><ele>170.0</ele><time>2026-04-10T13:39:32.001Z</time></trkpt><trkpt lat="45.09349664629924" lon="8.326444762096123"><ele>169.16666666666666</ele><time>2026-04-10T13:39:33.001Z</time></trkpt><trkpt lat="45.09356738723131" lon="8.326491481232955"><ele>168.33333333333331</ele><time>2026-04-10T13:39:34.001Z</time></trkpt><trkpt lat="45.093640231206" lon="8.326532754898839"><ele>167.5</ele><time>2026-04-10T13:39:35.001Z</time></trkpt><trkpt lat="45.093710491351665" lon="8.326571727643518"><ele>166.66666666666666</ele><time>2026-04-10T13:39:36.001Z</time></trkpt><trkpt lat="45.093780182225785" lon="8.32661114966212"><ele>165.83333333333334</ele><time>2026-04-10T13:39:37.001Z</time></trkpt><trkpt lat="45.09384890900224" lon="8.326650269204366"><ele>165.0</ele><time>2026-04-10T13:39:38.001Z</time></trkpt><trkpt lat="45.09391533016625" lon="8.326690704299178"><ele>165.00000000000003</ele><time>2026-04-10T13:39:39.001Z</time></trkpt><trkpt lat="45.093982437235795" lon="8.326726289729963"><ele>165.0</ele><time>2026-04-10T13:39:40.001Z</time></trkpt><trkpt lat="45.09404892330926" lon="8.32676767527061"><ele>165.0</ele><time>2026-04-10T13:39:41.001Z</time></trkpt><trkpt lat="45.09411574063567" lon="8.326804030835794"><ele>165.0</ele><time>2026-04-10T13:39:42.001Z</time></trkpt><trkpt lat="45.09418338853963" lon="8.326840910905624"><ele>165.0</ele><time>2026-04-10T13:39:43.001Z</time></trkpt><trkpt lat="45.09424876344658" lon="8.326880470790133"><ele>165.00000000000003</ele><time>2026-04-10T13:39:44.001Z</time></trkpt><trkpt lat="45.09431542669453" lon="8.326919922965121"><ele>165.0</ele><time>2026-04-10T13:39:45.001Z</time></trkpt><trkpt lat="45.09438118108414" lon="8.326957497501567"><ele>164.85714285714286</ele><time>2026-04-10T13:39:46.002Z</time></trkpt><trkpt lat="45.09444688661524" lon="8.326996461283455"><ele>164.71428571428572</ele><time>2026-04-10T13:39:47.002Z</time></trkpt><trkpt lat="45.09451227729633" lon="8.32703313215123"><ele>164.57142857142856</ele><time>2026-04-10T13:39:48.002Z</time></trkpt><trkpt lat="45.094578282096364" lon="8.32707251870342"><ele>164.42857142857144</ele><time>2026-04-10T13:39:49.002Z</time></trkpt><trkpt lat="45.09464389270338" lon="8.327112731227041"><ele>164.28571428571428</ele><time>2026-04-10T13:39:50.002Z</time></trkpt><trkpt lat="45.09470851963492" lon="8.327150174657122"><ele>164.14285714285714</ele><time>2026-04-10T13:39:51.002Z</time></trkpt><trkpt lat="45.09477289891334" lon="8.327190617926993"><ele>164.0</ele><time>2026-04-10T13:39:52.002Z</time></trkpt><trkpt lat="45.09483582777479" lon="8.32723374077502"><ele>163.99999999999997</ele><time>2026-04-10T13:39:53.002Z</time></trkpt><trkpt lat="45.094898304164836" lon="8.327271711325338"><ele>164.0</ele><time>2026-04-10T13:39:54.002Z</time></trkpt><trkpt lat="45.09495886314115" lon="8.327308480328078"><ele>164.0</ele><time>2026-04-10T13:39:55.002Z</time></trkpt><trkpt lat="45.09502223612834" lon="8.327345897872767"><ele>164.0</ele><time>2026-04-10T13:39:56.002Z</time></trkpt><trkpt lat="45.09508593706557" lon="8.327380897353155"><ele>164.0</ele><time>2026-04-10T13:39:57.002Z</time></trkpt><trkpt lat="45.095148438522905" lon="8.327415932583847"><ele>163.99999999999997</ele><time>2026-04-10T13:39:58.002Z</time></trkpt><trkpt lat="45.09521159620207" lon="8.327454598389828"><ele>164.0</ele><time>2026-04-10T13:39:59.002Z</time></trkpt><trkpt lat="45.095276447185064" lon="8.327488578280791"><ele>163.85714285714283</ele><time>2026-04-10T13:40:00.002Z</time></trkpt><trkpt lat="45.095339483882015" lon="8.327523030010413"><ele>163.71428571428572</ele><time>2026-04-10T13:40:01.002Z</time></trkpt><trkpt lat="45.09540503683636" lon="8.327555473562349"><ele>163.57142857142856</ele><time>2026-04-10T13:40:02.002Z</time></trkpt><trkpt lat="45.09546619771392" lon="8.327586457171595"><ele>163.42857142857142</ele><time>2026-04-10T13:40:03.002Z</time></trkpt><trkpt lat="45.09552670217206" lon="8.327623203202087"><ele>163.28571428571428</ele><time>2026-04-10T13:40:04.002Z</time></trkpt><trkpt lat="45.09559139868045" lon="8.327639093405473"><ele>163.14285714285714</ele><time>2026-04-10T13:40:05.002Z</time></trkpt><trkpt lat="45.095654758532795" lon="8.327651934062493"><ele>163.0</ele><time>2026-04-10T13:40:06.002Z</time></trkpt><trkpt lat="45.09571841004665" lon="8.327665837974399"><ele>162.85714285714286</ele><time>2026-04-10T13:40:07.002Z</time></trkpt><trkpt lat="45.09578155962835" lon="8.327677872097334"><ele>162.7142857142857</ele><time>2026-04-10T13:40:08.002Z</time></trkpt><trkpt lat="45.09590113363406" lon="8.327690119778948"><ele>162.57142857142856</ele><time>2026-04-10T13:40:10.002Z</time></trkpt><trkpt lat="45.095964742057255" lon="8.327679765488579"><ele>162.42857142857144</ele><time>2026-04-10T13:40:11.002Z</time></trkpt><trkpt lat="45.09602751616284" lon="8.327650190672772"><ele>162.28571428571428</ele><time>2026-04-10T13:40:12.002Z</time></trkpt><trkpt lat="45.09608874040865" lon="8.327608940281852"><ele>162.14285714285714</ele><time>2026-04-10T13:40:13.002Z</time></trkpt><trkpt lat="45.0961494337155" lon="8.327574080544927"><ele>162.0</ele><time>2026-04-10T13:40:14.002Z</time></trkpt><trkpt lat="45.096266391305434" lon="8.327501469279198"><ele>162.0</ele><time>2026-04-10T13:40:16.002Z</time></trkpt><trkpt lat="45.09632604167181" lon="8.327459666709233"><ele>162.0</ele><time>2026-04-10T13:40:17.002Z</time></trkpt><trkpt lat="45.096382358178886" lon="8.327411664554655"><ele>162.0</ele><time>2026-04-10T13:40:18.002Z</time></trkpt><trkpt lat="45.09643520820145" lon="8.327359184566687"><ele>162.0</ele><time>2026-04-10T13:40:19.003Z</time></trkpt><trkpt lat="45.09648939322217" lon="8.327308607729526"><ele>162.0</ele><time>2026-04-10T13:40:20.003Z</time></trkpt><trkpt lat="45.0965404024749" lon="8.327254888840166"><ele>162.0</ele><time>2026-04-10T13:40:21.003Z</time></trkpt><trkpt lat="45.09659171700854" lon="8.3272000408808"><ele>162.0</ele><time>2026-04-10T13:40:22.003Z</time></trkpt><trkpt lat="45.096696960143184" lon="8.327095117455839"><ele>161.66666666666666</ele><time>2026-04-10T13:40:24.003Z</time></trkpt><trkpt lat="45.09675187265285" lon="8.327047189278517"><ele>161.33333333333334</ele><time>2026-04-10T13:40:25.003Z</time></trkpt><trkpt lat="45.096805691312156" lon="8.326994746525578"><ele>161.0</ele><time>2026-04-10T13:40:26.003Z</time></trkpt><trkpt lat="45.09685797843561" lon="8.326943074480196"><ele>160.66666666666669</ele><time>2026-04-10T13:40:27.003Z</time></trkpt><trkpt lat="45.0969104957693" lon="8.32689164685542"><ele>160.33333333333334</ele><time>2026-04-10T13:40:28.003Z</time></trkpt><trkpt lat="45.09701378562113" lon="8.326787148811524"><ele>160.0</ele><time>2026-04-10T13:40:30.003Z</time></trkpt><trkpt lat="45.09706650998552" lon="8.326732596142977"><ele>160.0</ele><time>2026-04-10T13:40:31.003Z</time></trkpt><trkpt lat="45.09712068495366" lon="8.326681217789114"><ele>160.0</ele><time>2026-04-10T13:40:32.003Z</time></trkpt><trkpt lat="45.09717315316802" lon="8.326631660097979"><ele>160.0</ele><time>2026-04-10T13:40:33.003Z</time></trkpt><trkpt lat="45.097225664258005" lon="8.326579165188765"><ele>160.0</ele><time>2026-04-10T13:40:34.003Z</time></trkpt><trkpt lat="45.097278117482695" lon="8.326527938140792"><ele>160.0</ele><time>2026-04-10T13:40:35.003Z</time></trkpt><trkpt lat="45.097327952775046" lon="8.326471466583435"><ele>160.0</ele><time>2026-04-10T13:40:36.003Z</time></trkpt><trkpt lat="45.09738456529908" lon="8.326429312576394"><ele>160.0</ele><time>2026-04-10T13:40:37.003Z</time></trkpt><trkpt lat="45.09743368156668" lon="8.326369279859202"><ele>160.0</ele><time>2026-04-10T13:40:38.003Z</time></trkpt><trkpt lat="45.0975432583806" lon="8.326277636513218"><ele>160.0</ele><time>2026-04-10T13:40:40.003Z</time></trkpt><trkpt lat="45.097599798950945" lon="8.326231414947024"><ele>160.0</ele><time>2026-04-10T13:40:41.003Z</time></trkpt><trkpt lat="45.09765680558415" lon="8.32618233727672"><ele>160.0</ele><time>2026-04-10T13:40:42.003Z</time></trkpt><trkpt lat="45.09771206210158" lon="8.326131569647522"><ele>160.0</ele><time>2026-04-10T13:40:43.003Z</time></trkpt><trkpt lat="45.09776635796559" lon="8.326079245947199"><ele>160.0</ele><time>2026-04-10T13:40:44.003Z</time></trkpt><trkpt lat="45.09781944746122" lon="8.326021007373683"><ele>160.0</ele><time>2026-04-10T13:40:45.003Z</time></trkpt><trkpt lat="45.09787536780829" lon="8.325965740585984"><ele>160.0</ele><time>2026-04-10T13:40:45.998Z</time></trkpt><trkpt lat="45.097932628862914" lon="8.325908985441352"><ele>160.0</ele><time>2026-04-10T13:40:46.999Z</time></trkpt><trkpt lat="45.09799234314468" lon="8.325852716056534"><ele>160.0</ele><time>2026-04-10T13:40:47.999Z</time></trkpt><trkpt lat="45.09804765088315" lon="8.325793735161604"><ele>160.0</ele><time>2026-04-10T13:40:48.999Z</time></trkpt><trkpt lat="45.09810324941354" lon="8.32573478932352"><ele>160.0</ele><time>2026-04-10T13:40:49.999Z</time></trkpt><trkpt lat="45.09816003857249" lon="8.32567475311933"><ele>160.0</ele><time>2026-04-10T13:40:50.999Z</time></trkpt><trkpt lat="45.09821839089751" lon="8.325618263878297"><ele>160.0</ele><time>2026-04-10T13:40:51.999Z</time></trkpt><trkpt lat="45.09827481779175" lon="8.325560057907"><ele>160.0</ele><time>2026-04-10T13:40:52.999Z</time></trkpt><trkpt lat="45.09833327667878" lon="8.325503173608887"><ele>159.42857142857142</ele><time>2026-04-10T13:40:53.999Z</time></trkpt><trkpt lat="45.098390751344084" lon="8.3254487135754"><ele>158.85714285714286</ele><time>2026-04-10T13:40:54.999Z</time></trkpt><trkpt lat="45.09844924062931" lon="8.32538788010592"><ele>158.28571428571428</ele><time>2026-04-10T13:40:55.999Z</time></trkpt><trkpt lat="45.09850838730516" lon="8.325333590852189"><ele>157.71428571428572</ele><time>2026-04-10T13:40:56.999Z</time></trkpt><trkpt lat="45.09857040439185" lon="8.325279350925207"><ele>157.14285714285714</ele><time>2026-04-10T13:40:57.999Z</time></trkpt><trkpt lat="45.09862932451406" lon="8.32521707111423"><ele>156.57142857142858</ele><time>2026-04-10T13:40:58.999Z</time></trkpt><trkpt lat="45.09869115614444" lon="8.325155625636707"><ele>156.0</ele><time>2026-04-10T13:40:59.999Z</time></trkpt><trkpt lat="45.09875210540744" lon="8.325093435851104"><ele>156.0</ele><time>2026-04-10T13:41:00.999Z</time></trkpt><trkpt lat="45.098812993768846" lon="8.325034551521297"><ele>156.0</ele><time>2026-04-10T13:41:01.999Z</time></trkpt><trkpt lat="45.098874483639385" lon="8.324977904050508"><ele>156.0</ele><time>2026-04-10T13:41:03Z</time></trkpt><trkpt lat="45.09893887592281" lon="8.324918778625491"><ele>156.0</ele><time>2026-04-10T13:41:04Z</time></trkpt><trkpt lat="45.09899922847092" lon="8.324855457850477"><ele>156.0</ele><time>2026-04-10T13:41:05Z</time></trkpt><trkpt lat="45.09906113011329" lon="8.324791771140529"><ele>156.0</ele><time>2026-04-10T13:41:06Z</time></trkpt><trkpt lat="45.099121626421926" lon="8.324731288968703"><ele>156.0</ele><time>2026-04-10T13:41:07Z</time></trkpt><trkpt lat="45.09918381199963" lon="8.324673727627943"><ele>156.33333333333334</ele><time>2026-04-10T13:41:08Z</time></trkpt><trkpt lat="45.09924488147885" lon="8.324614780279715"><ele>156.66666666666666</ele><time>2026-04-10T13:41:09Z</time></trkpt><trkpt lat="45.09930786454497" lon="8.324557080109104"><ele>157.0</ele><time>2026-04-10T13:41:10Z</time></trkpt><trkpt lat="45.09936929220552" lon="8.324494189540138"><ele>157.33333333333331</ele><time>2026-04-10T13:41:11Z</time></trkpt><trkpt lat="45.09943290075335" lon="8.324435518438298"><ele>157.66666666666666</ele><time>2026-04-10T13:41:12Z</time></trkpt><trkpt lat="45.099495500134964" lon="8.324373718241793"><ele>158.0</ele><time>2026-04-10T13:41:13Z</time></trkpt><trkpt lat="45.09956140036832" lon="8.324312383194043"><ele>158.0</ele><time>2026-04-10T13:41:14Z</time></trkpt><trkpt lat="45.099626653561195" lon="8.324253996991091"><ele>158.0</ele><time>2026-04-10T13:41:15Z</time></trkpt><trkpt lat="45.099688815102965" lon="8.324191179113772"><ele>158.0</ele><time>2026-04-10T13:41:16Z</time></trkpt><trkpt lat="45.09975257644608" lon="8.324128105981435"><ele>158.0</ele><time>2026-04-10T13:41:17Z</time></trkpt><trkpt lat="45.099818720159654" lon="8.32406833810284"><ele>158.0</ele><time>2026-04-10T13:41:18Z</time></trkpt><trkpt lat="45.09988005037211" lon="8.324003772498873"><ele>158.0</ele><time>2026-04-10T13:41:19Z</time></trkpt><trkpt lat="45.09994329649094" lon="8.323942809206839"><ele>157.33333333333331</ele><time>2026-04-10T13:41:20Z</time></trkpt><trkpt lat="45.100010267222196" lon="8.323882678716304"><ele>156.66666666666666</ele><time>2026-04-10T13:41:21Z</time></trkpt><trkpt lat="45.100075185027414" lon="8.323821760513548"><ele>156.0</ele><time>2026-04-10T13:41:22Z</time></trkpt><trkpt lat="45.10014059370885" lon="8.32376050240223"><ele>155.33333333333334</ele><time>2026-04-10T13:41:23.001Z</time></trkpt><trkpt lat="45.10020381379351" lon="8.323696991886749"><ele>154.66666666666669</ele><time>2026-04-10T13:41:24.001Z</time></trkpt><trkpt lat="45.100262180568166" lon="8.323627933400358"><ele>154.0</ele><time>2026-04-10T13:41:25.001Z</time></trkpt><trkpt lat="45.10032023474585" lon="8.323557365665796"><ele>154.0</ele><time>2026-04-10T13:41:26.001Z</time></trkpt><trkpt lat="45.10037823686419" lon="8.3234862970597"><ele>154.0</ele><time>2026-04-10T13:41:27.001Z</time></trkpt><trkpt lat="45.10043780760881" lon="8.32341604745317"><ele>154.0</ele><time>2026-04-10T13:41:28.001Z</time></trkpt><trkpt lat="45.10049524404578" lon="8.323342217921516"><ele>154.0</ele><time>2026-04-10T13:41:29.001Z</time></trkpt><trkpt lat="45.100554304999996" lon="8.323270894317021"><ele>154.0</ele><time>2026-04-10T13:41:30.001Z</time></trkpt><trkpt lat="45.10061160501675" lon="8.323197404665093"><ele>154.0</ele><time>2026-04-10T13:41:31.001Z</time></trkpt><trkpt lat="45.100662194787084" lon="8.323120465874391"><ele>153.85714285714286</ele><time>2026-04-10T13:41:32.001Z</time></trkpt><trkpt lat="45.100711100436214" lon="8.323046753846327"><ele>153.71428571428572</ele><time>2026-04-10T13:41:33.001Z</time></trkpt><trkpt lat="45.10076247968125" lon="8.322978798763048"><ele>153.57142857142856</ele><time>2026-04-10T13:41:34.001Z</time></trkpt><trkpt lat="45.10081314055449" lon="8.322909788112488"><ele>153.42857142857144</ele><time>2026-04-10T13:41:35.001Z</time></trkpt><trkpt lat="45.10086459136227" lon="8.322845105713597"><ele>153.28571428571428</ele><time>2026-04-10T13:41:36.001Z</time></trkpt><trkpt lat="45.10091479039411" lon="8.32278070532776"><ele>153.14285714285714</ele><time>2026-04-10T13:41:37.001Z</time></trkpt><trkpt lat="45.100961704476774" lon="8.322715641088235"><ele>153.0</ele><time>2026-04-10T13:41:38.001Z</time></trkpt><trkpt lat="45.10100866258619" lon="8.322653220890995"><ele>153.0</ele><time>2026-04-10T13:41:39.001Z</time></trkpt><trkpt lat="45.10105971581574" lon="8.322596472159006"><ele>153.0</ele><time>2026-04-10T13:41:40.001Z</time></trkpt><trkpt lat="45.101157701683476" lon="8.322484366856246"><ele>153.0</ele><time>2026-04-10T13:41:42.001Z</time></trkpt><trkpt lat="45.101253664421336" lon="8.322379147855443"><ele>153.0</ele><time>2026-04-10T13:41:44.001Z</time></trkpt><trkpt lat="45.10135069025122" lon="8.32227893015311"><ele>153.0</ele><time>2026-04-10T13:41:46.001Z</time></trkpt><trkpt lat="45.101405056363554" lon="8.32222411963848"><ele>152.42857142857142</ele><time>2026-04-10T13:41:47.001Z</time></trkpt><trkpt lat="45.10146057851675" lon="8.322164600399129"><ele>151.85714285714286</ele><time>2026-04-10T13:41:48.001Z</time></trkpt><trkpt lat="45.10151956671359" lon="8.322114890257184"><ele>151.28571428571428</ele><time>2026-04-10T13:41:49.001Z</time></trkpt><trkpt lat="45.101576823637934" lon="8.322057728344278"><ele>150.71428571428572</ele><time>2026-04-10T13:41:50.001Z</time></trkpt><trkpt lat="45.101634126981544" lon="8.321999848687534"><ele>150.14285714285714</ele><time>2026-04-10T13:41:51.002Z</time></trkpt><trkpt lat="45.101697330937085" lon="8.321948344207026"><ele>149.57142857142856</ele><time>2026-04-10T13:41:52.002Z</time></trkpt><trkpt lat="45.10175776754614" lon="8.321893744535979"><ele>149.0</ele><time>2026-04-10T13:41:53.002Z</time></trkpt><trkpt lat="45.1018183914075" lon="8.321837464181094"><ele>149.0</ele><time>2026-04-10T13:41:54.002Z</time></trkpt><trkpt lat="45.101879740826625" lon="8.32178129554654"><ele>149.0</ele><time>2026-04-10T13:41:55.002Z</time></trkpt><trkpt lat="45.101941921581684" lon="8.32172914030159"><ele>149.0</ele><time>2026-04-10T13:41:56.002Z</time></trkpt><trkpt lat="45.1020029086579" lon="8.321679463980809"><ele>149.0</ele><time>2026-04-10T13:41:57.002Z</time></trkpt><trkpt lat="45.10206669944964" lon="8.321632413742932"><ele>149.0</ele><time>2026-04-10T13:41:58.002Z</time></trkpt><trkpt lat="45.102130392590034" lon="8.321580900611417"><ele>149.0</ele><time>2026-04-10T13:41:59.002Z</time></trkpt><trkpt lat="45.10219129050902" lon="8.321525419863598"><ele>149.0</ele><time>2026-04-10T13:42:00.002Z</time></trkpt><trkpt lat="45.10225384445114" lon="8.321469877522018"><ele>149.0</ele><time>2026-04-10T13:42:01.002Z</time></trkpt><trkpt lat="45.10231683630509" lon="8.32141715833984"><ele>149.0</ele><time>2026-04-10T13:42:02.002Z</time></trkpt><trkpt lat="45.10238126931958" lon="8.321366784302244"><ele>149.0</ele><time>2026-04-10T13:42:03.002Z</time></trkpt><trkpt lat="45.102442711316684" lon="8.321312780200591"><ele>149.0</ele><time>2026-04-10T13:42:04.002Z</time></trkpt><trkpt lat="45.10250266954772" lon="8.321258080211543"><ele>149.0</ele><time>2026-04-10T13:42:05.002Z</time></trkpt><trkpt lat="45.10256033376621" lon="8.321205572776742"><ele>149.0</ele><time>2026-04-10T13:42:06.002Z</time></trkpt><trkpt lat="45.10262271694817" lon="8.321156758384994"><ele>149.0</ele><time>2026-04-10T13:42:07.002Z</time></trkpt><trkpt lat="45.10268127244401" lon="8.321108153524303"><ele>149.0</ele><time>2026-04-10T13:42:08.002Z</time></trkpt><trkpt lat="45.102740260204904" lon="8.321054715504292"><ele>149.0</ele><time>2026-04-10T13:42:09.002Z</time></trkpt><trkpt lat="45.10279771962841" lon="8.32100336385395"><ele>149.0</ele><time>2026-04-10T13:42:10.002Z</time></trkpt><trkpt lat="45.102854052338216" lon="8.320950319667364"><ele>149.0</ele><time>2026-04-10T13:42:11.002Z</time></trkpt><trkpt lat="45.10291206172654" lon="8.320900848386813"><ele>149.0</ele><time>2026-04-10T13:42:12.002Z</time></trkpt><trkpt lat="45.10297127711652" lon="8.320858751645904"><ele>149.0</ele><time>2026-04-10T13:42:13.002Z</time></trkpt><trkpt lat="45.103029800002304" lon="8.320809253533342"><ele>149.0</ele><time>2026-04-10T13:42:14.002Z</time></trkpt><trkpt lat="45.10308485516834" lon="8.320759288457243"><ele>149.0</ele><time>2026-04-10T13:42:15.002Z</time></trkpt><trkpt lat="45.103139760513564" lon="8.320710481692997"><ele>149.0</ele><time>2026-04-10T13:42:16.002Z</time></trkpt><trkpt lat="45.10319606123772" lon="8.320664283781001"><ele>149.0</ele><time>2026-04-10T13:42:17.002Z</time></trkpt><trkpt lat="45.10325052166225" lon="8.32061862591579"><ele>149.0</ele><time>2026-04-10T13:42:18.002Z</time></trkpt><trkpt lat="45.10330507894599" lon="8.320568435310175"><ele>149.0</ele><time>2026-04-10T13:42:19.002Z</time></trkpt><trkpt lat="45.10341087776892" lon="8.320480158839105"><ele>149.0</ele><time>2026-04-10T13:42:21.002Z</time></trkpt><trkpt lat="45.10351703742611" lon="8.320393186966896"><ele>148.25</ele><time>2026-04-10T13:42:23.002Z</time></trkpt><trkpt lat="45.10362108147793" lon="8.32030903146607"><ele>147.5</ele><time>2026-04-10T13:42:25.003Z</time></trkpt><trkpt lat="45.10371971986721" lon="8.320220244148263"><ele>146.75</ele><time>2026-04-10T13:42:27.003Z</time></trkpt><trkpt lat="45.10381889096457" lon="8.320131088835934"><ele>146.0</ele><time>2026-04-10T13:42:29.003Z</time></trkpt><trkpt lat="45.10392103017311" lon="8.320044969199126"><ele>146.0</ele><time>2026-04-10T13:42:31.003Z</time></trkpt><trkpt lat="45.10402916370345" lon="8.319962190955208"><ele>146.0</ele><time>2026-04-10T13:42:33.003Z</time></trkpt><trkpt lat="45.10413274150073" lon="8.319864637849797"><ele>146.0</ele><time>2026-04-10T13:42:35.003Z</time></trkpt><trkpt lat="45.10419120286974" lon="8.319826464215291"><ele>146.0</ele><time>2026-04-10T13:42:36.003Z</time></trkpt><trkpt lat="45.104243491483714" lon="8.319773405483316"><ele>146.0</ele><time>2026-04-10T13:42:37.003Z</time></trkpt><trkpt lat="45.104293029936684" lon="8.319714415228319"><ele>146.0</ele><time>2026-04-10T13:42:38.003Z</time></trkpt><trkpt lat="45.104348559055026" lon="8.319667873503294"><ele>145.42857142857142</ele><time>2026-04-10T13:42:39.003Z</time></trkpt><trkpt lat="45.10440519215608" lon="8.319625644184208"><ele>144.85714285714286</ele><time>2026-04-10T13:42:40.003Z</time></trkpt><trkpt lat="45.10446261104645" lon="8.319579484461297"><ele>144.28571428571428</ele><time>2026-04-10T13:42:41.003Z</time></trkpt><trkpt lat="45.10452029631169" lon="8.319528979242559"><ele>143.71428571428572</ele><time>2026-04-10T13:42:42.003Z</time></trkpt><trkpt lat="45.10458079349882" lon="8.319480408867717"><ele>143.14285714285714</ele><time>2026-04-10T13:42:43.003Z</time></trkpt><trkpt lat="45.10463883160254" lon="8.319429241322498"><ele>142.57142857142856</ele><time>2026-04-10T13:42:44.003Z</time></trkpt><trkpt lat="45.10469348441107" lon="8.319378746464094"><ele>142.0</ele><time>2026-04-10T13:42:45.003Z</time></trkpt><trkpt lat="45.1047508406043" lon="8.319337299142349"><ele>142.0</ele><time>2026-04-10T13:42:46.003Z</time></trkpt><trkpt lat="45.10484768647296" lon="8.319269933293684"><ele>142.0</ele><time>2026-04-10T13:42:48.003Z</time></trkpt><trkpt lat="45.10493410066112" lon="8.319216834635222"><ele>142.0</ele><time>2026-04-10T13:42:50.003Z</time></trkpt><trkpt lat="45.10499627251988" lon="8.319176539226863"><ele>142.0</ele><time>2026-04-10T13:42:51.999Z</time></trkpt><trkpt lat="45.10497998556604" lon="8.318962804699865"><ele>142.0</ele><time>2026-04-10T13:42:53.999Z</time></trkpt><trkpt lat="45.10497605072596" lon="8.31887341031649"><ele>142.0</ele><time>2026-04-10T13:42:54.999Z</time></trkpt><trkpt lat="45.10494332057488" lon="8.318719181819558"><ele>142.0</ele><time>2026-04-10T13:42:56.999Z</time></trkpt><trkpt lat="45.10491563076273" lon="8.318588700118884"><ele>142.0</ele><time>2026-04-10T13:42:58.999Z</time></trkpt><trkpt lat="45.104772953305236" lon="8.31856107650675"><ele>142.0</ele><time>2026-04-10T13:42:59.999Z</time></trkpt><trkpt lat="45.104692254481556" lon="8.318483351669965"><ele>142.0</ele><time>2026-04-10T13:43:01.999Z</time></trkpt><trkpt lat="45.10462284207926" lon="8.318416497245774"><ele>142.0</ele><time>2026-04-10T13:43:03.999Z</time></trkpt><trkpt lat="45.10456043137987" lon="8.318356386437513"><ele>142.0</ele><time>2026-04-10T13:43:05.999Z</time></trkpt><trkpt lat="45.10448503146818" lon="8.318282480635043"><ele>142.0</ele><time>2026-04-10T13:43:07.999Z</time></trkpt><trkpt lat="45.10440960093147" lon="8.318208698794727"><ele>142.0</ele><time>2026-04-10T13:43:10Z</time></trkpt><trkpt lat="45.10432732598697" lon="8.318128222119118"><ele>142.0</ele><time>2026-04-10T13:43:12Z</time></trkpt><trkpt lat="45.104252768496075" lon="8.318055294206001"><ele>142.0</ele><time>2026-04-10T13:43:14Z</time></trkpt><trkpt lat="45.10415178502771" lon="8.317984631645581"><ele>142.0</ele><time>2026-04-10T13:43:16Z</time></trkpt><trkpt lat="45.10407475022664" lon="8.31789486881434"><ele>142.0</ele><time>2026-04-10T13:43:18Z</time></trkpt><trkpt lat="45.1039967923865" lon="8.317827613735558"><ele>142.0</ele><time>2026-04-10T13:43:20Z</time></trkpt><trkpt lat="45.10392445324795" lon="8.317731156785852"><ele>142.0</ele><time>2026-04-10T13:43:22Z</time></trkpt><trkpt lat="45.10384585007714" lon="8.317651731406322"><ele>143.16666666666669</ele><time>2026-04-10T13:43:24Z</time></trkpt><trkpt lat="45.10376814227165" lon="8.317573023882627"><ele>144.33333333333334</ele><time>2026-04-10T13:43:26Z</time></trkpt><trkpt lat="45.10369648295714" lon="8.317507330648365"><ele>145.5</ele><time>2026-04-10T13:43:28Z</time></trkpt><trkpt lat="45.10361405522557" lon="8.317434568521314"><ele>146.66666666666666</ele><time>2026-04-10T13:43:30.001Z</time></trkpt><trkpt lat="45.103536738134345" lon="8.317379486845361"><ele>147.83333333333331</ele><time>2026-04-10T13:43:32.001Z</time></trkpt><trkpt lat="45.10346927865747" lon="8.317347001386938"><ele>149.0</ele><time>2026-04-10T13:43:34.001Z</time></trkpt><trkpt lat="45.103381983348626" lon="8.317314225872668"><ele>149.0</ele><time>2026-04-10T13:43:36.001Z</time></trkpt><trkpt lat="45.10328783131463" lon="8.317285540575046"><ele>149.0</ele><time>2026-04-10T13:43:38.001Z</time></trkpt><trkpt lat="45.103197829381976" lon="8.317258350549574"><ele>149.0</ele><time>2026-04-10T13:43:40.001Z</time></trkpt><trkpt lat="45.10312176778766" lon="8.317235371964555"><ele>149.0</ele><time>2026-04-10T13:43:42.001Z</time></trkpt><trkpt lat="45.10301773927834" lon="8.317415670675077"><ele>149.0</ele><time>2026-04-10T13:43:45.001Z</time></trkpt><trkpt lat="45.10313248453058" lon="8.317599621005199"><ele>151.0</ele><time>2026-04-10T13:43:49.001Z</time></trkpt><trkpt lat="45.10320381580506" lon="8.317625474626206"><ele>151.0</ele><time>2026-04-10T13:43:52.001Z</time></trkpt><trkpt lat="45.103272053409555" lon="8.317652143220911"><ele>149.0</ele><time>2026-04-10T13:43:55.001Z</time></trkpt></trkseg></trk></gpx>